<?xml version="1.0" encoding="UTF-8" standalone="no" ?>
<gpx xmlns="http://www.topografix.com/GPX/1/1" xmlns:xsi="http://www.w3.org/2001/XMLSchema-instance" xsi:schemaLocation="http://www.topografix.com/GPX/1/1 http://www.topografix.com/GPX/1/1/gpx.xsd" version="1.1" creator="VisuGPX - https://www.visugpx.com">
  <metadata>
    <name>Des Mouettes aux Cigales 2021</name>
  </metadata>
  <trk>
    <name><![CDATA[Étape 13 : Avignon - Peyrolles-en-Provence]]></name>
    <extensions>
      <line xmlns="http://www.topografix.com/GPX/gpx_style/0/2">
        <color>00FF00</color>
        <width>4</width>
      </line>
    </extensions>
    <trkseg>
      <trkpt lat="43.9435" lon="4.81294">
        <ele>22.428552</ele>
        <time>2021-09-17T05:46:30.000Z</time>
      </trkpt>
      <trkpt lat="43.94351" lon="4.81297">
        <ele>22.428552</ele>
        <time>2021-09-17T05:47:16.000Z</time>
      </trkpt>
      <trkpt lat="43.94355" lon="4.81319">
        <ele>22.428552</ele>
        <time>2021-09-17T05:47:22.000Z</time>
      </trkpt>
      <trkpt lat="43.94358" lon="4.8133">
        <ele>22.428552</ele>
        <time>2021-09-17T05:47:26.000Z</time>
      </trkpt>
      <trkpt lat="43.94359" lon="4.81335">
        <ele>22.428552</ele>
        <time>2021-09-17T05:47:49.000Z</time>
      </trkpt>
      <trkpt lat="43.94361" lon="4.81343">
        <ele>22.428552</ele>
        <time>2021-09-17T05:47:51.000Z</time>
      </trkpt>
      <trkpt lat="43.94366" lon="4.81366">
        <ele>22.428552</ele>
        <time>2021-09-17T05:47:57.000Z</time>
      </trkpt>
      <trkpt lat="43.9437" lon="4.81388">
        <ele>22.428552</ele>
        <time>2021-09-17T05:48:03.000Z</time>
      </trkpt>
      <trkpt lat="43.94376" lon="4.81414">
        <ele>22.424089</ele>
        <time>2021-09-17T05:48:10.000Z</time>
      </trkpt>
      <trkpt lat="43.94383" lon="4.81445">
        <ele>22.209914</ele>
        <time>2021-09-17T05:48:17.000Z</time>
      </trkpt>
      <trkpt lat="43.94391" lon="4.81482">
        <ele>21.950946</ele>
        <time>2021-09-17T05:48:24.000Z</time>
      </trkpt>
      <trkpt lat="43.94393" lon="4.8149">
        <ele>21.896458</ele>
        <time>2021-09-17T05:48:26.000Z</time>
      </trkpt>
      <trkpt lat="43.94393" lon="4.8149">
        <ele>21.894179</ele>
        <time>2021-09-17T05:48:27.000Z</time>
      </trkpt>
      <trkpt lat="43.94373" lon="4.81514">
        <ele>21.655316</ele>
        <time>2021-09-17T05:48:34.000Z</time>
      </trkpt>
      <trkpt lat="43.94348" lon="4.81535">
        <ele>21.384168</ele>
        <time>2021-09-17T05:48:44.000Z</time>
      </trkpt>
      <trkpt lat="43.9432" lon="4.81562">
        <ele>21.067507</ele>
        <time>2021-09-17T05:48:52.000Z</time>
      </trkpt>
      <trkpt lat="43.94301" lon="4.81581">
        <ele>20.850708</ele>
        <time>2021-09-17T05:49:00.000Z</time>
      </trkpt>
      <trkpt lat="43.94289" lon="4.81593">
        <ele>20.745815</ele>
        <time>2021-09-17T05:49:06.000Z</time>
      </trkpt>
      <trkpt lat="43.94266" lon="4.81614">
        <ele>20.656228</ele>
        <time>2021-09-17T05:49:13.000Z</time>
      </trkpt>
      <trkpt lat="43.94248" lon="4.81633">
        <ele>20.580247</ele>
        <time>2021-09-17T05:49:20.000Z</time>
      </trkpt>
      <trkpt lat="43.94239" lon="4.81641">
        <ele>20.543616</ele>
        <time>2021-09-17T05:49:25.000Z</time>
      </trkpt>
      <trkpt lat="43.94236" lon="4.81643">
        <ele>20.534745</ele>
        <time>2021-09-17T05:49:29.000Z</time>
      </trkpt>
      <trkpt lat="43.94234" lon="4.81645">
        <ele>20.526971</ele>
        <time>2021-09-17T05:49:53.000Z</time>
      </trkpt>
      <trkpt lat="43.94224" lon="4.81655">
        <ele>20.484217</ele>
        <time>2021-09-17T05:49:58.000Z</time>
      </trkpt>
      <trkpt lat="43.94211" lon="4.81668">
        <ele>20.430972</ele>
        <time>2021-09-17T05:50:01.000Z</time>
      </trkpt>
      <trkpt lat="43.94207" lon="4.81671">
        <ele>20.417469</ele>
        <time>2021-09-17T05:50:03.000Z</time>
      </trkpt>
      <trkpt lat="43.94189" lon="4.81694">
        <ele>20.335291</ele>
        <time>2021-09-17T05:50:08.000Z</time>
      </trkpt>
      <trkpt lat="43.94186" lon="4.81698">
        <ele>20.321888</ele>
        <time>2021-09-17T05:50:10.000Z</time>
      </trkpt>
      <trkpt lat="43.94174" lon="4.81719">
        <ele>20.25737</ele>
        <time>2021-09-17T05:50:15.000Z</time>
      </trkpt>
      <trkpt lat="43.94156" lon="4.81746">
        <ele>20.17141</ele>
        <time>2021-09-17T05:50:21.000Z</time>
      </trkpt>
      <trkpt lat="43.94146" lon="4.8176">
        <ele>19.543566</ele>
        <time>2021-09-17T05:50:25.000Z</time>
      </trkpt>
      <trkpt lat="43.94146" lon="4.8176">
        <ele>19.543566</ele>
        <time>2021-09-17T05:50:26.000Z</time>
      </trkpt>
      <trkpt lat="43.94135" lon="4.81778">
        <ele>18.758778</ele>
        <time>2021-09-17T05:50:30.000Z</time>
      </trkpt>
      <trkpt lat="43.94124" lon="4.81797">
        <ele>17.96812</ele>
        <time>2021-09-17T05:50:35.000Z</time>
      </trkpt>
      <trkpt lat="43.94116" lon="4.8181">
        <ele>17.396431</ele>
        <time>2021-09-17T05:50:38.000Z</time>
      </trkpt>
      <trkpt lat="43.9411" lon="4.81822">
        <ele>16.921131</ele>
        <time>2021-09-17T05:50:40.000Z</time>
      </trkpt>
      <trkpt lat="43.94097" lon="4.81844">
        <ele>15.99704</ele>
        <time>2021-09-17T05:50:45.000Z</time>
      </trkpt>
      <trkpt lat="43.94089" lon="4.8186">
        <ele>15.346248</ele>
        <time>2021-09-17T05:50:47.000Z</time>
      </trkpt>
      <trkpt lat="43.9408" lon="4.81875">
        <ele>14.708855</ele>
        <time>2021-09-17T05:50:50.000Z</time>
      </trkpt>
      <trkpt lat="43.94072" lon="4.81891">
        <ele>14.071461</ele>
        <time>2021-09-17T05:50:53.000Z</time>
      </trkpt>
      <trkpt lat="43.94069" lon="4.81897">
        <ele>13.839434</ele>
        <time>2021-09-17T05:50:54.000Z</time>
      </trkpt>
      <trkpt lat="43.94045" lon="4.81942">
        <ele>11.974925</ele>
        <time>2021-09-17T05:51:01.000Z</time>
      </trkpt>
      <trkpt lat="43.94028" lon="4.81971">
        <ele>11.701191</ele>
        <time>2021-09-17T05:51:06.000Z</time>
      </trkpt>
      <trkpt lat="43.94007" lon="4.82008">
        <ele>11.379236</ele>
        <time>2021-09-17T05:51:12.000Z</time>
      </trkpt>
      <trkpt lat="43.93981" lon="4.82052">
        <ele>10.979223</ele>
        <time>2021-09-17T05:51:20.000Z</time>
      </trkpt>
      <trkpt lat="43.93944" lon="4.82115">
        <ele>10.407355</ele>
        <time>2021-09-17T05:51:29.000Z</time>
      </trkpt>
      <trkpt lat="43.93936" lon="4.82128">
        <ele>10.289613</ele>
        <time>2021-09-17T05:51:31.000Z</time>
      </trkpt>
      <trkpt lat="43.93927" lon="4.82143">
        <ele>10.337256</ele>
        <time>2021-09-17T05:51:34.000Z</time>
      </trkpt>
      <trkpt lat="43.93909" lon="4.82173">
        <ele>10.838592</ele>
        <time>2021-09-17T05:51:40.000Z</time>
      </trkpt>
      <trkpt lat="43.93886" lon="4.8221">
        <ele>11.491358</ele>
        <time>2021-09-17T05:51:47.000Z</time>
      </trkpt>
      <trkpt lat="43.93863" lon="4.82248">
        <ele>12.155726</ele>
        <time>2021-09-17T05:51:55.000Z</time>
      </trkpt>
      <trkpt lat="43.93831" lon="4.82296">
        <ele>13.013594</ele>
        <time>2021-09-17T05:52:04.000Z</time>
      </trkpt>
      <trkpt lat="43.93793" lon="4.82352">
        <ele>14.007532</ele>
        <time>2021-09-17T05:52:14.000Z</time>
      </trkpt>
      <trkpt lat="43.93766" lon="4.82393">
        <ele>14.69892</ele>
        <time>2021-09-17T05:52:22.000Z</time>
      </trkpt>
      <trkpt lat="43.93743" lon="4.82431">
        <ele>15.326042</ele>
        <time>2021-09-17T05:52:30.000Z</time>
      </trkpt>
      <trkpt lat="43.93741" lon="4.82435">
        <ele>15.391272</ele>
        <time>2021-09-17T05:52:31.000Z</time>
      </trkpt>
      <trkpt lat="43.93737" lon="4.82445">
        <ele>15.537925</ele>
        <time>2021-09-17T05:52:33.000Z</time>
      </trkpt>
      <trkpt lat="43.93732" lon="4.82455">
        <ele>15.683529</ele>
        <time>2021-09-17T05:52:35.000Z</time>
      </trkpt>
      <trkpt lat="43.93726" lon="4.82468">
        <ele>15.878048</ele>
        <time>2021-09-17T05:52:38.000Z</time>
      </trkpt>
      <trkpt lat="43.93721" lon="4.82478">
        <ele>16.022607</ele>
        <time>2021-09-17T05:52:40.000Z</time>
      </trkpt>
      <trkpt lat="43.93719" lon="4.82483">
        <ele>16.098985</ele>
        <time>2021-09-17T05:52:41.000Z</time>
      </trkpt>
      <trkpt lat="43.93713" lon="4.82499">
        <ele>16.331804</ele>
        <time>2021-09-17T05:52:44.000Z</time>
      </trkpt>
      <trkpt lat="43.9371" lon="4.82511">
        <ele>16.486492</ele>
        <time>2021-09-17T05:52:46.000Z</time>
      </trkpt>
      <trkpt lat="43.93697" lon="4.82526">
        <ele>16.7093</ele>
        <time>2021-09-17T05:52:49.000Z</time>
      </trkpt>
      <trkpt lat="43.93688" lon="4.82526">
        <ele>16.78167</ele>
        <time>2021-09-17T05:52:51.000Z</time>
      </trkpt>
      <trkpt lat="43.93679" lon="4.82527">
        <ele>16.859873</ele>
        <time>2021-09-17T05:52:53.000Z</time>
      </trkpt>
      <trkpt lat="43.93674" lon="4.82528">
        <ele>16.901935</ele>
        <time>2021-09-17T05:52:54.000Z</time>
      </trkpt>
      <trkpt lat="43.93663" lon="4.82533">
        <ele>16.995693</ele>
        <time>2021-09-17T05:52:56.000Z</time>
      </trkpt>
      <trkpt lat="43.93633" lon="4.82574">
        <ele>17.337308</ele>
        <time>2021-09-17T05:53:03.000Z</time>
      </trkpt>
      <trkpt lat="43.93613" lon="4.82605">
        <ele>17.579613</ele>
        <time>2021-09-17T05:53:08.000Z</time>
      </trkpt>
      <trkpt lat="43.93601" lon="4.82622">
        <ele>17.720633</ele>
        <time>2021-09-17T05:53:11.000Z</time>
      </trkpt>
      <trkpt lat="43.93592" lon="4.82632">
        <ele>17.81173</ele>
        <time>2021-09-17T05:53:13.000Z</time>
      </trkpt>
      <trkpt lat="43.93588" lon="4.82638">
        <ele>17.857279</ele>
        <time>2021-09-17T05:53:14.000Z</time>
      </trkpt>
      <trkpt lat="43.93564" lon="4.82657">
        <ele>18.086784</ele>
        <time>2021-09-17T05:53:19.000Z</time>
      </trkpt>
      <trkpt lat="43.93559" lon="4.82661">
        <ele>18.117323</ele>
        <time>2021-09-17T05:53:20.000Z</time>
      </trkpt>
      <trkpt lat="43.93554" lon="4.82664">
        <ele>18.126303</ele>
        <time>2021-09-17T05:53:21.000Z</time>
      </trkpt>
      <trkpt lat="43.93532" lon="4.8268">
        <ele>18.167267</ele>
        <time>2021-09-17T05:53:25.000Z</time>
      </trkpt>
      <trkpt lat="43.93485" lon="4.8272">
        <ele>18.256987</ele>
        <time>2021-09-17T05:53:34.000Z</time>
      </trkpt>
      <trkpt lat="43.93444" lon="4.82757">
        <ele>18.335461</ele>
        <time>2021-09-17T05:53:42.000Z</time>
      </trkpt>
      <trkpt lat="43.93439" lon="4.82762">
        <ele>18.345167</ele>
        <time>2021-09-17T05:53:43.000Z</time>
      </trkpt>
      <trkpt lat="43.9343" lon="4.82771">
        <ele>18.364312</ele>
        <time>2021-09-17T05:53:45.000Z</time>
      </trkpt>
      <trkpt lat="43.93415" lon="4.82785">
        <ele>18.393631</ele>
        <time>2021-09-17T05:53:48.000Z</time>
      </trkpt>
      <trkpt lat="43.934" lon="4.82799">
        <ele>18.434985</ele>
        <time>2021-09-17T05:53:51.000Z</time>
      </trkpt>
      <trkpt lat="43.9338" lon="4.82816">
        <ele>18.499235</ele>
        <time>2021-09-17T05:53:55.000Z</time>
      </trkpt>
      <trkpt lat="43.93345" lon="4.82844">
        <ele>18.611389</ele>
        <time>2021-09-17T05:54:02.000Z</time>
      </trkpt>
      <trkpt lat="43.93308" lon="4.82869">
        <ele>18.72442</ele>
        <time>2021-09-17T05:54:09.000Z</time>
      </trkpt>
      <trkpt lat="43.93272" lon="4.82889">
        <ele>18.831827</ele>
        <time>2021-09-17T05:54:16.000Z</time>
      </trkpt>
      <trkpt lat="43.93243" lon="4.82903">
        <ele>18.927001</ele>
        <time>2021-09-17T05:54:22.000Z</time>
      </trkpt>
      <trkpt lat="43.93239" lon="4.82902">
        <ele>18.949165</ele>
        <time>2021-09-17T05:54:23.000Z</time>
      </trkpt>
      <trkpt lat="43.93217" lon="4.829">
        <ele>19.0754</ele>
        <time>2021-09-17T05:54:29.000Z</time>
      </trkpt>
      <trkpt lat="43.93201" lon="4.82895">
        <ele>19.162898</ele>
        <time>2021-09-17T05:54:34.000Z</time>
      </trkpt>
      <trkpt lat="43.93196" lon="4.82899">
        <ele>19.195855</ele>
        <time>2021-09-17T05:54:38.000Z</time>
      </trkpt>
      <trkpt lat="43.9319" lon="4.82904">
        <ele>19.234229</ele>
        <time>2021-09-17T05:54:40.000Z</time>
      </trkpt>
      <trkpt lat="43.93185" lon="4.82913">
        <ele>19.279772</ele>
        <time>2021-09-17T05:54:42.000Z</time>
      </trkpt>
      <trkpt lat="43.93183" lon="4.82925">
        <ele>19.330108</ele>
        <time>2021-09-17T05:54:44.000Z</time>
      </trkpt>
      <trkpt lat="43.93182" lon="4.82946">
        <ele>19.411821</ele>
        <time>2021-09-17T05:54:47.000Z</time>
      </trkpt>
      <trkpt lat="43.93176" lon="4.82952">
        <ele>19.453597</ele>
        <time>2021-09-17T05:54:49.000Z</time>
      </trkpt>
      <trkpt lat="43.93171" lon="4.82951">
        <ele>19.476343</ele>
        <time>2021-09-17T05:54:50.000Z</time>
      </trkpt>
      <trkpt lat="43.93167" lon="4.8295">
        <ele>19.501328</ele>
        <time>2021-09-17T05:54:51.000Z</time>
      </trkpt>
      <trkpt lat="43.93158" lon="4.82962">
        <ele>19.56771</ele>
        <time>2021-09-17T05:54:53.000Z</time>
      </trkpt>
      <trkpt lat="43.93151" lon="4.8297">
        <ele>19.61922</ele>
        <time>2021-09-17T05:54:55.000Z</time>
      </trkpt>
      <trkpt lat="43.9314" lon="4.82984">
        <ele>19.699678</ele>
        <time>2021-09-17T05:54:58.000Z</time>
      </trkpt>
      <trkpt lat="43.9311" lon="4.83019">
        <ele>19.90204</ele>
        <time>2021-09-17T05:55:06.000Z</time>
      </trkpt>
      <trkpt lat="43.93082" lon="4.83049">
        <ele>19.945408</ele>
        <time>2021-09-17T05:55:13.000Z</time>
      </trkpt>
      <trkpt lat="43.9307" lon="4.83062">
        <ele>19.964743</ele>
        <time>2021-09-17T05:55:16.000Z</time>
      </trkpt>
      <trkpt lat="43.93057" lon="4.83076">
        <ele>19.984833</ele>
        <time>2021-09-17T05:55:19.000Z</time>
      </trkpt>
      <trkpt lat="43.9304" lon="4.83095">
        <ele>20.010832</ele>
        <time>2021-09-17T05:55:23.000Z</time>
      </trkpt>
      <trkpt lat="43.93037" lon="4.831">
        <ele>20.017022</ele>
        <time>2021-09-17T05:55:24.000Z</time>
      </trkpt>
      <trkpt lat="43.93029" lon="4.83108">
        <ele>20.028833</ele>
        <time>2021-09-17T05:55:26.000Z</time>
      </trkpt>
      <trkpt lat="43.93028" lon="4.83126">
        <ele>20.044606</ele>
        <time>2021-09-17T05:55:28.000Z</time>
      </trkpt>
      <trkpt lat="43.92995" lon="4.83157">
        <ele>20.09358</ele>
        <time>2021-09-17T05:55:35.000Z</time>
      </trkpt>
      <trkpt lat="43.92964" lon="4.83197">
        <ele>19.963782</ele>
        <time>2021-09-17T05:55:42.000Z</time>
      </trkpt>
      <trkpt lat="43.92947" lon="4.83219">
        <ele>19.795776</ele>
        <time>2021-09-17T05:55:46.000Z</time>
      </trkpt>
      <trkpt lat="43.92938" lon="4.8323">
        <ele>19.711248</ele>
        <time>2021-09-17T05:55:48.000Z</time>
      </trkpt>
      <trkpt lat="43.92912" lon="4.83265">
        <ele>19.449753</ele>
        <time>2021-09-17T05:55:54.000Z</time>
      </trkpt>
      <trkpt lat="43.92877" lon="4.83314">
        <ele>19.09534</ele>
        <time>2021-09-17T05:56:02.000Z</time>
      </trkpt>
      <trkpt lat="43.92842" lon="4.83364">
        <ele>18.803924</ele>
        <time>2021-09-17T05:56:10.000Z</time>
      </trkpt>
      <trkpt lat="43.928" lon="4.83412">
        <ele>18.687831</ele>
        <time>2021-09-17T05:56:19.000Z</time>
      </trkpt>
      <trkpt lat="43.92758" lon="4.83457">
        <ele>18.575784</ele>
        <time>2021-09-17T05:56:27.000Z</time>
      </trkpt>
      <trkpt lat="43.9275" lon="4.83466">
        <ele>18.55265</ele>
        <time>2021-09-17T05:56:30.000Z</time>
      </trkpt>
      <trkpt lat="43.92733" lon="4.83487">
        <ele>18.504097</ele>
        <time>2021-09-17T05:56:34.000Z</time>
      </trkpt>
      <trkpt lat="43.92728" lon="4.83492">
        <ele>18.49271</ele>
        <time>2021-09-17T05:56:35.000Z</time>
      </trkpt>
      <trkpt lat="43.92724" lon="4.83497">
        <ele>18.481484</ele>
        <time>2021-09-17T05:56:36.000Z</time>
      </trkpt>
      <trkpt lat="43.92708" lon="4.8352">
        <ele>18.512994</ele>
        <time>2021-09-17T05:56:40.000Z</time>
      </trkpt>
      <trkpt lat="43.92683" lon="4.83572">
        <ele>18.835488</ele>
        <time>2021-09-17T05:56:47.000Z</time>
      </trkpt>
      <trkpt lat="43.92668" lon="4.83607">
        <ele>19.047481</ele>
        <time>2021-09-17T05:56:52.000Z</time>
      </trkpt>
      <trkpt lat="43.92662" lon="4.83622">
        <ele>19.135483</ele>
        <time>2021-09-17T05:56:54.000Z</time>
      </trkpt>
      <trkpt lat="43.92654" lon="4.83636">
        <ele>19.227759</ele>
        <time>2021-09-17T05:56:56.000Z</time>
      </trkpt>
      <trkpt lat="43.92641" lon="4.83654">
        <ele>19.358592</ele>
        <time>2021-09-17T05:56:59.000Z</time>
      </trkpt>
      <trkpt lat="43.92638" lon="4.83659">
        <ele>19.398667</ele>
        <time>2021-09-17T05:57:00.000Z</time>
      </trkpt>
      <trkpt lat="43.92628" lon="4.83677">
        <ele>19.516261</ele>
        <time>2021-09-17T05:57:03.000Z</time>
      </trkpt>
      <trkpt lat="43.92616" lon="4.83685">
        <ele>19.607428</ele>
        <time>2021-09-17T05:57:05.000Z</time>
      </trkpt>
      <trkpt lat="43.92582" lon="4.83718">
        <ele>19.892715</ele>
        <time>2021-09-17T05:57:12.000Z</time>
      </trkpt>
      <trkpt lat="43.92555" lon="4.83745">
        <ele>20.109193</ele>
        <time>2021-09-17T05:57:18.000Z</time>
      </trkpt>
      <trkpt lat="43.92531" lon="4.83769">
        <ele>20.299802</ele>
        <time>2021-09-17T05:57:23.000Z</time>
      </trkpt>
      <trkpt lat="43.92526" lon="4.83773">
        <ele>20.337343</ele>
        <time>2021-09-17T05:57:24.000Z</time>
      </trkpt>
      <trkpt lat="43.92497" lon="4.83803">
        <ele>20.567674</ele>
        <time>2021-09-17T05:57:30.000Z</time>
      </trkpt>
      <trkpt lat="43.92473" lon="4.83841">
        <ele>20.808624</ele>
        <time>2021-09-17T05:57:36.000Z</time>
      </trkpt>
      <trkpt lat="43.92464" lon="4.83864">
        <ele>20.933884</ele>
        <time>2021-09-17T05:57:39.000Z</time>
      </trkpt>
      <trkpt lat="43.92459" lon="4.83879">
        <ele>21.037066</ele>
        <time>2021-09-17T05:57:41.000Z</time>
      </trkpt>
      <trkpt lat="43.92448" lon="4.83918">
        <ele>21.301208</ele>
        <time>2021-09-17T05:57:46.000Z</time>
      </trkpt>
      <trkpt lat="43.92446" lon="4.83926">
        <ele>21.354305</ele>
        <time>2021-09-17T05:57:47.000Z</time>
      </trkpt>
      <trkpt lat="43.92444" lon="4.83934">
        <ele>21.406452</ele>
        <time>2021-09-17T05:57:48.000Z</time>
      </trkpt>
      <trkpt lat="43.92441" lon="4.8395">
        <ele>21.5141</ele>
        <time>2021-09-17T05:57:50.000Z</time>
      </trkpt>
      <trkpt lat="43.92439" lon="4.83958">
        <ele>21.567557</ele>
        <time>2021-09-17T05:57:51.000Z</time>
      </trkpt>
      <trkpt lat="43.92435" lon="4.83996">
        <ele>21.80664</ele>
        <time>2021-09-17T05:57:56.000Z</time>
      </trkpt>
      <trkpt lat="43.92434" lon="4.84002">
        <ele>21.848761</ele>
        <time>2021-09-17T05:57:57.000Z</time>
      </trkpt>
      <trkpt lat="43.92427" lon="4.84032">
        <ele>22.043364</ele>
        <time>2021-09-17T05:58:01.000Z</time>
      </trkpt>
      <trkpt lat="43.92421" lon="4.84046">
        <ele>22.148298</ele>
        <time>2021-09-17T05:58:03.000Z</time>
      </trkpt>
      <trkpt lat="43.92405" lon="4.84071">
        <ele>22.359593</ele>
        <time>2021-09-17T05:58:07.000Z</time>
      </trkpt>
      <trkpt lat="43.92372" lon="4.8412">
        <ele>22.661272</ele>
        <time>2021-09-17T05:58:15.000Z</time>
      </trkpt>
      <trkpt lat="43.92347" lon="4.84165">
        <ele>22.87954</ele>
        <time>2021-09-17T05:58:22.000Z</time>
      </trkpt>
      <trkpt lat="43.92329" lon="4.84194">
        <ele>23.022711</ele>
        <time>2021-09-17T05:58:27.000Z</time>
      </trkpt>
      <trkpt lat="43.92303" lon="4.84237">
        <ele>23.238123</ele>
        <time>2021-09-17T05:58:34.000Z</time>
      </trkpt>
      <trkpt lat="43.92299" lon="4.84243">
        <ele>23.267107</ele>
        <time>2021-09-17T05:58:35.000Z</time>
      </trkpt>
      <trkpt lat="43.92284" lon="4.84261">
        <ele>23.371796</ele>
        <time>2021-09-17T05:58:39.000Z</time>
      </trkpt>
      <trkpt lat="43.92277" lon="4.84267">
        <ele>23.415244</ele>
        <time>2021-09-17T05:58:41.000Z</time>
      </trkpt>
      <trkpt lat="43.92277" lon="4.84266">
        <ele>23.418489</ele>
        <time>2021-09-17T05:58:45.000Z</time>
      </trkpt>
      <trkpt lat="43.92285" lon="4.8426">
        <ele>23.46222</ele>
        <time>2021-09-17T05:58:49.000Z</time>
      </trkpt>
      <trkpt lat="43.9229" lon="4.84268">
        <ele>23.496492</ele>
        <time>2021-09-17T05:58:51.000Z</time>
      </trkpt>
      <trkpt lat="43.92289" lon="4.84271">
        <ele>23.505861</ele>
        <time>2021-09-17T05:58:52.000Z</time>
      </trkpt>
      <trkpt lat="43.92282" lon="4.84298">
        <ele>23.604347</ele>
        <time>2021-09-17T05:58:58.000Z</time>
      </trkpt>
      <trkpt lat="43.92276" lon="4.84321">
        <ele>23.689429</ele>
        <time>2021-09-17T05:59:02.000Z</time>
      </trkpt>
      <trkpt lat="43.92272" lon="4.84333">
        <ele>23.733832</ele>
        <time>2021-09-17T05:59:04.000Z</time>
      </trkpt>
      <trkpt lat="43.92259" lon="4.84349">
        <ele>23.816649</ele>
        <time>2021-09-17T05:59:06.000Z</time>
      </trkpt>
      <trkpt lat="43.92254" lon="4.84349">
        <ele>23.840059</ele>
        <time>2021-09-17T05:59:08.000Z</time>
      </trkpt>
      <trkpt lat="43.92233" lon="4.84354">
        <ele>23.941251</ele>
        <time>2021-09-17T05:59:11.000Z</time>
      </trkpt>
      <trkpt lat="43.92224" lon="4.84356">
        <ele>23.987259</ele>
        <time>2021-09-17T05:59:14.000Z</time>
      </trkpt>
      <trkpt lat="43.92209" lon="4.8436">
        <ele>24.057443</ele>
        <time>2021-09-17T05:59:16.000Z</time>
      </trkpt>
      <trkpt lat="43.92199" lon="4.84363">
        <ele>24.106804</ele>
        <time>2021-09-17T05:59:19.000Z</time>
      </trkpt>
      <trkpt lat="43.92191" lon="4.84369">
        <ele>24.152553</ele>
        <time>2021-09-17T05:59:20.000Z</time>
      </trkpt>
      <trkpt lat="43.92187" lon="4.84374">
        <ele>24.177301</ele>
        <time>2021-09-17T05:59:22.000Z</time>
      </trkpt>
      <trkpt lat="43.92183" lon="4.84379">
        <ele>24.202855</ele>
        <time>2021-09-17T05:59:23.000Z</time>
      </trkpt>
      <trkpt lat="43.92173" lon="4.84394">
        <ele>24.274154</ele>
        <time>2021-09-17T05:59:26.000Z</time>
      </trkpt>
      <trkpt lat="43.92164" lon="4.84411">
        <ele>24.278774</ele>
        <time>2021-09-17T05:59:29.000Z</time>
      </trkpt>
      <trkpt lat="43.92156" lon="4.8443">
        <ele>24.267324</ele>
        <time>2021-09-17T05:59:32.000Z</time>
      </trkpt>
      <trkpt lat="43.92145" lon="4.84453">
        <ele>24.252554</ele>
        <time>2021-09-17T05:59:36.000Z</time>
      </trkpt>
      <trkpt lat="43.92142" lon="4.84458">
        <ele>24.249467</ele>
        <time>2021-09-17T05:59:37.000Z</time>
      </trkpt>
      <trkpt lat="43.92139" lon="4.84462">
        <ele>24.246352</ele>
        <time>2021-09-17T05:59:38.000Z</time>
      </trkpt>
      <trkpt lat="43.92128" lon="4.84475">
        <ele>24.236189</ele>
        <time>2021-09-17T05:59:40.000Z</time>
      </trkpt>
      <trkpt lat="43.92128" lon="4.84475">
        <ele>24.236136</ele>
        <time>2021-09-17T05:59:41.000Z</time>
      </trkpt>
      <trkpt lat="43.92117" lon="4.84486">
        <ele>24.226094</ele>
        <time>2021-09-17T05:59:44.000Z</time>
      </trkpt>
      <trkpt lat="43.92105" lon="4.84494">
        <ele>24.21619</ele>
        <time>2021-09-17T05:59:47.000Z</time>
      </trkpt>
      <trkpt lat="43.921" lon="4.84496">
        <ele>24.212856</ele>
        <time>2021-09-17T05:59:48.000Z</time>
      </trkpt>
      <trkpt lat="43.92077" lon="4.84504">
        <ele>24.195734</ele>
        <time>2021-09-17T05:59:53.000Z</time>
      </trkpt>
      <trkpt lat="43.92065" lon="4.84506">
        <ele>24.186395</ele>
        <time>2021-09-17T05:59:56.000Z</time>
      </trkpt>
      <trkpt lat="43.92056" lon="4.84508">
        <ele>24.179924</ele>
        <time>2021-09-17T05:59:58.000Z</time>
      </trkpt>
      <trkpt lat="43.92037" lon="4.84515">
        <ele>24.165367</ele>
        <time>2021-09-17T06:00:03.000Z</time>
      </trkpt>
      <trkpt lat="43.92011" lon="4.8453">
        <ele>24.013337</ele>
        <time>2021-09-17T06:00:09.000Z</time>
      </trkpt>
      <trkpt lat="43.92006" lon="4.84533">
        <ele>23.968031</ele>
        <time>2021-09-17T06:00:10.000Z</time>
      </trkpt>
      <trkpt lat="43.91997" lon="4.8454">
        <ele>23.874745</ele>
        <time>2021-09-17T06:00:12.000Z</time>
      </trkpt>
      <trkpt lat="43.91987" lon="4.84546">
        <ele>23.78146</ele>
        <time>2021-09-17T06:00:14.000Z</time>
      </trkpt>
      <trkpt lat="43.91965" lon="4.8456">
        <ele>23.56755</ele>
        <time>2021-09-17T06:00:19.000Z</time>
      </trkpt>
      <trkpt lat="43.91935" lon="4.84581">
        <ele>23.268926</ele>
        <time>2021-09-17T06:00:25.000Z</time>
      </trkpt>
      <trkpt lat="43.91914" lon="4.84594">
        <ele>23.063863</ele>
        <time>2021-09-17T06:00:29.000Z</time>
      </trkpt>
      <trkpt lat="43.91905" lon="4.84603">
        <ele>22.964114</ele>
        <time>2021-09-17T06:00:31.000Z</time>
      </trkpt>
      <trkpt lat="43.91866" lon="4.84642">
        <ele>22.569799</ele>
        <time>2021-09-17T06:00:39.000Z</time>
      </trkpt>
      <trkpt lat="43.91861" lon="4.84647">
        <ele>22.584791</ele>
        <time>2021-09-17T06:00:40.000Z</time>
      </trkpt>
      <trkpt lat="43.91839" lon="4.84671">
        <ele>22.653958</ele>
        <time>2021-09-17T06:00:45.000Z</time>
      </trkpt>
      <trkpt lat="43.91806" lon="4.84686">
        <ele>22.741453</ele>
        <time>2021-09-17T06:00:52.000Z</time>
      </trkpt>
      <trkpt lat="43.91787" lon="4.84693">
        <ele>22.792164</ele>
        <time>2021-09-17T06:00:56.000Z</time>
      </trkpt>
      <trkpt lat="43.91787" lon="4.84693">
        <ele>22.792415</ele>
        <time>2021-09-17T06:00:57.000Z</time>
      </trkpt>
      <trkpt lat="43.91783" lon="4.84697">
        <ele>22.804911</ele>
        <time>2021-09-17T06:00:59.000Z</time>
      </trkpt>
      <trkpt lat="43.91779" lon="4.84715">
        <ele>22.837581</ele>
        <time>2021-09-17T06:01:02.000Z</time>
      </trkpt>
      <trkpt lat="43.91776" lon="4.84728">
        <ele>22.862618</ele>
        <time>2021-09-17T06:01:04.000Z</time>
      </trkpt>
      <trkpt lat="43.91772" lon="4.84741">
        <ele>22.888679</ele>
        <time>2021-09-17T06:01:06.000Z</time>
      </trkpt>
      <trkpt lat="43.91769" lon="4.84754">
        <ele>22.914143</ele>
        <time>2021-09-17T06:01:08.000Z</time>
      </trkpt>
      <trkpt lat="43.91767" lon="4.84761">
        <ele>22.926236</ele>
        <time>2021-09-17T06:01:09.000Z</time>
      </trkpt>
      <trkpt lat="43.9176" lon="4.84788">
        <ele>22.979293</ele>
        <time>2021-09-17T06:01:12.000Z</time>
      </trkpt>
      <trkpt lat="43.91758" lon="4.84795">
        <ele>22.991642</ele>
        <time>2021-09-17T06:01:14.000Z</time>
      </trkpt>
      <trkpt lat="43.91756" lon="4.84801">
        <ele>23.004757</ele>
        <time>2021-09-17T06:01:15.000Z</time>
      </trkpt>
      <trkpt lat="43.91755" lon="4.84808">
        <ele>23.011976</ele>
        <time>2021-09-17T06:01:16.000Z</time>
      </trkpt>
      <trkpt lat="43.91749" lon="4.84828">
        <ele>22.960977</ele>
        <time>2021-09-17T06:01:19.000Z</time>
      </trkpt>
      <trkpt lat="43.91746" lon="4.8484">
        <ele>22.930578</ele>
        <time>2021-09-17T06:01:21.000Z</time>
      </trkpt>
      <trkpt lat="43.91743" lon="4.84854">
        <ele>22.894665</ele>
        <time>2021-09-17T06:01:23.000Z</time>
      </trkpt>
      <trkpt lat="43.9174" lon="4.84862">
        <ele>22.874737</ele>
        <time>2021-09-17T06:01:24.000Z</time>
      </trkpt>
      <trkpt lat="43.91732" lon="4.84893">
        <ele>22.79503</ele>
        <time>2021-09-17T06:01:28.000Z</time>
      </trkpt>
      <trkpt lat="43.9173" lon="4.84901">
        <ele>22.775666</ele>
        <time>2021-09-17T06:01:29.000Z</time>
      </trkpt>
      <trkpt lat="43.91726" lon="4.84915">
        <ele>22.738624</ele>
        <time>2021-09-17T06:01:31.000Z</time>
      </trkpt>
      <trkpt lat="43.91721" lon="4.84936">
        <ele>22.684585</ele>
        <time>2021-09-17T06:01:34.000Z</time>
      </trkpt>
      <trkpt lat="43.91715" lon="4.84957">
        <ele>22.631334</ele>
        <time>2021-09-17T06:01:37.000Z</time>
      </trkpt>
      <trkpt lat="43.91712" lon="4.8497">
        <ele>22.599473</ele>
        <time>2021-09-17T06:01:39.000Z</time>
      </trkpt>
      <trkpt lat="43.9171" lon="4.84976">
        <ele>22.582924</ele>
        <time>2021-09-17T06:01:40.000Z</time>
      </trkpt>
      <trkpt lat="43.91705" lon="4.84998">
        <ele>22.528659</ele>
        <time>2021-09-17T06:01:43.000Z</time>
      </trkpt>
      <trkpt lat="43.91703" lon="4.85005">
        <ele>22.510533</ele>
        <time>2021-09-17T06:01:44.000Z</time>
      </trkpt>
      <trkpt lat="43.91696" lon="4.85029">
        <ele>22.448274</ele>
        <time>2021-09-17T06:01:47.000Z</time>
      </trkpt>
      <trkpt lat="43.91692" lon="4.85046">
        <ele>22.45648</ele>
        <time>2021-09-17T06:01:49.000Z</time>
      </trkpt>
      <trkpt lat="43.9168" lon="4.85091">
        <ele>22.8133</ele>
        <time>2021-09-17T06:01:55.000Z</time>
      </trkpt>
      <trkpt lat="43.91678" lon="4.85097">
        <ele>22.86134</ele>
        <time>2021-09-17T06:01:56.000Z</time>
      </trkpt>
      <trkpt lat="43.9167" lon="4.8513">
        <ele>23.119301</ele>
        <time>2021-09-17T06:02:02.000Z</time>
      </trkpt>
      <trkpt lat="43.91667" lon="4.85139">
        <ele>23.192406</ele>
        <time>2021-09-17T06:02:05.000Z</time>
      </trkpt>
      <trkpt lat="43.91668" lon="4.85136">
        <ele>23.219211</ele>
        <time>2021-09-17T06:02:14.000Z</time>
      </trkpt>
      <trkpt lat="43.9167" lon="4.8513">
        <ele>23.264118</ele>
        <time>2021-09-17T06:02:16.000Z</time>
      </trkpt>
      <trkpt lat="43.91674" lon="4.85115">
        <ele>23.386309</ele>
        <time>2021-09-17T06:02:20.000Z</time>
      </trkpt>
      <trkpt lat="43.91682" lon="4.85082">
        <ele>23.645659</ele>
        <time>2021-09-17T06:02:26.000Z</time>
      </trkpt>
      <trkpt lat="43.91693" lon="4.8504">
        <ele>23.977417</ele>
        <time>2021-09-17T06:02:34.000Z</time>
      </trkpt>
      <trkpt lat="43.91699" lon="4.85021">
        <ele>24.129545</ele>
        <time>2021-09-17T06:02:38.000Z</time>
      </trkpt>
      <trkpt lat="43.91705" lon="4.84997">
        <ele>24.348624</ele>
        <time>2021-09-17T06:02:43.000Z</time>
      </trkpt>
      <trkpt lat="43.91714" lon="4.84962">
        <ele>24.823532</ele>
        <time>2021-09-17T06:02:49.000Z</time>
      </trkpt>
      <trkpt lat="43.91718" lon="4.84945">
        <ele>25.055861</ele>
        <time>2021-09-17T06:02:54.000Z</time>
      </trkpt>
      <trkpt lat="43.91721" lon="4.84934">
        <ele>25.21337</ele>
        <time>2021-09-17T06:02:57.000Z</time>
      </trkpt>
      <trkpt lat="43.91725" lon="4.84922">
        <ele>25.374489</ele>
        <time>2021-09-17T06:02:59.000Z</time>
      </trkpt>
      <trkpt lat="43.91731" lon="4.84898">
        <ele>25.700953</ele>
        <time>2021-09-17T06:03:04.000Z</time>
      </trkpt>
      <trkpt lat="43.91734" lon="4.84886">
        <ele>25.870524</ele>
        <time>2021-09-17T06:03:06.000Z</time>
      </trkpt>
      <trkpt lat="43.91739" lon="4.84866">
        <ele>26.145092</ele>
        <time>2021-09-17T06:03:08.000Z</time>
      </trkpt>
      <trkpt lat="43.91743" lon="4.84853">
        <ele>26.315867</ele>
        <time>2021-09-17T06:03:11.000Z</time>
      </trkpt>
      <trkpt lat="43.91746" lon="4.84841">
        <ele>26.480008</ele>
        <time>2021-09-17T06:03:13.000Z</time>
      </trkpt>
      <trkpt lat="43.91747" lon="4.84835">
        <ele>26.559058</ele>
        <time>2021-09-17T06:03:14.000Z</time>
      </trkpt>
      <trkpt lat="43.91757" lon="4.84801">
        <ele>27.031552</ele>
        <time>2021-09-17T06:03:20.000Z</time>
      </trkpt>
      <trkpt lat="43.91767" lon="4.84761">
        <ele>27.514816</ele>
        <time>2021-09-17T06:03:26.000Z</time>
      </trkpt>
      <trkpt lat="43.91774" lon="4.84736">
        <ele>27.67472</ele>
        <time>2021-09-17T06:03:31.000Z</time>
      </trkpt>
      <trkpt lat="43.91782" lon="4.84701">
        <ele>27.8897</ele>
        <time>2021-09-17T06:03:37.000Z</time>
      </trkpt>
      <trkpt lat="43.91783" lon="4.84697">
        <ele>27.917732</ele>
        <time>2021-09-17T06:03:38.000Z</time>
      </trkpt>
      <trkpt lat="43.9179" lon="4.84692">
        <ele>27.977029</ele>
        <time>2021-09-17T06:03:40.000Z</time>
      </trkpt>
      <trkpt lat="43.91798" lon="4.84689">
        <ele>28.046567</ele>
        <time>2021-09-17T06:03:42.000Z</time>
      </trkpt>
      <trkpt lat="43.91812" lon="4.84684">
        <ele>28.162855</ele>
        <time>2021-09-17T06:03:45.000Z</time>
      </trkpt>
      <trkpt lat="43.91837" lon="4.84673">
        <ele>28.376539</ele>
        <time>2021-09-17T06:03:50.000Z</time>
      </trkpt>
      <trkpt lat="43.91841" lon="4.84669">
        <ele>28.422548</ele>
        <time>2021-09-17T06:03:51.000Z</time>
      </trkpt>
      <trkpt lat="43.91875" lon="4.84632">
        <ele>28.76792</ele>
        <time>2021-09-17T06:03:59.000Z</time>
      </trkpt>
      <trkpt lat="43.91903" lon="4.84605">
        <ele>29.146906</ele>
        <time>2021-09-17T06:04:06.000Z</time>
      </trkpt>
      <trkpt lat="43.91907" lon="4.846">
        <ele>29.232689</ele>
        <time>2021-09-17T06:04:07.000Z</time>
      </trkpt>
      <trkpt lat="43.91931" lon="4.84583">
        <ele>29.647689</ele>
        <time>2021-09-17T06:04:11.000Z</time>
      </trkpt>
      <trkpt lat="43.91966" lon="4.8456">
        <ele>30.22725</ele>
        <time>2021-09-17T06:04:19.000Z</time>
      </trkpt>
      <trkpt lat="43.91979" lon="4.84551">
        <ele>30.448561</ele>
        <time>2021-09-17T06:04:21.000Z</time>
      </trkpt>
      <trkpt lat="43.91993" lon="4.84542">
        <ele>30.686463</ele>
        <time>2021-09-17T06:04:25.000Z</time>
      </trkpt>
      <trkpt lat="43.92023" lon="4.84523">
        <ele>31.189904</ele>
        <time>2021-09-17T06:04:31.000Z</time>
      </trkpt>
      <trkpt lat="43.92033" lon="4.84517">
        <ele>31.355927</ele>
        <time>2021-09-17T06:04:33.000Z</time>
      </trkpt>
      <trkpt lat="43.92047" lon="4.8451">
        <ele>31.587379</ele>
        <time>2021-09-17T06:04:36.000Z</time>
      </trkpt>
      <trkpt lat="43.92091" lon="4.84499">
        <ele>32.238372</ele>
        <time>2021-09-17T06:04:44.000Z</time>
      </trkpt>
      <trkpt lat="43.92102" lon="4.84495">
        <ele>32.402298</ele>
        <time>2021-09-17T06:04:45.000Z</time>
      </trkpt>
      <trkpt lat="43.92116" lon="4.84486">
        <ele>32.627436</ele>
        <time>2021-09-17T06:04:49.000Z</time>
      </trkpt>
      <trkpt lat="43.92124" lon="4.84479">
        <ele>32.770656</ele>
        <time>2021-09-17T06:04:50.000Z</time>
      </trkpt>
      <trkpt lat="43.92144" lon="4.84455">
        <ele>33.154002</ele>
        <time>2021-09-17T06:04:55.000Z</time>
      </trkpt>
      <trkpt lat="43.92159" lon="4.84422">
        <ele>33.565506</ele>
        <time>2021-09-17T06:05:00.000Z</time>
      </trkpt>
      <trkpt lat="43.92166" lon="4.84408">
        <ele>33.741899</ele>
        <time>2021-09-17T06:05:02.000Z</time>
      </trkpt>
      <trkpt lat="43.92173" lon="4.84394">
        <ele>33.923198</ele>
        <time>2021-09-17T06:05:05.000Z</time>
      </trkpt>
      <trkpt lat="43.92177" lon="4.84387">
        <ele>34.011758</ele>
        <time>2021-09-17T06:05:06.000Z</time>
      </trkpt>
      <trkpt lat="43.92189" lon="4.84371">
        <ele>34.259009</ele>
        <time>2021-09-17T06:05:09.000Z</time>
      </trkpt>
      <trkpt lat="43.92209" lon="4.8436">
        <ele>34.443372</ele>
        <time>2021-09-17T06:05:13.000Z</time>
      </trkpt>
      <trkpt lat="43.92214" lon="4.84359">
        <ele>34.481115</ele>
        <time>2021-09-17T06:05:14.000Z</time>
      </trkpt>
      <trkpt lat="43.92228" lon="4.84355">
        <ele>34.586533</ele>
        <time>2021-09-17T06:05:17.000Z</time>
      </trkpt>
      <trkpt lat="43.92256" lon="4.84349">
        <ele>34.811906</ele>
        <time>2021-09-17T06:05:24.000Z</time>
      </trkpt>
      <trkpt lat="43.92277" lon="4.84352">
        <ele>34.974246</ele>
        <time>2021-09-17T06:05:30.000Z</time>
      </trkpt>
      <trkpt lat="43.92309" lon="4.84363">
        <ele>35.225416</ele>
        <time>2021-09-17T06:05:37.000Z</time>
      </trkpt>
      <trkpt lat="43.92339" lon="4.8437">
        <ele>35.465508</ele>
        <time>2021-09-17T06:05:44.000Z</time>
      </trkpt>
      <trkpt lat="43.92362" lon="4.84376">
        <ele>35.646121</ele>
        <time>2021-09-17T06:05:50.000Z</time>
      </trkpt>
      <trkpt lat="43.92385" lon="4.84382">
        <ele>35.734504</ele>
        <time>2021-09-17T06:05:56.000Z</time>
      </trkpt>
      <trkpt lat="43.92403" lon="4.84387">
        <ele>35.781942</ele>
        <time>2021-09-17T06:06:01.000Z</time>
      </trkpt>
      <trkpt lat="43.92425" lon="4.84392">
        <ele>35.838556</ele>
        <time>2021-09-17T06:06:07.000Z</time>
      </trkpt>
      <trkpt lat="43.92455" lon="4.84399">
        <ele>35.915058</ele>
        <time>2021-09-17T06:06:14.000Z</time>
      </trkpt>
      <trkpt lat="43.92463" lon="4.84401">
        <ele>35.935801</ele>
        <time>2021-09-17T06:06:16.000Z</time>
      </trkpt>
      <trkpt lat="43.92475" lon="4.84404">
        <ele>35.966881</ele>
        <time>2021-09-17T06:06:19.000Z</time>
      </trkpt>
      <trkpt lat="43.92483" lon="4.84406">
        <ele>35.988158</ele>
        <time>2021-09-17T06:06:21.000Z</time>
      </trkpt>
      <trkpt lat="43.92492" lon="4.84409">
        <ele>36.010184</ele>
        <time>2021-09-17T06:06:23.000Z</time>
      </trkpt>
      <trkpt lat="43.92528" lon="4.84421">
        <ele>36.106006</ele>
        <time>2021-09-17T06:06:30.000Z</time>
      </trkpt>
      <trkpt lat="43.92538" lon="4.84425">
        <ele>36.130769</ele>
        <time>2021-09-17T06:06:32.000Z</time>
      </trkpt>
      <trkpt lat="43.92553" lon="4.84432">
        <ele>35.94131</ele>
        <time>2021-09-17T06:06:35.000Z</time>
      </trkpt>
      <trkpt lat="43.92582" lon="4.84447">
        <ele>35.26833</ele>
        <time>2021-09-17T06:06:41.000Z</time>
      </trkpt>
      <trkpt lat="43.92587" lon="4.8445">
        <ele>35.158884</ele>
        <time>2021-09-17T06:06:42.000Z</time>
      </trkpt>
      <trkpt lat="43.92603" lon="4.84465">
        <ele>34.72705</ele>
        <time>2021-09-17T06:06:46.000Z</time>
      </trkpt>
      <trkpt lat="43.9262" lon="4.84482">
        <ele>34.273909</ele>
        <time>2021-09-17T06:06:51.000Z</time>
      </trkpt>
      <trkpt lat="43.92626" lon="4.84489">
        <ele>34.108804</ele>
        <time>2021-09-17T06:06:55.000Z</time>
      </trkpt>
      <trkpt lat="43.92635" lon="4.84501">
        <ele>33.841564</ele>
        <time>2021-09-17T06:07:02.000Z</time>
      </trkpt>
      <trkpt lat="43.9264" lon="4.84507">
        <ele>33.688605</ele>
        <time>2021-09-17T06:07:07.000Z</time>
      </trkpt>
      <trkpt lat="43.92641" lon="4.84509">
        <ele>33.655732</ele>
        <time>2021-09-17T06:07:10.000Z</time>
      </trkpt>
      <trkpt lat="43.92643" lon="4.84512">
        <ele>33.591245</ele>
        <time>2021-09-17T06:07:12.000Z</time>
      </trkpt>
      <trkpt lat="43.92646" lon="4.84537">
        <ele>33.197164</ele>
        <time>2021-09-17T06:07:17.000Z</time>
      </trkpt>
      <trkpt lat="43.92645" lon="4.84543">
        <ele>33.103058</ele>
        <time>2021-09-17T06:07:18.000Z</time>
      </trkpt>
      <trkpt lat="43.92644" lon="4.8455">
        <ele>32.988918</ele>
        <time>2021-09-17T06:07:19.000Z</time>
      </trkpt>
      <trkpt lat="43.92634" lon="4.84576">
        <ele>32.543373</ele>
        <time>2021-09-17T06:07:23.000Z</time>
      </trkpt>
      <trkpt lat="43.92611" lon="4.84627">
        <ele>31.894793</ele>
        <time>2021-09-17T06:07:31.000Z</time>
      </trkpt>
      <trkpt lat="43.92589" lon="4.84676">
        <ele>31.401409</ele>
        <time>2021-09-17T06:07:38.000Z</time>
      </trkpt>
      <trkpt lat="43.92564" lon="4.84731">
        <ele>30.845308</ele>
        <time>2021-09-17T06:07:46.000Z</time>
      </trkpt>
      <trkpt lat="43.92543" lon="4.84779">
        <ele>30.360351</ele>
        <time>2021-09-17T06:07:53.000Z</time>
      </trkpt>
      <trkpt lat="43.92513" lon="4.84845">
        <ele>29.923215</ele>
        <time>2021-09-17T06:08:02.000Z</time>
      </trkpt>
      <trkpt lat="43.92483" lon="4.84911">
        <ele>29.617525</ele>
        <time>2021-09-17T06:08:11.000Z</time>
      </trkpt>
      <trkpt lat="43.9247" lon="4.8496">
        <ele>29.41198</ele>
        <time>2021-09-17T06:08:17.000Z</time>
      </trkpt>
      <trkpt lat="43.92458" lon="4.85027">
        <ele>29.143703</ele>
        <time>2021-09-17T06:08:25.000Z</time>
      </trkpt>
      <trkpt lat="43.92456" lon="4.85035">
        <ele>29.112817</ele>
        <time>2021-09-17T06:08:26.000Z</time>
      </trkpt>
      <trkpt lat="43.9244" lon="4.851">
        <ele>28.864327</ele>
        <time>2021-09-17T06:08:33.000Z</time>
      </trkpt>
      <trkpt lat="43.92429" lon="4.85144">
        <ele>28.6917</ele>
        <time>2021-09-17T06:08:40.000Z</time>
      </trkpt>
      <trkpt lat="43.92414" lon="4.85201">
        <ele>28.475277</ele>
        <time>2021-09-17T06:08:47.000Z</time>
      </trkpt>
      <trkpt lat="43.92396" lon="4.85269">
        <ele>28.228371</ele>
        <time>2021-09-17T06:08:55.000Z</time>
      </trkpt>
      <trkpt lat="43.92374" lon="4.85338">
        <ele>28.163296</ele>
        <time>2021-09-17T06:09:03.000Z</time>
      </trkpt>
      <trkpt lat="43.92353" lon="4.85396">
        <ele>28.1068</ele>
        <time>2021-09-17T06:09:10.000Z</time>
      </trkpt>
      <trkpt lat="43.92325" lon="4.85471">
        <ele>28.033977</ele>
        <time>2021-09-17T06:09:19.000Z</time>
      </trkpt>
      <trkpt lat="43.92322" lon="4.8548">
        <ele>28.025591</ele>
        <time>2021-09-17T06:09:20.000Z</time>
      </trkpt>
      <trkpt lat="43.92297" lon="4.85546">
        <ele>28.078305</ele>
        <time>2021-09-17T06:09:28.000Z</time>
      </trkpt>
      <trkpt lat="43.92272" lon="4.85616">
        <ele>28.150727</ele>
        <time>2021-09-17T06:09:37.000Z</time>
      </trkpt>
      <trkpt lat="43.9225" lon="4.85679">
        <ele>28.214981</ele>
        <time>2021-09-17T06:09:45.000Z</time>
      </trkpt>
      <trkpt lat="43.92232" lon="4.85724">
        <ele>28.265079</ele>
        <time>2021-09-17T06:09:52.000Z</time>
      </trkpt>
      <trkpt lat="43.92216" lon="4.85757">
        <ele>28.310962</ele>
        <time>2021-09-17T06:10:00.000Z</time>
      </trkpt>
      <trkpt lat="43.9221" lon="4.8577">
        <ele>28.327799</ele>
        <time>2021-09-17T06:10:04.000Z</time>
      </trkpt>
      <trkpt lat="43.92202" lon="4.85787">
        <ele>28.351394</ele>
        <time>2021-09-17T06:10:08.000Z</time>
      </trkpt>
      <trkpt lat="43.922" lon="4.85793">
        <ele>28.358889</ele>
        <time>2021-09-17T06:10:09.000Z</time>
      </trkpt>
      <trkpt lat="43.92191" lon="4.85818">
        <ele>28.390809</ele>
        <time>2021-09-17T06:10:13.000Z</time>
      </trkpt>
      <trkpt lat="43.92175" lon="4.85877">
        <ele>28.462478</ele>
        <time>2021-09-17T06:10:21.000Z</time>
      </trkpt>
      <trkpt lat="43.92157" lon="4.85927">
        <ele>28.526092</ele>
        <time>2021-09-17T06:10:28.000Z</time>
      </trkpt>
      <trkpt lat="43.92137" lon="4.85981">
        <ele>28.627823</ele>
        <time>2021-09-17T06:10:36.000Z</time>
      </trkpt>
      <trkpt lat="43.92124" lon="4.86015">
        <ele>28.692341</ele>
        <time>2021-09-17T06:10:41.000Z</time>
      </trkpt>
      <trkpt lat="43.921" lon="4.86075">
        <ele>28.808724</ele>
        <time>2021-09-17T06:10:49.000Z</time>
      </trkpt>
      <trkpt lat="43.92075" lon="4.86144">
        <ele>28.940992</ele>
        <time>2021-09-17T06:10:58.000Z</time>
      </trkpt>
      <trkpt lat="43.92072" lon="4.86152">
        <ele>28.955667</ele>
        <time>2021-09-17T06:10:59.000Z</time>
      </trkpt>
      <trkpt lat="43.92046" lon="4.86223">
        <ele>29.046924</ele>
        <time>2021-09-17T06:11:08.000Z</time>
      </trkpt>
      <trkpt lat="43.92039" lon="4.86246">
        <ele>29.076032</ele>
        <time>2021-09-17T06:11:11.000Z</time>
      </trkpt>
      <trkpt lat="43.92031" lon="4.8627">
        <ele>29.106104</ele>
        <time>2021-09-17T06:11:14.000Z</time>
      </trkpt>
      <trkpt lat="43.92011" lon="4.86332">
        <ele>29.183547</ele>
        <time>2021-09-17T06:11:22.000Z</time>
      </trkpt>
      <trkpt lat="43.91988" lon="4.86403">
        <ele>29.196478</ele>
        <time>2021-09-17T06:11:31.000Z</time>
      </trkpt>
      <trkpt lat="43.91983" lon="4.86418">
        <ele>29.166715</ele>
        <time>2021-09-17T06:11:33.000Z</time>
      </trkpt>
      <trkpt lat="43.91966" lon="4.86471">
        <ele>29.065723</ele>
        <time>2021-09-17T06:11:40.000Z</time>
      </trkpt>
      <trkpt lat="43.91959" lon="4.86493">
        <ele>29.024</ele>
        <time>2021-09-17T06:11:43.000Z</time>
      </trkpt>
      <trkpt lat="43.91952" lon="4.86514">
        <ele>28.984256</ele>
        <time>2021-09-17T06:11:46.000Z</time>
      </trkpt>
      <trkpt lat="43.91929" lon="4.86584">
        <ele>28.850865</ele>
        <time>2021-09-17T06:11:55.000Z</time>
      </trkpt>
      <trkpt lat="43.91924" lon="4.866">
        <ele>28.820883</ele>
        <time>2021-09-17T06:11:57.000Z</time>
      </trkpt>
      <trkpt lat="43.91906" lon="4.86655">
        <ele>28.826174</ele>
        <time>2021-09-17T06:12:04.000Z</time>
      </trkpt>
      <trkpt lat="43.91885" lon="4.86718">
        <ele>28.849669</ele>
        <time>2021-09-17T06:12:12.000Z</time>
      </trkpt>
      <trkpt lat="43.91861" lon="4.8678">
        <ele>28.873765</ele>
        <time>2021-09-17T06:12:20.000Z</time>
      </trkpt>
      <trkpt lat="43.91836" lon="4.86843">
        <ele>28.935067</ele>
        <time>2021-09-17T06:12:28.000Z</time>
      </trkpt>
      <trkpt lat="43.91808" lon="4.8691">
        <ele>29.160425</ele>
        <time>2021-09-17T06:12:37.000Z</time>
      </trkpt>
      <trkpt lat="43.91804" lon="4.86917">
        <ele>29.185054</ele>
        <time>2021-09-17T06:12:38.000Z</time>
      </trkpt>
      <trkpt lat="43.91776" lon="4.86984">
        <ele>29.408065</ele>
        <time>2021-09-17T06:12:47.000Z</time>
      </trkpt>
      <trkpt lat="43.91773" lon="4.86991">
        <ele>29.43364</ele>
        <time>2021-09-17T06:12:48.000Z</time>
      </trkpt>
      <trkpt lat="43.91743" lon="4.87061">
        <ele>29.679657</ele>
        <time>2021-09-17T06:12:57.000Z</time>
      </trkpt>
      <trkpt lat="43.91713" lon="4.87131">
        <ele>29.97252</ele>
        <time>2021-09-17T06:13:06.000Z</time>
      </trkpt>
      <trkpt lat="43.91682" lon="4.87201">
        <ele>30.268666</ele>
        <time>2021-09-17T06:13:15.000Z</time>
      </trkpt>
      <trkpt lat="43.91678" lon="4.87209">
        <ele>30.302148</ele>
        <time>2021-09-17T06:13:16.000Z</time>
      </trkpt>
      <trkpt lat="43.91644" lon="4.87277">
        <ele>30.57308</ele>
        <time>2021-09-17T06:13:25.000Z</time>
      </trkpt>
      <trkpt lat="43.91625" lon="4.87313">
        <ele>30.692349</ele>
        <time>2021-09-17T06:13:30.000Z</time>
      </trkpt>
      <trkpt lat="43.91617" lon="4.87328">
        <ele>30.739288</ele>
        <time>2021-09-17T06:13:32.000Z</time>
      </trkpt>
      <trkpt lat="43.9161" lon="4.87343">
        <ele>30.786655</ele>
        <time>2021-09-17T06:13:34.000Z</time>
      </trkpt>
      <trkpt lat="43.91598" lon="4.87364">
        <ele>30.857277</ele>
        <time>2021-09-17T06:13:37.000Z</time>
      </trkpt>
      <trkpt lat="43.91578" lon="4.87398">
        <ele>30.972908</ele>
        <time>2021-09-17T06:13:42.000Z</time>
      </trkpt>
      <trkpt lat="43.91574" lon="4.87404">
        <ele>30.994908</ele>
        <time>2021-09-17T06:13:43.000Z</time>
      </trkpt>
      <trkpt lat="43.91552" lon="4.87418">
        <ele>31.084914</ele>
        <time>2021-09-17T06:13:47.000Z</time>
      </trkpt>
      <trkpt lat="43.91546" lon="4.87424">
        <ele>31.111306</ele>
        <time>2021-09-17T06:13:48.000Z</time>
      </trkpt>
      <trkpt lat="43.91541" lon="4.8743">
        <ele>31.134758</ele>
        <time>2021-09-17T06:13:49.000Z</time>
      </trkpt>
      <trkpt lat="43.91534" lon="4.87448">
        <ele>31.182314</ele>
        <time>2021-09-17T06:13:51.000Z</time>
      </trkpt>
      <trkpt lat="43.91535" lon="4.87467">
        <ele>31.219413</ele>
        <time>2021-09-17T06:13:53.000Z</time>
      </trkpt>
      <trkpt lat="43.91538" lon="4.87477">
        <ele>31.240727</ele>
        <time>2021-09-17T06:13:54.000Z</time>
      </trkpt>
      <trkpt lat="43.91541" lon="4.87484">
        <ele>31.257992</ele>
        <time>2021-09-17T06:13:55.000Z</time>
      </trkpt>
      <trkpt lat="43.91553" lon="4.87496">
        <ele>31.297308</ele>
        <time>2021-09-17T06:13:57.000Z</time>
      </trkpt>
      <trkpt lat="43.91587" lon="4.87501">
        <ele>31.389532</ele>
        <time>2021-09-17T06:14:02.000Z</time>
      </trkpt>
      <trkpt lat="43.91599" lon="4.87508">
        <ele>31.426212</ele>
        <time>2021-09-17T06:14:04.000Z</time>
      </trkpt>
      <trkpt lat="43.91616" lon="4.87521">
        <ele>31.4779</ele>
        <time>2021-09-17T06:14:07.000Z</time>
      </trkpt>
      <trkpt lat="43.91647" lon="4.87548">
        <ele>31.578648</ele>
        <time>2021-09-17T06:14:13.000Z</time>
      </trkpt>
      <trkpt lat="43.91682" lon="4.87582">
        <ele>31.713146</ele>
        <time>2021-09-17T06:14:20.000Z</time>
      </trkpt>
      <trkpt lat="43.91732" lon="4.87627">
        <ele>31.946117</ele>
        <time>2021-09-17T06:14:30.000Z</time>
      </trkpt>
      <trkpt lat="43.91776" lon="4.87668">
        <ele>32.154504</ele>
        <time>2021-09-17T06:14:39.000Z</time>
      </trkpt>
      <trkpt lat="43.9181" lon="4.87698">
        <ele>32.311581</ele>
        <time>2021-09-17T06:14:46.000Z</time>
      </trkpt>
      <trkpt lat="43.91834" lon="4.87717">
        <ele>32.409626</ele>
        <time>2021-09-17T06:14:51.000Z</time>
      </trkpt>
      <trkpt lat="43.9185" lon="4.87725">
        <ele>32.461692</ele>
        <time>2021-09-17T06:14:54.000Z</time>
      </trkpt>
      <trkpt lat="43.91859" lon="4.87731">
        <ele>32.495228</ele>
        <time>2021-09-17T06:14:56.000Z</time>
      </trkpt>
      <trkpt lat="43.91868" lon="4.87737">
        <ele>32.524737</ele>
        <time>2021-09-17T06:14:58.000Z</time>
      </trkpt>
      <trkpt lat="43.9188" lon="4.87762">
        <ele>32.593378</ele>
        <time>2021-09-17T06:15:03.000Z</time>
      </trkpt>
      <trkpt lat="43.91881" lon="4.87773">
        <ele>32.618773</ele>
        <time>2021-09-17T06:15:07.000Z</time>
      </trkpt>
      <trkpt lat="43.9188" lon="4.87788">
        <ele>32.652947</ele>
        <time>2021-09-17T06:15:10.000Z</time>
      </trkpt>
      <trkpt lat="43.9188" lon="4.87794">
        <ele>32.666847</ele>
        <time>2021-09-17T06:15:11.000Z</time>
      </trkpt>
      <trkpt lat="43.91872" lon="4.87838">
        <ele>32.769213</ele>
        <time>2021-09-17T06:15:17.000Z</time>
      </trkpt>
      <trkpt lat="43.91853" lon="4.87901">
        <ele>32.926742</ele>
        <time>2021-09-17T06:15:26.000Z</time>
      </trkpt>
      <trkpt lat="43.9183" lon="4.87956">
        <ele>32.972468</ele>
        <time>2021-09-17T06:15:34.000Z</time>
      </trkpt>
      <trkpt lat="43.91803" lon="4.88002">
        <ele>33.014672</ele>
        <time>2021-09-17T06:15:41.000Z</time>
      </trkpt>
      <trkpt lat="43.9178" lon="4.88041">
        <ele>33.051871</ele>
        <time>2021-09-17T06:15:47.000Z</time>
      </trkpt>
      <trkpt lat="43.91766" lon="4.88079">
        <ele>33.0819</ele>
        <time>2021-09-17T06:15:52.000Z</time>
      </trkpt>
      <trkpt lat="43.91757" lon="4.8813">
        <ele>33.122313</ele>
        <time>2021-09-17T06:15:58.000Z</time>
      </trkpt>
      <trkpt lat="43.91755" lon="4.88138">
        <ele>33.129993</ele>
        <time>2021-09-17T06:15:59.000Z</time>
      </trkpt>
      <trkpt lat="43.91737" lon="4.88204">
        <ele>33.191549</ele>
        <time>2021-09-17T06:16:07.000Z</time>
      </trkpt>
      <trkpt lat="43.9173" lon="4.88223">
        <ele>33.210714</ele>
        <time>2021-09-17T06:16:11.000Z</time>
      </trkpt>
      <trkpt lat="43.91722" lon="4.88253">
        <ele>33.23846</ele>
        <time>2021-09-17T06:16:17.000Z</time>
      </trkpt>
      <trkpt lat="43.91715" lon="4.88294">
        <ele>33.27573</ele>
        <time>2021-09-17T06:16:23.000Z</time>
      </trkpt>
      <trkpt lat="43.91708" lon="4.88343">
        <ele>33.319424</ele>
        <time>2021-09-17T06:16:29.000Z</time>
      </trkpt>
      <trkpt lat="43.91695" lon="4.8841">
        <ele>33.387884</ele>
        <time>2021-09-17T06:16:37.000Z</time>
      </trkpt>
      <trkpt lat="43.91682" lon="4.88476">
        <ele>33.456372</ele>
        <time>2021-09-17T06:16:45.000Z</time>
      </trkpt>
      <trkpt lat="43.91669" lon="4.8854">
        <ele>33.522611</ele>
        <time>2021-09-17T06:16:53.000Z</time>
      </trkpt>
      <trkpt lat="43.91653" lon="4.88604">
        <ele>33.590237</ele>
        <time>2021-09-17T06:17:01.000Z</time>
      </trkpt>
      <trkpt lat="43.91638" lon="4.88675">
        <ele>33.66444</ele>
        <time>2021-09-17T06:17:10.000Z</time>
      </trkpt>
      <trkpt lat="43.91621" lon="4.88748">
        <ele>33.740192</ele>
        <time>2021-09-17T06:17:19.000Z</time>
      </trkpt>
      <trkpt lat="43.91619" lon="4.88764">
        <ele>33.756375</ele>
        <time>2021-09-17T06:17:21.000Z</time>
      </trkpt>
      <trkpt lat="43.91612" lon="4.88819">
        <ele>33.811707</ele>
        <time>2021-09-17T06:17:28.000Z</time>
      </trkpt>
      <trkpt lat="43.91608" lon="4.88842">
        <ele>33.81104</ele>
        <time>2021-09-17T06:17:31.000Z</time>
      </trkpt>
      <trkpt lat="43.91606" lon="4.8885">
        <ele>33.803309</ele>
        <time>2021-09-17T06:17:32.000Z</time>
      </trkpt>
      <trkpt lat="43.91597" lon="4.88864">
        <ele>33.783378</ele>
        <time>2021-09-17T06:17:33.000Z</time>
      </trkpt>
      <trkpt lat="43.91593" lon="4.88864">
        <ele>33.777723</ele>
        <time>2021-09-17T06:17:35.000Z</time>
      </trkpt>
      <trkpt lat="43.91589" lon="4.88867">
        <ele>33.771665</ele>
        <time>2021-09-17T06:17:36.000Z</time>
      </trkpt>
      <trkpt lat="43.91586" lon="4.88871">
        <ele>33.765397</ele>
        <time>2021-09-17T06:17:37.000Z</time>
      </trkpt>
      <trkpt lat="43.91582" lon="4.88883">
        <ele>33.752267</ele>
        <time>2021-09-17T06:17:39.000Z</time>
      </trkpt>
      <trkpt lat="43.91584" lon="4.88897">
        <ele>33.737357</ele>
        <time>2021-09-17T06:17:41.000Z</time>
      </trkpt>
      <trkpt lat="43.91588" lon="4.88905">
        <ele>33.727572</ele>
        <time>2021-09-17T06:17:43.000Z</time>
      </trkpt>
      <trkpt lat="43.91592" lon="4.88927">
        <ele>33.704058</ele>
        <time>2021-09-17T06:17:45.000Z</time>
      </trkpt>
      <trkpt lat="43.9159" lon="4.88935">
        <ele>33.695575</ele>
        <time>2021-09-17T06:17:46.000Z</time>
      </trkpt>
      <trkpt lat="43.91576" lon="4.89001">
        <ele>33.625715</ele>
        <time>2021-09-17T06:17:54.000Z</time>
      </trkpt>
      <trkpt lat="43.91567" lon="4.89043">
        <ele>33.580834</ele>
        <time>2021-09-17T06:17:59.000Z</time>
      </trkpt>
      <trkpt lat="43.91555" lon="4.891">
        <ele>33.415784</ele>
        <time>2021-09-17T06:18:06.000Z</time>
      </trkpt>
      <trkpt lat="43.91543" lon="4.89156">
        <ele>33.229861</ele>
        <time>2021-09-17T06:18:13.000Z</time>
      </trkpt>
      <trkpt lat="43.9154" lon="4.89172">
        <ele>33.177046</ele>
        <time>2021-09-17T06:18:15.000Z</time>
      </trkpt>
      <trkpt lat="43.91532" lon="4.89212">
        <ele>33.044781</ele>
        <time>2021-09-17T06:18:20.000Z</time>
      </trkpt>
      <trkpt lat="43.91518" lon="4.8928">
        <ele>32.816926</ele>
        <time>2021-09-17T06:18:28.000Z</time>
      </trkpt>
      <trkpt lat="43.91505" lon="4.89336">
        <ele>32.726001</ele>
        <time>2021-09-17T06:18:35.000Z</time>
      </trkpt>
      <trkpt lat="43.91492" lon="4.894">
        <ele>32.658871</ele>
        <time>2021-09-17T06:18:43.000Z</time>
      </trkpt>
      <trkpt lat="43.91482" lon="4.89464">
        <ele>32.592671</ele>
        <time>2021-09-17T06:18:51.000Z</time>
      </trkpt>
      <trkpt lat="43.91476" lon="4.89528">
        <ele>32.527477</ele>
        <time>2021-09-17T06:18:59.000Z</time>
      </trkpt>
      <trkpt lat="43.91475" lon="4.89553">
        <ele>32.564244</ele>
        <time>2021-09-17T06:19:02.000Z</time>
      </trkpt>
      <trkpt lat="43.91475" lon="4.89569">
        <ele>32.611387</ele>
        <time>2021-09-17T06:19:04.000Z</time>
      </trkpt>
      <trkpt lat="43.91477" lon="4.89575">
        <ele>32.631385</ele>
        <time>2021-09-17T06:19:06.000Z</time>
      </trkpt>
      <trkpt lat="43.91486" lon="4.89589">
        <ele>32.686227</ele>
        <time>2021-09-17T06:19:07.000Z</time>
      </trkpt>
      <trkpt lat="43.91496" lon="4.89593">
        <ele>32.728449</ele>
        <time>2021-09-17T06:19:10.000Z</time>
      </trkpt>
      <trkpt lat="43.91501" lon="4.89593">
        <ele>32.751736</ele>
        <time>2021-09-17T06:19:11.000Z</time>
      </trkpt>
      <trkpt lat="43.91528" lon="4.89592">
        <ele>32.859972</ele>
        <time>2021-09-17T06:19:16.000Z</time>
      </trkpt>
      <trkpt lat="43.91565" lon="4.89589">
        <ele>33.012156</ele>
        <time>2021-09-17T06:19:23.000Z</time>
      </trkpt>
      <trkpt lat="43.91605" lon="4.89591">
        <ele>33.17281</ele>
        <time>2021-09-17T06:19:31.000Z</time>
      </trkpt>
      <trkpt lat="43.91614" lon="4.89595">
        <ele>33.209795</ele>
        <time>2021-09-17T06:19:33.000Z</time>
      </trkpt>
      <trkpt lat="43.91622" lon="4.89601">
        <ele>33.246977</ele>
        <time>2021-09-17T06:19:35.000Z</time>
      </trkpt>
      <trkpt lat="43.91626" lon="4.89604">
        <ele>33.276397</ele>
        <time>2021-09-17T06:19:36.000Z</time>
      </trkpt>
      <trkpt lat="43.91635" lon="4.89611">
        <ele>33.339375</ele>
        <time>2021-09-17T06:19:38.000Z</time>
      </trkpt>
      <trkpt lat="43.91651" lon="4.89628">
        <ele>33.469206</ele>
        <time>2021-09-17T06:19:42.000Z</time>
      </trkpt>
      <trkpt lat="43.91669" lon="4.89662">
        <ele>33.660415</ele>
        <time>2021-09-17T06:19:48.000Z</time>
      </trkpt>
      <trkpt lat="43.91673" lon="4.89673">
        <ele>33.719951</ele>
        <time>2021-09-17T06:19:50.000Z</time>
      </trkpt>
      <trkpt lat="43.91676" lon="4.8969">
        <ele>33.799096</ele>
        <time>2021-09-17T06:19:53.000Z</time>
      </trkpt>
      <trkpt lat="43.91681" lon="4.8973">
        <ele>33.986559</ele>
        <time>2021-09-17T06:20:00.000Z</time>
      </trkpt>
      <trkpt lat="43.91681" lon="4.89778">
        <ele>34.202994</ele>
        <time>2021-09-17T06:20:06.000Z</time>
      </trkpt>
      <trkpt lat="43.91681" lon="4.89831">
        <ele>34.415978</ele>
        <time>2021-09-17T06:20:12.000Z</time>
      </trkpt>
      <trkpt lat="43.91688" lon="4.89873">
        <ele>34.506899</ele>
        <time>2021-09-17T06:20:18.000Z</time>
      </trkpt>
      <trkpt lat="43.91691" lon="4.89886">
        <ele>34.535068</ele>
        <time>2021-09-17T06:20:20.000Z</time>
      </trkpt>
      <trkpt lat="43.91703" lon="4.89908">
        <ele>34.592738</ele>
        <time>2021-09-17T06:20:24.000Z</time>
      </trkpt>
      <trkpt lat="43.91711" lon="4.89918">
        <ele>34.621231</ele>
        <time>2021-09-17T06:20:26.000Z</time>
      </trkpt>
      <trkpt lat="43.91719" lon="4.89925">
        <ele>34.648756</ele>
        <time>2021-09-17T06:20:28.000Z</time>
      </trkpt>
      <trkpt lat="43.91723" lon="4.89928">
        <ele>34.662435</ele>
        <time>2021-09-17T06:20:29.000Z</time>
      </trkpt>
      <trkpt lat="43.91756" lon="4.89942">
        <ele>34.76277</ele>
        <time>2021-09-17T06:20:36.000Z</time>
      </trkpt>
      <trkpt lat="43.91806" lon="4.89957">
        <ele>34.910021</ele>
        <time>2021-09-17T06:20:46.000Z</time>
      </trkpt>
      <trkpt lat="43.91847" lon="4.89964">
        <ele>35.081749</ele>
        <time>2021-09-17T06:20:54.000Z</time>
      </trkpt>
      <trkpt lat="43.91893" lon="4.89972">
        <ele>35.269679</ele>
        <time>2021-09-17T06:21:03.000Z</time>
      </trkpt>
      <trkpt lat="43.91939" lon="4.89979">
        <ele>35.462635</ele>
        <time>2021-09-17T06:21:12.000Z</time>
      </trkpt>
      <trkpt lat="43.91973" lon="4.89989">
        <ele>35.607293</ele>
        <time>2021-09-17T06:21:19.000Z</time>
      </trkpt>
      <trkpt lat="43.92012" lon="4.90007">
        <ele>35.894095</ele>
        <time>2021-09-17T06:21:27.000Z</time>
      </trkpt>
      <trkpt lat="43.92044" lon="4.90016">
        <ele>36.159492</ele>
        <time>2021-09-17T06:21:33.000Z</time>
      </trkpt>
      <trkpt lat="43.92071" lon="4.90023">
        <ele>36.382219</ele>
        <time>2021-09-17T06:21:38.000Z</time>
      </trkpt>
      <trkpt lat="43.92105" lon="4.90031">
        <ele>36.668144</ele>
        <time>2021-09-17T06:21:44.000Z</time>
      </trkpt>
      <trkpt lat="43.92146" lon="4.9004">
        <ele>37.007703</ele>
        <time>2021-09-17T06:21:51.000Z</time>
      </trkpt>
      <trkpt lat="43.92174" lon="4.90046">
        <ele>37.168904</ele>
        <time>2021-09-17T06:21:56.000Z</time>
      </trkpt>
      <trkpt lat="43.92213" lon="4.90054">
        <ele>37.305903</ele>
        <time>2021-09-17T06:22:03.000Z</time>
      </trkpt>
      <trkpt lat="43.92256" lon="4.90063">
        <ele>37.458543</ele>
        <time>2021-09-17T06:22:11.000Z</time>
      </trkpt>
      <trkpt lat="43.92262" lon="4.90064">
        <ele>37.476943</ele>
        <time>2021-09-17T06:22:12.000Z</time>
      </trkpt>
      <trkpt lat="43.92277" lon="4.90068">
        <ele>37.53249</ele>
        <time>2021-09-17T06:22:15.000Z</time>
      </trkpt>
      <trkpt lat="43.92319" lon="4.90082">
        <ele>37.683489</ele>
        <time>2021-09-17T06:22:23.000Z</time>
      </trkpt>
      <trkpt lat="43.92373" lon="4.90103">
        <ele>37.739907</ele>
        <time>2021-09-17T06:22:33.000Z</time>
      </trkpt>
      <trkpt lat="43.92378" lon="4.90105">
        <ele>37.739134</ele>
        <time>2021-09-17T06:22:34.000Z</time>
      </trkpt>
      <trkpt lat="43.92422" lon="4.90119">
        <ele>37.732844</ele>
        <time>2021-09-17T06:22:42.000Z</time>
      </trkpt>
      <trkpt lat="43.92471" lon="4.9013">
        <ele>37.725771</ele>
        <time>2021-09-17T06:22:51.000Z</time>
      </trkpt>
      <trkpt lat="43.92518" lon="4.90141">
        <ele>37.719281</ele>
        <time>2021-09-17T06:23:00.000Z</time>
      </trkpt>
      <trkpt lat="43.92569" lon="4.90152">
        <ele>37.713261</ele>
        <time>2021-09-17T06:23:10.000Z</time>
      </trkpt>
      <trkpt lat="43.9261" lon="4.90159">
        <ele>37.708556</ele>
        <time>2021-09-17T06:23:18.000Z</time>
      </trkpt>
      <trkpt lat="43.9264" lon="4.9016">
        <ele>37.705118</ele>
        <time>2021-09-17T06:23:24.000Z</time>
      </trkpt>
      <trkpt lat="43.92644" lon="4.9016">
        <ele>37.704575</ele>
        <time>2021-09-17T06:23:25.000Z</time>
      </trkpt>
      <trkpt lat="43.9265" lon="4.90174">
        <ele>37.703216</ele>
        <time>2021-09-17T06:23:27.000Z</time>
      </trkpt>
      <trkpt lat="43.92648" lon="4.9018">
        <ele>37.702687</ele>
        <time>2021-09-17T06:23:28.000Z</time>
      </trkpt>
      <trkpt lat="43.92628" lon="4.90226">
        <ele>37.678124</ele>
        <time>2021-09-17T06:23:35.000Z</time>
      </trkpt>
      <trkpt lat="43.92606" lon="4.90277">
        <ele>37.563444</ele>
        <time>2021-09-17T06:23:42.000Z</time>
      </trkpt>
      <trkpt lat="43.92578" lon="4.90341">
        <ele>37.422861</ele>
        <time>2021-09-17T06:23:50.000Z</time>
      </trkpt>
      <trkpt lat="43.92555" lon="4.90393">
        <ele>37.30737</ele>
        <time>2021-09-17T06:23:57.000Z</time>
      </trkpt>
      <trkpt lat="43.92529" lon="4.90452">
        <ele>37.257458</ele>
        <time>2021-09-17T06:24:05.000Z</time>
      </trkpt>
      <trkpt lat="43.92511" lon="4.90494">
        <ele>37.315271</ele>
        <time>2021-09-17T06:24:11.000Z</time>
      </trkpt>
      <trkpt lat="43.92497" lon="4.90526">
        <ele>37.359897</ele>
        <time>2021-09-17T06:24:16.000Z</time>
      </trkpt>
      <trkpt lat="43.92489" lon="4.90539">
        <ele>37.380699</ele>
        <time>2021-09-17T06:24:18.000Z</time>
      </trkpt>
      <trkpt lat="43.92484" lon="4.90539">
        <ele>37.388113</ele>
        <time>2021-09-17T06:24:19.000Z</time>
      </trkpt>
      <trkpt lat="43.9248" lon="4.90539">
        <ele>37.396021</ele>
        <time>2021-09-17T06:24:20.000Z</time>
      </trkpt>
      <trkpt lat="43.92459" lon="4.90538">
        <ele>37.430288</ele>
        <time>2021-09-17T06:24:24.000Z</time>
      </trkpt>
      <trkpt lat="43.92408" lon="4.90537">
        <ele>37.514603</ele>
        <time>2021-09-17T06:24:33.000Z</time>
      </trkpt>
      <trkpt lat="43.92348" lon="4.90537">
        <ele>37.54063</ele>
        <time>2021-09-17T06:24:43.000Z</time>
      </trkpt>
      <trkpt lat="43.92294" lon="4.90537">
        <ele>37.558626</ele>
        <time>2021-09-17T06:24:52.000Z</time>
      </trkpt>
      <trkpt lat="43.92239" lon="4.90537">
        <ele>37.57719</ele>
        <time>2021-09-17T06:25:01.000Z</time>
      </trkpt>
      <trkpt lat="43.92196" lon="4.90543">
        <ele>37.385724</ele>
        <time>2021-09-17T06:25:08.000Z</time>
      </trkpt>
      <trkpt lat="43.92154" lon="4.90553">
        <ele>37.088389</ele>
        <time>2021-09-17T06:25:15.000Z</time>
      </trkpt>
      <trkpt lat="43.92105" lon="4.90566">
        <ele>36.73068</ele>
        <time>2021-09-17T06:25:24.000Z</time>
      </trkpt>
      <trkpt lat="43.92059" lon="4.90578">
        <ele>36.396555</ele>
        <time>2021-09-17T06:25:32.000Z</time>
      </trkpt>
      <trkpt lat="43.92006" lon="4.90592">
        <ele>36.250866</ele>
        <time>2021-09-17T06:25:41.000Z</time>
      </trkpt>
      <trkpt lat="43.91959" lon="4.90604">
        <ele>36.191884</ele>
        <time>2021-09-17T06:25:49.000Z</time>
      </trkpt>
      <trkpt lat="43.91911" lon="4.90615">
        <ele>36.132313</ele>
        <time>2021-09-17T06:25:57.000Z</time>
      </trkpt>
      <trkpt lat="43.91856" lon="4.90627">
        <ele>36.050145</ele>
        <time>2021-09-17T06:26:06.000Z</time>
      </trkpt>
      <trkpt lat="43.9185" lon="4.90629">
        <ele>36.035888</ele>
        <time>2021-09-17T06:26:07.000Z</time>
      </trkpt>
      <trkpt lat="43.91797" lon="4.90642">
        <ele>35.909106</ele>
        <time>2021-09-17T06:26:16.000Z</time>
      </trkpt>
      <trkpt lat="43.91791" lon="4.90643">
        <ele>35.895772</ele>
        <time>2021-09-17T06:26:17.000Z</time>
      </trkpt>
      <trkpt lat="43.91786" lon="4.90644">
        <ele>35.882237</ele>
        <time>2021-09-17T06:26:18.000Z</time>
      </trkpt>
      <trkpt lat="43.91758" lon="4.90651">
        <ele>35.816089</ele>
        <time>2021-09-17T06:26:23.000Z</time>
      </trkpt>
      <trkpt lat="43.91752" lon="4.90652">
        <ele>35.803478</ele>
        <time>2021-09-17T06:26:24.000Z</time>
      </trkpt>
      <trkpt lat="43.91716" lon="4.90661">
        <ele>35.716436</ele>
        <time>2021-09-17T06:26:30.000Z</time>
      </trkpt>
      <trkpt lat="43.91705" lon="4.90664">
        <ele>35.690751</ele>
        <time>2021-09-17T06:26:32.000Z</time>
      </trkpt>
      <trkpt lat="43.91664" lon="4.90674">
        <ele>35.735587</ele>
        <time>2021-09-17T06:26:39.000Z</time>
      </trkpt>
      <trkpt lat="43.9162" lon="4.90684">
        <ele>35.862584</ele>
        <time>2021-09-17T06:26:47.000Z</time>
      </trkpt>
      <trkpt lat="43.91566" lon="4.90695">
        <ele>36.014519</ele>
        <time>2021-09-17T06:26:57.000Z</time>
      </trkpt>
      <trkpt lat="43.91561" lon="4.90696">
        <ele>36.029163</ele>
        <time>2021-09-17T06:26:58.000Z</time>
      </trkpt>
      <trkpt lat="43.91507" lon="4.90702">
        <ele>36.216385</ele>
        <time>2021-09-17T06:27:08.000Z</time>
      </trkpt>
      <trkpt lat="43.91451" lon="4.90708">
        <ele>36.713511</ele>
        <time>2021-09-17T06:27:18.000Z</time>
      </trkpt>
      <trkpt lat="43.91411" lon="4.90712">
        <ele>37.064652</ele>
        <time>2021-09-17T06:27:25.000Z</time>
      </trkpt>
      <trkpt lat="43.91377" lon="4.90715">
        <ele>37.366075</ele>
        <time>2021-09-17T06:27:31.000Z</time>
      </trkpt>
      <trkpt lat="43.91372" lon="4.90715">
        <ele>37.415535</ele>
        <time>2021-09-17T06:27:32.000Z</time>
      </trkpt>
      <trkpt lat="43.91338" lon="4.90712">
        <ele>37.711448</ele>
        <time>2021-09-17T06:27:38.000Z</time>
      </trkpt>
      <trkpt lat="43.91305" lon="4.9071">
        <ele>37.959882</ele>
        <time>2021-09-17T06:27:44.000Z</time>
      </trkpt>
      <trkpt lat="43.91294" lon="4.90709">
        <ele>38.04593</ele>
        <time>2021-09-17T06:27:46.000Z</time>
      </trkpt>
      <trkpt lat="43.91283" lon="4.90712">
        <ele>38.127302</ele>
        <time>2021-09-17T06:27:48.000Z</time>
      </trkpt>
      <trkpt lat="43.9127" lon="4.90729">
        <ele>38.257234</ele>
        <time>2021-09-17T06:27:51.000Z</time>
      </trkpt>
      <trkpt lat="43.91267" lon="4.90736">
        <ele>38.301019</ele>
        <time>2021-09-17T06:27:52.000Z</time>
      </trkpt>
      <trkpt lat="43.91253" lon="4.90771">
        <ele>38.517204</ele>
        <time>2021-09-17T06:27:57.000Z</time>
      </trkpt>
      <trkpt lat="43.91248" lon="4.90785">
        <ele>38.602176</ele>
        <time>2021-09-17T06:27:59.000Z</time>
      </trkpt>
      <trkpt lat="43.91232" lon="4.90833">
        <ele>38.884996</ele>
        <time>2021-09-17T06:28:06.000Z</time>
      </trkpt>
      <trkpt lat="43.91222" lon="4.90865">
        <ele>39.06807</ele>
        <time>2021-09-17T06:28:11.000Z</time>
      </trkpt>
      <trkpt lat="43.91204" lon="4.90923">
        <ele>39.650951</ele>
        <time>2021-09-17T06:28:20.000Z</time>
      </trkpt>
      <trkpt lat="43.9119" lon="4.90968">
        <ele>40.104437</ele>
        <time>2021-09-17T06:28:27.000Z</time>
      </trkpt>
      <trkpt lat="43.9117" lon="4.91022">
        <ele>40.672419</ele>
        <time>2021-09-17T06:28:36.000Z</time>
      </trkpt>
      <trkpt lat="43.91148" lon="4.91079">
        <ele>41.270779</ele>
        <time>2021-09-17T06:28:46.000Z</time>
      </trkpt>
      <trkpt lat="43.91134" lon="4.91113">
        <ele>41.955484</ele>
        <time>2021-09-17T06:28:54.000Z</time>
      </trkpt>
      <trkpt lat="43.91123" lon="4.91143">
        <ele>42.705772</ele>
        <time>2021-09-17T06:29:02.000Z</time>
      </trkpt>
      <trkpt lat="43.91111" lon="4.91173">
        <ele>43.479553</ele>
        <time>2021-09-17T06:29:10.000Z</time>
      </trkpt>
      <trkpt lat="43.91099" lon="4.91203">
        <ele>44.233268</ele>
        <time>2021-09-17T06:29:18.000Z</time>
      </trkpt>
      <trkpt lat="43.91089" lon="4.91232">
        <ele>44.958285</ele>
        <time>2021-09-17T06:29:26.000Z</time>
      </trkpt>
      <trkpt lat="43.9108" lon="4.91258">
        <ele>45.586125</ele>
        <time>2021-09-17T06:29:33.000Z</time>
      </trkpt>
      <trkpt lat="43.91071" lon="4.91284">
        <ele>46.218703</ele>
        <time>2021-09-17T06:29:40.000Z</time>
      </trkpt>
      <trkpt lat="43.91063" lon="4.9131">
        <ele>46.863362</ele>
        <time>2021-09-17T06:29:47.000Z</time>
      </trkpt>
      <trkpt lat="43.91054" lon="4.91346">
        <ele>47.432772</ele>
        <time>2021-09-17T06:29:56.000Z</time>
      </trkpt>
      <trkpt lat="43.91047" lon="4.91382">
        <ele>47.963372</ele>
        <time>2021-09-17T06:30:04.000Z</time>
      </trkpt>
      <trkpt lat="43.91039" lon="4.91419">
        <ele>48.510242</ele>
        <time>2021-09-17T06:30:11.000Z</time>
      </trkpt>
      <trkpt lat="43.91028" lon="4.91466">
        <ele>49.198798</ele>
        <time>2021-09-17T06:30:18.000Z</time>
      </trkpt>
      <trkpt lat="43.91017" lon="4.91516">
        <ele>49.929083</ele>
        <time>2021-09-17T06:30:25.000Z</time>
      </trkpt>
      <trkpt lat="43.91001" lon="4.91587">
        <ele>50.72816</ele>
        <time>2021-09-17T06:30:34.000Z</time>
      </trkpt>
      <trkpt lat="43.90987" lon="4.91652">
        <ele>51.199407</ele>
        <time>2021-09-17T06:30:42.000Z</time>
      </trkpt>
      <trkpt lat="43.90975" lon="4.91702">
        <ele>51.56732</ele>
        <time>2021-09-17T06:30:50.000Z</time>
      </trkpt>
      <trkpt lat="43.90958" lon="4.9175">
        <ele>51.942013</ele>
        <time>2021-09-17T06:30:57.000Z</time>
      </trkpt>
      <trkpt lat="43.90945" lon="4.91777">
        <ele>52.169792</ele>
        <time>2021-09-17T06:31:03.000Z</time>
      </trkpt>
      <trkpt lat="43.9093" lon="4.91806">
        <ele>52.926972</ele>
        <time>2021-09-17T06:31:10.000Z</time>
      </trkpt>
      <trkpt lat="43.90915" lon="4.91837">
        <ele>53.863816</ele>
        <time>2021-09-17T06:31:18.000Z</time>
      </trkpt>
      <trkpt lat="43.90902" lon="4.91862">
        <ele>54.632717</ele>
        <time>2021-09-17T06:31:25.000Z</time>
      </trkpt>
      <trkpt lat="43.90886" lon="4.9189">
        <ele>55.514974</ele>
        <time>2021-09-17T06:31:34.000Z</time>
      </trkpt>
      <trkpt lat="43.90878" lon="4.91905">
        <ele>55.975112</ele>
        <time>2021-09-17T06:31:39.000Z</time>
      </trkpt>
      <trkpt lat="43.90869" lon="4.91919">
        <ele>56.447358</ele>
        <time>2021-09-17T06:31:44.000Z</time>
      </trkpt>
      <trkpt lat="43.90861" lon="4.91933">
        <ele>56.903379</ele>
        <time>2021-09-17T06:31:49.000Z</time>
      </trkpt>
      <trkpt lat="43.9085" lon="4.91952">
        <ele>57.491144</ele>
        <time>2021-09-17T06:31:55.000Z</time>
      </trkpt>
      <trkpt lat="43.90842" lon="4.91967">
        <ele>57.973564</ele>
        <time>2021-09-17T06:32:00.000Z</time>
      </trkpt>
      <trkpt lat="43.90832" lon="4.91982">
        <ele>58.502179</ele>
        <time>2021-09-17T06:32:05.000Z</time>
      </trkpt>
      <trkpt lat="43.90821" lon="4.92002">
        <ele>59.557111</ele>
        <time>2021-09-17T06:32:11.000Z</time>
      </trkpt>
      <trkpt lat="43.90806" lon="4.9203">
        <ele>61.081408</ele>
        <time>2021-09-17T06:32:19.000Z</time>
      </trkpt>
      <trkpt lat="43.90793" lon="4.92058">
        <ele>62.529353</ele>
        <time>2021-09-17T06:32:28.000Z</time>
      </trkpt>
      <trkpt lat="43.90785" lon="4.92075">
        <ele>63.395077</ele>
        <time>2021-09-17T06:32:34.000Z</time>
      </trkpt>
      <trkpt lat="43.90779" lon="4.92089">
        <ele>64.095366</ele>
        <time>2021-09-17T06:32:39.000Z</time>
      </trkpt>
      <trkpt lat="43.90769" lon="4.9211">
        <ele>65.170375</ele>
        <time>2021-09-17T06:32:46.000Z</time>
      </trkpt>
      <trkpt lat="43.9076" lon="4.92131">
        <ele>66.21407</ele>
        <time>2021-09-17T06:32:53.000Z</time>
      </trkpt>
      <trkpt lat="43.90751" lon="4.92153">
        <ele>67.327795</ele>
        <time>2021-09-17T06:33:00.000Z</time>
      </trkpt>
      <trkpt lat="43.90742" lon="4.92175">
        <ele>68.399773</ele>
        <time>2021-09-17T06:33:07.000Z</time>
      </trkpt>
      <trkpt lat="43.90734" lon="4.92201">
        <ele>69.685604</ele>
        <time>2021-09-17T06:33:15.000Z</time>
      </trkpt>
      <trkpt lat="43.90733" lon="4.92205">
        <ele>69.860601</ele>
        <time>2021-09-17T06:33:16.000Z</time>
      </trkpt>
      <trkpt lat="43.9073" lon="4.92215">
        <ele>70.399823</ele>
        <time>2021-09-17T06:33:19.000Z</time>
      </trkpt>
      <trkpt lat="43.90722" lon="4.92243">
        <ele>71.88908</ele>
        <time>2021-09-17T06:33:27.000Z</time>
      </trkpt>
      <trkpt lat="43.90714" lon="4.92271">
        <ele>73.399317</ele>
        <time>2021-09-17T06:33:35.000Z</time>
      </trkpt>
      <trkpt lat="43.90707" lon="4.92296">
        <ele>74.727432</ele>
        <time>2021-09-17T06:33:42.000Z</time>
      </trkpt>
      <trkpt lat="43.907" lon="4.92322">
        <ele>76.153765</ele>
        <time>2021-09-17T06:33:50.000Z</time>
      </trkpt>
      <trkpt lat="43.90692" lon="4.9235">
        <ele>77.605683</ele>
        <time>2021-09-17T06:33:58.000Z</time>
      </trkpt>
      <trkpt lat="43.90684" lon="4.92378">
        <ele>79.094948</ele>
        <time>2021-09-17T06:34:07.000Z</time>
      </trkpt>
      <trkpt lat="43.90679" lon="4.92395">
        <ele>80.016867</ele>
        <time>2021-09-17T06:34:13.000Z</time>
      </trkpt>
      <trkpt lat="43.90674" lon="4.92412">
        <ele>80.930159</ele>
        <time>2021-09-17T06:34:19.000Z</time>
      </trkpt>
      <trkpt lat="43.90667" lon="4.92428">
        <ele>82.091398</ele>
        <time>2021-09-17T06:34:26.000Z</time>
      </trkpt>
      <trkpt lat="43.90661" lon="4.92443">
        <ele>83.551692</ele>
        <time>2021-09-17T06:34:32.000Z</time>
      </trkpt>
      <trkpt lat="43.90654" lon="4.92459">
        <ele>85.158304</ele>
        <time>2021-09-17T06:34:39.000Z</time>
      </trkpt>
      <trkpt lat="43.90649" lon="4.92471">
        <ele>86.340723</ele>
        <time>2021-09-17T06:34:44.000Z</time>
      </trkpt>
      <trkpt lat="43.90648" lon="4.92474">
        <ele>86.577207</ele>
        <time>2021-09-17T06:34:45.000Z</time>
      </trkpt>
      <trkpt lat="43.90645" lon="4.92481">
        <ele>87.251231</ele>
        <time>2021-09-17T06:34:48.000Z</time>
      </trkpt>
      <trkpt lat="43.9064" lon="4.92492">
        <ele>88.377505</ele>
        <time>2021-09-17T06:34:53.000Z</time>
      </trkpt>
      <trkpt lat="43.90635" lon="4.92504">
        <ele>89.6087</ele>
        <time>2021-09-17T06:34:59.000Z</time>
      </trkpt>
      <trkpt lat="43.9063" lon="4.92518">
        <ele>90.916755</ele>
        <time>2021-09-17T06:35:05.000Z</time>
      </trkpt>
      <trkpt lat="43.90623" lon="4.92533">
        <ele>92.43916</ele>
        <time>2021-09-17T06:35:12.000Z</time>
      </trkpt>
      <trkpt lat="43.90622" lon="4.92535">
        <ele>92.647582</ele>
        <time>2021-09-17T06:35:13.000Z</time>
      </trkpt>
      <trkpt lat="43.90616" lon="4.92551">
        <ele>94.184733</ele>
        <time>2021-09-17T06:35:21.000Z</time>
      </trkpt>
      <trkpt lat="43.90609" lon="4.92567">
        <ele>95.749966</ele>
        <time>2021-09-17T06:35:29.000Z</time>
      </trkpt>
      <trkpt lat="43.90603" lon="4.9258">
        <ele>97.084662</ele>
        <time>2021-09-17T06:35:36.000Z</time>
      </trkpt>
      <trkpt lat="43.90598" lon="4.92593">
        <ele>98.349887</ele>
        <time>2021-09-17T06:35:42.000Z</time>
      </trkpt>
      <trkpt lat="43.90593" lon="4.92605">
        <ele>99.539706</ele>
        <time>2021-09-17T06:35:48.000Z</time>
      </trkpt>
      <trkpt lat="43.90586" lon="4.92621">
        <ele>101.076863</ele>
        <time>2021-09-17T06:35:56.000Z</time>
      </trkpt>
      <trkpt lat="43.90581" lon="4.92634">
        <ele>102.390161</ele>
        <time>2021-09-17T06:36:03.000Z</time>
      </trkpt>
      <trkpt lat="43.90575" lon="4.92652">
        <ele>103.950307</ele>
        <time>2021-09-17T06:36:11.000Z</time>
      </trkpt>
      <trkpt lat="43.9057" lon="4.92664">
        <ele>105.043714</ele>
        <time>2021-09-17T06:36:17.000Z</time>
      </trkpt>
      <trkpt lat="43.90564" lon="4.92679">
        <ele>106.377545</ele>
        <time>2021-09-17T06:36:24.000Z</time>
      </trkpt>
      <trkpt lat="43.90559" lon="4.92694">
        <ele>107.655164</ele>
        <time>2021-09-17T06:36:31.000Z</time>
      </trkpt>
      <trkpt lat="43.90552" lon="4.9271">
        <ele>109.103274</ele>
        <time>2021-09-17T06:36:39.000Z</time>
      </trkpt>
      <trkpt lat="43.90547" lon="4.92721">
        <ele>110.097473</ele>
        <time>2021-09-17T06:36:44.000Z</time>
      </trkpt>
      <trkpt lat="43.90545" lon="4.92724">
        <ele>110.470597</ele>
        <time>2021-09-17T06:36:46.000Z</time>
      </trkpt>
      <trkpt lat="43.90537" lon="4.92736">
        <ele>111.722527</ele>
        <time>2021-09-17T06:36:53.000Z</time>
      </trkpt>
      <trkpt lat="43.90531" lon="4.92747">
        <ele>112.75851</ele>
        <time>2021-09-17T06:36:59.000Z</time>
      </trkpt>
      <trkpt lat="43.9052" lon="4.92763">
        <ele>114.42107</ele>
        <time>2021-09-17T06:37:08.000Z</time>
      </trkpt>
      <trkpt lat="43.90513" lon="4.92775">
        <ele>115.697586</ele>
        <time>2021-09-17T06:37:15.000Z</time>
      </trkpt>
      <trkpt lat="43.90504" lon="4.92788">
        <ele>117.020055</ele>
        <time>2021-09-17T06:37:22.000Z</time>
      </trkpt>
      <trkpt lat="43.90499" lon="4.92793">
        <ele>117.710478</ele>
        <time>2021-09-17T06:37:26.000Z</time>
      </trkpt>
      <trkpt lat="43.90497" lon="4.92796">
        <ele>118.077941</ele>
        <time>2021-09-17T06:37:28.000Z</time>
      </trkpt>
      <trkpt lat="43.90489" lon="4.92804">
        <ele>119.109302</ele>
        <time>2021-09-17T06:37:33.000Z</time>
      </trkpt>
      <trkpt lat="43.90475" lon="4.92819">
        <ele>120.955146</ele>
        <time>2021-09-17T06:37:40.000Z</time>
      </trkpt>
      <trkpt lat="43.9046" lon="4.92835">
        <ele>122.224332</ele>
        <time>2021-09-17T06:37:47.000Z</time>
      </trkpt>
      <trkpt lat="43.9045" lon="4.92846">
        <ele>122.244473</ele>
        <time>2021-09-17T06:37:51.000Z</time>
      </trkpt>
      <trkpt lat="43.90431" lon="4.92866">
        <ele>122.282952</ele>
        <time>2021-09-17T06:37:57.000Z</time>
      </trkpt>
      <trkpt lat="43.90419" lon="4.92879">
        <ele>122.305598</ele>
        <time>2021-09-17T06:38:02.000Z</time>
      </trkpt>
      <trkpt lat="43.90405" lon="4.92894">
        <ele>122.33327</ele>
        <time>2021-09-17T06:38:06.000Z</time>
      </trkpt>
      <trkpt lat="43.90401" lon="4.92898">
        <ele>122.340925</ele>
        <time>2021-09-17T06:38:07.000Z</time>
      </trkpt>
      <trkpt lat="43.9038" lon="4.9292">
        <ele>122.382556</ele>
        <time>2021-09-17T06:38:11.000Z</time>
      </trkpt>
      <trkpt lat="43.90375" lon="4.92925">
        <ele>122.391698</ele>
        <time>2021-09-17T06:38:13.000Z</time>
      </trkpt>
      <trkpt lat="43.90347" lon="4.92957">
        <ele>122.449316</ele>
        <time>2021-09-17T06:38:19.000Z</time>
      </trkpt>
      <trkpt lat="43.90314" lon="4.93005">
        <ele>122.402238</ele>
        <time>2021-09-17T06:38:26.000Z</time>
      </trkpt>
      <trkpt lat="43.90276" lon="4.93062">
        <ele>122.125309</ele>
        <time>2021-09-17T06:38:34.000Z</time>
      </trkpt>
      <trkpt lat="43.90254" lon="4.93093">
        <ele>121.969476</ele>
        <time>2021-09-17T06:38:39.000Z</time>
      </trkpt>
      <trkpt lat="43.90219" lon="4.93141">
        <ele>121.725796</ele>
        <time>2021-09-17T06:38:47.000Z</time>
      </trkpt>
      <trkpt lat="43.90207" lon="4.93157">
        <ele>121.644083</ele>
        <time>2021-09-17T06:38:50.000Z</time>
      </trkpt>
      <trkpt lat="43.90199" lon="4.93167">
        <ele>121.627905</ele>
        <time>2021-09-17T06:38:52.000Z</time>
      </trkpt>
      <trkpt lat="43.90196" lon="4.93172">
        <ele>121.678371</ele>
        <time>2021-09-17T06:38:53.000Z</time>
      </trkpt>
      <trkpt lat="43.90174" lon="4.93201">
        <ele>121.975416</ele>
        <time>2021-09-17T06:38:59.000Z</time>
      </trkpt>
      <trkpt lat="43.90151" lon="4.93229">
        <ele>122.273741</ele>
        <time>2021-09-17T06:39:05.000Z</time>
      </trkpt>
      <trkpt lat="43.90147" lon="4.93233">
        <ele>122.31942</ele>
        <time>2021-09-17T06:39:06.000Z</time>
      </trkpt>
      <trkpt lat="43.9014" lon="4.93242">
        <ele>122.411791</ele>
        <time>2021-09-17T06:39:08.000Z</time>
      </trkpt>
      <trkpt lat="43.90133" lon="4.9325">
        <ele>122.500561</ele>
        <time>2021-09-17T06:39:10.000Z</time>
      </trkpt>
      <trkpt lat="43.9013" lon="4.93254">
        <ele>122.545319</ele>
        <time>2021-09-17T06:39:11.000Z</time>
      </trkpt>
      <trkpt lat="43.9011" lon="4.93278">
        <ele>122.804889</ele>
        <time>2021-09-17T06:39:17.000Z</time>
      </trkpt>
      <trkpt lat="43.9008" lon="4.93313">
        <ele>123.183821</ele>
        <time>2021-09-17T06:39:26.000Z</time>
      </trkpt>
      <trkpt lat="43.90054" lon="4.9334">
        <ele>123.197467</ele>
        <time>2021-09-17T06:39:33.000Z</time>
      </trkpt>
      <trkpt lat="43.90033" lon="4.93361">
        <ele>122.891096</ele>
        <time>2021-09-17T06:39:37.000Z</time>
      </trkpt>
      <trkpt lat="43.90027" lon="4.93367">
        <ele>122.80496</ele>
        <time>2021-09-17T06:39:38.000Z</time>
      </trkpt>
      <trkpt lat="43.90002" lon="4.934">
        <ele>122.409113</ele>
        <time>2021-09-17T06:39:42.000Z</time>
      </trkpt>
      <trkpt lat="43.89964" lon="4.93448">
        <ele>121.811797</ele>
        <time>2021-09-17T06:39:47.000Z</time>
      </trkpt>
      <trkpt lat="43.8994" lon="4.9348">
        <ele>121.429691</ele>
        <time>2021-09-17T06:39:50.000Z</time>
      </trkpt>
      <trkpt lat="43.89924" lon="4.93504">
        <ele>120.943677</ele>
        <time>2021-09-17T06:39:52.000Z</time>
      </trkpt>
      <trkpt lat="43.89895" lon="4.93561">
        <ele>119.340043</ele>
        <time>2021-09-17T06:39:56.000Z</time>
      </trkpt>
      <trkpt lat="43.89855" lon="4.93633">
        <ele>117.231017</ele>
        <time>2021-09-17T06:40:01.000Z</time>
      </trkpt>
      <trkpt lat="43.89847" lon="4.93648">
        <ele>116.795697</ele>
        <time>2021-09-17T06:40:02.000Z</time>
      </trkpt>
      <trkpt lat="43.89816" lon="4.9371">
        <ele>114.930961</ele>
        <time>2021-09-17T06:40:06.000Z</time>
      </trkpt>
      <trkpt lat="43.8978" lon="4.93784">
        <ele>112.355774</ele>
        <time>2021-09-17T06:40:11.000Z</time>
      </trkpt>
      <trkpt lat="43.89742" lon="4.93845">
        <ele>110.053118</ele>
        <time>2021-09-17T06:40:16.000Z</time>
      </trkpt>
      <trkpt lat="43.89694" lon="4.93916">
        <ele>107.029588</ele>
        <time>2021-09-17T06:40:22.000Z</time>
      </trkpt>
      <trkpt lat="43.89656" lon="4.9397">
        <ele>104.490931</ele>
        <time>2021-09-17T06:40:28.000Z</time>
      </trkpt>
      <trkpt lat="43.8965" lon="4.93979">
        <ele>104.084325</ele>
        <time>2021-09-17T06:40:29.000Z</time>
      </trkpt>
      <trkpt lat="43.89624" lon="4.94023">
        <ele>102.15111</ele>
        <time>2021-09-17T06:40:34.000Z</time>
      </trkpt>
      <trkpt lat="43.89609" lon="4.94061">
        <ele>100.685195</ele>
        <time>2021-09-17T06:40:39.000Z</time>
      </trkpt>
      <trkpt lat="43.89605" lon="4.94071">
        <ele>100.320576</ele>
        <time>2021-09-17T06:40:40.000Z</time>
      </trkpt>
      <trkpt lat="43.8959" lon="4.94132">
        <ele>97.938233</ele>
        <time>2021-09-17T06:40:46.000Z</time>
      </trkpt>
      <trkpt lat="43.89572" lon="4.94179">
        <ele>95.957194</ele>
        <time>2021-09-17T06:40:51.000Z</time>
      </trkpt>
      <trkpt lat="43.8954" lon="4.94236">
        <ele>93.222777</ele>
        <time>2021-09-17T06:40:57.000Z</time>
      </trkpt>
      <trkpt lat="43.89508" lon="4.94278">
        <ele>90.958911</ele>
        <time>2021-09-17T06:41:02.000Z</time>
      </trkpt>
      <trkpt lat="43.89494" lon="4.94292">
        <ele>89.770178</ele>
        <time>2021-09-17T06:41:04.000Z</time>
      </trkpt>
      <trkpt lat="43.89479" lon="4.94305">
        <ele>88.319682</ele>
        <time>2021-09-17T06:41:06.000Z</time>
      </trkpt>
      <trkpt lat="43.89449" lon="4.94321">
        <ele>85.57636</ele>
        <time>2021-09-17T06:41:10.000Z</time>
      </trkpt>
      <trkpt lat="43.8942" lon="4.94336">
        <ele>82.983971</ele>
        <time>2021-09-17T06:41:15.000Z</time>
      </trkpt>
      <trkpt lat="43.8941" lon="4.94341">
        <ele>82.049998</ele>
        <time>2021-09-17T06:41:17.000Z</time>
      </trkpt>
      <trkpt lat="43.89393" lon="4.94353">
        <ele>80.494723</ele>
        <time>2021-09-17T06:41:20.000Z</time>
      </trkpt>
      <trkpt lat="43.89388" lon="4.94358">
        <ele>79.979637</ele>
        <time>2021-09-17T06:41:21.000Z</time>
      </trkpt>
      <trkpt lat="43.89376" lon="4.94373">
        <ele>78.585923</ele>
        <time>2021-09-17T06:41:24.000Z</time>
      </trkpt>
      <trkpt lat="43.89363" lon="4.94394">
        <ele>76.933033</ele>
        <time>2021-09-17T06:41:28.000Z</time>
      </trkpt>
      <trkpt lat="43.89361" lon="4.94399">
        <ele>76.58265</ele>
        <time>2021-09-17T06:41:29.000Z</time>
      </trkpt>
      <trkpt lat="43.89338" lon="4.94408">
        <ele>74.664197</ele>
        <time>2021-09-17T06:41:34.000Z</time>
      </trkpt>
      <trkpt lat="43.8931" lon="4.94411">
        <ele>72.533149</ele>
        <time>2021-09-17T06:41:40.000Z</time>
      </trkpt>
      <trkpt lat="43.89303" lon="4.94411">
        <ele>71.924916</ele>
        <time>2021-09-17T06:41:44.000Z</time>
      </trkpt>
      <trkpt lat="43.89299" lon="4.94411">
        <ele>71.686242</ele>
        <time>2021-09-17T06:41:48.000Z</time>
      </trkpt>
      <trkpt lat="43.89296" lon="4.94411">
        <ele>71.401374</ele>
        <time>2021-09-17T06:41:51.000Z</time>
      </trkpt>
      <trkpt lat="43.8929" lon="4.94411">
        <ele>70.947124</ele>
        <time>2021-09-17T06:41:54.000Z</time>
      </trkpt>
      <trkpt lat="43.89286" lon="4.94414">
        <ele>70.633904</ele>
        <time>2021-09-17T06:41:56.000Z</time>
      </trkpt>
      <trkpt lat="43.89284" lon="4.94429">
        <ele>69.754542</ele>
        <time>2021-09-17T06:42:00.000Z</time>
      </trkpt>
      <trkpt lat="43.89282" lon="4.94439">
        <ele>69.159265</ele>
        <time>2021-09-17T06:42:02.000Z</time>
      </trkpt>
      <trkpt lat="43.89279" lon="4.94457">
        <ele>68.186322</ele>
        <time>2021-09-17T06:42:05.000Z</time>
      </trkpt>
      <trkpt lat="43.89276" lon="4.94474">
        <ele>67.206243</ele>
        <time>2021-09-17T06:42:08.000Z</time>
      </trkpt>
      <trkpt lat="43.89276" lon="4.94492">
        <ele>66.201881</ele>
        <time>2021-09-17T06:42:11.000Z</time>
      </trkpt>
      <trkpt lat="43.89279" lon="4.94518">
        <ele>64.74879</ele>
        <time>2021-09-17T06:42:16.000Z</time>
      </trkpt>
      <trkpt lat="43.89281" lon="4.94534">
        <ele>63.855945</ele>
        <time>2021-09-17T06:42:21.000Z</time>
      </trkpt>
      <trkpt lat="43.89284" lon="4.94559">
        <ele>62.426594</ele>
        <time>2021-09-17T06:42:26.000Z</time>
      </trkpt>
      <trkpt lat="43.8929" lon="4.94597">
        <ele>61.212432</ele>
        <time>2021-09-17T06:42:32.000Z</time>
      </trkpt>
      <trkpt lat="43.89298" lon="4.94657">
        <ele>60.32429</ele>
        <time>2021-09-17T06:42:41.000Z</time>
      </trkpt>
      <trkpt lat="43.89305" lon="4.94704">
        <ele>59.626786</ele>
        <time>2021-09-17T06:42:48.000Z</time>
      </trkpt>
      <trkpt lat="43.89309" lon="4.94716">
        <ele>59.43184</ele>
        <time>2021-09-17T06:42:50.000Z</time>
      </trkpt>
      <trkpt lat="43.89314" lon="4.94728">
        <ele>59.227241</ele>
        <time>2021-09-17T06:42:52.000Z</time>
      </trkpt>
      <trkpt lat="43.89317" lon="4.94735">
        <ele>59.11885</ele>
        <time>2021-09-17T06:42:53.000Z</time>
      </trkpt>
      <trkpt lat="43.89318" lon="4.94742">
        <ele>59.016861</ele>
        <time>2021-09-17T06:42:54.000Z</time>
      </trkpt>
      <trkpt lat="43.8932" lon="4.94763">
        <ele>58.710878</ele>
        <time>2021-09-17T06:42:57.000Z</time>
      </trkpt>
      <trkpt lat="43.89319" lon="4.94784">
        <ele>58.403196</ele>
        <time>2021-09-17T06:43:01.000Z</time>
      </trkpt>
      <trkpt lat="43.89318" lon="4.94789">
        <ele>58.320574</ele>
        <time>2021-09-17T06:43:05.000Z</time>
      </trkpt>
      <trkpt lat="43.89316" lon="4.94805">
        <ele>58.088688</ele>
        <time>2021-09-17T06:43:10.000Z</time>
      </trkpt>
      <trkpt lat="43.89312" lon="4.94818">
        <ele>57.895404</ele>
        <time>2021-09-17T06:43:14.000Z</time>
      </trkpt>
      <trkpt lat="43.89306" lon="4.94838">
        <ele>57.721271</ele>
        <time>2021-09-17T06:43:18.000Z</time>
      </trkpt>
      <trkpt lat="43.89305" lon="4.94849">
        <ele>57.621181</ele>
        <time>2021-09-17T06:43:20.000Z</time>
      </trkpt>
      <trkpt lat="43.89303" lon="4.94868">
        <ele>57.46135</ele>
        <time>2021-09-17T06:43:23.000Z</time>
      </trkpt>
      <trkpt lat="43.89296" lon="4.94916">
        <ele>57.044548</ele>
        <time>2021-09-17T06:43:30.000Z</time>
      </trkpt>
      <trkpt lat="43.89295" lon="4.94939">
        <ele>56.853174</ele>
        <time>2021-09-17T06:43:33.000Z</time>
      </trkpt>
      <trkpt lat="43.89291" lon="4.94961">
        <ele>56.658331</ele>
        <time>2021-09-17T06:43:36.000Z</time>
      </trkpt>
      <trkpt lat="43.89282" lon="4.95017">
        <ele>56.17818</ele>
        <time>2021-09-17T06:43:43.000Z</time>
      </trkpt>
      <trkpt lat="43.89274" lon="4.95053">
        <ele>55.852408</ele>
        <time>2021-09-17T06:43:49.000Z</time>
      </trkpt>
      <trkpt lat="43.89254" lon="4.95109">
        <ele>55.668656</ele>
        <time>2021-09-17T06:43:53.000Z</time>
      </trkpt>
      <trkpt lat="43.8925" lon="4.95124">
        <ele>55.628467</ele>
        <time>2021-09-17T06:43:55.000Z</time>
      </trkpt>
      <trkpt lat="43.89229" lon="4.95186">
        <ele>55.465846</ele>
        <time>2021-09-17T06:44:03.000Z</time>
      </trkpt>
      <trkpt lat="43.89214" lon="4.95229">
        <ele>55.349149</ele>
        <time>2021-09-17T06:44:09.000Z</time>
      </trkpt>
      <trkpt lat="43.89212" lon="4.95237">
        <ele>55.327975</ele>
        <time>2021-09-17T06:44:10.000Z</time>
      </trkpt>
      <trkpt lat="43.89196" lon="4.95289">
        <ele>55.182307</ele>
        <time>2021-09-17T06:44:17.000Z</time>
      </trkpt>
      <trkpt lat="43.89175" lon="4.95344">
        <ele>54.893191</ele>
        <time>2021-09-17T06:44:25.000Z</time>
      </trkpt>
      <trkpt lat="43.89156" lon="4.95391">
        <ele>54.644492</ele>
        <time>2021-09-17T06:44:32.000Z</time>
      </trkpt>
      <trkpt lat="43.8914" lon="4.95432">
        <ele>54.425468</ele>
        <time>2021-09-17T06:44:38.000Z</time>
      </trkpt>
      <trkpt lat="43.89127" lon="4.95453">
        <ele>54.299083</ele>
        <time>2021-09-17T06:44:41.000Z</time>
      </trkpt>
      <trkpt lat="43.89126" lon="4.95455">
        <ele>54.287788</ele>
        <time>2021-09-17T06:44:44.000Z</time>
      </trkpt>
      <trkpt lat="43.89112" lon="4.95456">
        <ele>54.197525</ele>
        <time>2021-09-17T06:44:48.000Z</time>
      </trkpt>
      <trkpt lat="43.89101" lon="4.95453">
        <ele>54.125884</ele>
        <time>2021-09-17T06:44:53.000Z</time>
      </trkpt>
      <trkpt lat="43.891" lon="4.95453">
        <ele>54.115324</ele>
        <time>2021-09-17T06:44:55.000Z</time>
      </trkpt>
      <trkpt lat="43.89102" lon="4.95461">
        <ele>54.075357</ele>
        <time>2021-09-17T06:44:56.000Z</time>
      </trkpt>
      <trkpt lat="43.89103" lon="4.95454">
        <ele>54.045112</ele>
        <time>2021-09-17T06:44:59.000Z</time>
      </trkpt>
      <trkpt lat="43.89106" lon="4.95455">
        <ele>54.038722</ele>
        <time>2021-09-17T06:45:42.000Z</time>
      </trkpt>
      <trkpt lat="43.89108" lon="4.95455">
        <ele>54.036053</ele>
        <time>2021-09-17T06:45:43.000Z</time>
      </trkpt>
      <trkpt lat="43.89118" lon="4.95458">
        <ele>54.01683</ele>
        <time>2021-09-17T06:45:48.000Z</time>
      </trkpt>
      <trkpt lat="43.89125" lon="4.95467">
        <ele>53.998985</ele>
        <time>2021-09-17T06:45:53.000Z</time>
      </trkpt>
      <trkpt lat="43.89115" lon="4.95487">
        <ele>53.966812</ele>
        <time>2021-09-17T06:45:57.000Z</time>
      </trkpt>
      <trkpt lat="43.89101" lon="4.95527">
        <ele>53.907475</ele>
        <time>2021-09-17T06:46:04.000Z</time>
      </trkpt>
      <trkpt lat="43.89085" lon="4.95569">
        <ele>53.843794</ele>
        <time>2021-09-17T06:46:11.000Z</time>
      </trkpt>
      <trkpt lat="43.89074" lon="4.956">
        <ele>53.7979</ele>
        <time>2021-09-17T06:46:16.000Z</time>
      </trkpt>
      <trkpt lat="43.8907" lon="4.95612">
        <ele>53.78047</ele>
        <time>2021-09-17T06:46:18.000Z</time>
      </trkpt>
      <trkpt lat="43.89053" lon="4.95638">
        <ele>53.733809</ele>
        <time>2021-09-17T06:46:24.000Z</time>
      </trkpt>
      <trkpt lat="43.89047" lon="4.95656">
        <ele>53.70386</ele>
        <time>2021-09-17T06:46:27.000Z</time>
      </trkpt>
      <trkpt lat="43.89042" lon="4.95676">
        <ele>53.659671</ele>
        <time>2021-09-17T06:46:29.000Z</time>
      </trkpt>
      <trkpt lat="43.8903" lon="4.95716">
        <ele>53.569991</ele>
        <time>2021-09-17T06:46:35.000Z</time>
      </trkpt>
      <trkpt lat="43.89006" lon="4.95778">
        <ele>53.421277</ele>
        <time>2021-09-17T06:46:44.000Z</time>
      </trkpt>
      <trkpt lat="43.88984" lon="4.95837">
        <ele>53.283783</ele>
        <time>2021-09-17T06:46:52.000Z</time>
      </trkpt>
      <trkpt lat="43.88966" lon="4.95896">
        <ele>53.151955</ele>
        <time>2021-09-17T06:47:00.000Z</time>
      </trkpt>
      <trkpt lat="43.88963" lon="4.95903">
        <ele>53.137181</ele>
        <time>2021-09-17T06:47:01.000Z</time>
      </trkpt>
      <trkpt lat="43.88954" lon="4.95921">
        <ele>53.092994</ele>
        <time>2021-09-17T06:47:04.000Z</time>
      </trkpt>
      <trkpt lat="43.88952" lon="4.95928">
        <ele>53.078906</ele>
        <time>2021-09-17T06:47:05.000Z</time>
      </trkpt>
      <trkpt lat="43.88938" lon="4.9597">
        <ele>52.989632</ele>
        <time>2021-09-17T06:47:11.000Z</time>
      </trkpt>
      <trkpt lat="43.88919" lon="4.9602">
        <ele>52.879103</ele>
        <time>2021-09-17T06:47:18.000Z</time>
      </trkpt>
      <trkpt lat="43.8889" lon="4.96093">
        <ele>52.718679</ele>
        <time>2021-09-17T06:47:28.000Z</time>
      </trkpt>
      <trkpt lat="43.88888" lon="4.96101">
        <ele>52.709316</ele>
        <time>2021-09-17T06:47:29.000Z</time>
      </trkpt>
      <trkpt lat="43.88868" lon="4.96153">
        <ele>52.724276</ele>
        <time>2021-09-17T06:47:36.000Z</time>
      </trkpt>
      <trkpt lat="43.88866" lon="4.9616">
        <ele>52.72638</ele>
        <time>2021-09-17T06:47:37.000Z</time>
      </trkpt>
      <trkpt lat="43.8886" lon="4.96174">
        <ele>52.73052</ele>
        <time>2021-09-17T06:47:39.000Z</time>
      </trkpt>
      <trkpt lat="43.88855" lon="4.96189">
        <ele>52.734643</ele>
        <time>2021-09-17T06:47:41.000Z</time>
      </trkpt>
      <trkpt lat="43.88841" lon="4.96225">
        <ele>52.745122</ele>
        <time>2021-09-17T06:47:46.000Z</time>
      </trkpt>
      <trkpt lat="43.88838" lon="4.96232">
        <ele>52.747282</ele>
        <time>2021-09-17T06:47:47.000Z</time>
      </trkpt>
      <trkpt lat="43.88825" lon="4.96266">
        <ele>52.757157</ele>
        <time>2021-09-17T06:47:52.000Z</time>
      </trkpt>
      <trkpt lat="43.88822" lon="4.96273">
        <ele>52.759188</ele>
        <time>2021-09-17T06:47:53.000Z</time>
      </trkpt>
      <trkpt lat="43.88814" lon="4.96296">
        <ele>52.765721</ele>
        <time>2021-09-17T06:47:57.000Z</time>
      </trkpt>
      <trkpt lat="43.88792" lon="4.96347">
        <ele>52.868189</ele>
        <time>2021-09-17T06:48:03.000Z</time>
      </trkpt>
      <trkpt lat="43.88789" lon="4.96354">
        <ele>52.892372</ele>
        <time>2021-09-17T06:48:04.000Z</time>
      </trkpt>
      <trkpt lat="43.8876" lon="4.96409">
        <ele>53.090108</ele>
        <time>2021-09-17T06:48:12.000Z</time>
      </trkpt>
      <trkpt lat="43.88737" lon="4.96448">
        <ele>53.233566</ele>
        <time>2021-09-17T06:48:18.000Z</time>
      </trkpt>
      <trkpt lat="43.88708" lon="4.96497">
        <ele>53.419282</ele>
        <time>2021-09-17T06:48:26.000Z</time>
      </trkpt>
      <trkpt lat="43.88679" lon="4.96546">
        <ele>53.549231</ele>
        <time>2021-09-17T06:48:34.000Z</time>
      </trkpt>
      <trkpt lat="43.88675" lon="4.96552">
        <ele>53.561172</ele>
        <time>2021-09-17T06:48:35.000Z</time>
      </trkpt>
      <trkpt lat="43.88656" lon="4.96584">
        <ele>53.622275</ele>
        <time>2021-09-17T06:48:40.000Z</time>
      </trkpt>
      <trkpt lat="43.8863" lon="4.96628">
        <ele>53.707837</ele>
        <time>2021-09-17T06:48:47.000Z</time>
      </trkpt>
      <trkpt lat="43.88601" lon="4.96678">
        <ele>53.804218</ele>
        <time>2021-09-17T06:48:55.000Z</time>
      </trkpt>
      <trkpt lat="43.88594" lon="4.96691">
        <ele>53.829255</ele>
        <time>2021-09-17T06:48:57.000Z</time>
      </trkpt>
      <trkpt lat="43.88585" lon="4.96698">
        <ele>53.850409</ele>
        <time>2021-09-17T06:48:59.000Z</time>
      </trkpt>
      <trkpt lat="43.88569" lon="4.96702">
        <ele>53.891694</ele>
        <time>2021-09-17T06:49:02.000Z</time>
      </trkpt>
      <trkpt lat="43.88564" lon="4.96705">
        <ele>53.909601</ele>
        <time>2021-09-17T06:49:03.000Z</time>
      </trkpt>
      <trkpt lat="43.8856" lon="4.96711">
        <ele>53.92586</ele>
        <time>2021-09-17T06:49:04.000Z</time>
      </trkpt>
      <trkpt lat="43.88556" lon="4.96725">
        <ele>53.959926</ele>
        <time>2021-09-17T06:49:06.000Z</time>
      </trkpt>
      <trkpt lat="43.88553" lon="4.96757">
        <ele>54.028163</ele>
        <time>2021-09-17T06:49:10.000Z</time>
      </trkpt>
      <trkpt lat="43.8855" lon="4.96764">
        <ele>54.046551</ele>
        <time>2021-09-17T06:49:11.000Z</time>
      </trkpt>
      <trkpt lat="43.88531" lon="4.96796">
        <ele>54.135491</ele>
        <time>2021-09-17T06:49:16.000Z</time>
      </trkpt>
      <trkpt lat="43.88527" lon="4.96803">
        <ele>54.152799</ele>
        <time>2021-09-17T06:49:17.000Z</time>
      </trkpt>
      <trkpt lat="43.88506" lon="4.9684">
        <ele>54.254966</ele>
        <time>2021-09-17T06:49:23.000Z</time>
      </trkpt>
      <trkpt lat="43.88474" lon="4.96896">
        <ele>54.410984</ele>
        <time>2021-09-17T06:49:32.000Z</time>
      </trkpt>
      <trkpt lat="43.8845" lon="4.96936">
        <ele>54.58932</ele>
        <time>2021-09-17T06:49:39.000Z</time>
      </trkpt>
      <trkpt lat="43.88421" lon="4.96963">
        <ele>54.755881</ele>
        <time>2021-09-17T06:49:46.000Z</time>
      </trkpt>
      <trkpt lat="43.88408" lon="4.96981">
        <ele>54.841242</ele>
        <time>2021-09-17T06:49:51.000Z</time>
      </trkpt>
      <trkpt lat="43.88408" lon="4.96988">
        <ele>54.865782</ele>
        <time>2021-09-17T06:49:52.000Z</time>
      </trkpt>
      <trkpt lat="43.8841" lon="4.97">
        <ele>54.90713</ele>
        <time>2021-09-17T06:49:54.000Z</time>
      </trkpt>
      <trkpt lat="43.88412" lon="4.97006">
        <ele>54.928471</ele>
        <time>2021-09-17T06:49:55.000Z</time>
      </trkpt>
      <trkpt lat="43.88419" lon="4.9703">
        <ele>55.016222</ele>
        <time>2021-09-17T06:49:59.000Z</time>
      </trkpt>
      <trkpt lat="43.8842" lon="4.97053">
        <ele>55.096591</ele>
        <time>2021-09-17T06:50:03.000Z</time>
      </trkpt>
      <trkpt lat="43.88419" lon="4.97065">
        <ele>55.134847</ele>
        <time>2021-09-17T06:50:05.000Z</time>
      </trkpt>
      <trkpt lat="43.88414" lon="4.97093">
        <ele>55.235929</ele>
        <time>2021-09-17T06:50:11.000Z</time>
      </trkpt>
      <trkpt lat="43.88405" lon="4.97123">
        <ele>55.411545</ele>
        <time>2021-09-17T06:50:19.000Z</time>
      </trkpt>
      <trkpt lat="43.88394" lon="4.97152">
        <ele>55.607707</ele>
        <time>2021-09-17T06:50:27.000Z</time>
      </trkpt>
      <trkpt lat="43.88383" lon="4.97181">
        <ele>55.802318</ele>
        <time>2021-09-17T06:50:34.000Z</time>
      </trkpt>
      <trkpt lat="43.88371" lon="4.97214">
        <ele>56.017026</ele>
        <time>2021-09-17T06:50:40.000Z</time>
      </trkpt>
      <trkpt lat="43.88361" lon="4.97256">
        <ele>56.280594</ele>
        <time>2021-09-17T06:50:46.000Z</time>
      </trkpt>
      <trkpt lat="43.88347" lon="4.97315">
        <ele>56.650586</ele>
        <time>2021-09-17T06:50:53.000Z</time>
      </trkpt>
      <trkpt lat="43.8834" lon="4.9734">
        <ele>56.742138</ele>
        <time>2021-09-17T06:50:56.000Z</time>
      </trkpt>
      <trkpt lat="43.88334" lon="4.97365">
        <ele>56.754647</ele>
        <time>2021-09-17T06:50:59.000Z</time>
      </trkpt>
      <trkpt lat="43.88331" lon="4.97373">
        <ele>56.758595</ele>
        <time>2021-09-17T06:51:00.000Z</time>
      </trkpt>
      <trkpt lat="43.88317" lon="4.9741">
        <ele>56.77836</ele>
        <time>2021-09-17T06:51:05.000Z</time>
      </trkpt>
      <trkpt lat="43.88294" lon="4.9746">
        <ele>56.805574</ele>
        <time>2021-09-17T06:51:12.000Z</time>
      </trkpt>
      <trkpt lat="43.88274" lon="4.9751">
        <ele>56.832636</ele>
        <time>2021-09-17T06:51:19.000Z</time>
      </trkpt>
      <trkpt lat="43.88246" lon="4.97569">
        <ele>56.884192</ele>
        <time>2021-09-17T06:51:27.000Z</time>
      </trkpt>
      <trkpt lat="43.88218" lon="4.97618">
        <ele>56.956317</ele>
        <time>2021-09-17T06:51:34.000Z</time>
      </trkpt>
      <trkpt lat="43.88181" lon="4.97667">
        <ele>57.036725</ele>
        <time>2021-09-17T06:51:42.000Z</time>
      </trkpt>
      <trkpt lat="43.88134" lon="4.97714">
        <ele>57.129818</ele>
        <time>2021-09-17T06:51:51.000Z</time>
      </trkpt>
      <trkpt lat="43.8809" lon="4.97748">
        <ele>57.190939</ele>
        <time>2021-09-17T06:51:59.000Z</time>
      </trkpt>
      <trkpt lat="43.88038" lon="4.97781">
        <ele>57.257897</ele>
        <time>2021-09-17T06:52:08.000Z</time>
      </trkpt>
      <trkpt lat="43.88033" lon="4.97784">
        <ele>57.265217</ele>
        <time>2021-09-17T06:52:09.000Z</time>
      </trkpt>
      <trkpt lat="43.8798" lon="4.97812">
        <ele>57.331192</ele>
        <time>2021-09-17T06:52:18.000Z</time>
      </trkpt>
      <trkpt lat="43.87935" lon="4.97837">
        <ele>57.45307</ele>
        <time>2021-09-17T06:52:26.000Z</time>
      </trkpt>
      <trkpt lat="43.8789" lon="4.97868">
        <ele>57.609203</ele>
        <time>2021-09-17T06:52:34.000Z</time>
      </trkpt>
      <trkpt lat="43.87841" lon="4.97911">
        <ele>57.791083</ele>
        <time>2021-09-17T06:52:43.000Z</time>
      </trkpt>
      <trkpt lat="43.87836" lon="4.97916">
        <ele>57.811744</ele>
        <time>2021-09-17T06:52:44.000Z</time>
      </trkpt>
      <trkpt lat="43.87797" lon="4.97956">
        <ele>57.978071</ele>
        <time>2021-09-17T06:52:51.000Z</time>
      </trkpt>
      <trkpt lat="43.87754" lon="4.98002">
        <ele>58.200888</ele>
        <time>2021-09-17T06:52:59.000Z</time>
      </trkpt>
      <trkpt lat="43.87748" lon="4.98007">
        <ele>58.229095</ele>
        <time>2021-09-17T06:53:00.000Z</time>
      </trkpt>
      <trkpt lat="43.87701" lon="4.98057">
        <ele>58.471567</ele>
        <time>2021-09-17T06:53:09.000Z</time>
      </trkpt>
      <trkpt lat="43.87696" lon="4.98063">
        <ele>58.498265</ele>
        <time>2021-09-17T06:53:10.000Z</time>
      </trkpt>
      <trkpt lat="43.87648" lon="4.98113">
        <ele>58.747777</ele>
        <time>2021-09-17T06:53:19.000Z</time>
      </trkpt>
      <trkpt lat="43.87611" lon="4.98152">
        <ele>58.951322</ele>
        <time>2021-09-17T06:53:26.000Z</time>
      </trkpt>
      <trkpt lat="43.87564" lon="4.98201">
        <ele>59.210005</ele>
        <time>2021-09-17T06:53:35.000Z</time>
      </trkpt>
      <trkpt lat="43.87553" lon="4.98211">
        <ele>59.26541</ele>
        <time>2021-09-17T06:53:37.000Z</time>
      </trkpt>
      <trkpt lat="43.87518" lon="4.98248">
        <ele>59.45176</ele>
        <time>2021-09-17T06:53:44.000Z</time>
      </trkpt>
      <trkpt lat="43.87477" lon="4.9829">
        <ele>59.591387</ele>
        <time>2021-09-17T06:53:52.000Z</time>
      </trkpt>
      <trkpt lat="43.87436" lon="4.98332">
        <ele>59.730985</ele>
        <time>2021-09-17T06:54:00.000Z</time>
      </trkpt>
      <trkpt lat="43.874" lon="4.98368">
        <ele>59.853492</ele>
        <time>2021-09-17T06:54:07.000Z</time>
      </trkpt>
      <trkpt lat="43.87351" lon="4.98414">
        <ele>59.997418</ele>
        <time>2021-09-17T06:54:16.000Z</time>
      </trkpt>
      <trkpt lat="43.87346" lon="4.98419">
        <ele>60.012022</ele>
        <time>2021-09-17T06:54:17.000Z</time>
      </trkpt>
      <trkpt lat="43.87308" lon="4.98455">
        <ele>60.111507</ele>
        <time>2021-09-17T06:54:24.000Z</time>
      </trkpt>
      <trkpt lat="43.87265" lon="4.98507">
        <ele>60.234257</ele>
        <time>2021-09-17T06:54:33.000Z</time>
      </trkpt>
      <trkpt lat="43.87231" lon="4.98559">
        <ele>60.319333</ele>
        <time>2021-09-17T06:54:41.000Z</time>
      </trkpt>
      <trkpt lat="43.8722" lon="4.98579">
        <ele>60.318449</ele>
        <time>2021-09-17T06:54:44.000Z</time>
      </trkpt>
      <trkpt lat="43.87212" lon="4.98593">
        <ele>60.317857</ele>
        <time>2021-09-17T06:54:46.000Z</time>
      </trkpt>
      <trkpt lat="43.87197" lon="4.98622">
        <ele>60.316633</ele>
        <time>2021-09-17T06:54:50.000Z</time>
      </trkpt>
      <trkpt lat="43.87194" lon="4.9863">
        <ele>60.31632</ele>
        <time>2021-09-17T06:54:51.000Z</time>
      </trkpt>
      <trkpt lat="43.87171" lon="4.98673">
        <ele>60.314482</ele>
        <time>2021-09-17T06:54:57.000Z</time>
      </trkpt>
      <trkpt lat="43.87168" lon="4.9868">
        <ele>60.314197</ele>
        <time>2021-09-17T06:54:58.000Z</time>
      </trkpt>
      <trkpt lat="43.87154" lon="4.98708">
        <ele>60.313017</ele>
        <time>2021-09-17T06:55:02.000Z</time>
      </trkpt>
      <trkpt lat="43.87129" lon="4.98758">
        <ele>60.312321</ele>
        <time>2021-09-17T06:55:09.000Z</time>
      </trkpt>
      <trkpt lat="43.87122" lon="4.98772">
        <ele>60.314112</ele>
        <time>2021-09-17T06:55:11.000Z</time>
      </trkpt>
      <trkpt lat="43.87115" lon="4.98786">
        <ele>60.315817</ele>
        <time>2021-09-17T06:55:13.000Z</time>
      </trkpt>
      <trkpt lat="43.87101" lon="4.98814">
        <ele>60.319484</ele>
        <time>2021-09-17T06:55:17.000Z</time>
      </trkpt>
      <trkpt lat="43.87097" lon="4.98822">
        <ele>60.32044</ele>
        <time>2021-09-17T06:55:18.000Z</time>
      </trkpt>
      <trkpt lat="43.87075" lon="4.98866">
        <ele>60.326103</ele>
        <time>2021-09-17T06:55:24.000Z</time>
      </trkpt>
      <trkpt lat="43.87045" lon="4.98926">
        <ele>60.333702</ele>
        <time>2021-09-17T06:55:32.000Z</time>
      </trkpt>
      <trkpt lat="43.87024" lon="4.98978">
        <ele>60.379864</ele>
        <time>2021-09-17T06:55:39.000Z</time>
      </trkpt>
      <trkpt lat="43.87012" lon="4.9902">
        <ele>60.456941</ele>
        <time>2021-09-17T06:55:44.000Z</time>
      </trkpt>
      <trkpt lat="43.86999" lon="4.9908">
        <ele>60.565049</ele>
        <time>2021-09-17T06:55:51.000Z</time>
      </trkpt>
      <trkpt lat="43.86995" lon="4.99098">
        <ele>60.596838</ele>
        <time>2021-09-17T06:55:53.000Z</time>
      </trkpt>
      <trkpt lat="43.8699" lon="4.99124">
        <ele>60.644418</ele>
        <time>2021-09-17T06:55:56.000Z</time>
      </trkpt>
      <trkpt lat="43.86977" lon="4.99184">
        <ele>60.751725</ele>
        <time>2021-09-17T06:56:03.000Z</time>
      </trkpt>
      <trkpt lat="43.86962" lon="4.99232">
        <ele>60.7927</ele>
        <time>2021-09-17T06:56:09.000Z</time>
      </trkpt>
      <trkpt lat="43.86941" lon="4.99277">
        <ele>60.822707</ele>
        <time>2021-09-17T06:56:15.000Z</time>
      </trkpt>
      <trkpt lat="43.86916" lon="4.99316">
        <ele>60.852461</ele>
        <time>2021-09-17T06:56:21.000Z</time>
      </trkpt>
      <trkpt lat="43.86887" lon="4.99347">
        <ele>60.880895</ele>
        <time>2021-09-17T06:56:27.000Z</time>
      </trkpt>
      <trkpt lat="43.86837" lon="4.99387">
        <ele>60.966172</ele>
        <time>2021-09-17T06:56:35.000Z</time>
      </trkpt>
      <trkpt lat="43.86831" lon="4.99391">
        <ele>60.983047</ele>
        <time>2021-09-17T06:56:36.000Z</time>
      </trkpt>
      <trkpt lat="43.86786" lon="4.99425">
        <ele>61.117878</ele>
        <time>2021-09-17T06:56:45.000Z</time>
      </trkpt>
      <trkpt lat="43.86737" lon="4.99463">
        <ele>61.268564</ele>
        <time>2021-09-17T06:56:53.000Z</time>
      </trkpt>
      <trkpt lat="43.86701" lon="4.99493">
        <ele>61.378614</ele>
        <time>2021-09-17T06:57:01.000Z</time>
      </trkpt>
      <trkpt lat="43.86673" lon="4.99522">
        <ele>61.509249</ele>
        <time>2021-09-17T06:57:07.000Z</time>
      </trkpt>
      <trkpt lat="43.86641" lon="4.99564">
        <ele>61.677947</ele>
        <time>2021-09-17T06:57:14.000Z</time>
      </trkpt>
      <trkpt lat="43.86605" lon="4.99617">
        <ele>61.874721</ele>
        <time>2021-09-17T06:57:22.000Z</time>
      </trkpt>
      <trkpt lat="43.86567" lon="4.99666">
        <ele>62.076575</ele>
        <time>2021-09-17T06:57:29.000Z</time>
      </trkpt>
      <trkpt lat="43.86527" lon="4.99716">
        <ele>62.297494</ele>
        <time>2021-09-17T06:57:37.000Z</time>
      </trkpt>
      <trkpt lat="43.86498" lon="4.99753">
        <ele>62.460725</ele>
        <time>2021-09-17T06:57:43.000Z</time>
      </trkpt>
      <trkpt lat="43.86459" lon="4.99804">
        <ele>62.682455</ele>
        <time>2021-09-17T06:57:52.000Z</time>
      </trkpt>
      <trkpt lat="43.86431" lon="4.99841">
        <ele>62.840024</ele>
        <time>2021-09-17T06:57:57.000Z</time>
      </trkpt>
      <trkpt lat="43.86404" lon="4.99891">
        <ele>63.00775</ele>
        <time>2021-09-17T06:58:04.000Z</time>
      </trkpt>
      <trkpt lat="43.86383" lon="4.99949">
        <ele>63.18198</ele>
        <time>2021-09-17T06:58:11.000Z</time>
      </trkpt>
      <trkpt lat="43.86358" lon="5.00015">
        <ele>63.380869</ele>
        <time>2021-09-17T06:58:19.000Z</time>
      </trkpt>
      <trkpt lat="43.86339" lon="5.00064">
        <ele>63.575665</ele>
        <time>2021-09-17T06:58:25.000Z</time>
      </trkpt>
      <trkpt lat="43.86313" lon="5.00132">
        <ele>63.974687</ele>
        <time>2021-09-17T06:58:33.000Z</time>
      </trkpt>
      <trkpt lat="43.86289" lon="5.00202">
        <ele>64.37691</ele>
        <time>2021-09-17T06:58:41.000Z</time>
      </trkpt>
      <trkpt lat="43.86266" lon="5.00271">
        <ele>64.771961</ele>
        <time>2021-09-17T06:58:49.000Z</time>
      </trkpt>
      <trkpt lat="43.86243" lon="5.00339">
        <ele>65.04252</ele>
        <time>2021-09-17T06:58:57.000Z</time>
      </trkpt>
      <trkpt lat="43.8624" lon="5.00348">
        <ele>65.075683</ele>
        <time>2021-09-17T06:58:58.000Z</time>
      </trkpt>
      <trkpt lat="43.86216" lon="5.00415">
        <ele>65.342244</ele>
        <time>2021-09-17T06:59:06.000Z</time>
      </trkpt>
      <trkpt lat="43.86212" lon="5.00423">
        <ele>65.375415</ele>
        <time>2021-09-17T06:59:07.000Z</time>
      </trkpt>
      <trkpt lat="43.86194" lon="5.00473">
        <ele>65.572189</ele>
        <time>2021-09-17T06:59:13.000Z</time>
      </trkpt>
      <trkpt lat="43.86169" lon="5.00536">
        <ele>65.773913</ele>
        <time>2021-09-17T06:59:21.000Z</time>
      </trkpt>
      <trkpt lat="43.86143" lon="5.00595">
        <ele>65.93955</ele>
        <time>2021-09-17T06:59:29.000Z</time>
      </trkpt>
      <trkpt lat="43.86111" lon="5.00665">
        <ele>66.136426</ele>
        <time>2021-09-17T06:59:39.000Z</time>
      </trkpt>
      <trkpt lat="43.86108" lon="5.00671">
        <ele>66.155432</ele>
        <time>2021-09-17T06:59:40.000Z</time>
      </trkpt>
      <trkpt lat="43.8608" lon="5.00732">
        <ele>66.320119</ele>
        <time>2021-09-17T06:59:49.000Z</time>
      </trkpt>
      <trkpt lat="43.86048" lon="5.00796">
        <ele>66.482943</ele>
        <time>2021-09-17T06:59:58.000Z</time>
      </trkpt>
      <trkpt lat="43.8602" lon="5.00857">
        <ele>66.63557</ele>
        <time>2021-09-17T07:00:06.000Z</time>
      </trkpt>
      <trkpt lat="43.8599" lon="5.00922">
        <ele>66.785156</ele>
        <time>2021-09-17T07:00:14.000Z</time>
      </trkpt>
      <trkpt lat="43.85987" lon="5.0093">
        <ele>66.787143</ele>
        <time>2021-09-17T07:00:15.000Z</time>
      </trkpt>
      <trkpt lat="43.85963" lon="5.00987">
        <ele>66.800854</ele>
        <time>2021-09-17T07:00:22.000Z</time>
      </trkpt>
      <trkpt lat="43.85935" lon="5.01052">
        <ele>66.816653</ele>
        <time>2021-09-17T07:00:30.000Z</time>
      </trkpt>
      <trkpt lat="43.85931" lon="5.01061">
        <ele>66.818643</ele>
        <time>2021-09-17T07:00:32.000Z</time>
      </trkpt>
      <trkpt lat="43.85905" lon="5.01125">
        <ele>66.834037</ele>
        <time>2021-09-17T07:00:39.000Z</time>
      </trkpt>
      <trkpt lat="43.85889" lon="5.01163">
        <ele>66.897355</ele>
        <time>2021-09-17T07:00:44.000Z</time>
      </trkpt>
      <trkpt lat="43.85883" lon="5.01178">
        <ele>66.927437</ele>
        <time>2021-09-17T07:00:46.000Z</time>
      </trkpt>
      <trkpt lat="43.85877" lon="5.01194">
        <ele>66.957369</ele>
        <time>2021-09-17T07:00:48.000Z</time>
      </trkpt>
      <trkpt lat="43.8587" lon="5.0121">
        <ele>66.988845</ele>
        <time>2021-09-17T07:00:50.000Z</time>
      </trkpt>
      <trkpt lat="43.85848" lon="5.01266">
        <ele>67.098923</ele>
        <time>2021-09-17T07:00:57.000Z</time>
      </trkpt>
      <trkpt lat="43.85819" lon="5.01335">
        <ele>67.236019</ele>
        <time>2021-09-17T07:01:06.000Z</time>
      </trkpt>
      <trkpt lat="43.85815" lon="5.01342">
        <ele>67.251187</ele>
        <time>2021-09-17T07:01:07.000Z</time>
      </trkpt>
      <trkpt lat="43.85796" lon="5.01387">
        <ele>67.388006</ele>
        <time>2021-09-17T07:01:14.000Z</time>
      </trkpt>
      <trkpt lat="43.85767" lon="5.0145">
        <ele>67.59454</ele>
        <time>2021-09-17T07:01:22.000Z</time>
      </trkpt>
      <trkpt lat="43.8576" lon="5.01462">
        <ele>67.636948</ele>
        <time>2021-09-17T07:01:24.000Z</time>
      </trkpt>
      <trkpt lat="43.85754" lon="5.01465">
        <ele>67.660812</ele>
        <time>2021-09-17T07:01:25.000Z</time>
      </trkpt>
      <trkpt lat="43.85743" lon="5.01479">
        <ele>67.718322</ele>
        <time>2021-09-17T07:01:28.000Z</time>
      </trkpt>
      <trkpt lat="43.85743" lon="5.01494">
        <ele>67.760556</ele>
        <time>2021-09-17T07:01:30.000Z</time>
      </trkpt>
      <trkpt lat="43.85743" lon="5.01502">
        <ele>67.78208</ele>
        <time>2021-09-17T07:01:31.000Z</time>
      </trkpt>
      <trkpt lat="43.85743" lon="5.0151">
        <ele>67.804431</ele>
        <time>2021-09-17T07:01:32.000Z</time>
      </trkpt>
      <trkpt lat="43.85739" lon="5.01526">
        <ele>67.850767</ele>
        <time>2021-09-17T07:01:34.000Z</time>
      </trkpt>
      <trkpt lat="43.85725" lon="5.01564">
        <ele>67.96726</ele>
        <time>2021-09-17T07:01:39.000Z</time>
      </trkpt>
      <trkpt lat="43.85722" lon="5.01571">
        <ele>67.990417</ele>
        <time>2021-09-17T07:01:40.000Z</time>
      </trkpt>
      <trkpt lat="43.85695" lon="5.01639">
        <ele>68.200619</ele>
        <time>2021-09-17T07:01:49.000Z</time>
      </trkpt>
      <trkpt lat="43.8567" lon="5.017">
        <ele>68.388091</ele>
        <time>2021-09-17T07:01:57.000Z</time>
      </trkpt>
      <trkpt lat="43.85642" lon="5.0177">
        <ele>68.604326</ele>
        <time>2021-09-17T07:02:06.000Z</time>
      </trkpt>
      <trkpt lat="43.85639" lon="5.01778">
        <ele>68.627444</ele>
        <time>2021-09-17T07:02:07.000Z</time>
      </trkpt>
      <trkpt lat="43.8561" lon="5.01848">
        <ele>68.811988</ele>
        <time>2021-09-17T07:02:16.000Z</time>
      </trkpt>
      <trkpt lat="43.85604" lon="5.01863">
        <ele>68.853475</ele>
        <time>2021-09-17T07:02:18.000Z</time>
      </trkpt>
      <trkpt lat="43.85576" lon="5.01933">
        <ele>69.036703</ele>
        <time>2021-09-17T07:02:27.000Z</time>
      </trkpt>
      <trkpt lat="43.85548" lon="5.02">
        <ele>69.214309</ele>
        <time>2021-09-17T07:02:36.000Z</time>
      </trkpt>
      <trkpt lat="43.8553" lon="5.02046">
        <ele>69.322675</ele>
        <time>2021-09-17T07:02:42.000Z</time>
      </trkpt>
      <trkpt lat="43.85513" lon="5.0209">
        <ele>69.426807</ele>
        <time>2021-09-17T07:02:49.000Z</time>
      </trkpt>
      <trkpt lat="43.85486" lon="5.02155">
        <ele>69.585553</ele>
        <time>2021-09-17T07:02:57.000Z</time>
      </trkpt>
      <trkpt lat="43.85476" lon="5.02177">
        <ele>69.637697</ele>
        <time>2021-09-17T07:03:00.000Z</time>
      </trkpt>
      <trkpt lat="43.85448" lon="5.02247">
        <ele>69.913966</ele>
        <time>2021-09-17T07:03:10.000Z</time>
      </trkpt>
      <trkpt lat="43.85422" lon="5.02307">
        <ele>70.244549</ele>
        <time>2021-09-17T07:03:19.000Z</time>
      </trkpt>
      <trkpt lat="43.85395" lon="5.02368">
        <ele>70.580228</ele>
        <time>2021-09-17T07:03:28.000Z</time>
      </trkpt>
      <trkpt lat="43.8537" lon="5.02431">
        <ele>70.921223</ele>
        <time>2021-09-17T07:03:37.000Z</time>
      </trkpt>
      <trkpt lat="43.85361" lon="5.0245">
        <ele>71.054093</ele>
        <time>2021-09-17T07:03:40.000Z</time>
      </trkpt>
      <trkpt lat="43.85356" lon="5.02463">
        <ele>71.141754</ele>
        <time>2021-09-17T07:03:43.000Z</time>
      </trkpt>
      <trkpt lat="43.85335" lon="5.02515">
        <ele>71.488468</ele>
        <time>2021-09-17T07:03:50.000Z</time>
      </trkpt>
      <trkpt lat="43.85319" lon="5.02551">
        <ele>71.730974</ele>
        <time>2021-09-17T07:03:57.000Z</time>
      </trkpt>
      <trkpt lat="43.85312" lon="5.0256">
        <ele>71.805719</ele>
        <time>2021-09-17T07:03:58.000Z</time>
      </trkpt>
      <trkpt lat="43.85309" lon="5.02564">
        <ele>71.841804</ele>
        <time>2021-09-17T07:03:59.000Z</time>
      </trkpt>
      <trkpt lat="43.85295" lon="5.0257">
        <ele>71.957885</ele>
        <time>2021-09-17T07:04:02.000Z</time>
      </trkpt>
      <trkpt lat="43.85292" lon="5.02573">
        <ele>71.992414</ele>
        <time>2021-09-17T07:04:04.000Z</time>
      </trkpt>
      <trkpt lat="43.85283" lon="5.02586">
        <ele>72.092102</ele>
        <time>2021-09-17T07:04:06.000Z</time>
      </trkpt>
      <trkpt lat="43.85281" lon="5.02597">
        <ele>72.161011</ele>
        <time>2021-09-17T07:04:08.000Z</time>
      </trkpt>
      <trkpt lat="43.8528" lon="5.02603">
        <ele>72.195887</ele>
        <time>2021-09-17T07:04:10.000Z</time>
      </trkpt>
      <trkpt lat="43.85286" lon="5.0263">
        <ele>72.360496</ele>
        <time>2021-09-17T07:04:13.000Z</time>
      </trkpt>
      <trkpt lat="43.85286" lon="5.02638">
        <ele>72.413212</ele>
        <time>2021-09-17T07:04:14.000Z</time>
      </trkpt>
      <trkpt lat="43.85286" lon="5.02638">
        <ele>72.413212</ele>
        <time>2021-09-17T07:04:15.000Z</time>
      </trkpt>
      <trkpt lat="43.85284" lon="5.02661">
        <ele>72.564503</ele>
        <time>2021-09-17T07:04:17.000Z</time>
      </trkpt>
      <trkpt lat="43.85282" lon="5.02668">
        <ele>72.615211</ele>
        <time>2021-09-17T07:04:18.000Z</time>
      </trkpt>
      <trkpt lat="43.8527" lon="5.02718">
        <ele>72.954578</ele>
        <time>2021-09-17T07:04:26.000Z</time>
      </trkpt>
      <trkpt lat="43.85257" lon="5.02769">
        <ele>73.303365</ele>
        <time>2021-09-17T07:04:33.000Z</time>
      </trkpt>
      <trkpt lat="43.85239" lon="5.0284">
        <ele>73.798127</ele>
        <time>2021-09-17T07:04:42.000Z</time>
      </trkpt>
      <trkpt lat="43.85237" lon="5.02847">
        <ele>73.845771</ele>
        <time>2021-09-17T07:04:43.000Z</time>
      </trkpt>
      <trkpt lat="43.85223" lon="5.02904">
        <ele>74.216317</ele>
        <time>2021-09-17T07:04:51.000Z</time>
      </trkpt>
      <trkpt lat="43.85218" lon="5.02926">
        <ele>74.353941</ele>
        <time>2021-09-17T07:04:54.000Z</time>
      </trkpt>
      <trkpt lat="43.85214" lon="5.02949">
        <ele>74.492855</ele>
        <time>2021-09-17T07:04:57.000Z</time>
      </trkpt>
      <trkpt lat="43.8521" lon="5.02971">
        <ele>74.629426</ele>
        <time>2021-09-17T07:05:00.000Z</time>
      </trkpt>
      <trkpt lat="43.85208" lon="5.02987">
        <ele>74.726889</ele>
        <time>2021-09-17T07:05:02.000Z</time>
      </trkpt>
      <trkpt lat="43.85203" lon="5.03044">
        <ele>75.070634</ele>
        <time>2021-09-17T07:05:10.000Z</time>
      </trkpt>
      <trkpt lat="43.85195" lon="5.03107">
        <ele>75.455458</ele>
        <time>2021-09-17T07:05:17.000Z</time>
      </trkpt>
      <trkpt lat="43.85182" lon="5.03159">
        <ele>75.621296</ele>
        <time>2021-09-17T07:05:24.000Z</time>
      </trkpt>
      <trkpt lat="43.85164" lon="5.03229">
        <ele>75.840687</ele>
        <time>2021-09-17T07:05:33.000Z</time>
      </trkpt>
      <trkpt lat="43.85147" lon="5.03289">
        <ele>76.031764</ele>
        <time>2021-09-17T07:05:41.000Z</time>
      </trkpt>
      <trkpt lat="43.85129" lon="5.03343">
        <ele>76.206556</ele>
        <time>2021-09-17T07:05:48.000Z</time>
      </trkpt>
      <trkpt lat="43.85113" lon="5.03388">
        <ele>76.343469</ele>
        <time>2021-09-17T07:05:54.000Z</time>
      </trkpt>
      <trkpt lat="43.85088" lon="5.03454">
        <ele>76.547935</ele>
        <time>2021-09-17T07:06:03.000Z</time>
      </trkpt>
      <trkpt lat="43.85064" lon="5.03512">
        <ele>76.730078</ele>
        <time>2021-09-17T07:06:11.000Z</time>
      </trkpt>
      <trkpt lat="43.85057" lon="5.03534">
        <ele>76.795838</ele>
        <time>2021-09-17T07:06:14.000Z</time>
      </trkpt>
      <trkpt lat="43.85048" lon="5.03555">
        <ele>76.861753</ele>
        <time>2021-09-17T07:06:17.000Z</time>
      </trkpt>
      <trkpt lat="43.85044" lon="5.03562">
        <ele>76.88272</ele>
        <time>2021-09-17T07:06:18.000Z</time>
      </trkpt>
      <trkpt lat="43.8503" lon="5.03589">
        <ele>76.950793</ele>
        <time>2021-09-17T07:06:22.000Z</time>
      </trkpt>
      <trkpt lat="43.85007" lon="5.03629">
        <ele>77.05721</ele>
        <time>2021-09-17T07:06:28.000Z</time>
      </trkpt>
      <trkpt lat="43.84979" lon="5.03678">
        <ele>77.186445</ele>
        <time>2021-09-17T07:06:35.000Z</time>
      </trkpt>
      <trkpt lat="43.84947" lon="5.03735">
        <ele>77.336329</ele>
        <time>2021-09-17T07:06:43.000Z</time>
      </trkpt>
      <trkpt lat="43.84915" lon="5.03782">
        <ele>77.361916</ele>
        <time>2021-09-17T07:06:50.000Z</time>
      </trkpt>
      <trkpt lat="43.84882" lon="5.03828">
        <ele>77.312241</ele>
        <time>2021-09-17T07:06:57.000Z</time>
      </trkpt>
      <trkpt lat="43.84855" lon="5.03851">
        <ele>77.277077</ele>
        <time>2021-09-17T07:07:03.000Z</time>
      </trkpt>
      <trkpt lat="43.84807" lon="5.03883">
        <ele>77.220875</ele>
        <time>2021-09-17T07:07:10.000Z</time>
      </trkpt>
      <trkpt lat="43.84766" lon="5.0391">
        <ele>77.203573</ele>
        <time>2021-09-17T07:07:17.000Z</time>
      </trkpt>
      <trkpt lat="43.84735" lon="5.03926">
        <ele>77.210954</ele>
        <time>2021-09-17T07:07:23.000Z</time>
      </trkpt>
      <trkpt lat="43.84731" lon="5.03927">
        <ele>77.212026</ele>
        <time>2021-09-17T07:07:24.000Z</time>
      </trkpt>
      <trkpt lat="43.84715" lon="5.0393">
        <ele>77.215605</ele>
        <time>2021-09-17T07:07:27.000Z</time>
      </trkpt>
      <trkpt lat="43.84715" lon="5.0393">
        <ele>77.215605</ele>
        <time>2021-09-17T07:07:28.000Z</time>
      </trkpt>
      <trkpt lat="43.84706" lon="5.03941">
        <ele>77.218161</ele>
        <time>2021-09-17T07:07:29.000Z</time>
      </trkpt>
      <trkpt lat="43.84703" lon="5.03957">
        <ele>77.220893</ele>
        <time>2021-09-17T07:07:31.000Z</time>
      </trkpt>
      <trkpt lat="43.84708" lon="5.03971">
        <ele>77.223373</ele>
        <time>2021-09-17T07:07:33.000Z</time>
      </trkpt>
      <trkpt lat="43.84711" lon="5.03975">
        <ele>77.224374</ele>
        <time>2021-09-17T07:07:34.000Z</time>
      </trkpt>
      <trkpt lat="43.84716" lon="5.03977">
        <ele>77.22544</ele>
        <time>2021-09-17T07:07:35.000Z</time>
      </trkpt>
      <trkpt lat="43.84725" lon="5.03985">
        <ele>77.227866</ele>
        <time>2021-09-17T07:07:37.000Z</time>
      </trkpt>
      <trkpt lat="43.84732" lon="5.03995">
        <ele>77.230142</ele>
        <time>2021-09-17T07:07:39.000Z</time>
      </trkpt>
      <trkpt lat="43.84735" lon="5.0401">
        <ele>77.232578</ele>
        <time>2021-09-17T07:07:41.000Z</time>
      </trkpt>
      <trkpt lat="43.84735" lon="5.04054">
        <ele>77.250104</ele>
        <time>2021-09-17T07:07:47.000Z</time>
      </trkpt>
      <trkpt lat="43.84733" lon="5.04092">
        <ele>77.295992</ele>
        <time>2021-09-17T07:07:53.000Z</time>
      </trkpt>
      <trkpt lat="43.84723" lon="5.04152">
        <ele>77.370701</ele>
        <time>2021-09-17T07:08:00.000Z</time>
      </trkpt>
      <trkpt lat="43.84701" lon="5.04199">
        <ele>77.438456</ele>
        <time>2021-09-17T07:08:07.000Z</time>
      </trkpt>
      <trkpt lat="43.84672" lon="5.04249">
        <ele>77.515678</ele>
        <time>2021-09-17T07:08:15.000Z</time>
      </trkpt>
      <trkpt lat="43.8464" lon="5.04283">
        <ele>77.508258</ele>
        <time>2021-09-17T07:08:22.000Z</time>
      </trkpt>
      <trkpt lat="43.846" lon="5.04314">
        <ele>77.452631</ele>
        <time>2021-09-17T07:08:30.000Z</time>
      </trkpt>
      <trkpt lat="43.84556" lon="5.04341">
        <ele>77.393721</ele>
        <time>2021-09-17T07:08:39.000Z</time>
      </trkpt>
      <trkpt lat="43.84521" lon="5.04361">
        <ele>77.346845</ele>
        <time>2021-09-17T07:08:46.000Z</time>
      </trkpt>
      <trkpt lat="43.845" lon="5.04365">
        <ele>77.321356</ele>
        <time>2021-09-17T07:08:50.000Z</time>
      </trkpt>
      <trkpt lat="43.84456" lon="5.04379">
        <ele>77.09835</ele>
        <time>2021-09-17T07:08:58.000Z</time>
      </trkpt>
      <trkpt lat="43.8445" lon="5.04382">
        <ele>77.068615</ele>
        <time>2021-09-17T07:08:59.000Z</time>
      </trkpt>
      <trkpt lat="43.84439" lon="5.04389">
        <ele>77.01003</ele>
        <time>2021-09-17T07:09:01.000Z</time>
      </trkpt>
      <trkpt lat="43.84434" lon="5.04393">
        <ele>76.978799</ele>
        <time>2021-09-17T07:09:02.000Z</time>
      </trkpt>
      <trkpt lat="43.8443" lon="5.04399">
        <ele>76.950174</ele>
        <time>2021-09-17T07:09:03.000Z</time>
      </trkpt>
      <trkpt lat="43.84427" lon="5.04404">
        <ele>76.92706</ele>
        <time>2021-09-17T07:09:04.000Z</time>
      </trkpt>
      <trkpt lat="43.84419" lon="5.04417">
        <ele>76.866532</ele>
        <time>2021-09-17T07:09:06.000Z</time>
      </trkpt>
      <trkpt lat="43.84413" lon="5.04427">
        <ele>76.817906</ele>
        <time>2021-09-17T07:09:08.000Z</time>
      </trkpt>
      <trkpt lat="43.84404" lon="5.04433">
        <ele>76.769967</ele>
        <time>2021-09-17T07:09:10.000Z</time>
      </trkpt>
      <trkpt lat="43.84396" lon="5.04436">
        <ele>76.725138</ele>
        <time>2021-09-17T07:09:12.000Z</time>
      </trkpt>
      <trkpt lat="43.8438" lon="5.04446">
        <ele>76.64099</ele>
        <time>2021-09-17T07:09:17.000Z</time>
      </trkpt>
      <trkpt lat="43.84367" lon="5.04459">
        <ele>76.562298</ele>
        <time>2021-09-17T07:09:22.000Z</time>
      </trkpt>
      <trkpt lat="43.84352" lon="5.04471">
        <ele>76.475916</ele>
        <time>2021-09-17T07:09:27.000Z</time>
      </trkpt>
      <trkpt lat="43.84339" lon="5.04483">
        <ele>76.438795</ele>
        <time>2021-09-17T07:09:31.000Z</time>
      </trkpt>
      <trkpt lat="43.84331" lon="5.04489">
        <ele>76.45993</ele>
        <time>2021-09-17T07:09:33.000Z</time>
      </trkpt>
      <trkpt lat="43.84321" lon="5.04498">
        <ele>76.489707</ele>
        <time>2021-09-17T07:09:35.000Z</time>
      </trkpt>
      <trkpt lat="43.84311" lon="5.04504">
        <ele>76.515741</ele>
        <time>2021-09-17T07:09:38.000Z</time>
      </trkpt>
      <trkpt lat="43.84303" lon="5.04511">
        <ele>76.538634</ele>
        <time>2021-09-17T07:09:40.000Z</time>
      </trkpt>
      <trkpt lat="43.84286" lon="5.04526">
        <ele>76.5872</ele>
        <time>2021-09-17T07:09:44.000Z</time>
      </trkpt>
      <trkpt lat="43.84261" lon="5.04548">
        <ele>76.658752</ele>
        <time>2021-09-17T07:09:50.000Z</time>
      </trkpt>
      <trkpt lat="43.84252" lon="5.04556">
        <ele>76.683925</ele>
        <time>2021-09-17T07:09:52.000Z</time>
      </trkpt>
      <trkpt lat="43.84232" lon="5.04567">
        <ele>76.736006</ele>
        <time>2021-09-17T07:09:56.000Z</time>
      </trkpt>
      <trkpt lat="43.84202" lon="5.04587">
        <ele>76.816669</ele>
        <time>2021-09-17T07:10:02.000Z</time>
      </trkpt>
      <trkpt lat="43.84155" lon="5.04622">
        <ele>76.930848</ele>
        <time>2021-09-17T07:10:11.000Z</time>
      </trkpt>
      <trkpt lat="43.84125" lon="5.0465">
        <ele>77.004855</ele>
        <time>2021-09-17T07:10:17.000Z</time>
      </trkpt>
      <trkpt lat="43.84083" lon="5.04694">
        <ele>77.113299</ele>
        <time>2021-09-17T07:10:26.000Z</time>
      </trkpt>
      <trkpt lat="43.84042" lon="5.04739">
        <ele>77.219819</ele>
        <time>2021-09-17T07:10:35.000Z</time>
      </trkpt>
      <trkpt lat="43.84019" lon="5.04763">
        <ele>77.347839</ele>
        <time>2021-09-17T07:10:40.000Z</time>
      </trkpt>
      <trkpt lat="43.84009" lon="5.04772">
        <ele>77.402413</ele>
        <time>2021-09-17T07:10:42.000Z</time>
      </trkpt>
      <trkpt lat="43.83961" lon="5.04806">
        <ele>77.658651</ele>
        <time>2021-09-17T07:10:51.000Z</time>
      </trkpt>
      <trkpt lat="43.83924" lon="5.04833">
        <ele>77.860965</ele>
        <time>2021-09-17T07:10:59.000Z</time>
      </trkpt>
      <trkpt lat="43.83903" lon="5.04847">
        <ele>77.96978</ele>
        <time>2021-09-17T07:11:03.000Z</time>
      </trkpt>
      <trkpt lat="43.83898" lon="5.04851">
        <ele>77.994616</ele>
        <time>2021-09-17T07:11:07.000Z</time>
      </trkpt>
      <trkpt lat="43.83896" lon="5.04852">
        <ele>78.008289</ele>
        <time>2021-09-17T07:11:35.000Z</time>
      </trkpt>
      <trkpt lat="43.83892" lon="5.04854">
        <ele>78.027227</ele>
        <time>2021-09-17T07:11:37.000Z</time>
      </trkpt>
      <trkpt lat="43.83873" lon="5.04862">
        <ele>78.074425</ele>
        <time>2021-09-17T07:11:44.000Z</time>
      </trkpt>
      <trkpt lat="43.83857" lon="5.04872">
        <ele>78.065322</ele>
        <time>2021-09-17T07:11:50.000Z</time>
      </trkpt>
      <trkpt lat="43.83832" lon="5.04892">
        <ele>78.049856</ele>
        <time>2021-09-17T07:11:58.000Z</time>
      </trkpt>
      <trkpt lat="43.83816" lon="5.04906">
        <ele>78.039255</ele>
        <time>2021-09-17T07:12:04.000Z</time>
      </trkpt>
      <trkpt lat="43.83792" lon="5.04928">
        <ele>78.023836</ele>
        <time>2021-09-17T07:12:11.000Z</time>
      </trkpt>
      <trkpt lat="43.83763" lon="5.04952">
        <ele>78.00578</ele>
        <time>2021-09-17T07:12:18.000Z</time>
      </trkpt>
      <trkpt lat="43.83732" lon="5.04975">
        <ele>77.987074</ele>
        <time>2021-09-17T07:12:26.000Z</time>
      </trkpt>
      <trkpt lat="43.83706" lon="5.0499">
        <ele>77.883876</ele>
        <time>2021-09-17T07:12:33.000Z</time>
      </trkpt>
      <trkpt lat="43.83675" lon="5.05003">
        <ele>77.728464</ele>
        <time>2021-09-17T07:12:41.000Z</time>
      </trkpt>
      <trkpt lat="43.83648" lon="5.05014">
        <ele>77.593548</ele>
        <time>2021-09-17T07:12:47.000Z</time>
      </trkpt>
      <trkpt lat="43.83607" lon="5.05031">
        <ele>77.386346</ele>
        <time>2021-09-17T07:12:55.000Z</time>
      </trkpt>
      <trkpt lat="43.8356" lon="5.0505">
        <ele>77.150716</ele>
        <time>2021-09-17T07:13:04.000Z</time>
      </trkpt>
      <trkpt lat="43.83522" lon="5.05067">
        <ele>77.133039</ele>
        <time>2021-09-17T07:13:12.000Z</time>
      </trkpt>
      <trkpt lat="43.83487" lon="5.05084">
        <ele>77.154828</ele>
        <time>2021-09-17T07:13:20.000Z</time>
      </trkpt>
      <trkpt lat="43.83457" lon="5.05099">
        <ele>77.173852</ele>
        <time>2021-09-17T07:13:27.000Z</time>
      </trkpt>
      <trkpt lat="43.83426" lon="5.05112">
        <ele>77.192549</ele>
        <time>2021-09-17T07:13:34.000Z</time>
      </trkpt>
      <trkpt lat="43.83398" lon="5.05123">
        <ele>77.209908</ele>
        <time>2021-09-17T07:13:41.000Z</time>
      </trkpt>
      <trkpt lat="43.83382" lon="5.05129">
        <ele>77.219344</ele>
        <time>2021-09-17T07:13:45.000Z</time>
      </trkpt>
      <trkpt lat="43.83369" lon="5.05134">
        <ele>77.308918</ele>
        <time>2021-09-17T07:13:48.000Z</time>
      </trkpt>
      <trkpt lat="43.83339" lon="5.05145">
        <ele>77.526691</ele>
        <time>2021-09-17T07:13:56.000Z</time>
      </trkpt>
      <trkpt lat="43.83308" lon="5.05155">
        <ele>77.752084</ele>
        <time>2021-09-17T07:14:04.000Z</time>
      </trkpt>
      <trkpt lat="43.83288" lon="5.0516">
        <ele>77.888523</ele>
        <time>2021-09-17T07:14:09.000Z</time>
      </trkpt>
      <trkpt lat="43.83265" lon="5.05161">
        <ele>78.05456</ele>
        <time>2021-09-17T07:14:15.000Z</time>
      </trkpt>
      <trkpt lat="43.8325" lon="5.05166">
        <ele>78.161597</ele>
        <time>2021-09-17T07:14:19.000Z</time>
      </trkpt>
      <trkpt lat="43.83242" lon="5.05168">
        <ele>78.212687</ele>
        <time>2021-09-17T07:14:21.000Z</time>
      </trkpt>
      <trkpt lat="43.83227" lon="5.0517">
        <ele>78.322645</ele>
        <time>2021-09-17T07:14:26.000Z</time>
      </trkpt>
      <trkpt lat="43.83219" lon="5.05174">
        <ele>78.378341</ele>
        <time>2021-09-17T07:14:28.000Z</time>
      </trkpt>
      <trkpt lat="43.83213" lon="5.05181">
        <ele>78.436918</ele>
        <time>2021-09-17T07:14:30.000Z</time>
      </trkpt>
      <trkpt lat="43.83208" lon="5.05191">
        <ele>78.493365</ele>
        <time>2021-09-17T07:14:32.000Z</time>
      </trkpt>
      <trkpt lat="43.83207" lon="5.05197">
        <ele>78.52156</ele>
        <time>2021-09-17T07:14:34.000Z</time>
      </trkpt>
      <trkpt lat="43.83207" lon="5.05208">
        <ele>78.573832</ele>
        <time>2021-09-17T07:14:36.000Z</time>
      </trkpt>
      <trkpt lat="43.8321" lon="5.05219">
        <ele>78.62906</ele>
        <time>2021-09-17T07:14:38.000Z</time>
      </trkpt>
      <trkpt lat="43.83219" lon="5.05231">
        <ele>78.702737</ele>
        <time>2021-09-17T07:14:42.000Z</time>
      </trkpt>
      <trkpt lat="43.83231" lon="5.05244">
        <ele>78.80291</ele>
        <time>2021-09-17T07:14:45.000Z</time>
      </trkpt>
      <trkpt lat="43.83232" lon="5.05249">
        <ele>78.826392</ele>
        <time>2021-09-17T07:14:46.000Z</time>
      </trkpt>
      <trkpt lat="43.83234" lon="5.05259">
        <ele>78.873494</ele>
        <time>2021-09-17T07:14:48.000Z</time>
      </trkpt>
      <trkpt lat="43.83234" lon="5.0527">
        <ele>78.924329</ele>
        <time>2021-09-17T07:14:50.000Z</time>
      </trkpt>
      <trkpt lat="43.83234" lon="5.05288">
        <ele>79.004017</ele>
        <time>2021-09-17T07:14:53.000Z</time>
      </trkpt>
      <trkpt lat="43.83232" lon="5.05304">
        <ele>79.082104</ele>
        <time>2021-09-17T07:14:56.000Z</time>
      </trkpt>
      <trkpt lat="43.83225" lon="5.05327">
        <ele>79.195042</ele>
        <time>2021-09-17T07:15:00.000Z</time>
      </trkpt>
      <trkpt lat="43.83223" lon="5.05332">
        <ele>79.221865</ele>
        <time>2021-09-17T07:15:01.000Z</time>
      </trkpt>
      <trkpt lat="43.83216" lon="5.05349">
        <ele>79.309461</ele>
        <time>2021-09-17T07:15:04.000Z</time>
      </trkpt>
      <trkpt lat="43.83192" lon="5.05379">
        <ele>79.515406</ele>
        <time>2021-09-17T07:15:10.000Z</time>
      </trkpt>
      <trkpt lat="43.83157" lon="5.05408">
        <ele>79.681865</ele>
        <time>2021-09-17T07:15:17.000Z</time>
      </trkpt>
      <trkpt lat="43.83129" lon="5.05433">
        <ele>79.770656</ele>
        <time>2021-09-17T07:15:23.000Z</time>
      </trkpt>
      <trkpt lat="43.83098" lon="5.05459">
        <ele>79.870685</ele>
        <time>2021-09-17T07:15:30.000Z</time>
      </trkpt>
      <trkpt lat="43.83063" lon="5.05489">
        <ele>79.980857</ele>
        <time>2021-09-17T07:15:38.000Z</time>
      </trkpt>
      <trkpt lat="43.83031" lon="5.05518">
        <ele>80.082985</ele>
        <time>2021-09-17T07:15:46.000Z</time>
      </trkpt>
      <trkpt lat="43.83005" lon="5.05545">
        <ele>80.113921</ele>
        <time>2021-09-17T07:15:52.000Z</time>
      </trkpt>
      <trkpt lat="43.83001" lon="5.05549">
        <ele>80.117002</ele>
        <time>2021-09-17T07:15:53.000Z</time>
      </trkpt>
      <trkpt lat="43.82997" lon="5.05554">
        <ele>80.11991</ele>
        <time>2021-09-17T07:15:54.000Z</time>
      </trkpt>
      <trkpt lat="43.82977" lon="5.05577">
        <ele>80.134724</ele>
        <time>2021-09-17T07:15:59.000Z</time>
      </trkpt>
      <trkpt lat="43.82944" lon="5.05615">
        <ele>80.158159</ele>
        <time>2021-09-17T07:16:07.000Z</time>
      </trkpt>
      <trkpt lat="43.82906" lon="5.0566">
        <ele>80.186069</ele>
        <time>2021-09-17T07:16:16.000Z</time>
      </trkpt>
      <trkpt lat="43.82872" lon="5.05694">
        <ele>80.182502</ele>
        <time>2021-09-17T07:16:24.000Z</time>
      </trkpt>
      <trkpt lat="43.82868" lon="5.05699">
        <ele>80.177482</ele>
        <time>2021-09-17T07:16:25.000Z</time>
      </trkpt>
      <trkpt lat="43.8286" lon="5.05707">
        <ele>80.167798</ele>
        <time>2021-09-17T07:16:27.000Z</time>
      </trkpt>
      <trkpt lat="43.82851" lon="5.05714">
        <ele>80.157867</ele>
        <time>2021-09-17T07:16:29.000Z</time>
      </trkpt>
      <trkpt lat="43.82846" lon="5.05717">
        <ele>80.152112</ele>
        <time>2021-09-17T07:16:30.000Z</time>
      </trkpt>
      <trkpt lat="43.82833" lon="5.05732">
        <ele>80.135576</ele>
        <time>2021-09-17T07:16:33.000Z</time>
      </trkpt>
      <trkpt lat="43.82828" lon="5.05735">
        <ele>80.129737</ele>
        <time>2021-09-17T07:16:34.000Z</time>
      </trkpt>
      <trkpt lat="43.82788" lon="5.05755">
        <ele>80.08828</ele>
        <time>2021-09-17T07:16:41.000Z</time>
      </trkpt>
      <trkpt lat="43.82741" lon="5.05786">
        <ele>80.036838</ele>
        <time>2021-09-17T07:16:50.000Z</time>
      </trkpt>
      <trkpt lat="43.8269" lon="5.0582">
        <ele>79.948002</ele>
        <time>2021-09-17T07:17:00.000Z</time>
      </trkpt>
      <trkpt lat="43.82657" lon="5.05846">
        <ele>79.880662</ele>
        <time>2021-09-17T07:17:07.000Z</time>
      </trkpt>
      <trkpt lat="43.82621" lon="5.05873">
        <ele>79.807639</ele>
        <time>2021-09-17T07:17:15.000Z</time>
      </trkpt>
      <trkpt lat="43.82598" lon="5.0589">
        <ele>79.759837</ele>
        <time>2021-09-17T07:17:21.000Z</time>
      </trkpt>
      <trkpt lat="43.82593" lon="5.05891">
        <ele>79.751787</ele>
        <time>2021-09-17T07:17:22.000Z</time>
      </trkpt>
      <trkpt lat="43.82589" lon="5.05892">
        <ele>79.74368</ele>
        <time>2021-09-17T07:17:23.000Z</time>
      </trkpt>
      <trkpt lat="43.82574" lon="5.05894">
        <ele>79.717031</ele>
        <time>2021-09-17T07:17:26.000Z</time>
      </trkpt>
      <trkpt lat="43.82564" lon="5.0589">
        <ele>79.699632</ele>
        <time>2021-09-17T07:17:28.000Z</time>
      </trkpt>
      <trkpt lat="43.8256" lon="5.05888">
        <ele>79.692049</ele>
        <time>2021-09-17T07:17:29.000Z</time>
      </trkpt>
      <trkpt lat="43.82551" lon="5.0589">
        <ele>79.676697</ele>
        <time>2021-09-17T07:17:31.000Z</time>
      </trkpt>
      <trkpt lat="43.82547" lon="5.05892">
        <ele>79.668456</ele>
        <time>2021-09-17T07:17:32.000Z</time>
      </trkpt>
      <trkpt lat="43.82543" lon="5.05897">
        <ele>79.659875</ele>
        <time>2021-09-17T07:17:33.000Z</time>
      </trkpt>
      <trkpt lat="43.82536" lon="5.05908">
        <ele>79.642099</ele>
        <time>2021-09-17T07:17:35.000Z</time>
      </trkpt>
      <trkpt lat="43.82534" lon="5.05914">
        <ele>79.633593</ele>
        <time>2021-09-17T07:17:36.000Z</time>
      </trkpt>
      <trkpt lat="43.82533" lon="5.05921">
        <ele>79.624759</ele>
        <time>2021-09-17T07:17:37.000Z</time>
      </trkpt>
      <trkpt lat="43.82528" lon="5.05934">
        <ele>79.606264</ele>
        <time>2021-09-17T07:17:39.000Z</time>
      </trkpt>
      <trkpt lat="43.82525" lon="5.05939">
        <ele>79.597619</ele>
        <time>2021-09-17T07:17:40.000Z</time>
      </trkpt>
      <trkpt lat="43.82521" lon="5.05945">
        <ele>79.588854</ele>
        <time>2021-09-17T07:17:41.000Z</time>
      </trkpt>
      <trkpt lat="43.82509" lon="5.0596">
        <ele>79.561066</ele>
        <time>2021-09-17T07:17:44.000Z</time>
      </trkpt>
      <trkpt lat="43.82483" lon="5.05988">
        <ele>79.504478</ele>
        <time>2021-09-17T07:17:50.000Z</time>
      </trkpt>
      <trkpt lat="43.8244" lon="5.06023">
        <ele>79.417686</ele>
        <time>2021-09-17T07:17:59.000Z</time>
      </trkpt>
      <trkpt lat="43.82402" lon="5.06054">
        <ele>79.258248</ele>
        <time>2021-09-17T07:18:07.000Z</time>
      </trkpt>
      <trkpt lat="43.82374" lon="5.06076">
        <ele>79.10779</ele>
        <time>2021-09-17T07:18:13.000Z</time>
      </trkpt>
      <trkpt lat="43.82325" lon="5.06109">
        <ele>78.856831</ele>
        <time>2021-09-17T07:18:23.000Z</time>
      </trkpt>
      <trkpt lat="43.82283" lon="5.06134">
        <ele>78.645729</ele>
        <time>2021-09-17T07:18:31.000Z</time>
      </trkpt>
      <trkpt lat="43.82243" lon="5.06157">
        <ele>78.578691</ele>
        <time>2021-09-17T07:18:39.000Z</time>
      </trkpt>
      <trkpt lat="43.8221" lon="5.06176">
        <ele>78.602189</ele>
        <time>2021-09-17T07:18:46.000Z</time>
      </trkpt>
      <trkpt lat="43.82205" lon="5.06178">
        <ele>78.605455</ele>
        <time>2021-09-17T07:18:47.000Z</time>
      </trkpt>
      <trkpt lat="43.82183" lon="5.06191">
        <ele>78.621068</ele>
        <time>2021-09-17T07:18:52.000Z</time>
      </trkpt>
      <trkpt lat="43.82178" lon="5.06193">
        <ele>78.624491</ele>
        <time>2021-09-17T07:18:53.000Z</time>
      </trkpt>
      <trkpt lat="43.82173" lon="5.06196">
        <ele>78.628098</ele>
        <time>2021-09-17T07:18:54.000Z</time>
      </trkpt>
      <trkpt lat="43.82164" lon="5.06201">
        <ele>78.63449</ele>
        <time>2021-09-17T07:18:56.000Z</time>
      </trkpt>
      <trkpt lat="43.8216" lon="5.06204">
        <ele>78.637834</ele>
        <time>2021-09-17T07:18:57.000Z</time>
      </trkpt>
      <trkpt lat="43.82143" lon="5.06214">
        <ele>78.649631</ele>
        <time>2021-09-17T07:19:00.000Z</time>
      </trkpt>
      <trkpt lat="43.82094" lon="5.06248">
        <ele>78.697482</ele>
        <time>2021-09-17T07:19:09.000Z</time>
      </trkpt>
      <trkpt lat="43.82088" lon="5.06252">
        <ele>78.709635</ele>
        <time>2021-09-17T07:19:10.000Z</time>
      </trkpt>
      <trkpt lat="43.82046" lon="5.0628">
        <ele>78.800545</ele>
        <time>2021-09-17T07:19:18.000Z</time>
      </trkpt>
      <trkpt lat="43.82008" lon="5.06305">
        <ele>78.881998</ele>
        <time>2021-09-17T07:19:26.000Z</time>
      </trkpt>
      <trkpt lat="43.81976" lon="5.06323">
        <ele>78.950192</ele>
        <time>2021-09-17T07:19:33.000Z</time>
      </trkpt>
      <trkpt lat="43.8194" lon="5.06342">
        <ele>79.023932</ele>
        <time>2021-09-17T07:19:40.000Z</time>
      </trkpt>
      <trkpt lat="43.81905" lon="5.06361">
        <ele>78.929047</ele>
        <time>2021-09-17T07:19:47.000Z</time>
      </trkpt>
      <trkpt lat="43.81864" lon="5.06382">
        <ele>78.802333</ele>
        <time>2021-09-17T07:19:55.000Z</time>
      </trkpt>
      <trkpt lat="43.81828" lon="5.06401">
        <ele>78.687299</ele>
        <time>2021-09-17T07:20:02.000Z</time>
      </trkpt>
      <trkpt lat="43.81779" lon="5.06428">
        <ele>78.531063</ele>
        <time>2021-09-17T07:20:11.000Z</time>
      </trkpt>
      <trkpt lat="43.81728" lon="5.06458">
        <ele>78.501674</ele>
        <time>2021-09-17T07:20:20.000Z</time>
      </trkpt>
      <trkpt lat="43.81694" lon="5.06478">
        <ele>78.501565</ele>
        <time>2021-09-17T07:20:26.000Z</time>
      </trkpt>
      <trkpt lat="43.81642" lon="5.06509">
        <ele>78.501396</ele>
        <time>2021-09-17T07:20:35.000Z</time>
      </trkpt>
      <trkpt lat="43.81595" lon="5.06537">
        <ele>78.506471</ele>
        <time>2021-09-17T07:20:43.000Z</time>
      </trkpt>
      <trkpt lat="43.81548" lon="5.06565">
        <ele>78.53343</ele>
        <time>2021-09-17T07:20:51.000Z</time>
      </trkpt>
      <trkpt lat="43.81494" lon="5.06593">
        <ele>78.5635</ele>
        <time>2021-09-17T07:21:00.000Z</time>
      </trkpt>
      <trkpt lat="43.8145" lon="5.06608">
        <ele>78.587089</ele>
        <time>2021-09-17T07:21:07.000Z</time>
      </trkpt>
      <trkpt lat="43.81412" lon="5.06619">
        <ele>78.805965</ele>
        <time>2021-09-17T07:21:13.000Z</time>
      </trkpt>
      <trkpt lat="43.81356" lon="5.06638">
        <ele>79.338126</ele>
        <time>2021-09-17T07:21:22.000Z</time>
      </trkpt>
      <trkpt lat="43.81343" lon="5.06641">
        <ele>79.454996</ele>
        <time>2021-09-17T07:21:24.000Z</time>
      </trkpt>
      <trkpt lat="43.81301" lon="5.06652">
        <ele>79.84614</ele>
        <time>2021-09-17T07:21:31.000Z</time>
      </trkpt>
      <trkpt lat="43.81287" lon="5.06656">
        <ele>79.976527</ele>
        <time>2021-09-17T07:21:35.000Z</time>
      </trkpt>
      <trkpt lat="43.81286" lon="5.06657">
        <ele>79.994425</ele>
        <time>2021-09-17T07:21:36.000Z</time>
      </trkpt>
      <trkpt lat="43.81284" lon="5.06658">
        <ele>80.011595</ele>
        <time>2021-09-17T07:21:39.000Z</time>
      </trkpt>
      <trkpt lat="43.81284" lon="5.06658">
        <ele>80.011595</ele>
        <time>2021-09-17T07:21:40.000Z</time>
      </trkpt>
      <trkpt lat="43.81274" lon="5.06661">
        <ele>80.10171</ele>
        <time>2021-09-17T07:23:44.000Z</time>
      </trkpt>
      <trkpt lat="43.81272" lon="5.06662">
        <ele>80.127215</ele>
        <time>2021-09-17T07:23:46.000Z</time>
      </trkpt>
      <trkpt lat="43.81258" lon="5.06667">
        <ele>80.256093</ele>
        <time>2021-09-17T07:23:52.000Z</time>
      </trkpt>
      <trkpt lat="43.81232" lon="5.06676">
        <ele>80.4526</ele>
        <time>2021-09-17T07:23:58.000Z</time>
      </trkpt>
      <trkpt lat="43.81199" lon="5.06688">
        <ele>80.7001</ele>
        <time>2021-09-17T07:24:05.000Z</time>
      </trkpt>
      <trkpt lat="43.81165" lon="5.06702">
        <ele>80.963305</ele>
        <time>2021-09-17T07:24:12.000Z</time>
      </trkpt>
      <trkpt lat="43.81128" lon="5.06716">
        <ele>81.245634</ele>
        <time>2021-09-17T07:24:19.000Z</time>
      </trkpt>
      <trkpt lat="43.81122" lon="5.06719">
        <ele>81.287857</ele>
        <time>2021-09-17T07:24:20.000Z</time>
      </trkpt>
      <trkpt lat="43.811" lon="5.06727">
        <ele>81.456854</ele>
        <time>2021-09-17T07:24:24.000Z</time>
      </trkpt>
      <trkpt lat="43.81061" lon="5.06743">
        <ele>81.588918</ele>
        <time>2021-09-17T07:24:31.000Z</time>
      </trkpt>
      <trkpt lat="43.81013" lon="5.06762">
        <ele>81.625794</ele>
        <time>2021-09-17T07:24:39.000Z</time>
      </trkpt>
      <trkpt lat="43.81007" lon="5.06764">
        <ele>81.630615</ele>
        <time>2021-09-17T07:24:40.000Z</time>
      </trkpt>
      <trkpt lat="43.80989" lon="5.06771">
        <ele>81.644543</ele>
        <time>2021-09-17T07:24:43.000Z</time>
      </trkpt>
      <trkpt lat="43.80942" lon="5.06789">
        <ele>81.680943</ele>
        <time>2021-09-17T07:24:51.000Z</time>
      </trkpt>
      <trkpt lat="43.8089" lon="5.0681">
        <ele>81.743714</ele>
        <time>2021-09-17T07:25:00.000Z</time>
      </trkpt>
      <trkpt lat="43.80838" lon="5.06831">
        <ele>81.834143</ele>
        <time>2021-09-17T07:25:09.000Z</time>
      </trkpt>
      <trkpt lat="43.80787" lon="5.06853">
        <ele>81.923922</ele>
        <time>2021-09-17T07:25:18.000Z</time>
      </trkpt>
      <trkpt lat="43.80742" lon="5.06873">
        <ele>82.003885</ele>
        <time>2021-09-17T07:25:26.000Z</time>
      </trkpt>
      <trkpt lat="43.80704" lon="5.06898">
        <ele>82.137927</ele>
        <time>2021-09-17T07:25:33.000Z</time>
      </trkpt>
      <trkpt lat="43.80656" lon="5.0693">
        <ele>82.310212</ele>
        <time>2021-09-17T07:25:42.000Z</time>
      </trkpt>
      <trkpt lat="43.8063" lon="5.06943">
        <ele>82.399069</ele>
        <time>2021-09-17T07:25:47.000Z</time>
      </trkpt>
      <trkpt lat="43.8062" lon="5.0694">
        <ele>82.434268</ele>
        <time>2021-09-17T07:25:49.000Z</time>
      </trkpt>
      <trkpt lat="43.80614" lon="5.06945">
        <ele>82.456907</ele>
        <time>2021-09-17T07:25:50.000Z</time>
      </trkpt>
      <trkpt lat="43.80611" lon="5.06954">
        <ele>82.479456</ele>
        <time>2021-09-17T07:25:51.000Z</time>
      </trkpt>
      <trkpt lat="43.80604" lon="5.06966">
        <ele>82.517566</ele>
        <time>2021-09-17T07:25:53.000Z</time>
      </trkpt>
      <trkpt lat="43.80594" lon="5.06976">
        <ele>82.556104</ele>
        <time>2021-09-17T07:25:55.000Z</time>
      </trkpt>
      <trkpt lat="43.80563" lon="5.0701">
        <ele>82.851393</ele>
        <time>2021-09-17T07:26:02.000Z</time>
      </trkpt>
      <trkpt lat="43.80544" lon="5.07034">
        <ele>83.086388</ele>
        <time>2021-09-17T07:26:07.000Z</time>
      </trkpt>
      <trkpt lat="43.80531" lon="5.07049">
        <ele>83.239065</ele>
        <time>2021-09-17T07:26:12.000Z</time>
      </trkpt>
      <trkpt lat="43.80526" lon="5.07056">
        <ele>83.299956</ele>
        <time>2021-09-17T07:26:17.000Z</time>
      </trkpt>
      <trkpt lat="43.80524" lon="5.07058">
        <ele>83.326435</ele>
        <time>2021-09-17T07:26:22.000Z</time>
      </trkpt>
      <trkpt lat="43.80514" lon="5.0707">
        <ele>83.439177</ele>
        <time>2021-09-17T07:26:26.000Z</time>
      </trkpt>
      <trkpt lat="43.80505" lon="5.07082">
        <ele>83.551485</ele>
        <time>2021-09-17T07:26:29.000Z</time>
      </trkpt>
      <trkpt lat="43.80498" lon="5.0709">
        <ele>83.636026</ele>
        <time>2021-09-17T07:26:31.000Z</time>
      </trkpt>
      <trkpt lat="43.80494" lon="5.07095">
        <ele>83.683026</ele>
        <time>2021-09-17T07:26:32.000Z</time>
      </trkpt>
      <trkpt lat="43.80462" lon="5.07134">
        <ele>84.069719</ele>
        <time>2021-09-17T07:26:40.000Z</time>
      </trkpt>
      <trkpt lat="43.80427" lon="5.07176">
        <ele>84.332386</ele>
        <time>2021-09-17T07:26:48.000Z</time>
      </trkpt>
      <trkpt lat="43.80396" lon="5.07213">
        <ele>84.495283</ele>
        <time>2021-09-17T07:26:55.000Z</time>
      </trkpt>
      <trkpt lat="43.80361" lon="5.07256">
        <ele>84.680801</ele>
        <time>2021-09-17T07:27:03.000Z</time>
      </trkpt>
      <trkpt lat="43.80331" lon="5.07293">
        <ele>84.844509</ele>
        <time>2021-09-17T07:27:10.000Z</time>
      </trkpt>
      <trkpt lat="43.803" lon="5.0733">
        <ele>84.932662</ele>
        <time>2021-09-17T07:27:17.000Z</time>
      </trkpt>
      <trkpt lat="43.80287" lon="5.07345">
        <ele>84.936565</ele>
        <time>2021-09-17T07:27:20.000Z</time>
      </trkpt>
      <trkpt lat="43.80278" lon="5.07356">
        <ele>84.939204</ele>
        <time>2021-09-17T07:27:22.000Z</time>
      </trkpt>
      <trkpt lat="43.80242" lon="5.07399">
        <ele>84.950075</ele>
        <time>2021-09-17T07:27:30.000Z</time>
      </trkpt>
      <trkpt lat="43.80218" lon="5.07423">
        <ele>84.956787</ele>
        <time>2021-09-17T07:27:35.000Z</time>
      </trkpt>
      <trkpt lat="43.80214" lon="5.07429">
        <ele>84.958129</ele>
        <time>2021-09-17T07:27:36.000Z</time>
      </trkpt>
      <trkpt lat="43.80183" lon="5.07467">
        <ele>84.967614</ele>
        <time>2021-09-17T07:27:43.000Z</time>
      </trkpt>
      <trkpt lat="43.80149" lon="5.0751">
        <ele>85.083291</ele>
        <time>2021-09-17T07:27:51.000Z</time>
      </trkpt>
      <trkpt lat="43.80115" lon="5.07553">
        <ele>85.217411</ele>
        <time>2021-09-17T07:27:59.000Z</time>
      </trkpt>
      <trkpt lat="43.80075" lon="5.07602">
        <ele>85.373514</ele>
        <time>2021-09-17T07:28:08.000Z</time>
      </trkpt>
      <trkpt lat="43.80034" lon="5.07653">
        <ele>85.527154</ele>
        <time>2021-09-17T07:28:17.000Z</time>
      </trkpt>
      <trkpt lat="43.7999" lon="5.07709">
        <ele>85.675542</ele>
        <time>2021-09-17T07:28:27.000Z</time>
      </trkpt>
      <trkpt lat="43.7995" lon="5.07759">
        <ele>85.80905</ele>
        <time>2021-09-17T07:28:36.000Z</time>
      </trkpt>
      <trkpt lat="43.7991" lon="5.07808">
        <ele>85.94185</ele>
        <time>2021-09-17T07:28:45.000Z</time>
      </trkpt>
      <trkpt lat="43.79878" lon="5.07845">
        <ele>86.033978</ele>
        <time>2021-09-17T07:28:52.000Z</time>
      </trkpt>
      <trkpt lat="43.7984" lon="5.07888">
        <ele>86.140987</ele>
        <time>2021-09-17T07:29:00.000Z</time>
      </trkpt>
      <trkpt lat="43.79797" lon="5.07936">
        <ele>86.262118</ele>
        <time>2021-09-17T07:29:09.000Z</time>
      </trkpt>
      <trkpt lat="43.79792" lon="5.0794">
        <ele>86.275495</ele>
        <time>2021-09-17T07:29:10.000Z</time>
      </trkpt>
      <trkpt lat="43.79745" lon="5.0798">
        <ele>86.43598</ele>
        <time>2021-09-17T07:29:19.000Z</time>
      </trkpt>
      <trkpt lat="43.79693" lon="5.08019">
        <ele>86.647193</ele>
        <time>2021-09-17T07:29:29.000Z</time>
      </trkpt>
      <trkpt lat="43.79677" lon="5.08031">
        <ele>86.709611</ele>
        <time>2021-09-17T07:29:32.000Z</time>
      </trkpt>
      <trkpt lat="43.79631" lon="5.08066">
        <ele>86.896918</ele>
        <time>2021-09-17T07:29:41.000Z</time>
      </trkpt>
      <trkpt lat="43.79582" lon="5.08102">
        <ele>87.083252</ele>
        <time>2021-09-17T07:29:50.000Z</time>
      </trkpt>
      <trkpt lat="43.79529" lon="5.08139">
        <ele>87.27157</ele>
        <time>2021-09-17T07:29:59.000Z</time>
      </trkpt>
      <trkpt lat="43.79476" lon="5.08177">
        <ele>87.460276</ele>
        <time>2021-09-17T07:30:08.000Z</time>
      </trkpt>
      <trkpt lat="43.79471" lon="5.08181">
        <ele>87.480314</ele>
        <time>2021-09-17T07:30:09.000Z</time>
      </trkpt>
      <trkpt lat="43.79419" lon="5.08217">
        <ele>87.572856</ele>
        <time>2021-09-17T07:30:18.000Z</time>
      </trkpt>
      <trkpt lat="43.79413" lon="5.08221">
        <ele>87.576971</ele>
        <time>2021-09-17T07:30:19.000Z</time>
      </trkpt>
      <trkpt lat="43.79361" lon="5.08259">
        <ele>87.615495</ele>
        <time>2021-09-17T07:30:28.000Z</time>
      </trkpt>
      <trkpt lat="43.79322" lon="5.08289">
        <ele>87.644838</ele>
        <time>2021-09-17T07:30:35.000Z</time>
      </trkpt>
      <trkpt lat="43.79271" lon="5.08329">
        <ele>87.670841</ele>
        <time>2021-09-17T07:30:44.000Z</time>
      </trkpt>
      <trkpt lat="43.79259" lon="5.08338">
        <ele>87.672992</ele>
        <time>2021-09-17T07:30:46.000Z</time>
      </trkpt>
      <trkpt lat="43.79214" lon="5.08366">
        <ele>87.681317</ele>
        <time>2021-09-17T07:30:54.000Z</time>
      </trkpt>
      <trkpt lat="43.7916" lon="5.08395">
        <ele>87.691084</ele>
        <time>2021-09-17T07:31:03.000Z</time>
      </trkpt>
      <trkpt lat="43.79124" lon="5.08414">
        <ele>87.699828</ele>
        <time>2021-09-17T07:31:09.000Z</time>
      </trkpt>
      <trkpt lat="43.79074" lon="5.08439">
        <ele>87.737904</ele>
        <time>2021-09-17T07:31:17.000Z</time>
      </trkpt>
      <trkpt lat="43.79031" lon="5.08463">
        <ele>87.770807</ele>
        <time>2021-09-17T07:31:24.000Z</time>
      </trkpt>
      <trkpt lat="43.78992" lon="5.08491">
        <ele>87.801973</ele>
        <time>2021-09-17T07:31:31.000Z</time>
      </trkpt>
      <trkpt lat="43.78942" lon="5.0853">
        <ele>87.756808</ele>
        <time>2021-09-17T07:31:40.000Z</time>
      </trkpt>
      <trkpt lat="43.78936" lon="5.08534">
        <ele>87.739284</ele>
        <time>2021-09-17T07:31:41.000Z</time>
      </trkpt>
      <trkpt lat="43.78909" lon="5.08555">
        <ele>87.655657</ele>
        <time>2021-09-17T07:31:46.000Z</time>
      </trkpt>
      <trkpt lat="43.78899" lon="5.08563">
        <ele>87.62371</ele>
        <time>2021-09-17T07:31:48.000Z</time>
      </trkpt>
      <trkpt lat="43.78868" lon="5.08587">
        <ele>87.528103</ele>
        <time>2021-09-17T07:31:54.000Z</time>
      </trkpt>
      <trkpt lat="43.78835" lon="5.08612">
        <ele>87.428033</ele>
        <time>2021-09-17T07:32:00.000Z</time>
      </trkpt>
      <trkpt lat="43.7879" lon="5.08646">
        <ele>87.454674</ele>
        <time>2021-09-17T07:32:08.000Z</time>
      </trkpt>
      <trkpt lat="43.7874" lon="5.08686">
        <ele>87.801139</ele>
        <time>2021-09-17T07:32:17.000Z</time>
      </trkpt>
      <trkpt lat="43.78735" lon="5.0869">
        <ele>87.838723</ele>
        <time>2021-09-17T07:32:18.000Z</time>
      </trkpt>
      <trkpt lat="43.78695" lon="5.08733">
        <ele>88.137561</ele>
        <time>2021-09-17T07:32:26.000Z</time>
      </trkpt>
      <trkpt lat="43.78663" lon="5.08777">
        <ele>88.40612</ele>
        <time>2021-09-17T07:32:33.000Z</time>
      </trkpt>
      <trkpt lat="43.78624" lon="5.08833">
        <ele>88.81645</ele>
        <time>2021-09-17T07:32:42.000Z</time>
      </trkpt>
      <trkpt lat="43.78615" lon="5.08845">
        <ele>88.910574</ele>
        <time>2021-09-17T07:32:44.000Z</time>
      </trkpt>
      <trkpt lat="43.78576" lon="5.08901">
        <ele>89.319208</ele>
        <time>2021-09-17T07:32:53.000Z</time>
      </trkpt>
      <trkpt lat="43.78571" lon="5.08907">
        <ele>89.366082</ele>
        <time>2021-09-17T07:32:54.000Z</time>
      </trkpt>
      <trkpt lat="43.78532" lon="5.08962">
        <ele>89.798303</ele>
        <time>2021-09-17T07:33:03.000Z</time>
      </trkpt>
      <trkpt lat="43.78528" lon="5.08968">
        <ele>89.864424</ele>
        <time>2021-09-17T07:33:04.000Z</time>
      </trkpt>
      <trkpt lat="43.78489" lon="5.09023">
        <ele>90.459151</ele>
        <time>2021-09-17T07:33:13.000Z</time>
      </trkpt>
      <trkpt lat="43.78485" lon="5.09029">
        <ele>90.522106</ele>
        <time>2021-09-17T07:33:14.000Z</time>
      </trkpt>
      <trkpt lat="43.7845" lon="5.09085">
        <ele>91.093979</ele>
        <time>2021-09-17T07:33:23.000Z</time>
      </trkpt>
      <trkpt lat="43.78424" lon="5.09151">
        <ele>91.670015</ele>
        <time>2021-09-17T07:33:32.000Z</time>
      </trkpt>
      <trkpt lat="43.78401" lon="5.09211">
        <ele>91.807307</ele>
        <time>2021-09-17T07:33:40.000Z</time>
      </trkpt>
      <trkpt lat="43.78379" lon="5.09269">
        <ele>91.940452</ele>
        <time>2021-09-17T07:33:48.000Z</time>
      </trkpt>
      <trkpt lat="43.78358" lon="5.09326">
        <ele>92.069451</ele>
        <time>2021-09-17T07:33:56.000Z</time>
      </trkpt>
      <trkpt lat="43.78332" lon="5.09394">
        <ele>92.146579</ele>
        <time>2021-09-17T07:34:05.000Z</time>
      </trkpt>
      <trkpt lat="43.7833" lon="5.09401">
        <ele>92.138488</ele>
        <time>2021-09-17T07:34:06.000Z</time>
      </trkpt>
      <trkpt lat="43.78303" lon="5.09471">
        <ele>92.063425</ele>
        <time>2021-09-17T07:34:15.000Z</time>
      </trkpt>
      <trkpt lat="43.78277" lon="5.09542">
        <ele>91.987819</ele>
        <time>2021-09-17T07:34:24.000Z</time>
      </trkpt>
      <trkpt lat="43.78246" lon="5.09605">
        <ele>92.036896</ele>
        <time>2021-09-17T07:34:33.000Z</time>
      </trkpt>
      <trkpt lat="43.7822" lon="5.09652">
        <ele>92.326927</ele>
        <time>2021-09-17T07:34:40.000Z</time>
      </trkpt>
      <trkpt lat="43.7819" lon="5.09705">
        <ele>92.653936</ele>
        <time>2021-09-17T07:34:48.000Z</time>
      </trkpt>
      <trkpt lat="43.78166" lon="5.09748">
        <ele>92.918899</ele>
        <time>2021-09-17T07:34:55.000Z</time>
      </trkpt>
      <trkpt lat="43.78142" lon="5.09804">
        <ele>93.233232</ele>
        <time>2021-09-17T07:35:03.000Z</time>
      </trkpt>
      <trkpt lat="43.78116" lon="5.09875">
        <ele>93.608584</ele>
        <time>2021-09-17T07:35:12.000Z</time>
      </trkpt>
      <trkpt lat="43.78097" lon="5.09954">
        <ele>94.000375</ele>
        <time>2021-09-17T07:35:21.000Z</time>
      </trkpt>
      <trkpt lat="43.78086" lon="5.10017">
        <ele>94.306937</ele>
        <time>2021-09-17T07:35:28.000Z</time>
      </trkpt>
      <trkpt lat="43.78074" lon="5.1008">
        <ele>94.528887</ele>
        <time>2021-09-17T07:35:35.000Z</time>
      </trkpt>
      <trkpt lat="43.78061" lon="5.10161">
        <ele>94.805514</ele>
        <time>2021-09-17T07:35:44.000Z</time>
      </trkpt>
      <trkpt lat="43.78059" lon="5.10169">
        <ele>94.835673</ele>
        <time>2021-09-17T07:35:45.000Z</time>
      </trkpt>
      <trkpt lat="43.78047" lon="5.1024">
        <ele>95.077815</ele>
        <time>2021-09-17T07:35:53.000Z</time>
      </trkpt>
      <trkpt lat="43.78034" lon="5.10317">
        <ele>95.448749</ele>
        <time>2021-09-17T07:36:02.000Z</time>
      </trkpt>
      <trkpt lat="43.78031" lon="5.10334">
        <ele>95.542502</ele>
        <time>2021-09-17T07:36:04.000Z</time>
      </trkpt>
      <trkpt lat="43.78021" lon="5.10392">
        <ele>95.852963</ele>
        <time>2021-09-17T07:36:11.000Z</time>
      </trkpt>
      <trkpt lat="43.78011" lon="5.10441">
        <ele>96.12171</ele>
        <time>2021-09-17T07:36:17.000Z</time>
      </trkpt>
      <trkpt lat="43.78001" lon="5.10493">
        <ele>96.407877</ele>
        <time>2021-09-17T07:36:24.000Z</time>
      </trkpt>
      <trkpt lat="43.77998" lon="5.10508">
        <ele>96.482814</ele>
        <time>2021-09-17T07:36:26.000Z</time>
      </trkpt>
      <trkpt lat="43.77995" lon="5.10528">
        <ele>96.573617</ele>
        <time>2021-09-17T07:36:29.000Z</time>
      </trkpt>
      <trkpt lat="43.77992" lon="5.10541">
        <ele>96.634294</ele>
        <time>2021-09-17T07:36:31.000Z</time>
      </trkpt>
      <trkpt lat="43.7799" lon="5.10554">
        <ele>96.693851</ele>
        <time>2021-09-17T07:36:33.000Z</time>
      </trkpt>
      <trkpt lat="43.77987" lon="5.10568">
        <ele>96.755944</ele>
        <time>2021-09-17T07:36:35.000Z</time>
      </trkpt>
      <trkpt lat="43.77986" lon="5.10575">
        <ele>96.787066</ele>
        <time>2021-09-17T07:36:36.000Z</time>
      </trkpt>
      <trkpt lat="43.77977" lon="5.10622">
        <ele>96.999068</ele>
        <time>2021-09-17T07:36:42.000Z</time>
      </trkpt>
      <trkpt lat="43.7796" lon="5.10674">
        <ele>97.249199</ele>
        <time>2021-09-17T07:36:49.000Z</time>
      </trkpt>
      <trkpt lat="43.7794" lon="5.10726">
        <ele>97.502886</ele>
        <time>2021-09-17T07:36:56.000Z</time>
      </trkpt>
      <trkpt lat="43.77913" lon="5.10783">
        <ele>97.335238</ele>
        <time>2021-09-17T07:37:04.000Z</time>
      </trkpt>
      <trkpt lat="43.77884" lon="5.10832">
        <ele>97.08874</ele>
        <time>2021-09-17T07:37:11.000Z</time>
      </trkpt>
      <trkpt lat="43.77856" lon="5.10881">
        <ele>96.840023</ele>
        <time>2021-09-17T07:37:18.000Z</time>
      </trkpt>
      <trkpt lat="43.77821" lon="5.10937">
        <ele>96.600768</ele>
        <time>2021-09-17T07:37:26.000Z</time>
      </trkpt>
      <trkpt lat="43.7778" lon="5.1098">
        <ele>96.847448</ele>
        <time>2021-09-17T07:37:34.000Z</time>
      </trkpt>
      <trkpt lat="43.77741" lon="5.1101">
        <ele>97.064383</ele>
        <time>2021-09-17T07:37:41.000Z</time>
      </trkpt>
      <trkpt lat="43.77688" lon="5.11043">
        <ele>97.345727</ele>
        <time>2021-09-17T07:37:50.000Z</time>
      </trkpt>
      <trkpt lat="43.77676" lon="5.1105">
        <ele>97.407196</ele>
        <time>2021-09-17T07:37:52.000Z</time>
      </trkpt>
      <trkpt lat="43.77623" lon="5.11082">
        <ele>97.747974</ele>
        <time>2021-09-17T07:38:01.000Z</time>
      </trkpt>
      <trkpt lat="43.77573" lon="5.11114">
        <ele>98.083655</ele>
        <time>2021-09-17T07:38:09.000Z</time>
      </trkpt>
      <trkpt lat="43.77524" lon="5.11146">
        <ele>98.40979</ele>
        <time>2021-09-17T07:38:17.000Z</time>
      </trkpt>
      <trkpt lat="43.77476" lon="5.1118">
        <ele>98.738572</ele>
        <time>2021-09-17T07:38:26.000Z</time>
      </trkpt>
      <trkpt lat="43.77445" lon="5.11207">
        <ele>98.957287</ele>
        <time>2021-09-17T07:38:32.000Z</time>
      </trkpt>
      <trkpt lat="43.774" lon="5.11249">
        <ele>99.284326</ele>
        <time>2021-09-17T07:38:40.000Z</time>
      </trkpt>
      <trkpt lat="43.77373" lon="5.11276">
        <ele>99.487505</ele>
        <time>2021-09-17T07:38:45.000Z</time>
      </trkpt>
      <trkpt lat="43.77331" lon="5.11318">
        <ele>99.78679</ele>
        <time>2021-09-17T07:38:53.000Z</time>
      </trkpt>
      <trkpt lat="43.77297" lon="5.11358">
        <ele>100.045523</ele>
        <time>2021-09-17T07:39:00.000Z</time>
      </trkpt>
      <trkpt lat="43.7727" lon="5.11404">
        <ele>100.293777</ele>
        <time>2021-09-17T07:39:07.000Z</time>
      </trkpt>
      <trkpt lat="43.77237" lon="5.11472">
        <ele>100.631893</ele>
        <time>2021-09-17T07:39:16.000Z</time>
      </trkpt>
      <trkpt lat="43.77204" lon="5.11539">
        <ele>100.716075</ele>
        <time>2021-09-17T07:39:24.000Z</time>
      </trkpt>
      <trkpt lat="43.7717" lon="5.11608">
        <ele>100.782574</ele>
        <time>2021-09-17T07:39:32.000Z</time>
      </trkpt>
      <trkpt lat="43.77161" lon="5.11625">
        <ele>100.799281</ele>
        <time>2021-09-17T07:39:34.000Z</time>
      </trkpt>
      <trkpt lat="43.77129" lon="5.11692">
        <ele>100.811509</ele>
        <time>2021-09-17T07:39:42.000Z</time>
      </trkpt>
      <trkpt lat="43.77098" lon="5.11754">
        <ele>100.539147</ele>
        <time>2021-09-17T07:39:50.000Z</time>
      </trkpt>
      <trkpt lat="43.77094" lon="5.11762">
        <ele>100.50352</ele>
        <time>2021-09-17T07:39:51.000Z</time>
      </trkpt>
      <trkpt lat="43.77064" lon="5.11824">
        <ele>100.229691</ele>
        <time>2021-09-17T07:39:59.000Z</time>
      </trkpt>
      <trkpt lat="43.77041" lon="5.11871">
        <ele>100.02563</ele>
        <time>2021-09-17T07:40:05.000Z</time>
      </trkpt>
      <trkpt lat="43.77021" lon="5.1191">
        <ele>99.951161</ele>
        <time>2021-09-17T07:40:10.000Z</time>
      </trkpt>
      <trkpt lat="43.7699" lon="5.11974">
        <ele>99.955468</ele>
        <time>2021-09-17T07:40:18.000Z</time>
      </trkpt>
      <trkpt lat="43.76986" lon="5.11981">
        <ele>99.956006</ele>
        <time>2021-09-17T07:40:19.000Z</time>
      </trkpt>
      <trkpt lat="43.76952" lon="5.1205">
        <ele>99.960673</ele>
        <time>2021-09-17T07:40:28.000Z</time>
      </trkpt>
      <trkpt lat="43.76949" lon="5.12057">
        <ele>99.961166</ele>
        <time>2021-09-17T07:40:29.000Z</time>
      </trkpt>
      <trkpt lat="43.76923" lon="5.12109">
        <ele>100.104977</ele>
        <time>2021-09-17T07:40:37.000Z</time>
      </trkpt>
      <trkpt lat="43.76904" lon="5.12148">
        <ele>100.4682</ele>
        <time>2021-09-17T07:40:44.000Z</time>
      </trkpt>
      <trkpt lat="43.76877" lon="5.12203">
        <ele>100.983567</ele>
        <time>2021-09-17T07:40:55.000Z</time>
      </trkpt>
      <trkpt lat="43.76859" lon="5.12238">
        <ele>101.317893</ele>
        <time>2021-09-17T07:41:02.000Z</time>
      </trkpt>
      <trkpt lat="43.7684" lon="5.12276">
        <ele>101.671616</ele>
        <time>2021-09-17T07:41:09.000Z</time>
      </trkpt>
      <trkpt lat="43.76835" lon="5.12287">
        <ele>101.776839</ele>
        <time>2021-09-17T07:41:11.000Z</time>
      </trkpt>
      <trkpt lat="43.76811" lon="5.12336">
        <ele>101.952249</ele>
        <time>2021-09-17T07:41:19.000Z</time>
      </trkpt>
      <trkpt lat="43.76782" lon="5.12387">
        <ele>102.045564</ele>
        <time>2021-09-17T07:41:27.000Z</time>
      </trkpt>
      <trkpt lat="43.76746" lon="5.12438">
        <ele>102.149618</ele>
        <time>2021-09-17T07:41:36.000Z</time>
      </trkpt>
      <trkpt lat="43.76712" lon="5.12483">
        <ele>102.242674</ele>
        <time>2021-09-17T07:41:44.000Z</time>
      </trkpt>
      <trkpt lat="43.767" lon="5.12499">
        <ele>102.2341</ele>
        <time>2021-09-17T07:41:47.000Z</time>
      </trkpt>
      <trkpt lat="43.76687" lon="5.12516">
        <ele>102.217773</ele>
        <time>2021-09-17T07:41:50.000Z</time>
      </trkpt>
      <trkpt lat="43.76652" lon="5.12561">
        <ele>102.172988</ele>
        <time>2021-09-17T07:41:58.000Z</time>
      </trkpt>
      <trkpt lat="43.76616" lon="5.12609">
        <ele>102.126673</ele>
        <time>2021-09-17T07:42:05.000Z</time>
      </trkpt>
      <trkpt lat="43.76573" lon="5.12665">
        <ele>102.112337</ele>
        <time>2021-09-17T07:42:13.000Z</time>
      </trkpt>
      <trkpt lat="43.76562" lon="5.1268">
        <ele>102.162156</ele>
        <time>2021-09-17T07:42:15.000Z</time>
      </trkpt>
      <trkpt lat="43.76518" lon="5.12737">
        <ele>102.362573</ele>
        <time>2021-09-17T07:42:23.000Z</time>
      </trkpt>
      <trkpt lat="43.76513" lon="5.12744">
        <ele>102.38728</ele>
        <time>2021-09-17T07:42:24.000Z</time>
      </trkpt>
      <trkpt lat="43.7647" lon="5.128">
        <ele>102.581194</ele>
        <time>2021-09-17T07:42:32.000Z</time>
      </trkpt>
      <trkpt lat="43.76465" lon="5.12807">
        <ele>102.604114</ele>
        <time>2021-09-17T07:42:33.000Z</time>
      </trkpt>
      <trkpt lat="43.76432" lon="5.12854">
        <ele>102.782619</ele>
        <time>2021-09-17T07:42:40.000Z</time>
      </trkpt>
      <trkpt lat="43.76399" lon="5.12909">
        <ele>102.99489</ele>
        <time>2021-09-17T07:42:47.000Z</time>
      </trkpt>
      <trkpt lat="43.76362" lon="5.12973">
        <ele>103.23477</ele>
        <time>2021-09-17T07:42:54.000Z</time>
      </trkpt>
      <trkpt lat="43.76357" lon="5.12982">
        <ele>103.269284</ele>
        <time>2021-09-17T07:42:55.000Z</time>
      </trkpt>
      <trkpt lat="43.7632" lon="5.13044">
        <ele>103.451396</ele>
        <time>2021-09-17T07:43:02.000Z</time>
      </trkpt>
      <trkpt lat="43.76316" lon="5.13052">
        <ele>103.464404</ele>
        <time>2021-09-17T07:43:03.000Z</time>
      </trkpt>
      <trkpt lat="43.76278" lon="5.13117">
        <ele>103.566441</ele>
        <time>2021-09-17T07:43:11.000Z</time>
      </trkpt>
      <trkpt lat="43.76264" lon="5.13141">
        <ele>103.603959</ele>
        <time>2021-09-17T07:43:14.000Z</time>
      </trkpt>
      <trkpt lat="43.76238" lon="5.13186">
        <ele>103.675184</ele>
        <time>2021-09-17T07:43:20.000Z</time>
      </trkpt>
      <trkpt lat="43.76226" lon="5.13208">
        <ele>103.709595</ele>
        <time>2021-09-17T07:43:23.000Z</time>
      </trkpt>
      <trkpt lat="43.76217" lon="5.13222">
        <ele>103.751183</ele>
        <time>2021-09-17T07:43:25.000Z</time>
      </trkpt>
      <trkpt lat="43.7618" lon="5.13284">
        <ele>103.991115</ele>
        <time>2021-09-17T07:43:34.000Z</time>
      </trkpt>
      <trkpt lat="43.76172" lon="5.13298">
        <ele>104.042389</ele>
        <time>2021-09-17T07:43:36.000Z</time>
      </trkpt>
      <trkpt lat="43.76146" lon="5.13342">
        <ele>104.215073</ele>
        <time>2021-09-17T07:43:43.000Z</time>
      </trkpt>
      <trkpt lat="43.76114" lon="5.13396">
        <ele>104.421986</ele>
        <time>2021-09-17T07:43:52.000Z</time>
      </trkpt>
      <trkpt lat="43.76082" lon="5.13461">
        <ele>104.590036</ele>
        <time>2021-09-17T07:44:02.000Z</time>
      </trkpt>
      <trkpt lat="43.76056" lon="5.13524">
        <ele>104.731104</ele>
        <time>2021-09-17T07:44:11.000Z</time>
      </trkpt>
      <trkpt lat="43.76049" lon="5.13545">
        <ele>104.776561</ele>
        <time>2021-09-17T07:44:14.000Z</time>
      </trkpt>
      <trkpt lat="43.76045" lon="5.13559">
        <ele>104.807311</ele>
        <time>2021-09-17T07:44:16.000Z</time>
      </trkpt>
      <trkpt lat="43.76038" lon="5.13581">
        <ele>104.853417</ele>
        <time>2021-09-17T07:44:19.000Z</time>
      </trkpt>
      <trkpt lat="43.76033" lon="5.13595">
        <ele>104.884707</ele>
        <time>2021-09-17T07:44:21.000Z</time>
      </trkpt>
      <trkpt lat="43.76031" lon="5.13603">
        <ele>104.900641</ele>
        <time>2021-09-17T07:44:22.000Z</time>
      </trkpt>
      <trkpt lat="43.76022" lon="5.13633">
        <ele>104.964298</ele>
        <time>2021-09-17T07:44:26.000Z</time>
      </trkpt>
      <trkpt lat="43.76004" lon="5.13697">
        <ele>105.093919</ele>
        <time>2021-09-17T07:44:34.000Z</time>
      </trkpt>
      <trkpt lat="43.75988" lon="5.13756">
        <ele>105.213447</ele>
        <time>2021-09-17T07:44:41.000Z</time>
      </trkpt>
      <trkpt lat="43.75969" lon="5.1383">
        <ele>105.360028</ele>
        <time>2021-09-17T07:44:49.000Z</time>
      </trkpt>
      <trkpt lat="43.75947" lon="5.13907">
        <ele>105.578322</ele>
        <time>2021-09-17T07:44:57.000Z</time>
      </trkpt>
      <trkpt lat="43.75942" lon="5.13927">
        <ele>105.643203</ele>
        <time>2021-09-17T07:44:59.000Z</time>
      </trkpt>
      <trkpt lat="43.75919" lon="5.14006">
        <ele>105.906246</ele>
        <time>2021-09-17T07:45:07.000Z</time>
      </trkpt>
      <trkpt lat="43.75911" lon="5.14036">
        <ele>106.005393</ele>
        <time>2021-09-17T07:45:10.000Z</time>
      </trkpt>
      <trkpt lat="43.75897" lon="5.14085">
        <ele>106.170308</ele>
        <time>2021-09-17T07:45:15.000Z</time>
      </trkpt>
      <trkpt lat="43.75894" lon="5.14096">
        <ele>106.202162</ele>
        <time>2021-09-17T07:45:16.000Z</time>
      </trkpt>
      <trkpt lat="43.75891" lon="5.14106">
        <ele>106.231702</ele>
        <time>2021-09-17T07:45:17.000Z</time>
      </trkpt>
      <trkpt lat="43.75878" lon="5.14149">
        <ele>106.352692</ele>
        <time>2021-09-17T07:45:21.000Z</time>
      </trkpt>
      <trkpt lat="43.75857" lon="5.14222">
        <ele>106.558497</ele>
        <time>2021-09-17T07:45:28.000Z</time>
      </trkpt>
      <trkpt lat="43.75855" lon="5.14233">
        <ele>106.58693</ele>
        <time>2021-09-17T07:45:29.000Z</time>
      </trkpt>
      <trkpt lat="43.7584" lon="5.14283">
        <ele>106.728261</ele>
        <time>2021-09-17T07:45:34.000Z</time>
      </trkpt>
      <trkpt lat="43.75819" lon="5.14353">
        <ele>106.932837</ele>
        <time>2021-09-17T07:45:41.000Z</time>
      </trkpt>
      <trkpt lat="43.75799" lon="5.14424">
        <ele>107.141742</ele>
        <time>2021-09-17T07:45:48.000Z</time>
      </trkpt>
      <trkpt lat="43.75793" lon="5.14444">
        <ele>107.201499</ele>
        <time>2021-09-17T07:45:50.000Z</time>
      </trkpt>
      <trkpt lat="43.75773" lon="5.14513">
        <ele>107.406248</ele>
        <time>2021-09-17T07:45:57.000Z</time>
      </trkpt>
      <trkpt lat="43.75751" lon="5.1459">
        <ele>107.684444</ele>
        <time>2021-09-17T07:46:05.000Z</time>
      </trkpt>
      <trkpt lat="43.75748" lon="5.146">
        <ele>107.725872</ele>
        <time>2021-09-17T07:46:06.000Z</time>
      </trkpt>
      <trkpt lat="43.75729" lon="5.14665">
        <ele>108.004131</ele>
        <time>2021-09-17T07:46:13.000Z</time>
      </trkpt>
      <trkpt lat="43.75709" lon="5.14734">
        <ele>108.300876</ele>
        <time>2021-09-17T07:46:21.000Z</time>
      </trkpt>
      <trkpt lat="43.75706" lon="5.14742">
        <ele>108.336333</ele>
        <time>2021-09-17T07:46:22.000Z</time>
      </trkpt>
      <trkpt lat="43.75683" lon="5.14818">
        <ele>108.652127</ele>
        <time>2021-09-17T07:46:31.000Z</time>
      </trkpt>
      <trkpt lat="43.75681" lon="5.14827">
        <ele>108.685537</ele>
        <time>2021-09-17T07:46:32.000Z</time>
      </trkpt>
      <trkpt lat="43.75659" lon="5.14896">
        <ele>108.964989</ele>
        <time>2021-09-17T07:46:40.000Z</time>
      </trkpt>
      <trkpt lat="43.75656" lon="5.14905">
        <ele>108.998791</ele>
        <time>2021-09-17T07:46:41.000Z</time>
      </trkpt>
      <trkpt lat="43.75638" lon="5.14955">
        <ele>109.20489</ele>
        <time>2021-09-17T07:46:47.000Z</time>
      </trkpt>
      <trkpt lat="43.75615" lon="5.15023">
        <ele>109.468816</ele>
        <time>2021-09-17T07:46:55.000Z</time>
      </trkpt>
      <trkpt lat="43.75612" lon="5.15032">
        <ele>109.494315</ele>
        <time>2021-09-17T07:46:56.000Z</time>
      </trkpt>
      <trkpt lat="43.75591" lon="5.15094">
        <ele>109.676778</ele>
        <time>2021-09-17T07:47:03.000Z</time>
      </trkpt>
      <trkpt lat="43.75581" lon="5.15158">
        <ele>109.854938</ele>
        <time>2021-09-17T07:47:10.000Z</time>
      </trkpt>
      <trkpt lat="43.75579" lon="5.15186">
        <ele>109.930264</ele>
        <time>2021-09-17T07:47:13.000Z</time>
      </trkpt>
      <trkpt lat="43.75581" lon="5.15214">
        <ele>110.004717</ele>
        <time>2021-09-17T07:47:16.000Z</time>
      </trkpt>
      <trkpt lat="43.75589" lon="5.15268">
        <ele>110.157387</ele>
        <time>2021-09-17T07:47:22.000Z</time>
      </trkpt>
      <trkpt lat="43.75601" lon="5.15324">
        <ele>110.327815</ele>
        <time>2021-09-17T07:47:29.000Z</time>
      </trkpt>
      <trkpt lat="43.75604" lon="5.15339">
        <ele>110.372975</ele>
        <time>2021-09-17T07:47:31.000Z</time>
      </trkpt>
      <trkpt lat="43.75608" lon="5.15362">
        <ele>110.444838</ele>
        <time>2021-09-17T07:47:34.000Z</time>
      </trkpt>
      <trkpt lat="43.7561" lon="5.1537">
        <ele>110.469073</ele>
        <time>2021-09-17T07:47:35.000Z</time>
      </trkpt>
      <trkpt lat="43.75613" lon="5.15387">
        <ele>110.518215</ele>
        <time>2021-09-17T07:47:37.000Z</time>
      </trkpt>
      <trkpt lat="43.7562" lon="5.15419">
        <ele>110.615547</ele>
        <time>2021-09-17T07:47:41.000Z</time>
      </trkpt>
      <trkpt lat="43.75621" lon="5.15426">
        <ele>110.638379</ele>
        <time>2021-09-17T07:47:42.000Z</time>
      </trkpt>
      <trkpt lat="43.75626" lon="5.15451">
        <ele>110.713833</ele>
        <time>2021-09-17T07:47:45.000Z</time>
      </trkpt>
      <trkpt lat="43.7563" lon="5.15468">
        <ele>110.765723</ele>
        <time>2021-09-17T07:47:47.000Z</time>
      </trkpt>
      <trkpt lat="43.75633" lon="5.15485">
        <ele>110.817614</ele>
        <time>2021-09-17T07:47:49.000Z</time>
      </trkpt>
      <trkpt lat="43.75637" lon="5.15502">
        <ele>110.901608</ele>
        <time>2021-09-17T07:47:51.000Z</time>
      </trkpt>
      <trkpt lat="43.75653" lon="5.15582">
        <ele>111.32828</ele>
        <time>2021-09-17T07:48:00.000Z</time>
      </trkpt>
      <trkpt lat="43.75662" lon="5.15635">
        <ele>111.609133</ele>
        <time>2021-09-17T07:48:06.000Z</time>
      </trkpt>
      <trkpt lat="43.75664" lon="5.15652">
        <ele>111.702177</ele>
        <time>2021-09-17T07:48:08.000Z</time>
      </trkpt>
      <trkpt lat="43.75666" lon="5.1567">
        <ele>111.795999</ele>
        <time>2021-09-17T07:48:10.000Z</time>
      </trkpt>
      <trkpt lat="43.75665" lon="5.15722">
        <ele>112.062004</ele>
        <time>2021-09-17T07:48:16.000Z</time>
      </trkpt>
      <trkpt lat="43.75658" lon="5.15768">
        <ele>112.210121</ele>
        <time>2021-09-17T07:48:21.000Z</time>
      </trkpt>
      <trkpt lat="43.75655" lon="5.15777">
        <ele>112.235367</ele>
        <time>2021-09-17T07:48:22.000Z</time>
      </trkpt>
      <trkpt lat="43.7564" lon="5.15829">
        <ele>112.379192</ele>
        <time>2021-09-17T07:48:28.000Z</time>
      </trkpt>
      <trkpt lat="43.75621" lon="5.15891">
        <ele>112.551751</ele>
        <time>2021-09-17T07:48:35.000Z</time>
      </trkpt>
      <trkpt lat="43.75603" lon="5.1595">
        <ele>112.717226</ele>
        <time>2021-09-17T07:48:42.000Z</time>
      </trkpt>
      <trkpt lat="43.75586" lon="5.1601">
        <ele>112.844606</ele>
        <time>2021-09-17T07:48:49.000Z</time>
      </trkpt>
      <trkpt lat="43.75565" lon="5.16081">
        <ele>112.981082</ele>
        <time>2021-09-17T07:48:57.000Z</time>
      </trkpt>
      <trkpt lat="43.75563" lon="5.1609">
        <ele>112.998416</ele>
        <time>2021-09-17T07:48:58.000Z</time>
      </trkpt>
      <trkpt lat="43.75547" lon="5.16163">
        <ele>113.136022</ele>
        <time>2021-09-17T07:49:06.000Z</time>
      </trkpt>
      <trkpt lat="43.75541" lon="5.16232">
        <ele>113.236037</ele>
        <time>2021-09-17T07:49:13.000Z</time>
      </trkpt>
      <trkpt lat="43.75535" lon="5.16312">
        <ele>113.321168</ele>
        <time>2021-09-17T07:49:21.000Z</time>
      </trkpt>
      <trkpt lat="43.75529" lon="5.16393">
        <ele>113.407895</ele>
        <time>2021-09-17T07:49:29.000Z</time>
      </trkpt>
      <trkpt lat="43.75524" lon="5.16475">
        <ele>113.493322</ele>
        <time>2021-09-17T07:49:37.000Z</time>
      </trkpt>
      <trkpt lat="43.75521" lon="5.16505">
        <ele>113.523487</ele>
        <time>2021-09-17T07:49:40.000Z</time>
      </trkpt>
      <trkpt lat="43.75516" lon="5.16585">
        <ele>113.603435</ele>
        <time>2021-09-17T07:49:48.000Z</time>
      </trkpt>
      <trkpt lat="43.75515" lon="5.16595">
        <ele>113.613345</ele>
        <time>2021-09-17T07:49:49.000Z</time>
      </trkpt>
      <trkpt lat="43.7551" lon="5.16677">
        <ele>113.695988</ele>
        <time>2021-09-17T07:49:57.000Z</time>
      </trkpt>
      <trkpt lat="43.75509" lon="5.16698">
        <ele>113.717424</ele>
        <time>2021-09-17T07:49:59.000Z</time>
      </trkpt>
      <trkpt lat="43.75503" lon="5.16779">
        <ele>113.807833</ele>
        <time>2021-09-17T07:50:07.000Z</time>
      </trkpt>
      <trkpt lat="43.75498" lon="5.1686">
        <ele>113.89902</ele>
        <time>2021-09-17T07:50:15.000Z</time>
      </trkpt>
      <trkpt lat="43.75493" lon="5.16938">
        <ele>113.985749</ele>
        <time>2021-09-17T07:50:23.000Z</time>
      </trkpt>
      <trkpt lat="43.75492" lon="5.16957">
        <ele>114.000749</ele>
        <time>2021-09-17T07:50:25.000Z</time>
      </trkpt>
      <trkpt lat="43.75487" lon="5.17031">
        <ele>114.050106</ele>
        <time>2021-09-17T07:50:33.000Z</time>
      </trkpt>
      <trkpt lat="43.75483" lon="5.17088">
        <ele>114.088301</ele>
        <time>2021-09-17T07:50:39.000Z</time>
      </trkpt>
      <trkpt lat="43.75477" lon="5.17167">
        <ele>114.14103</ele>
        <time>2021-09-17T07:50:47.000Z</time>
      </trkpt>
      <trkpt lat="43.75477" lon="5.17177">
        <ele>114.147712</ele>
        <time>2021-09-17T07:50:48.000Z</time>
      </trkpt>
      <trkpt lat="43.75471" lon="5.17259">
        <ele>114.189507</ele>
        <time>2021-09-17T07:50:56.000Z</time>
      </trkpt>
      <trkpt lat="43.7547" lon="5.1728">
        <ele>114.199317</ele>
        <time>2021-09-17T07:50:58.000Z</time>
      </trkpt>
      <trkpt lat="43.75464" lon="5.17364">
        <ele>114.239188</ele>
        <time>2021-09-17T07:51:06.000Z</time>
      </trkpt>
      <trkpt lat="43.75464" lon="5.17374">
        <ele>114.244073</ele>
        <time>2021-09-17T07:51:07.000Z</time>
      </trkpt>
      <trkpt lat="43.75458" lon="5.17458">
        <ele>114.298684</ele>
        <time>2021-09-17T07:51:15.000Z</time>
      </trkpt>
      <trkpt lat="43.75458" lon="5.17468">
        <ele>114.312243</ele>
        <time>2021-09-17T07:51:16.000Z</time>
      </trkpt>
      <trkpt lat="43.75452" lon="5.17552">
        <ele>114.417919</ele>
        <time>2021-09-17T07:51:24.000Z</time>
      </trkpt>
      <trkpt lat="43.75447" lon="5.17625">
        <ele>114.510932</ele>
        <time>2021-09-17T07:51:32.000Z</time>
      </trkpt>
      <trkpt lat="43.75443" lon="5.17689">
        <ele>114.594003</ele>
        <time>2021-09-17T07:51:39.000Z</time>
      </trkpt>
      <trkpt lat="43.75438" lon="5.17772">
        <ele>114.790004</ele>
        <time>2021-09-17T07:51:48.000Z</time>
      </trkpt>
      <trkpt lat="43.75437" lon="5.1778">
        <ele>114.810633</ele>
        <time>2021-09-17T07:51:49.000Z</time>
      </trkpt>
      <trkpt lat="43.75433" lon="5.17845">
        <ele>114.96541</ele>
        <time>2021-09-17T07:51:57.000Z</time>
      </trkpt>
      <trkpt lat="43.75428" lon="5.1791">
        <ele>115.118938</ele>
        <time>2021-09-17T07:52:05.000Z</time>
      </trkpt>
      <trkpt lat="43.75424" lon="5.17966">
        <ele>115.394784</ele>
        <time>2021-09-17T07:52:12.000Z</time>
      </trkpt>
      <trkpt lat="43.75419" lon="5.18019">
        <ele>115.759242</ele>
        <time>2021-09-17T07:52:19.000Z</time>
      </trkpt>
      <trkpt lat="43.75413" lon="5.18064">
        <ele>116.074544</ele>
        <time>2021-09-17T07:52:26.000Z</time>
      </trkpt>
      <trkpt lat="43.75408" lon="5.18081">
        <ele>116.199441</ele>
        <time>2021-09-17T07:52:29.000Z</time>
      </trkpt>
      <trkpt lat="43.75405" lon="5.18086">
        <ele>116.247888</ele>
        <time>2021-09-17T07:52:30.000Z</time>
      </trkpt>
      <trkpt lat="43.75389" lon="5.18096">
        <ele>116.411921</ele>
        <time>2021-09-17T07:52:34.000Z</time>
      </trkpt>
      <trkpt lat="43.7538" lon="5.18098">
        <ele>116.496944</ele>
        <time>2021-09-17T07:52:36.000Z</time>
      </trkpt>
      <trkpt lat="43.75345" lon="5.18095">
        <ele>116.834921</ele>
        <time>2021-09-17T07:52:43.000Z</time>
      </trkpt>
      <trkpt lat="43.75296" lon="5.1809">
        <ele>117.032143</ele>
        <time>2021-09-17T07:52:52.000Z</time>
      </trkpt>
      <trkpt lat="43.75274" lon="5.18091">
        <ele>117.102794</ele>
        <time>2021-09-17T07:52:56.000Z</time>
      </trkpt>
      <trkpt lat="43.75263" lon="5.18094">
        <ele>117.140878</ele>
        <time>2021-09-17T07:52:58.000Z</time>
      </trkpt>
      <trkpt lat="43.75224" lon="5.18113">
        <ele>117.276989</ele>
        <time>2021-09-17T07:53:05.000Z</time>
      </trkpt>
      <trkpt lat="43.75184" lon="5.18137">
        <ele>117.422017</ele>
        <time>2021-09-17T07:53:12.000Z</time>
      </trkpt>
      <trkpt lat="43.75136" lon="5.18164">
        <ele>117.559559</ele>
        <time>2021-09-17T07:53:20.000Z</time>
      </trkpt>
      <trkpt lat="43.75087" lon="5.18185">
        <ele>117.677938</ele>
        <time>2021-09-17T07:53:28.000Z</time>
      </trkpt>
      <trkpt lat="43.75039" lon="5.18196">
        <ele>117.792625</ele>
        <time>2021-09-17T07:53:36.000Z</time>
      </trkpt>
      <trkpt lat="43.74986" lon="5.18198">
        <ele>117.918543</ele>
        <time>2021-09-17T07:53:45.000Z</time>
      </trkpt>
      <trkpt lat="43.7494" lon="5.18191">
        <ele>118.045389</ele>
        <time>2021-09-17T07:53:53.000Z</time>
      </trkpt>
      <trkpt lat="43.74901" lon="5.1818">
        <ele>118.154345</ele>
        <time>2021-09-17T07:54:00.000Z</time>
      </trkpt>
      <trkpt lat="43.74876" lon="5.18169">
        <ele>118.22648</ele>
        <time>2021-09-17T07:54:05.000Z</time>
      </trkpt>
      <trkpt lat="43.74871" lon="5.18166">
        <ele>118.241681</ele>
        <time>2021-09-17T07:54:06.000Z</time>
      </trkpt>
      <trkpt lat="43.74824" lon="5.18136">
        <ele>118.383412</ele>
        <time>2021-09-17T07:54:15.000Z</time>
      </trkpt>
      <trkpt lat="43.74783" lon="5.18105">
        <ele>118.442817</ele>
        <time>2021-09-17T07:54:23.000Z</time>
      </trkpt>
      <trkpt lat="43.74737" lon="5.18071">
        <ele>118.503209</ele>
        <time>2021-09-17T07:54:32.000Z</time>
      </trkpt>
      <trkpt lat="43.74696" lon="5.1804">
        <ele>118.557511</ele>
        <time>2021-09-17T07:54:40.000Z</time>
      </trkpt>
      <trkpt lat="43.74644" lon="5.18001">
        <ele>118.627857</ele>
        <time>2021-09-17T07:54:50.000Z</time>
      </trkpt>
      <trkpt lat="43.74592" lon="5.17961">
        <ele>118.702199</ele>
        <time>2021-09-17T07:55:00.000Z</time>
      </trkpt>
      <trkpt lat="43.74543" lon="5.17925">
        <ele>118.7719</ele>
        <time>2021-09-17T07:55:09.000Z</time>
      </trkpt>
      <trkpt lat="43.74533" lon="5.17918">
        <ele>118.786585</ele>
        <time>2021-09-17T07:55:11.000Z</time>
      </trkpt>
      <trkpt lat="43.74485" lon="5.17882">
        <ele>118.83904</ele>
        <time>2021-09-17T07:55:20.000Z</time>
      </trkpt>
      <trkpt lat="43.74443" lon="5.1785">
        <ele>118.864294</ele>
        <time>2021-09-17T07:55:28.000Z</time>
      </trkpt>
      <trkpt lat="43.74394" lon="5.17815">
        <ele>118.893034</ele>
        <time>2021-09-17T07:55:37.000Z</time>
      </trkpt>
      <trkpt lat="43.74342" lon="5.17777">
        <ele>118.925567</ele>
        <time>2021-09-17T07:55:47.000Z</time>
      </trkpt>
      <trkpt lat="43.74332" lon="5.1777">
        <ele>118.936496</ele>
        <time>2021-09-17T07:55:49.000Z</time>
      </trkpt>
      <trkpt lat="43.7428" lon="5.17735">
        <ele>118.989458</ele>
        <time>2021-09-17T07:55:59.000Z</time>
      </trkpt>
      <trkpt lat="43.74275" lon="5.17732">
        <ele>118.994641</ele>
        <time>2021-09-17T07:56:00.000Z</time>
      </trkpt>
      <trkpt lat="43.74233" lon="5.17704">
        <ele>119.037027</ele>
        <time>2021-09-17T07:56:08.000Z</time>
      </trkpt>
      <trkpt lat="43.74191" lon="5.17676">
        <ele>119.080415</ele>
        <time>2021-09-17T07:56:16.000Z</time>
      </trkpt>
      <trkpt lat="43.74147" lon="5.17651">
        <ele>119.314695</ele>
        <time>2021-09-17T07:56:24.000Z</time>
      </trkpt>
      <trkpt lat="43.7411" lon="5.1763">
        <ele>119.544969</ele>
        <time>2021-09-17T07:56:31.000Z</time>
      </trkpt>
      <trkpt lat="43.74075" lon="5.1761">
        <ele>119.759644</ele>
        <time>2021-09-17T07:56:38.000Z</time>
      </trkpt>
      <trkpt lat="43.74035" lon="5.17587">
        <ele>120.007103</ele>
        <time>2021-09-17T07:56:47.000Z</time>
      </trkpt>
      <trkpt lat="43.74007" lon="5.17569">
        <ele>120.258096</ele>
        <time>2021-09-17T07:56:54.000Z</time>
      </trkpt>
      <trkpt lat="43.73977" lon="5.17548">
        <ele>120.651789</ele>
        <time>2021-09-17T07:57:02.000Z</time>
      </trkpt>
      <trkpt lat="43.73945" lon="5.17525">
        <ele>121.082149</ele>
        <time>2021-09-17T07:57:11.000Z</time>
      </trkpt>
      <trkpt lat="43.73917" lon="5.17505">
        <ele>121.455459</ele>
        <time>2021-09-17T07:57:19.000Z</time>
      </trkpt>
      <trkpt lat="43.73893" lon="5.17488">
        <ele>121.776717</ele>
        <time>2021-09-17T07:57:26.000Z</time>
      </trkpt>
      <trkpt lat="43.7387" lon="5.17471">
        <ele>122.084699</ele>
        <time>2021-09-17T07:57:32.000Z</time>
      </trkpt>
      <trkpt lat="43.73839" lon="5.17449">
        <ele>122.304979</ele>
        <time>2021-09-17T07:57:40.000Z</time>
      </trkpt>
      <trkpt lat="43.7381" lon="5.17428">
        <ele>122.393441</ele>
        <time>2021-09-17T07:57:47.000Z</time>
      </trkpt>
      <trkpt lat="43.73807" lon="5.17426">
        <ele>122.404851</ele>
        <time>2021-09-17T07:57:48.000Z</time>
      </trkpt>
      <trkpt lat="43.73793" lon="5.17416">
        <ele>122.445858</ele>
        <time>2021-09-17T07:57:52.000Z</time>
      </trkpt>
      <trkpt lat="43.73767" lon="5.17395">
        <ele>122.528765</ele>
        <time>2021-09-17T07:57:59.000Z</time>
      </trkpt>
      <trkpt lat="43.73742" lon="5.17376">
        <ele>122.606528</ele>
        <time>2021-09-17T07:58:05.000Z</time>
      </trkpt>
      <trkpt lat="43.73717" lon="5.17356">
        <ele>122.685865</ele>
        <time>2021-09-17T07:58:11.000Z</time>
      </trkpt>
      <trkpt lat="43.7368" lon="5.17326">
        <ele>122.592306</ele>
        <time>2021-09-17T07:58:19.000Z</time>
      </trkpt>
      <trkpt lat="43.73642" lon="5.17301">
        <ele>122.325226</ele>
        <time>2021-09-17T07:58:27.000Z</time>
      </trkpt>
      <trkpt lat="43.73597" lon="5.17279">
        <ele>122.02306</ele>
        <time>2021-09-17T07:58:36.000Z</time>
      </trkpt>
      <trkpt lat="43.73558" lon="5.17262">
        <ele>121.763823</ele>
        <time>2021-09-17T07:58:43.000Z</time>
      </trkpt>
      <trkpt lat="43.73517" lon="5.17243">
        <ele>121.445061</ele>
        <time>2021-09-17T07:58:50.000Z</time>
      </trkpt>
      <trkpt lat="43.73479" lon="5.17219">
        <ele>121.083653</ele>
        <time>2021-09-17T07:58:57.000Z</time>
      </trkpt>
      <trkpt lat="43.73451" lon="5.17201">
        <ele>120.811071</ele>
        <time>2021-09-17T07:59:03.000Z</time>
      </trkpt>
      <trkpt lat="43.73427" lon="5.17186">
        <ele>120.579589</ele>
        <time>2021-09-17T07:59:09.000Z</time>
      </trkpt>
      <trkpt lat="43.73422" lon="5.17177">
        <ele>120.5107</ele>
        <time>2021-09-17T07:59:11.000Z</time>
      </trkpt>
      <trkpt lat="43.73418" lon="5.17167">
        <ele>120.435199</ele>
        <time>2021-09-17T07:59:13.000Z</time>
      </trkpt>
      <trkpt lat="43.73417" lon="5.17161">
        <ele>120.396492</ele>
        <time>2021-09-17T07:59:14.000Z</time>
      </trkpt>
      <trkpt lat="43.73405" lon="5.17148">
        <ele>120.267209</ele>
        <time>2021-09-17T07:59:17.000Z</time>
      </trkpt>
      <trkpt lat="43.73395" lon="5.17146">
        <ele>120.179563</ele>
        <time>2021-09-17T07:59:19.000Z</time>
      </trkpt>
      <trkpt lat="43.73386" lon="5.17152">
        <ele>120.093375</ele>
        <time>2021-09-17T07:59:21.000Z</time>
      </trkpt>
      <trkpt lat="43.7338" lon="5.1716">
        <ele>120.01885</ele>
        <time>2021-09-17T07:59:23.000Z</time>
      </trkpt>
      <trkpt lat="43.73377" lon="5.17171">
        <ele>119.963827</ele>
        <time>2021-09-17T07:59:25.000Z</time>
      </trkpt>
      <trkpt lat="43.73362" lon="5.17205">
        <ele>119.772728</ele>
        <time>2021-09-17T07:59:31.000Z</time>
      </trkpt>
      <trkpt lat="43.73347" lon="5.17247">
        <ele>119.543958</ele>
        <time>2021-09-17T07:59:38.000Z</time>
      </trkpt>
      <trkpt lat="43.73341" lon="5.17263">
        <ele>119.458663</ele>
        <time>2021-09-17T07:59:41.000Z</time>
      </trkpt>
      <trkpt lat="43.7334" lon="5.17267">
        <ele>119.439856</ele>
        <time>2021-09-17T07:59:42.000Z</time>
      </trkpt>
      <trkpt lat="43.73329" lon="5.17303">
        <ele>119.25073</ele>
        <time>2021-09-17T07:59:48.000Z</time>
      </trkpt>
      <trkpt lat="43.73323" lon="5.17321">
        <ele>119.154577</ele>
        <time>2021-09-17T07:59:52.000Z</time>
      </trkpt>
      <trkpt lat="43.73319" lon="5.17332">
        <ele>119.094882</ele>
        <time>2021-09-17T07:59:54.000Z</time>
      </trkpt>
      <trkpt lat="43.73315" lon="5.17344">
        <ele>119.030562</ele>
        <time>2021-09-17T07:59:56.000Z</time>
      </trkpt>
      <trkpt lat="43.7331" lon="5.17356">
        <ele>118.965404</ele>
        <time>2021-09-17T07:59:58.000Z</time>
      </trkpt>
      <trkpt lat="43.73305" lon="5.17367">
        <ele>118.905152</ele>
        <time>2021-09-17T08:00:00.000Z</time>
      </trkpt>
      <trkpt lat="43.73301" lon="5.17378">
        <ele>118.842907</ele>
        <time>2021-09-17T08:00:02.000Z</time>
      </trkpt>
      <trkpt lat="43.73296" lon="5.17389">
        <ele>118.784264</ele>
        <time>2021-09-17T08:00:04.000Z</time>
      </trkpt>
      <trkpt lat="43.73285" lon="5.17413">
        <ele>118.666165</ele>
        <time>2021-09-17T08:00:08.000Z</time>
      </trkpt>
      <trkpt lat="43.73278" lon="5.1743">
        <ele>118.584321</ele>
        <time>2021-09-17T08:00:12.000Z</time>
      </trkpt>
      <trkpt lat="43.73269" lon="5.17451">
        <ele>118.476952</ele>
        <time>2021-09-17T08:00:19.000Z</time>
      </trkpt>
      <trkpt lat="43.73268" lon="5.17453">
        <ele>118.47004</ele>
        <time>2021-09-17T08:00:20.000Z</time>
      </trkpt>
      <trkpt lat="43.73267" lon="5.17455">
        <ele>118.456217</ele>
        <time>2021-09-17T08:00:23.000Z</time>
      </trkpt>
      <trkpt lat="43.73266" lon="5.17457">
        <ele>118.450699</ele>
        <time>2021-09-17T08:00:24.000Z</time>
      </trkpt>
      <trkpt lat="43.73264" lon="5.17461">
        <ele>118.429659</ele>
        <time>2021-09-17T08:00:27.000Z</time>
      </trkpt>
      <trkpt lat="43.73263" lon="5.17464">
        <ele>118.41238</ele>
        <time>2021-09-17T08:00:31.000Z</time>
      </trkpt>
      <trkpt lat="43.73262" lon="5.17465">
        <ele>118.407217</ele>
        <time>2021-09-17T08:00:32.000Z</time>
      </trkpt>
      <trkpt lat="43.7326" lon="5.1747">
        <ele>118.38266</ele>
        <time>2021-09-17T08:00:36.000Z</time>
      </trkpt>
      <trkpt lat="43.7326" lon="5.17472">
        <ele>118.37538</ele>
        <time>2021-09-17T08:00:37.000Z</time>
      </trkpt>
      <trkpt lat="43.73259" lon="5.17473">
        <ele>118.367438</ele>
        <time>2021-09-17T08:00:38.000Z</time>
      </trkpt>
      <trkpt lat="43.73257" lon="5.17478">
        <ele>118.344278</ele>
        <time>2021-09-17T08:00:41.000Z</time>
      </trkpt>
      <trkpt lat="43.73252" lon="5.17489">
        <ele>118.292442</ele>
        <time>2021-09-17T08:00:45.000Z</time>
      </trkpt>
      <trkpt lat="43.7327" lon="5.17516">
        <ele>118.13575</ele>
        <time>2021-09-17T08:00:48.000Z</time>
      </trkpt>
      <trkpt lat="43.73273" lon="5.17527">
        <ele>118.084833</ele>
        <time>2021-09-17T08:00:50.000Z</time>
      </trkpt>
      <trkpt lat="43.73283" lon="5.17557">
        <ele>117.944952</ele>
        <time>2021-09-17T08:00:55.000Z</time>
      </trkpt>
      <trkpt lat="43.73291" lon="5.17586">
        <ele>117.816763</ele>
        <time>2021-09-17T08:01:00.000Z</time>
      </trkpt>
      <trkpt lat="43.73299" lon="5.1761">
        <ele>117.849465</ele>
        <time>2021-09-17T08:01:04.000Z</time>
      </trkpt>
      <trkpt lat="43.73304" lon="5.17624">
        <ele>117.932404</ele>
        <time>2021-09-17T08:01:06.000Z</time>
      </trkpt>
      <trkpt lat="43.73309" lon="5.17639">
        <ele>118.017741</ele>
        <time>2021-09-17T08:01:08.000Z</time>
      </trkpt>
      <trkpt lat="43.73319" lon="5.17673">
        <ele>118.213555</ele>
        <time>2021-09-17T08:01:13.000Z</time>
      </trkpt>
      <trkpt lat="43.73321" lon="5.1768">
        <ele>118.25123</ele>
        <time>2021-09-17T08:01:14.000Z</time>
      </trkpt>
      <trkpt lat="43.73325" lon="5.17691">
        <ele>118.317698</ele>
        <time>2021-09-17T08:01:16.000Z</time>
      </trkpt>
      <trkpt lat="43.73327" lon="5.17703">
        <ele>118.381949</ele>
        <time>2021-09-17T08:01:18.000Z</time>
      </trkpt>
      <trkpt lat="43.73329" lon="5.17709">
        <ele>118.416012</ele>
        <time>2021-09-17T08:01:19.000Z</time>
      </trkpt>
      <trkpt lat="43.73338" lon="5.17729">
        <ele>118.539371</ele>
        <time>2021-09-17T08:01:22.000Z</time>
      </trkpt>
      <trkpt lat="43.73341" lon="5.17736">
        <ele>118.58195</ele>
        <time>2021-09-17T08:01:23.000Z</time>
      </trkpt>
      <trkpt lat="43.73347" lon="5.1775">
        <ele>118.663361</ele>
        <time>2021-09-17T08:01:25.000Z</time>
      </trkpt>
      <trkpt lat="43.7335" lon="5.17755">
        <ele>118.702564</ele>
        <time>2021-09-17T08:01:26.000Z</time>
      </trkpt>
      <trkpt lat="43.73353" lon="5.17762">
        <ele>118.742482</ele>
        <time>2021-09-17T08:01:27.000Z</time>
      </trkpt>
      <trkpt lat="43.73359" lon="5.17781">
        <ele>118.852992</ele>
        <time>2021-09-17T08:01:30.000Z</time>
      </trkpt>
      <trkpt lat="43.73367" lon="5.17806">
        <ele>118.995669</ele>
        <time>2021-09-17T08:01:34.000Z</time>
      </trkpt>
      <trkpt lat="43.73369" lon="5.17812">
        <ele>119.030486</ele>
        <time>2021-09-17T08:01:35.000Z</time>
      </trkpt>
      <trkpt lat="43.73373" lon="5.1783">
        <ele>119.082206</ele>
        <time>2021-09-17T08:01:38.000Z</time>
      </trkpt>
      <trkpt lat="43.73375" lon="5.17836">
        <ele>119.086349</ele>
        <time>2021-09-17T08:01:39.000Z</time>
      </trkpt>
      <trkpt lat="43.73382" lon="5.17864">
        <ele>119.106403</ele>
        <time>2021-09-17T08:01:43.000Z</time>
      </trkpt>
      <trkpt lat="43.73384" lon="5.17872">
        <ele>119.112183</ele>
        <time>2021-09-17T08:01:44.000Z</time>
      </trkpt>
      <trkpt lat="43.73385" lon="5.17879">
        <ele>119.117297</ele>
        <time>2021-09-17T08:01:45.000Z</time>
      </trkpt>
      <trkpt lat="43.73384" lon="5.17893">
        <ele>119.126277</ele>
        <time>2021-09-17T08:01:47.000Z</time>
      </trkpt>
      <trkpt lat="43.73392" lon="5.17899">
        <ele>119.134968</ele>
        <time>2021-09-17T08:01:49.000Z</time>
      </trkpt>
      <trkpt lat="43.73396" lon="5.17907">
        <ele>119.141259</ele>
        <time>2021-09-17T08:01:50.000Z</time>
      </trkpt>
      <trkpt lat="43.73412" lon="5.17947">
        <ele>119.171841</ele>
        <time>2021-09-17T08:01:55.000Z</time>
      </trkpt>
      <trkpt lat="43.73415" lon="5.17954">
        <ele>119.177481</ele>
        <time>2021-09-17T08:01:56.000Z</time>
      </trkpt>
      <trkpt lat="43.73421" lon="5.17968">
        <ele>119.188528</ele>
        <time>2021-09-17T08:01:58.000Z</time>
      </trkpt>
      <trkpt lat="43.73427" lon="5.17983">
        <ele>119.199451</ele>
        <time>2021-09-17T08:02:00.000Z</time>
      </trkpt>
      <trkpt lat="43.73431" lon="5.17988">
        <ele>119.204805</ele>
        <time>2021-09-17T08:02:01.000Z</time>
      </trkpt>
      <trkpt lat="43.73434" lon="5.18004">
        <ele>119.215738</ele>
        <time>2021-09-17T08:02:03.000Z</time>
      </trkpt>
      <trkpt lat="43.73429" lon="5.18017">
        <ele>119.225999</ele>
        <time>2021-09-17T08:02:05.000Z</time>
      </trkpt>
      <trkpt lat="43.73426" lon="5.18023">
        <ele>119.231178</ele>
        <time>2021-09-17T08:02:06.000Z</time>
      </trkpt>
      <trkpt lat="43.73411" lon="5.18074">
        <ele>119.344423</ele>
        <time>2021-09-17T08:02:13.000Z</time>
      </trkpt>
      <trkpt lat="43.73397" lon="5.18133">
        <ele>119.51112</ele>
        <time>2021-09-17T08:02:21.000Z</time>
      </trkpt>
      <trkpt lat="43.73395" lon="5.18139">
        <ele>119.530501</ele>
        <time>2021-09-17T08:02:22.000Z</time>
      </trkpt>
      <trkpt lat="43.73388" lon="5.18166">
        <ele>119.606875</ele>
        <time>2021-09-17T08:02:26.000Z</time>
      </trkpt>
      <trkpt lat="43.73386" lon="5.18174">
        <ele>119.629421</ele>
        <time>2021-09-17T08:02:27.000Z</time>
      </trkpt>
      <trkpt lat="43.73378" lon="5.18197">
        <ele>119.698821</ele>
        <time>2021-09-17T08:02:30.000Z</time>
      </trkpt>
      <trkpt lat="43.73368" lon="5.18218">
        <ele>119.765498</ele>
        <time>2021-09-17T08:02:33.000Z</time>
      </trkpt>
      <trkpt lat="43.73362" lon="5.18231">
        <ele>119.805713</ele>
        <time>2021-09-17T08:02:35.000Z</time>
      </trkpt>
      <trkpt lat="43.73356" lon="5.18243">
        <ele>119.846808</ele>
        <time>2021-09-17T08:02:37.000Z</time>
      </trkpt>
      <trkpt lat="43.73347" lon="5.18264">
        <ele>119.913807</ele>
        <time>2021-09-17T08:02:40.000Z</time>
      </trkpt>
      <trkpt lat="43.73335" lon="5.18283">
        <ele>120.029107</ele>
        <time>2021-09-17T08:02:43.000Z</time>
      </trkpt>
      <trkpt lat="43.73323" lon="5.183">
        <ele>120.142615</ele>
        <time>2021-09-17T08:02:46.000Z</time>
      </trkpt>
      <trkpt lat="43.73296" lon="5.18326">
        <ele>120.360995</ele>
        <time>2021-09-17T08:02:52.000Z</time>
      </trkpt>
      <trkpt lat="43.73265" lon="5.18348">
        <ele>120.587656</ele>
        <time>2021-09-17T08:02:58.000Z</time>
      </trkpt>
      <trkpt lat="43.73215" lon="5.18374">
        <ele>120.938294</ele>
        <time>2021-09-17T08:03:07.000Z</time>
      </trkpt>
      <trkpt lat="43.73179" lon="5.18401">
        <ele>121.233413</ele>
        <time>2021-09-17T08:03:14.000Z</time>
      </trkpt>
      <trkpt lat="43.73156" lon="5.18436">
        <ele>121.513616</ele>
        <time>2021-09-17T08:03:20.000Z</time>
      </trkpt>
      <trkpt lat="43.73153" lon="5.18442">
        <ele>121.556892</ele>
        <time>2021-09-17T08:03:21.000Z</time>
      </trkpt>
      <trkpt lat="43.73146" lon="5.18461">
        <ele>121.684395</ele>
        <time>2021-09-17T08:03:24.000Z</time>
      </trkpt>
      <trkpt lat="43.73141" lon="5.18474">
        <ele>121.771762</ele>
        <time>2021-09-17T08:03:26.000Z</time>
      </trkpt>
      <trkpt lat="43.73134" lon="5.18501">
        <ele>121.94117</ele>
        <time>2021-09-17T08:03:30.000Z</time>
      </trkpt>
      <trkpt lat="43.73129" lon="5.18521">
        <ele>122.066418</ele>
        <time>2021-09-17T08:03:34.000Z</time>
      </trkpt>
      <trkpt lat="43.73126" lon="5.18536">
        <ele>122.157624</ele>
        <time>2021-09-17T08:03:39.000Z</time>
      </trkpt>
      <trkpt lat="43.73126" lon="5.18539">
        <ele>122.17664</ele>
        <time>2021-09-17T08:03:41.000Z</time>
      </trkpt>
      <trkpt lat="43.73125" lon="5.18542">
        <ele>122.195319</ele>
        <time>2021-09-17T08:03:44.000Z</time>
      </trkpt>
      <trkpt lat="43.73122" lon="5.18556">
        <ele>122.281513</ele>
        <time>2021-09-17T08:03:50.000Z</time>
      </trkpt>
      <trkpt lat="43.73118" lon="5.18573">
        <ele>122.386632</ele>
        <time>2021-09-17T08:03:55.000Z</time>
      </trkpt>
      <trkpt lat="43.73112" lon="5.18595">
        <ele>122.525424</ele>
        <time>2021-09-17T08:04:01.000Z</time>
      </trkpt>
      <trkpt lat="43.73105" lon="5.18628">
        <ele>122.513104</ele>
        <time>2021-09-17T08:04:08.000Z</time>
      </trkpt>
      <trkpt lat="43.73095" lon="5.1867">
        <ele>122.430462</ele>
        <time>2021-09-17T08:04:15.000Z</time>
      </trkpt>
      <trkpt lat="43.73085" lon="5.18716">
        <ele>122.340132</ele>
        <time>2021-09-17T08:04:21.000Z</time>
      </trkpt>
      <trkpt lat="43.73075" lon="5.1876">
        <ele>122.254569</ele>
        <time>2021-09-17T08:04:26.000Z</time>
      </trkpt>
      <trkpt lat="43.73058" lon="5.18835">
        <ele>122.106582</ele>
        <time>2021-09-17T08:04:34.000Z</time>
      </trkpt>
      <trkpt lat="43.73047" lon="5.18893">
        <ele>121.876557</ele>
        <time>2021-09-17T08:04:40.000Z</time>
      </trkpt>
      <trkpt lat="43.73038" lon="5.18957">
        <ele>121.615762</ele>
        <time>2021-09-17T08:04:47.000Z</time>
      </trkpt>
      <trkpt lat="43.73031" lon="5.19002">
        <ele>121.431579</ele>
        <time>2021-09-17T08:04:52.000Z</time>
      </trkpt>
      <trkpt lat="43.73023" lon="5.19058">
        <ele>121.205429</ele>
        <time>2021-09-17T08:04:58.000Z</time>
      </trkpt>
      <trkpt lat="43.73016" lon="5.19118">
        <ele>121.089213</ele>
        <time>2021-09-17T08:05:05.000Z</time>
      </trkpt>
      <trkpt lat="43.73009" lon="5.19188">
        <ele>121.059572</ele>
        <time>2021-09-17T08:05:13.000Z</time>
      </trkpt>
      <trkpt lat="43.73006" lon="5.19269">
        <ele>121.025835</ele>
        <time>2021-09-17T08:05:22.000Z</time>
      </trkpt>
      <trkpt lat="43.73012" lon="5.1933">
        <ele>121.00007</ele>
        <time>2021-09-17T08:05:29.000Z</time>
      </trkpt>
      <trkpt lat="43.73023" lon="5.19374">
        <ele>121.070295</ele>
        <time>2021-09-17T08:05:35.000Z</time>
      </trkpt>
      <trkpt lat="43.73036" lon="5.19422">
        <ele>121.147751</ele>
        <time>2021-09-17T08:05:41.000Z</time>
      </trkpt>
      <trkpt lat="43.73051" lon="5.1947">
        <ele>121.226345</ele>
        <time>2021-09-17T08:05:47.000Z</time>
      </trkpt>
      <trkpt lat="43.73061" lon="5.195">
        <ele>121.276484</ele>
        <time>2021-09-17T08:05:51.000Z</time>
      </trkpt>
      <trkpt lat="43.73066" lon="5.19515">
        <ele>121.301348</ele>
        <time>2021-09-17T08:05:53.000Z</time>
      </trkpt>
      <trkpt lat="43.73078" lon="5.19548">
        <ele>121.356469</ele>
        <time>2021-09-17T08:05:58.000Z</time>
      </trkpt>
      <trkpt lat="43.73086" lon="5.19575">
        <ele>121.448937</ele>
        <time>2021-09-17T08:06:02.000Z</time>
      </trkpt>
      <trkpt lat="43.7309" lon="5.19602">
        <ele>121.567009</ele>
        <time>2021-09-17T08:06:05.000Z</time>
      </trkpt>
      <trkpt lat="43.73092" lon="5.19611">
        <ele>121.608615</ele>
        <time>2021-09-17T08:06:06.000Z</time>
      </trkpt>
      <trkpt lat="43.73097" lon="5.19655">
        <ele>121.803411</ele>
        <time>2021-09-17T08:06:11.000Z</time>
      </trkpt>
      <trkpt lat="43.731" lon="5.19698">
        <ele>121.98662</ele>
        <time>2021-09-17T08:06:16.000Z</time>
      </trkpt>
      <trkpt lat="43.73105" lon="5.19766">
        <ele>122.281854</ele>
        <time>2021-09-17T08:06:24.000Z</time>
      </trkpt>
      <trkpt lat="43.73109" lon="5.19825">
        <ele>122.481366</ele>
        <time>2021-09-17T08:06:31.000Z</time>
      </trkpt>
      <trkpt lat="43.73113" lon="5.19866">
        <ele>122.543631</ele>
        <time>2021-09-17T08:06:36.000Z</time>
      </trkpt>
      <trkpt lat="43.73113" lon="5.19873">
        <ele>122.554488</ele>
        <time>2021-09-17T08:06:37.000Z</time>
      </trkpt>
      <trkpt lat="43.73117" lon="5.1992">
        <ele>122.624221</ele>
        <time>2021-09-17T08:06:43.000Z</time>
      </trkpt>
      <trkpt lat="43.73118" lon="5.19927">
        <ele>122.635522</ele>
        <time>2021-09-17T08:06:44.000Z</time>
      </trkpt>
      <trkpt lat="43.7312" lon="5.19943">
        <ele>122.660077</ele>
        <time>2021-09-17T08:06:46.000Z</time>
      </trkpt>
      <trkpt lat="43.7312" lon="5.19952">
        <ele>122.672713</ele>
        <time>2021-09-17T08:06:47.000Z</time>
      </trkpt>
      <trkpt lat="43.73122" lon="5.1997">
        <ele>122.70073</ele>
        <time>2021-09-17T08:06:49.000Z</time>
      </trkpt>
      <trkpt lat="43.73125" lon="5.20001">
        <ele>122.747119</ele>
        <time>2021-09-17T08:06:52.000Z</time>
      </trkpt>
      <trkpt lat="43.73128" lon="5.20077">
        <ele>122.864863</ele>
        <time>2021-09-17T08:07:00.000Z</time>
      </trkpt>
      <trkpt lat="43.73128" lon="5.20087">
        <ele>122.880376</ele>
        <time>2021-09-17T08:07:01.000Z</time>
      </trkpt>
      <trkpt lat="43.73126" lon="5.20132">
        <ele>122.955758</ele>
        <time>2021-09-17T08:07:06.000Z</time>
      </trkpt>
      <trkpt lat="43.73121" lon="5.20195">
        <ele>123.059531</ele>
        <time>2021-09-17T08:07:13.000Z</time>
      </trkpt>
      <trkpt lat="43.73114" lon="5.20266">
        <ele>123.178848</ele>
        <time>2021-09-17T08:07:21.000Z</time>
      </trkpt>
      <trkpt lat="43.73107" lon="5.20338">
        <ele>123.326713</ele>
        <time>2021-09-17T08:07:29.000Z</time>
      </trkpt>
      <trkpt lat="43.73098" lon="5.20418">
        <ele>123.519208</ele>
        <time>2021-09-17T08:07:38.000Z</time>
      </trkpt>
      <trkpt lat="43.73095" lon="5.20445">
        <ele>123.582576</ele>
        <time>2021-09-17T08:07:41.000Z</time>
      </trkpt>
      <trkpt lat="43.73085" lon="5.20523">
        <ele>123.771932</ele>
        <time>2021-09-17T08:07:50.000Z</time>
      </trkpt>
      <trkpt lat="43.73083" lon="5.20532">
        <ele>123.793167</ele>
        <time>2021-09-17T08:07:51.000Z</time>
      </trkpt>
      <trkpt lat="43.73073" lon="5.20602">
        <ele>123.897656</ele>
        <time>2021-09-17T08:07:59.000Z</time>
      </trkpt>
      <trkpt lat="43.73064" lon="5.20664">
        <ele>123.978713</ele>
        <time>2021-09-17T08:08:06.000Z</time>
      </trkpt>
      <trkpt lat="43.73056" lon="5.20718">
        <ele>124.049038</ele>
        <time>2021-09-17T08:08:12.000Z</time>
      </trkpt>
      <trkpt lat="43.73046" lon="5.20791">
        <ele>124.143182</ele>
        <time>2021-09-17T08:08:20.000Z</time>
      </trkpt>
      <trkpt lat="43.73035" lon="5.20862">
        <ele>124.245207</ele>
        <time>2021-09-17T08:08:28.000Z</time>
      </trkpt>
      <trkpt lat="43.73024" lon="5.20941">
        <ele>124.357582</ele>
        <time>2021-09-17T08:08:37.000Z</time>
      </trkpt>
      <trkpt lat="43.73015" lon="5.21017">
        <ele>124.466499</ele>
        <time>2021-09-17T08:08:46.000Z</time>
      </trkpt>
      <trkpt lat="43.73012" lon="5.21097">
        <ele>124.659779</ele>
        <time>2021-09-17T08:08:55.000Z</time>
      </trkpt>
      <trkpt lat="43.73011" lon="5.21124">
        <ele>124.731051</ele>
        <time>2021-09-17T08:08:58.000Z</time>
      </trkpt>
      <trkpt lat="43.73009" lon="5.2116">
        <ele>124.827627</ele>
        <time>2021-09-17T08:09:02.000Z</time>
      </trkpt>
      <trkpt lat="43.73008" lon="5.21186">
        <ele>124.896963</ele>
        <time>2021-09-17T08:09:05.000Z</time>
      </trkpt>
      <trkpt lat="43.73007" lon="5.21194">
        <ele>124.920098</ele>
        <time>2021-09-17T08:09:06.000Z</time>
      </trkpt>
      <trkpt lat="43.73006" lon="5.21213">
        <ele>124.969534</ele>
        <time>2021-09-17T08:09:08.000Z</time>
      </trkpt>
      <trkpt lat="43.73" lon="5.21287">
        <ele>125.166889</ele>
        <time>2021-09-17T08:09:16.000Z</time>
      </trkpt>
      <trkpt lat="43.72993" lon="5.21339">
        <ele>125.275562</ele>
        <time>2021-09-17T08:09:22.000Z</time>
      </trkpt>
      <trkpt lat="43.72986" lon="5.2139">
        <ele>125.382159</ele>
        <time>2021-09-17T08:09:28.000Z</time>
      </trkpt>
      <trkpt lat="43.72985" lon="5.21398">
        <ele>125.399723</ele>
        <time>2021-09-17T08:09:29.000Z</time>
      </trkpt>
      <trkpt lat="43.72976" lon="5.21468">
        <ele>125.545297</ele>
        <time>2021-09-17T08:09:37.000Z</time>
      </trkpt>
      <trkpt lat="43.7297" lon="5.21519">
        <ele>125.651294</ele>
        <time>2021-09-17T08:09:43.000Z</time>
      </trkpt>
      <trkpt lat="43.7296" lon="5.21597">
        <ele>125.754663</ele>
        <time>2021-09-17T08:09:52.000Z</time>
      </trkpt>
      <trkpt lat="43.72953" lon="5.21656">
        <ele>125.828929</ele>
        <time>2021-09-17T08:09:59.000Z</time>
      </trkpt>
      <trkpt lat="43.72944" lon="5.21714">
        <ele>125.900741</ele>
        <time>2021-09-17T08:10:06.000Z</time>
      </trkpt>
      <trkpt lat="43.72932" lon="5.21787">
        <ele>126.001237</ele>
        <time>2021-09-17T08:10:15.000Z</time>
      </trkpt>
      <trkpt lat="43.72915" lon="5.21861">
        <ele>126.134286</ele>
        <time>2021-09-17T08:10:24.000Z</time>
      </trkpt>
      <trkpt lat="43.72914" lon="5.2187">
        <ele>126.148982</ele>
        <time>2021-09-17T08:10:25.000Z</time>
      </trkpt>
      <trkpt lat="43.72895" lon="5.21942">
        <ele>126.280429</ele>
        <time>2021-09-17T08:10:34.000Z</time>
      </trkpt>
      <trkpt lat="43.72884" lon="5.21997">
        <ele>126.378179</ele>
        <time>2021-09-17T08:10:41.000Z</time>
      </trkpt>
      <trkpt lat="43.72875" lon="5.22065">
        <ele>126.481631</ele>
        <time>2021-09-17T08:10:49.000Z</time>
      </trkpt>
      <trkpt lat="43.72866" lon="5.2214">
        <ele>126.593371</ele>
        <time>2021-09-17T08:10:58.000Z</time>
      </trkpt>
      <trkpt lat="43.72857" lon="5.22215">
        <ele>126.704581</ele>
        <time>2021-09-17T08:11:07.000Z</time>
      </trkpt>
      <trkpt lat="43.72856" lon="5.22224">
        <ele>126.717046</ele>
        <time>2021-09-17T08:11:08.000Z</time>
      </trkpt>
      <trkpt lat="43.72846" lon="5.22299">
        <ele>126.856643</ele>
        <time>2021-09-17T08:11:17.000Z</time>
      </trkpt>
      <trkpt lat="43.72845" lon="5.22316">
        <ele>126.892604</ele>
        <time>2021-09-17T08:11:19.000Z</time>
      </trkpt>
      <trkpt lat="43.72842" lon="5.22382">
        <ele>127.031697</ele>
        <time>2021-09-17T08:11:27.000Z</time>
      </trkpt>
      <trkpt lat="43.7284" lon="5.22432">
        <ele>127.134846</ele>
        <time>2021-09-17T08:11:33.000Z</time>
      </trkpt>
      <trkpt lat="43.72839" lon="5.22466">
        <ele>127.205634</ele>
        <time>2021-09-17T08:11:37.000Z</time>
      </trkpt>
      <trkpt lat="43.72838" lon="5.22525">
        <ele>127.444866</ele>
        <time>2021-09-17T08:11:44.000Z</time>
      </trkpt>
      <trkpt lat="43.72836" lon="5.22576">
        <ele>127.804274</ele>
        <time>2021-09-17T08:11:50.000Z</time>
      </trkpt>
      <trkpt lat="43.72836" lon="5.2261">
        <ele>128.042354</ele>
        <time>2021-09-17T08:11:54.000Z</time>
      </trkpt>
      <trkpt lat="43.72836" lon="5.22627">
        <ele>128.163507</ele>
        <time>2021-09-17T08:11:56.000Z</time>
      </trkpt>
      <trkpt lat="43.72836" lon="5.22653">
        <ele>128.343124</ele>
        <time>2021-09-17T08:11:59.000Z</time>
      </trkpt>
      <trkpt lat="43.72835" lon="5.22669">
        <ele>128.453701</ele>
        <time>2021-09-17T08:12:01.000Z</time>
      </trkpt>
      <trkpt lat="43.72836" lon="5.22709">
        <ele>128.740404</ele>
        <time>2021-09-17T08:12:06.000Z</time>
      </trkpt>
      <trkpt lat="43.72837" lon="5.22769">
        <ele>129.150457</ele>
        <time>2021-09-17T08:12:13.000Z</time>
      </trkpt>
      <trkpt lat="43.72838" lon="5.22827">
        <ele>129.519532</ele>
        <time>2021-09-17T08:12:20.000Z</time>
      </trkpt>
      <trkpt lat="43.72838" lon="5.22835">
        <ele>129.571884</ele>
        <time>2021-09-17T08:12:21.000Z</time>
      </trkpt>
      <trkpt lat="43.72839" lon="5.22862">
        <ele>129.74302</ele>
        <time>2021-09-17T08:12:24.000Z</time>
      </trkpt>
      <trkpt lat="43.7284" lon="5.22906">
        <ele>130.021618</ele>
        <time>2021-09-17T08:12:29.000Z</time>
      </trkpt>
      <trkpt lat="43.7284" lon="5.22914">
        <ele>130.075906</ele>
        <time>2021-09-17T08:12:30.000Z</time>
      </trkpt>
      <trkpt lat="43.72841" lon="5.22938">
        <ele>130.228637</ele>
        <time>2021-09-17T08:12:33.000Z</time>
      </trkpt>
      <trkpt lat="43.72842" lon="5.22961">
        <ele>130.376864</ele>
        <time>2021-09-17T08:12:36.000Z</time>
      </trkpt>
      <trkpt lat="43.72842" lon="5.22976">
        <ele>130.473994</ele>
        <time>2021-09-17T08:12:38.000Z</time>
      </trkpt>
      <trkpt lat="43.72844" lon="5.23023">
        <ele>130.807237</ele>
        <time>2021-09-17T08:12:44.000Z</time>
      </trkpt>
      <trkpt lat="43.72844" lon="5.2303">
        <ele>130.867687</ele>
        <time>2021-09-17T08:12:45.000Z</time>
      </trkpt>
      <trkpt lat="43.72845" lon="5.2308">
        <ele>131.259113</ele>
        <time>2021-09-17T08:12:51.000Z</time>
      </trkpt>
      <trkpt lat="43.72846" lon="5.23096">
        <ele>131.39197</ele>
        <time>2021-09-17T08:12:53.000Z</time>
      </trkpt>
      <trkpt lat="43.72847" lon="5.23123">
        <ele>131.602001</ele>
        <time>2021-09-17T08:12:56.000Z</time>
      </trkpt>
      <trkpt lat="43.72848" lon="5.23174">
        <ele>132.011739</ele>
        <time>2021-09-17T08:13:02.000Z</time>
      </trkpt>
      <trkpt lat="43.7285" lon="5.23235">
        <ele>132.491502</ele>
        <time>2021-09-17T08:13:09.000Z</time>
      </trkpt>
      <trkpt lat="43.72852" lon="5.23286">
        <ele>132.74739</ele>
        <time>2021-09-17T08:13:15.000Z</time>
      </trkpt>
      <trkpt lat="43.72852" lon="5.23302">
        <ele>132.811999</ele>
        <time>2021-09-17T08:13:17.000Z</time>
      </trkpt>
      <trkpt lat="43.72853" lon="5.23319">
        <ele>132.876963</ele>
        <time>2021-09-17T08:13:19.000Z</time>
      </trkpt>
      <trkpt lat="43.72853" lon="5.23327">
        <ele>132.909826</ele>
        <time>2021-09-17T08:13:20.000Z</time>
      </trkpt>
      <trkpt lat="43.72853" lon="5.23381">
        <ele>133.121089</ele>
        <time>2021-09-17T08:13:26.000Z</time>
      </trkpt>
      <trkpt lat="43.7285" lon="5.23423">
        <ele>133.284706</ele>
        <time>2021-09-17T08:13:31.000Z</time>
      </trkpt>
      <trkpt lat="43.72848" lon="5.23465">
        <ele>133.449103</ele>
        <time>2021-09-17T08:13:36.000Z</time>
      </trkpt>
      <trkpt lat="43.72846" lon="5.23499">
        <ele>133.567894</ele>
        <time>2021-09-17T08:13:40.000Z</time>
      </trkpt>
      <trkpt lat="43.72846" lon="5.23507">
        <ele>133.528929</ele>
        <time>2021-09-17T08:13:41.000Z</time>
      </trkpt>
      <trkpt lat="43.72844" lon="5.23532">
        <ele>133.410047</ele>
        <time>2021-09-17T08:13:44.000Z</time>
      </trkpt>
      <trkpt lat="43.72844" lon="5.23541">
        <ele>133.367724</ele>
        <time>2021-09-17T08:13:45.000Z</time>
      </trkpt>
      <trkpt lat="43.72842" lon="5.23565">
        <ele>133.250261</ele>
        <time>2021-09-17T08:13:48.000Z</time>
      </trkpt>
      <trkpt lat="43.72842" lon="5.23581">
        <ele>133.175168</ele>
        <time>2021-09-17T08:13:50.000Z</time>
      </trkpt>
      <trkpt lat="43.72839" lon="5.23629">
        <ele>132.946487</ele>
        <time>2021-09-17T08:13:56.000Z</time>
      </trkpt>
      <trkpt lat="43.72838" lon="5.23645">
        <ele>132.869928</ele>
        <time>2021-09-17T08:13:58.000Z</time>
      </trkpt>
      <trkpt lat="43.72837" lon="5.2367">
        <ele>132.75535</ele>
        <time>2021-09-17T08:14:01.000Z</time>
      </trkpt>
      <trkpt lat="43.72835" lon="5.23711">
        <ele>132.560382</ele>
        <time>2021-09-17T08:14:06.000Z</time>
      </trkpt>
      <trkpt lat="43.72834" lon="5.23719">
        <ele>132.520471</ele>
        <time>2021-09-17T08:14:07.000Z</time>
      </trkpt>
      <trkpt lat="43.72833" lon="5.23744">
        <ele>132.40348</ele>
        <time>2021-09-17T08:14:10.000Z</time>
      </trkpt>
      <trkpt lat="43.72832" lon="5.2376">
        <ele>132.342636</ele>
        <time>2021-09-17T08:14:12.000Z</time>
      </trkpt>
      <trkpt lat="43.7283" lon="5.23786">
        <ele>132.255291</ele>
        <time>2021-09-17T08:14:15.000Z</time>
      </trkpt>
      <trkpt lat="43.72828" lon="5.23836">
        <ele>132.079565</ele>
        <time>2021-09-17T08:14:21.000Z</time>
      </trkpt>
      <trkpt lat="43.72825" lon="5.23896">
        <ele>131.872375</ele>
        <time>2021-09-17T08:14:28.000Z</time>
      </trkpt>
      <trkpt lat="43.72823" lon="5.23946">
        <ele>131.698632</ele>
        <time>2021-09-17T08:14:34.000Z</time>
      </trkpt>
      <trkpt lat="43.72822" lon="5.23984">
        <ele>131.564909</ele>
        <time>2021-09-17T08:14:39.000Z</time>
      </trkpt>
      <trkpt lat="43.72821" lon="5.23992">
        <ele>131.536789</ele>
        <time>2021-09-17T08:14:40.000Z</time>
      </trkpt>
      <trkpt lat="43.72821" lon="5.24016">
        <ele>131.637573</ele>
        <time>2021-09-17T08:14:43.000Z</time>
      </trkpt>
      <trkpt lat="43.7282" lon="5.24039">
        <ele>131.748158</ele>
        <time>2021-09-17T08:14:46.000Z</time>
      </trkpt>
      <trkpt lat="43.72818" lon="5.24086">
        <ele>131.9712</ele>
        <time>2021-09-17T08:14:52.000Z</time>
      </trkpt>
      <trkpt lat="43.72818" lon="5.24093">
        <ele>132.006488</ele>
        <time>2021-09-17T08:14:53.000Z</time>
      </trkpt>
      <trkpt lat="43.72817" lon="5.2412">
        <ele>132.137078</ele>
        <time>2021-09-17T08:14:57.000Z</time>
      </trkpt>
      <trkpt lat="43.72817" lon="5.24133">
        <ele>132.197127</ele>
        <time>2021-09-17T08:14:59.000Z</time>
      </trkpt>
      <trkpt lat="43.72816" lon="5.24155">
        <ele>132.30153</ele>
        <time>2021-09-17T08:15:02.000Z</time>
      </trkpt>
      <trkpt lat="43.72815" lon="5.24203">
        <ele>132.529209</ele>
        <time>2021-09-17T08:15:08.000Z</time>
      </trkpt>
      <trkpt lat="43.72815" lon="5.24252">
        <ele>132.731254</ele>
        <time>2021-09-17T08:15:14.000Z</time>
      </trkpt>
      <trkpt lat="43.72814" lon="5.24309">
        <ele>132.808948</ele>
        <time>2021-09-17T08:15:21.000Z</time>
      </trkpt>
      <trkpt lat="43.72812" lon="5.24388">
        <ele>132.918148</ele>
        <time>2021-09-17T08:15:31.000Z</time>
      </trkpt>
      <trkpt lat="43.72811" lon="5.24446">
        <ele>132.998679</ele>
        <time>2021-09-17T08:15:38.000Z</time>
      </trkpt>
      <trkpt lat="43.72809" lon="5.24502">
        <ele>133.069718</ele>
        <time>2021-09-17T08:15:45.000Z</time>
      </trkpt>
      <trkpt lat="43.72806" lon="5.24578">
        <ele>133.132135</ele>
        <time>2021-09-17T08:15:54.000Z</time>
      </trkpt>
      <trkpt lat="43.72803" lon="5.2466">
        <ele>133.199575</ele>
        <time>2021-09-17T08:16:03.000Z</time>
      </trkpt>
      <trkpt lat="43.728" lon="5.24741">
        <ele>133.266503</ele>
        <time>2021-09-17T08:16:12.000Z</time>
      </trkpt>
      <trkpt lat="43.72798" lon="5.24824">
        <ele>133.310906</ele>
        <time>2021-09-17T08:16:21.000Z</time>
      </trkpt>
      <trkpt lat="43.72797" lon="5.24833">
        <ele>133.315778</ele>
        <time>2021-09-17T08:16:22.000Z</time>
      </trkpt>
      <trkpt lat="43.72795" lon="5.24915">
        <ele>133.360615</ele>
        <time>2021-09-17T08:16:31.000Z</time>
      </trkpt>
      <trkpt lat="43.72794" lon="5.24925">
        <ele>133.365537</ele>
        <time>2021-09-17T08:16:32.000Z</time>
      </trkpt>
      <trkpt lat="43.72792" lon="5.24997">
        <ele>133.408495</ele>
        <time>2021-09-17T08:16:40.000Z</time>
      </trkpt>
      <trkpt lat="43.72789" lon="5.25079">
        <ele>133.48724</ele>
        <time>2021-09-17T08:16:49.000Z</time>
      </trkpt>
      <trkpt lat="43.72786" lon="5.25159">
        <ele>133.563586</ele>
        <time>2021-09-17T08:16:58.000Z</time>
      </trkpt>
      <trkpt lat="43.72785" lon="5.25204">
        <ele>133.606452</ele>
        <time>2021-09-17T08:17:03.000Z</time>
      </trkpt>
      <trkpt lat="43.72782" lon="5.25286">
        <ele>133.739187</ele>
        <time>2021-09-17T08:17:12.000Z</time>
      </trkpt>
      <trkpt lat="43.72782" lon="5.25295">
        <ele>133.757939</ele>
        <time>2021-09-17T08:17:13.000Z</time>
      </trkpt>
      <trkpt lat="43.72779" lon="5.25375">
        <ele>133.922816</ele>
        <time>2021-09-17T08:17:22.000Z</time>
      </trkpt>
      <trkpt lat="43.72777" lon="5.25426">
        <ele>134.027091</ele>
        <time>2021-09-17T08:17:28.000Z</time>
      </trkpt>
      <trkpt lat="43.72775" lon="5.25498">
        <ele>134.179271</ele>
        <time>2021-09-17T08:17:36.000Z</time>
      </trkpt>
      <trkpt lat="43.72769" lon="5.25579">
        <ele>134.364416</ele>
        <time>2021-09-17T08:17:45.000Z</time>
      </trkpt>
      <trkpt lat="43.72764" lon="5.25642">
        <ele>134.508008</ele>
        <time>2021-09-17T08:17:52.000Z</time>
      </trkpt>
      <trkpt lat="43.7276" lon="5.25721">
        <ele>134.689101</ele>
        <time>2021-09-17T08:18:01.000Z</time>
      </trkpt>
      <trkpt lat="43.72758" lon="5.25774">
        <ele>134.796831</ele>
        <time>2021-09-17T08:18:07.000Z</time>
      </trkpt>
      <trkpt lat="43.72755" lon="5.25855">
        <ele>134.955982</ele>
        <time>2021-09-17T08:18:16.000Z</time>
      </trkpt>
      <trkpt lat="43.72752" lon="5.25934">
        <ele>135.112166</ele>
        <time>2021-09-17T08:18:25.000Z</time>
      </trkpt>
      <trkpt lat="43.72751" lon="5.25942">
        <ele>135.128751</ele>
        <time>2021-09-17T08:18:26.000Z</time>
      </trkpt>
      <trkpt lat="43.7275" lon="5.26021">
        <ele>135.270304</ele>
        <time>2021-09-17T08:18:35.000Z</time>
      </trkpt>
      <trkpt lat="43.72748" lon="5.261">
        <ele>135.398416</ele>
        <time>2021-09-17T08:18:44.000Z</time>
      </trkpt>
      <trkpt lat="43.72747" lon="5.26118">
        <ele>135.426688</ele>
        <time>2021-09-17T08:18:46.000Z</time>
      </trkpt>
      <trkpt lat="43.72745" lon="5.26196">
        <ele>135.55354</ele>
        <time>2021-09-17T08:18:55.000Z</time>
      </trkpt>
      <trkpt lat="43.72743" lon="5.26263">
        <ele>135.662881</ele>
        <time>2021-09-17T08:19:03.000Z</time>
      </trkpt>
      <trkpt lat="43.72742" lon="5.26323">
        <ele>135.760216</ele>
        <time>2021-09-17T08:19:10.000Z</time>
      </trkpt>
      <trkpt lat="43.72742" lon="5.26399">
        <ele>135.885736</ele>
        <time>2021-09-17T08:19:19.000Z</time>
      </trkpt>
      <trkpt lat="43.72742" lon="5.26416">
        <ele>135.914337</ele>
        <time>2021-09-17T08:19:21.000Z</time>
      </trkpt>
      <trkpt lat="43.72743" lon="5.26483">
        <ele>136.027392</ele>
        <time>2021-09-17T08:19:29.000Z</time>
      </trkpt>
      <trkpt lat="43.72744" lon="5.26544">
        <ele>136.187093</ele>
        <time>2021-09-17T08:19:36.000Z</time>
      </trkpt>
      <trkpt lat="43.7274" lon="5.26612">
        <ele>136.367689</ele>
        <time>2021-09-17T08:19:44.000Z</time>
      </trkpt>
      <trkpt lat="43.72729" lon="5.26688">
        <ele>136.571911</ele>
        <time>2021-09-17T08:19:53.000Z</time>
      </trkpt>
      <trkpt lat="43.72727" lon="5.26705">
        <ele>136.617005</ele>
        <time>2021-09-17T08:19:55.000Z</time>
      </trkpt>
      <trkpt lat="43.72713" lon="5.26776">
        <ele>136.824468</ele>
        <time>2021-09-17T08:20:04.000Z</time>
      </trkpt>
      <trkpt lat="43.72707" lon="5.26806">
        <ele>136.915662</ele>
        <time>2021-09-17T08:20:08.000Z</time>
      </trkpt>
      <trkpt lat="43.72701" lon="5.26829">
        <ele>136.985801</ele>
        <time>2021-09-17T08:20:11.000Z</time>
      </trkpt>
      <trkpt lat="43.72682" lon="5.26898">
        <ele>137.19694</ele>
        <time>2021-09-17T08:20:20.000Z</time>
      </trkpt>
      <trkpt lat="43.72664" lon="5.26964">
        <ele>137.396515</ele>
        <time>2021-09-17T08:20:29.000Z</time>
      </trkpt>
      <trkpt lat="43.7265" lon="5.27024">
        <ele>137.490374</ele>
        <time>2021-09-17T08:20:37.000Z</time>
      </trkpt>
      <trkpt lat="43.72647" lon="5.27039">
        <ele>137.513797</ele>
        <time>2021-09-17T08:20:39.000Z</time>
      </trkpt>
      <trkpt lat="43.7264" lon="5.27102">
        <ele>137.609143</ele>
        <time>2021-09-17T08:20:47.000Z</time>
      </trkpt>
      <trkpt lat="43.72636" lon="5.27157">
        <ele>137.691649</ele>
        <time>2021-09-17T08:20:54.000Z</time>
      </trkpt>
      <trkpt lat="43.72631" lon="5.27236">
        <ele>137.836275</ele>
        <time>2021-09-17T08:21:04.000Z</time>
      </trkpt>
      <trkpt lat="43.72631" lon="5.27257">
        <ele>137.885637</ele>
        <time>2021-09-17T08:21:07.000Z</time>
      </trkpt>
      <trkpt lat="43.72631" lon="5.27273">
        <ele>137.922546</ele>
        <time>2021-09-17T08:21:09.000Z</time>
      </trkpt>
      <trkpt lat="43.7263" lon="5.27338">
        <ele>138.07486</ele>
        <time>2021-09-17T08:21:17.000Z</time>
      </trkpt>
      <trkpt lat="43.72624" lon="5.27402">
        <ele>138.228464</ele>
        <time>2021-09-17T08:21:25.000Z</time>
      </trkpt>
      <trkpt lat="43.72615" lon="5.27466">
        <ele>138.378536</ele>
        <time>2021-09-17T08:21:33.000Z</time>
      </trkpt>
      <trkpt lat="43.72608" lon="5.27522">
        <ele>138.507194</ele>
        <time>2021-09-17T08:21:40.000Z</time>
      </trkpt>
      <trkpt lat="43.72606" lon="5.27586">
        <ele>138.653625</ele>
        <time>2021-09-17T08:21:48.000Z</time>
      </trkpt>
      <trkpt lat="43.72603" lon="5.27667">
        <ele>138.835336</ele>
        <time>2021-09-17T08:21:58.000Z</time>
      </trkpt>
      <trkpt lat="43.72603" lon="5.27682">
        <ele>138.870403</ele>
        <time>2021-09-17T08:22:00.000Z</time>
      </trkpt>
      <trkpt lat="43.72602" lon="5.2772">
        <ele>138.985253</ele>
        <time>2021-09-17T08:22:05.000Z</time>
      </trkpt>
      <trkpt lat="43.72601" lon="5.27735">
        <ele>139.03876</ele>
        <time>2021-09-17T08:22:07.000Z</time>
      </trkpt>
      <trkpt lat="43.72599" lon="5.27795">
        <ele>139.263199</ele>
        <time>2021-09-17T08:22:15.000Z</time>
      </trkpt>
      <trkpt lat="43.72596" lon="5.27862">
        <ele>139.510514</ele>
        <time>2021-09-17T08:22:23.000Z</time>
      </trkpt>
      <trkpt lat="43.72597" lon="5.27914">
        <ele>139.700474</ele>
        <time>2021-09-17T08:22:29.000Z</time>
      </trkpt>
      <trkpt lat="43.72609" lon="5.27982">
        <ele>140.101692</ele>
        <time>2021-09-17T08:22:37.000Z</time>
      </trkpt>
      <trkpt lat="43.72618" lon="5.28021">
        <ele>140.421264</ele>
        <time>2021-09-17T08:22:42.000Z</time>
      </trkpt>
      <trkpt lat="43.72628" lon="5.28076">
        <ele>140.863286</ele>
        <time>2021-09-17T08:22:49.000Z</time>
      </trkpt>
      <trkpt lat="43.72637" lon="5.28123">
        <ele>141.242195</ele>
        <time>2021-09-17T08:22:55.000Z</time>
      </trkpt>
      <trkpt lat="43.7264" lon="5.28146">
        <ele>141.423655</ele>
        <time>2021-09-17T08:22:58.000Z</time>
      </trkpt>
      <trkpt lat="43.72641" lon="5.28161">
        <ele>141.541134</ele>
        <time>2021-09-17T08:23:00.000Z</time>
      </trkpt>
      <trkpt lat="43.72642" lon="5.28193">
        <ele>141.792703</ele>
        <time>2021-09-17T08:23:04.000Z</time>
      </trkpt>
      <trkpt lat="43.72643" lon="5.28211">
        <ele>141.929926</ele>
        <time>2021-09-17T08:23:07.000Z</time>
      </trkpt>
      <trkpt lat="43.72646" lon="5.28255">
        <ele>142.267003</ele>
        <time>2021-09-17T08:23:12.000Z</time>
      </trkpt>
      <trkpt lat="43.72646" lon="5.28325">
        <ele>142.796036</ele>
        <time>2021-09-17T08:23:21.000Z</time>
      </trkpt>
      <trkpt lat="43.72644" lon="5.28386">
        <ele>143.260386</ele>
        <time>2021-09-17T08:23:29.000Z</time>
      </trkpt>
      <trkpt lat="43.72636" lon="5.28447">
        <ele>143.693685</ele>
        <time>2021-09-17T08:23:37.000Z</time>
      </trkpt>
      <trkpt lat="43.72633" lon="5.28461">
        <ele>143.746617</ele>
        <time>2021-09-17T08:23:39.000Z</time>
      </trkpt>
      <trkpt lat="43.7263" lon="5.28475">
        <ele>143.79841</ele>
        <time>2021-09-17T08:23:41.000Z</time>
      </trkpt>
      <trkpt lat="43.72626" lon="5.28498">
        <ele>143.879151</ele>
        <time>2021-09-17T08:23:44.000Z</time>
      </trkpt>
      <trkpt lat="43.72615" lon="5.28545">
        <ele>144.050326</ele>
        <time>2021-09-17T08:23:51.000Z</time>
      </trkpt>
      <trkpt lat="43.72607" lon="5.2857">
        <ele>144.145285</ele>
        <time>2021-09-17T08:23:55.000Z</time>
      </trkpt>
      <trkpt lat="43.72601" lon="5.2859">
        <ele>144.224824</ele>
        <time>2021-09-17T08:23:58.000Z</time>
      </trkpt>
      <trkpt lat="43.72587" lon="5.28634">
        <ele>144.389979</ele>
        <time>2021-09-17T08:24:04.000Z</time>
      </trkpt>
      <trkpt lat="43.72568" lon="5.28695">
        <ele>144.45974</ele>
        <time>2021-09-17T08:24:12.000Z</time>
      </trkpt>
      <trkpt lat="43.72549" lon="5.28754">
        <ele>144.280947</ele>
        <time>2021-09-17T08:24:20.000Z</time>
      </trkpt>
      <trkpt lat="43.72536" lon="5.28801">
        <ele>144.144791</ele>
        <time>2021-09-17T08:24:26.000Z</time>
      </trkpt>
      <trkpt lat="43.72528" lon="5.28832">
        <ele>144.053274</ele>
        <time>2021-09-17T08:24:30.000Z</time>
      </trkpt>
      <trkpt lat="43.72523" lon="5.28856">
        <ele>143.983931</ele>
        <time>2021-09-17T08:24:33.000Z</time>
      </trkpt>
      <trkpt lat="43.72507" lon="5.28921">
        <ele>143.862838</ele>
        <time>2021-09-17T08:24:41.000Z</time>
      </trkpt>
      <trkpt lat="43.72492" lon="5.28984">
        <ele>143.912671</ele>
        <time>2021-09-17T08:24:49.000Z</time>
      </trkpt>
      <trkpt lat="43.72488" lon="5.28999">
        <ele>143.925047</ele>
        <time>2021-09-17T08:24:51.000Z</time>
      </trkpt>
      <trkpt lat="43.72481" lon="5.29021">
        <ele>143.943146</ele>
        <time>2021-09-17T08:24:54.000Z</time>
      </trkpt>
      <trkpt lat="43.72479" lon="5.29029">
        <ele>143.949262</ele>
        <time>2021-09-17T08:24:55.000Z</time>
      </trkpt>
      <trkpt lat="43.72467" lon="5.29065">
        <ele>143.978914</ele>
        <time>2021-09-17T08:25:00.000Z</time>
      </trkpt>
      <trkpt lat="43.72465" lon="5.29072">
        <ele>143.984781</ele>
        <time>2021-09-17T08:25:01.000Z</time>
      </trkpt>
      <trkpt lat="43.72453" lon="5.29108">
        <ele>144.015112</ele>
        <time>2021-09-17T08:25:06.000Z</time>
      </trkpt>
      <trkpt lat="43.72446" lon="5.29151">
        <ele>144.053441</ele>
        <time>2021-09-17T08:25:12.000Z</time>
      </trkpt>
      <trkpt lat="43.72438" lon="5.2921">
        <ele>144.119592</ele>
        <time>2021-09-17T08:25:20.000Z</time>
      </trkpt>
      <trkpt lat="43.72433" lon="5.29289">
        <ele>144.207314</ele>
        <time>2021-09-17T08:25:30.000Z</time>
      </trkpt>
      <trkpt lat="43.7243" lon="5.29353">
        <ele>144.278208</ele>
        <time>2021-09-17T08:25:38.000Z</time>
      </trkpt>
      <trkpt lat="43.72428" lon="5.29408">
        <ele>144.357977</ele>
        <time>2021-09-17T08:25:45.000Z</time>
      </trkpt>
      <trkpt lat="43.72427" lon="5.29464">
        <ele>144.464525</ele>
        <time>2021-09-17T08:25:52.000Z</time>
      </trkpt>
      <trkpt lat="43.72426" lon="5.29546">
        <ele>144.620178</ele>
        <time>2021-09-17T08:26:02.000Z</time>
      </trkpt>
      <trkpt lat="43.72425" lon="5.29614">
        <ele>144.748243</ele>
        <time>2021-09-17T08:26:10.000Z</time>
      </trkpt>
      <trkpt lat="43.72424" lon="5.29664">
        <ele>144.834746</ele>
        <time>2021-09-17T08:26:16.000Z</time>
      </trkpt>
      <trkpt lat="43.72428" lon="5.29729">
        <ele>144.941588</ele>
        <time>2021-09-17T08:26:24.000Z</time>
      </trkpt>
      <trkpt lat="43.72434" lon="5.29788">
        <ele>145.038097</ele>
        <time>2021-09-17T08:26:31.000Z</time>
      </trkpt>
      <trkpt lat="43.7244" lon="5.29847">
        <ele>145.136224</ele>
        <time>2021-09-17T08:26:38.000Z</time>
      </trkpt>
      <trkpt lat="43.72446" lon="5.29912">
        <ele>145.48506</ele>
        <time>2021-09-17T08:26:46.000Z</time>
      </trkpt>
      <trkpt lat="43.72448" lon="5.29934">
        <ele>145.679169</ele>
        <time>2021-09-17T08:26:49.000Z</time>
      </trkpt>
      <trkpt lat="43.72449" lon="5.29948">
        <ele>145.80301</ele>
        <time>2021-09-17T08:26:51.000Z</time>
      </trkpt>
      <trkpt lat="43.72452" lon="5.29979">
        <ele>146.086124</ele>
        <time>2021-09-17T08:26:56.000Z</time>
      </trkpt>
      <trkpt lat="43.72453" lon="5.29986">
        <ele>146.144093</ele>
        <time>2021-09-17T08:26:57.000Z</time>
      </trkpt>
      <trkpt lat="43.72454" lon="5.30001">
        <ele>146.276723</ele>
        <time>2021-09-17T08:26:59.000Z</time>
      </trkpt>
      <trkpt lat="43.72456" lon="5.30024">
        <ele>146.478744</ele>
        <time>2021-09-17T08:27:02.000Z</time>
      </trkpt>
      <trkpt lat="43.72456" lon="5.30031">
        <ele>146.546022</ele>
        <time>2021-09-17T08:27:03.000Z</time>
      </trkpt>
      <trkpt lat="43.72456" lon="5.30043">
        <ele>146.652244</ele>
        <time>2021-09-17T08:27:05.000Z</time>
      </trkpt>
      <trkpt lat="43.72457" lon="5.3008">
        <ele>146.977058</ele>
        <time>2021-09-17T08:27:10.000Z</time>
      </trkpt>
      <trkpt lat="43.72458" lon="5.30108">
        <ele>147.230175</ele>
        <time>2021-09-17T08:27:15.000Z</time>
      </trkpt>
      <trkpt lat="43.72458" lon="5.30122">
        <ele>147.347891</ele>
        <time>2021-09-17T08:27:17.000Z</time>
      </trkpt>
      <trkpt lat="43.72458" lon="5.30132">
        <ele>147.438498</ele>
        <time>2021-09-17T08:27:19.000Z</time>
      </trkpt>
      <trkpt lat="43.72459" lon="5.30165">
        <ele>147.712028</ele>
        <time>2021-09-17T08:27:23.000Z</time>
      </trkpt>
      <trkpt lat="43.7246" lon="5.3018">
        <ele>147.845134</ele>
        <time>2021-09-17T08:27:25.000Z</time>
      </trkpt>
      <trkpt lat="43.72462" lon="5.30202">
        <ele>148.029201</ele>
        <time>2021-09-17T08:27:28.000Z</time>
      </trkpt>
      <trkpt lat="43.72464" lon="5.30235">
        <ele>148.305721</ele>
        <time>2021-09-17T08:27:33.000Z</time>
      </trkpt>
      <trkpt lat="43.72466" lon="5.30259">
        <ele>148.511852</ele>
        <time>2021-09-17T08:27:36.000Z</time>
      </trkpt>
      <trkpt lat="43.72465" lon="5.30303">
        <ele>148.885768</ele>
        <time>2021-09-17T08:27:42.000Z</time>
      </trkpt>
      <trkpt lat="43.72464" lon="5.30342">
        <ele>149.214377</ele>
        <time>2021-09-17T08:27:48.000Z</time>
      </trkpt>
      <trkpt lat="43.72463" lon="5.30348">
        <ele>149.265129</ele>
        <time>2021-09-17T08:27:49.000Z</time>
      </trkpt>
      <trkpt lat="43.72463" lon="5.3036">
        <ele>149.366096</ele>
        <time>2021-09-17T08:27:51.000Z</time>
      </trkpt>
      <trkpt lat="43.72458" lon="5.30379">
        <ele>149.486565</ele>
        <time>2021-09-17T08:27:54.000Z</time>
      </trkpt>
      <trkpt lat="43.72454" lon="5.30391">
        <ele>149.477026</ele>
        <time>2021-09-17T08:27:56.000Z</time>
      </trkpt>
      <trkpt lat="43.72448" lon="5.3041">
        <ele>149.462855</ele>
        <time>2021-09-17T08:27:59.000Z</time>
      </trkpt>
      <trkpt lat="43.72429" lon="5.3046">
        <ele>149.423621</ele>
        <time>2021-09-17T08:28:07.000Z</time>
      </trkpt>
      <trkpt lat="43.72413" lon="5.30505">
        <ele>149.388494</ele>
        <time>2021-09-17T08:28:14.000Z</time>
      </trkpt>
      <trkpt lat="43.72411" lon="5.30512">
        <ele>149.383422</ele>
        <time>2021-09-17T08:28:15.000Z</time>
      </trkpt>
      <trkpt lat="43.72399" lon="5.30545">
        <ele>149.358253</ele>
        <time>2021-09-17T08:28:20.000Z</time>
      </trkpt>
      <trkpt lat="43.72397" lon="5.30572">
        <ele>149.338968</ele>
        <time>2021-09-17T08:28:24.000Z</time>
      </trkpt>
      <trkpt lat="43.72397" lon="5.30586">
        <ele>149.329162</ele>
        <time>2021-09-17T08:28:26.000Z</time>
      </trkpt>
      <trkpt lat="43.72397" lon="5.30601">
        <ele>149.319223</ele>
        <time>2021-09-17T08:28:28.000Z</time>
      </trkpt>
      <trkpt lat="43.724" lon="5.30623">
        <ele>149.279174</ele>
        <time>2021-09-17T08:28:31.000Z</time>
      </trkpt>
      <trkpt lat="43.72415" lon="5.30698">
        <ele>149.128245</ele>
        <time>2021-09-17T08:28:41.000Z</time>
      </trkpt>
      <trkpt lat="43.72416" lon="5.30705">
        <ele>149.113579</ele>
        <time>2021-09-17T08:28:42.000Z</time>
      </trkpt>
      <trkpt lat="43.72429" lon="5.30767">
        <ele>148.989779</ele>
        <time>2021-09-17T08:28:50.000Z</time>
      </trkpt>
      <trkpt lat="43.72444" lon="5.30845">
        <ele>148.833189</ele>
        <time>2021-09-17T08:29:00.000Z</time>
      </trkpt>
      <trkpt lat="43.72457" lon="5.30907">
        <ele>148.775547</ele>
        <time>2021-09-17T08:29:08.000Z</time>
      </trkpt>
      <trkpt lat="43.72463" lon="5.30938">
        <ele>148.746779</ele>
        <time>2021-09-17T08:29:12.000Z</time>
      </trkpt>
      <trkpt lat="43.72468" lon="5.30962">
        <ele>148.725065</ele>
        <time>2021-09-17T08:29:15.000Z</time>
      </trkpt>
      <trkpt lat="43.72483" lon="5.3104">
        <ele>148.653577</ele>
        <time>2021-09-17T08:29:25.000Z</time>
      </trkpt>
      <trkpt lat="43.72485" lon="5.31047">
        <ele>148.64662</ele>
        <time>2021-09-17T08:29:26.000Z</time>
      </trkpt>
      <trkpt lat="43.72496" lon="5.31107">
        <ele>148.668271</ele>
        <time>2021-09-17T08:29:34.000Z</time>
      </trkpt>
      <trkpt lat="43.72504" lon="5.31152">
        <ele>148.774447</ele>
        <time>2021-09-17T08:29:41.000Z</time>
      </trkpt>
      <trkpt lat="43.7251" lon="5.31189">
        <ele>148.859932</ele>
        <time>2021-09-17T08:29:47.000Z</time>
      </trkpt>
      <trkpt lat="43.72511" lon="5.31194">
        <ele>148.872907</ele>
        <time>2021-09-17T08:29:48.000Z</time>
      </trkpt>
      <trkpt lat="43.72515" lon="5.31217">
        <ele>148.926439</ele>
        <time>2021-09-17T08:29:53.000Z</time>
      </trkpt>
      <trkpt lat="43.72517" lon="5.31227">
        <ele>148.950461</ele>
        <time>2021-09-17T08:29:56.000Z</time>
      </trkpt>
      <trkpt lat="43.72518" lon="5.31235">
        <ele>148.968035</ele>
        <time>2021-09-17T08:29:58.000Z</time>
      </trkpt>
      <trkpt lat="43.72519" lon="5.31242">
        <ele>148.984201</ele>
        <time>2021-09-17T08:30:00.000Z</time>
      </trkpt>
      <trkpt lat="43.7252" lon="5.31248">
        <ele>148.998958</ele>
        <time>2021-09-17T08:30:02.000Z</time>
      </trkpt>
      <trkpt lat="43.72501" lon="5.31244">
        <ele>149.061435</ele>
        <time>2021-09-17T08:30:03.000Z</time>
      </trkpt>
      <trkpt lat="43.72501" lon="5.31244">
        <ele>149.061435</ele>
        <time>2021-09-17T08:30:07.000Z</time>
      </trkpt>
      <trkpt lat="43.72487" lon="5.31245">
        <ele>149.106111</ele>
        <time>2021-09-17T08:30:12.000Z</time>
      </trkpt>
      <trkpt lat="43.72398" lon="5.31254">
        <ele>149.338145</ele>
        <time>2021-09-17T08:30:36.000Z</time>
      </trkpt>
      <trkpt lat="43.72394" lon="5.31254">
        <ele>149.34724</ele>
        <time>2021-09-17T08:30:37.000Z</time>
      </trkpt>
      <trkpt lat="43.7238" lon="5.31256">
        <ele>149.380751</ele>
        <time>2021-09-17T08:30:41.000Z</time>
      </trkpt>
      <trkpt lat="43.72365" lon="5.31246">
        <ele>149.420339</ele>
        <time>2021-09-17T08:30:45.000Z</time>
      </trkpt>
      <trkpt lat="43.72363" lon="5.31248">
        <ele>149.426142</ele>
        <time>2021-09-17T08:30:46.000Z</time>
      </trkpt>
      <trkpt lat="43.72373" lon="5.31279">
        <ele>149.484721</ele>
        <time>2021-09-17T08:30:50.000Z</time>
      </trkpt>
      <trkpt lat="43.72374" lon="5.31284">
        <ele>149.494598</ele>
        <time>2021-09-17T08:30:51.000Z</time>
      </trkpt>
      <trkpt lat="43.72376" lon="5.31318">
        <ele>149.552249</ele>
        <time>2021-09-17T08:30:57.000Z</time>
      </trkpt>
      <trkpt lat="43.72378" lon="5.31345">
        <ele>149.599336</ele>
        <time>2021-09-17T08:31:02.000Z</time>
      </trkpt>
      <trkpt lat="43.72379" lon="5.31362">
        <ele>149.625024</ele>
        <time>2021-09-17T08:31:05.000Z</time>
      </trkpt>
      <trkpt lat="43.7238" lon="5.3138">
        <ele>149.650403</ele>
        <time>2021-09-17T08:31:08.000Z</time>
      </trkpt>
      <trkpt lat="43.72383" lon="5.31429">
        <ele>149.717426</ele>
        <time>2021-09-17T08:31:15.000Z</time>
      </trkpt>
      <trkpt lat="43.72387" lon="5.31497">
        <ele>149.810923</ele>
        <time>2021-09-17T08:31:24.000Z</time>
      </trkpt>
      <trkpt lat="43.72391" lon="5.3155">
        <ele>149.885265</ele>
        <time>2021-09-17T08:31:31.000Z</time>
      </trkpt>
      <trkpt lat="43.72392" lon="5.31558">
        <ele>149.895679</ele>
        <time>2021-09-17T08:31:32.000Z</time>
      </trkpt>
      <trkpt lat="43.72395" lon="5.31587">
        <ele>149.936747</ele>
        <time>2021-09-17T08:31:36.000Z</time>
      </trkpt>
      <trkpt lat="43.72399" lon="5.31635">
        <ele>149.962091</ele>
        <time>2021-09-17T08:31:42.000Z</time>
      </trkpt>
      <trkpt lat="43.72403" lon="5.31689">
        <ele>149.975209</ele>
        <time>2021-09-17T08:31:49.000Z</time>
      </trkpt>
      <trkpt lat="43.72406" lon="5.31749">
        <ele>149.989683</ele>
        <time>2021-09-17T08:31:57.000Z</time>
      </trkpt>
      <trkpt lat="43.72411" lon="5.31798">
        <ele>150.001799</ele>
        <time>2021-09-17T08:32:04.000Z</time>
      </trkpt>
      <trkpt lat="43.72416" lon="5.31879">
        <ele>150.040826</ele>
        <time>2021-09-17T08:32:15.000Z</time>
      </trkpt>
      <trkpt lat="43.72421" lon="5.3194">
        <ele>150.093714</ele>
        <time>2021-09-17T08:32:23.000Z</time>
      </trkpt>
      <trkpt lat="43.72426" lon="5.32015">
        <ele>150.158072</ele>
        <time>2021-09-17T08:32:32.000Z</time>
      </trkpt>
      <trkpt lat="43.72431" lon="5.32089">
        <ele>150.222516</ele>
        <time>2021-09-17T08:32:41.000Z</time>
      </trkpt>
      <trkpt lat="43.72435" lon="5.32151">
        <ele>150.311994</ele>
        <time>2021-09-17T08:32:49.000Z</time>
      </trkpt>
      <trkpt lat="43.72438" lon="5.32219">
        <ele>150.415302</ele>
        <time>2021-09-17T08:32:57.000Z</time>
      </trkpt>
      <trkpt lat="43.72439" lon="5.32291">
        <ele>150.5237</ele>
        <time>2021-09-17T08:33:05.000Z</time>
      </trkpt>
      <trkpt lat="43.72433" lon="5.32353">
        <ele>150.635395</ele>
        <time>2021-09-17T08:33:12.000Z</time>
      </trkpt>
      <trkpt lat="43.72423" lon="5.32413">
        <ele>150.844333</ele>
        <time>2021-09-17T08:33:19.000Z</time>
      </trkpt>
      <trkpt lat="43.72409" lon="5.32471">
        <ele>151.048359</ele>
        <time>2021-09-17T08:33:26.000Z</time>
      </trkpt>
      <trkpt lat="43.72388" lon="5.32533">
        <ele>151.2795</ele>
        <time>2021-09-17T08:33:34.000Z</time>
      </trkpt>
      <trkpt lat="43.72361" lon="5.32598">
        <ele>151.492683</ele>
        <time>2021-09-17T08:33:43.000Z</time>
      </trkpt>
      <trkpt lat="43.72332" lon="5.32651">
        <ele>151.623009</ele>
        <time>2021-09-17T08:33:51.000Z</time>
      </trkpt>
      <trkpt lat="43.7231" lon="5.3269">
        <ele>151.720063</ele>
        <time>2021-09-17T08:33:57.000Z</time>
      </trkpt>
      <trkpt lat="43.72291" lon="5.32722">
        <ele>151.801523</ele>
        <time>2021-09-17T08:34:02.000Z</time>
      </trkpt>
      <trkpt lat="43.72284" lon="5.32735">
        <ele>151.833512</ele>
        <time>2021-09-17T08:34:04.000Z</time>
      </trkpt>
      <trkpt lat="43.72248" lon="5.32798">
        <ele>151.99344</ele>
        <time>2021-09-17T08:34:14.000Z</time>
      </trkpt>
      <trkpt lat="43.72219" lon="5.32848">
        <ele>152.124575</ele>
        <time>2021-09-17T08:34:22.000Z</time>
      </trkpt>
      <trkpt lat="43.72187" lon="5.32903">
        <ele>152.267656</ele>
        <time>2021-09-17T08:34:31.000Z</time>
      </trkpt>
      <trkpt lat="43.72184" lon="5.32908">
        <ele>152.282933</ele>
        <time>2021-09-17T08:34:32.000Z</time>
      </trkpt>
      <trkpt lat="43.7216" lon="5.3295">
        <ele>152.391153</ele>
        <time>2021-09-17T08:34:39.000Z</time>
      </trkpt>
      <trkpt lat="43.72128" lon="5.33005">
        <ele>152.540399</ele>
        <time>2021-09-17T08:34:48.000Z</time>
      </trkpt>
      <trkpt lat="43.72105" lon="5.33045">
        <ele>152.652219</ele>
        <time>2021-09-17T08:34:55.000Z</time>
      </trkpt>
      <trkpt lat="43.72087" lon="5.33076">
        <ele>152.736033</ele>
        <time>2021-09-17T08:35:00.000Z</time>
      </trkpt>
      <trkpt lat="43.7208" lon="5.33088">
        <ele>152.770859</ele>
        <time>2021-09-17T08:35:02.000Z</time>
      </trkpt>
      <trkpt lat="43.72055" lon="5.33132">
        <ele>152.892638</ele>
        <time>2021-09-17T08:35:09.000Z</time>
      </trkpt>
      <trkpt lat="43.7203" lon="5.33176">
        <ele>153.023147</ele>
        <time>2021-09-17T08:35:16.000Z</time>
      </trkpt>
      <trkpt lat="43.71998" lon="5.33231">
        <ele>153.223637</ele>
        <time>2021-09-17T08:35:25.000Z</time>
      </trkpt>
      <trkpt lat="43.71976" lon="5.33268">
        <ele>153.35563</ele>
        <time>2021-09-17T08:35:31.000Z</time>
      </trkpt>
      <trkpt lat="43.71962" lon="5.33293">
        <ele>153.443713</ele>
        <time>2021-09-17T08:35:35.000Z</time>
      </trkpt>
      <trkpt lat="43.71952" lon="5.33311">
        <ele>153.51061</ele>
        <time>2021-09-17T08:35:38.000Z</time>
      </trkpt>
      <trkpt lat="43.71919" lon="5.33368">
        <ele>153.696373</ele>
        <time>2021-09-17T08:35:47.000Z</time>
      </trkpt>
      <trkpt lat="43.71883" lon="5.3343">
        <ele>153.827309</ele>
        <time>2021-09-17T08:35:57.000Z</time>
      </trkpt>
      <trkpt lat="43.71879" lon="5.33437">
        <ele>153.84092</ele>
        <time>2021-09-17T08:35:58.000Z</time>
      </trkpt>
      <trkpt lat="43.7185" lon="5.33487">
        <ele>153.945718</ele>
        <time>2021-09-17T08:36:06.000Z</time>
      </trkpt>
      <trkpt lat="43.71821" lon="5.33537">
        <ele>154.052124</ele>
        <time>2021-09-17T08:36:14.000Z</time>
      </trkpt>
      <trkpt lat="43.718" lon="5.33575">
        <ele>154.213827</ele>
        <time>2021-09-17T08:36:20.000Z</time>
      </trkpt>
      <trkpt lat="43.71779" lon="5.33611">
        <ele>154.416473</ele>
        <time>2021-09-17T08:36:26.000Z</time>
      </trkpt>
      <trkpt lat="43.71776" lon="5.33617">
        <ele>154.449876</ele>
        <time>2021-09-17T08:36:27.000Z</time>
      </trkpt>
      <trkpt lat="43.71748" lon="5.33664">
        <ele>154.716858</ele>
        <time>2021-09-17T08:36:35.000Z</time>
      </trkpt>
      <trkpt lat="43.71724" lon="5.33706">
        <ele>154.947556</ele>
        <time>2021-09-17T08:36:42.000Z</time>
      </trkpt>
      <trkpt lat="43.71698" lon="5.33751">
        <ele>155.201935</ele>
        <time>2021-09-17T08:36:49.000Z</time>
      </trkpt>
      <trkpt lat="43.71668" lon="5.33803">
        <ele>155.511665</ele>
        <time>2021-09-17T08:36:57.000Z</time>
      </trkpt>
      <trkpt lat="43.71635" lon="5.33861">
        <ele>155.855147</ele>
        <time>2021-09-17T08:37:06.000Z</time>
      </trkpt>
      <trkpt lat="43.71608" lon="5.33908">
        <ele>156.130006</ele>
        <time>2021-09-17T08:37:14.000Z</time>
      </trkpt>
      <trkpt lat="43.7159" lon="5.33939">
        <ele>156.312618</ele>
        <time>2021-09-17T08:37:20.000Z</time>
      </trkpt>
      <trkpt lat="43.71587" lon="5.33943">
        <ele>156.397444</ele>
        <time>2021-09-17T08:37:21.000Z</time>
      </trkpt>
      <trkpt lat="43.71582" lon="5.33952">
        <ele>156.610393</ele>
        <time>2021-09-17T08:37:23.000Z</time>
      </trkpt>
      <trkpt lat="43.71573" lon="5.33968">
        <ele>156.98873</ele>
        <time>2021-09-17T08:37:27.000Z</time>
      </trkpt>
      <trkpt lat="43.71553" lon="5.34003">
        <ele>157.807908</ele>
        <time>2021-09-17T08:37:35.000Z</time>
      </trkpt>
      <trkpt lat="43.71533" lon="5.34038">
        <ele>158.618179</ele>
        <time>2021-09-17T08:37:43.000Z</time>
      </trkpt>
      <trkpt lat="43.71519" lon="5.34062">
        <ele>159.199124</ele>
        <time>2021-09-17T08:37:49.000Z</time>
      </trkpt>
      <trkpt lat="43.71499" lon="5.34096">
        <ele>159.985698</ele>
        <time>2021-09-17T08:37:57.000Z</time>
      </trkpt>
      <trkpt lat="43.71482" lon="5.34125">
        <ele>160.667949</ele>
        <time>2021-09-17T08:38:04.000Z</time>
      </trkpt>
      <trkpt lat="43.71464" lon="5.34157">
        <ele>161.407845</ele>
        <time>2021-09-17T08:38:12.000Z</time>
      </trkpt>
      <trkpt lat="43.71449" lon="5.34182">
        <ele>161.984647</ele>
        <time>2021-09-17T08:38:19.000Z</time>
      </trkpt>
      <trkpt lat="43.71427" lon="5.34216">
        <ele>162.78823</ele>
        <time>2021-09-17T08:38:28.000Z</time>
      </trkpt>
      <trkpt lat="43.71404" lon="5.34254">
        <ele>163.684753</ele>
        <time>2021-09-17T08:38:38.000Z</time>
      </trkpt>
      <trkpt lat="43.71384" lon="5.34286">
        <ele>164.427656</ele>
        <time>2021-09-17T08:38:46.000Z</time>
      </trkpt>
      <trkpt lat="43.71368" lon="5.34317">
        <ele>165.112704</ele>
        <time>2021-09-17T08:38:53.000Z</time>
      </trkpt>
      <trkpt lat="43.71364" lon="5.34328">
        <ele>165.327573</ele>
        <time>2021-09-17T08:38:55.000Z</time>
      </trkpt>
      <trkpt lat="43.7136" lon="5.3434">
        <ele>165.394812</ele>
        <time>2021-09-17T08:38:57.000Z</time>
      </trkpt>
      <trkpt lat="43.71346" lon="5.34378">
        <ele>165.606724</ele>
        <time>2021-09-17T08:39:03.000Z</time>
      </trkpt>
      <trkpt lat="43.71344" lon="5.34385">
        <ele>165.643993</ele>
        <time>2021-09-17T08:39:04.000Z</time>
      </trkpt>
      <trkpt lat="43.71335" lon="5.34415">
        <ele>165.801352</ele>
        <time>2021-09-17T08:39:08.000Z</time>
      </trkpt>
      <trkpt lat="43.71331" lon="5.3443">
        <ele>165.880793</ele>
        <time>2021-09-17T08:39:10.000Z</time>
      </trkpt>
      <trkpt lat="43.71327" lon="5.34444">
        <ele>165.957219</ele>
        <time>2021-09-17T08:39:12.000Z</time>
      </trkpt>
      <trkpt lat="43.71321" lon="5.34475">
        <ele>166.117665</ele>
        <time>2021-09-17T08:39:16.000Z</time>
      </trkpt>
      <trkpt lat="43.71316" lon="5.34533">
        <ele>166.410088</ele>
        <time>2021-09-17T08:39:23.000Z</time>
      </trkpt>
      <trkpt lat="43.71313" lon="5.34591">
        <ele>166.610137</ele>
        <time>2021-09-17T08:39:30.000Z</time>
      </trkpt>
      <trkpt lat="43.71311" lon="5.34636">
        <ele>166.688415</ele>
        <time>2021-09-17T08:39:36.000Z</time>
      </trkpt>
      <trkpt lat="43.71307" lon="5.3471">
        <ele>166.821191</ele>
        <time>2021-09-17T08:39:46.000Z</time>
      </trkpt>
      <trkpt lat="43.71306" lon="5.34725">
        <ele>166.847125</ele>
        <time>2021-09-17T08:39:48.000Z</time>
      </trkpt>
      <trkpt lat="43.71305" lon="5.34748">
        <ele>166.887321</ele>
        <time>2021-09-17T08:39:51.000Z</time>
      </trkpt>
      <trkpt lat="43.71298" lon="5.348">
        <ele>166.981313</ele>
        <time>2021-09-17T08:39:58.000Z</time>
      </trkpt>
      <trkpt lat="43.71295" lon="5.34814">
        <ele>167.022143</ele>
        <time>2021-09-17T08:40:00.000Z</time>
      </trkpt>
      <trkpt lat="43.71292" lon="5.34827">
        <ele>167.111801</ele>
        <time>2021-09-17T08:40:02.000Z</time>
      </trkpt>
      <trkpt lat="43.71288" lon="5.3484">
        <ele>167.207689</ele>
        <time>2021-09-17T08:40:04.000Z</time>
      </trkpt>
      <trkpt lat="43.71283" lon="5.34861">
        <ele>167.353087</ele>
        <time>2021-09-17T08:40:07.000Z</time>
      </trkpt>
      <trkpt lat="43.71276" lon="5.34889">
        <ele>167.551093</ele>
        <time>2021-09-17T08:40:11.000Z</time>
      </trkpt>
      <trkpt lat="43.71273" lon="5.34904">
        <ele>167.651663</ele>
        <time>2021-09-17T08:40:13.000Z</time>
      </trkpt>
      <trkpt lat="43.7126" lon="5.34956">
        <ele>168.018405</ele>
        <time>2021-09-17T08:40:21.000Z</time>
      </trkpt>
      <trkpt lat="43.71252" lon="5.34986">
        <ele>168.230421</ele>
        <time>2021-09-17T08:40:26.000Z</time>
      </trkpt>
      <trkpt lat="43.71245" lon="5.35017">
        <ele>168.441811</ele>
        <time>2021-09-17T08:40:31.000Z</time>
      </trkpt>
      <trkpt lat="43.7124" lon="5.35034">
        <ele>168.563542</ele>
        <time>2021-09-17T08:40:34.000Z</time>
      </trkpt>
      <trkpt lat="43.71237" lon="5.35046">
        <ele>168.651456</ele>
        <time>2021-09-17T08:40:36.000Z</time>
      </trkpt>
      <trkpt lat="43.71228" lon="5.35084">
        <ele>169.255116</ele>
        <time>2021-09-17T08:40:42.000Z</time>
      </trkpt>
      <trkpt lat="43.71218" lon="5.35119">
        <ele>169.819096</ele>
        <time>2021-09-17T08:40:48.000Z</time>
      </trkpt>
      <trkpt lat="43.71205" lon="5.35165">
        <ele>170.566124</ele>
        <time>2021-09-17T08:40:56.000Z</time>
      </trkpt>
      <trkpt lat="43.71202" lon="5.35177">
        <ele>170.758902</ele>
        <time>2021-09-17T08:40:58.000Z</time>
      </trkpt>
      <trkpt lat="43.71195" lon="5.35206">
        <ele>171.212011</ele>
        <time>2021-09-17T08:41:03.000Z</time>
      </trkpt>
      <trkpt lat="43.71188" lon="5.35246">
        <ele>171.828149</ele>
        <time>2021-09-17T08:41:10.000Z</time>
      </trkpt>
      <trkpt lat="43.71181" lon="5.35287">
        <ele>172.426819</ele>
        <time>2021-09-17T08:41:17.000Z</time>
      </trkpt>
      <trkpt lat="43.71171" lon="5.35344">
        <ele>172.804841</ele>
        <time>2021-09-17T08:41:27.000Z</time>
      </trkpt>
      <trkpt lat="43.7116" lon="5.35403">
        <ele>173.192851</ele>
        <time>2021-09-17T08:41:38.000Z</time>
      </trkpt>
      <trkpt lat="43.71152" lon="5.35452">
        <ele>173.515536</ele>
        <time>2021-09-17T08:41:46.000Z</time>
      </trkpt>
      <trkpt lat="43.71151" lon="5.35457">
        <ele>173.553817</ele>
        <time>2021-09-17T08:41:47.000Z</time>
      </trkpt>
      <trkpt lat="43.71142" lon="5.35514">
        <ele>173.927517</ele>
        <time>2021-09-17T08:41:56.000Z</time>
      </trkpt>
      <trkpt lat="43.71133" lon="5.35576">
        <ele>174.125748</ele>
        <time>2021-09-17T08:42:05.000Z</time>
      </trkpt>
      <trkpt lat="43.71123" lon="5.35644">
        <ele>174.298625</ele>
        <time>2021-09-17T08:42:15.000Z</time>
      </trkpt>
      <trkpt lat="43.71115" lon="5.35702">
        <ele>174.444409</ele>
        <time>2021-09-17T08:42:24.000Z</time>
      </trkpt>
      <trkpt lat="43.7111" lon="5.35745">
        <ele>174.554009</ele>
        <time>2021-09-17T08:42:31.000Z</time>
      </trkpt>
      <trkpt lat="43.71108" lon="5.35806">
        <ele>174.684193</ele>
        <time>2021-09-17T08:42:40.000Z</time>
      </trkpt>
      <trkpt lat="43.71113" lon="5.3587">
        <ele>174.807044</ele>
        <time>2021-09-17T08:42:49.000Z</time>
      </trkpt>
      <trkpt lat="43.7111" lon="5.35925">
        <ele>174.911248</ele>
        <time>2021-09-17T08:42:56.000Z</time>
      </trkpt>
      <trkpt lat="43.71101" lon="5.35972">
        <ele>175.003129</ele>
        <time>2021-09-17T08:43:02.000Z</time>
      </trkpt>
      <trkpt lat="43.71082" lon="5.36024">
        <ele>175.006764</ele>
        <time>2021-09-17T08:43:09.000Z</time>
      </trkpt>
      <trkpt lat="43.71053" lon="5.36076">
        <ele>174.644439</ele>
        <time>2021-09-17T08:43:17.000Z</time>
      </trkpt>
      <trkpt lat="43.71032" lon="5.36109">
        <ele>174.402736</ele>
        <time>2021-09-17T08:43:22.000Z</time>
      </trkpt>
      <trkpt lat="43.71012" lon="5.36134">
        <ele>174.19614</ele>
        <time>2021-09-17T08:43:26.000Z</time>
      </trkpt>
      <trkpt lat="43.71006" lon="5.36139">
        <ele>174.140575</ele>
        <time>2021-09-17T08:43:27.000Z</time>
      </trkpt>
      <trkpt lat="43.70966" lon="5.36169">
        <ele>173.79361</ele>
        <time>2021-09-17T08:43:33.000Z</time>
      </trkpt>
      <trkpt lat="43.70911" lon="5.36204">
        <ele>173.146406</ele>
        <time>2021-09-17T08:43:41.000Z</time>
      </trkpt>
      <trkpt lat="43.70868" lon="5.36234">
        <ele>172.592063</ele>
        <time>2021-09-17T08:43:48.000Z</time>
      </trkpt>
      <trkpt lat="43.70857" lon="5.36241">
        <ele>172.454387</ele>
        <time>2021-09-17T08:43:50.000Z</time>
      </trkpt>
      <trkpt lat="43.70841" lon="5.36251">
        <ele>172.264261</ele>
        <time>2021-09-17T08:43:53.000Z</time>
      </trkpt>
      <trkpt lat="43.70837" lon="5.36253">
        <ele>172.205598</ele>
        <time>2021-09-17T08:43:54.000Z</time>
      </trkpt>
      <trkpt lat="43.70818" lon="5.36265">
        <ele>171.977862</ele>
        <time>2021-09-17T08:43:58.000Z</time>
      </trkpt>
      <trkpt lat="43.70815" lon="5.36268">
        <ele>171.93566</ele>
        <time>2021-09-17T08:43:59.000Z</time>
      </trkpt>
      <trkpt lat="43.70801" lon="5.36281">
        <ele>171.737799</ele>
        <time>2021-09-17T08:44:03.000Z</time>
      </trkpt>
      <trkpt lat="43.70781" lon="5.36297">
        <ele>171.867628</ele>
        <time>2021-09-17T08:44:09.000Z</time>
      </trkpt>
      <trkpt lat="43.70761" lon="5.36325">
        <ele>172.199008</ele>
        <time>2021-09-17T08:44:17.000Z</time>
      </trkpt>
      <trkpt lat="43.70748" lon="5.36349">
        <ele>172.461974</ele>
        <time>2021-09-17T08:44:23.000Z</time>
      </trkpt>
      <trkpt lat="43.70735" lon="5.36374">
        <ele>172.725632</ele>
        <time>2021-09-17T08:44:29.000Z</time>
      </trkpt>
      <trkpt lat="43.70718" lon="5.36405">
        <ele>173.064988</ele>
        <time>2021-09-17T08:44:37.000Z</time>
      </trkpt>
      <trkpt lat="43.70708" lon="5.36431">
        <ele>173.322819</ele>
        <time>2021-09-17T08:44:43.000Z</time>
      </trkpt>
      <trkpt lat="43.70695" lon="5.36468">
        <ele>173.67537</ele>
        <time>2021-09-17T08:44:51.000Z</time>
      </trkpt>
      <trkpt lat="43.70682" lon="5.36506">
        <ele>174.2925</ele>
        <time>2021-09-17T08:45:00.000Z</time>
      </trkpt>
      <trkpt lat="43.70677" lon="5.36521">
        <ele>174.592503</ele>
        <time>2021-09-17T08:45:03.000Z</time>
      </trkpt>
      <trkpt lat="43.70672" lon="5.36537">
        <ele>174.899163</ele>
        <time>2021-09-17T08:45:06.000Z</time>
      </trkpt>
      <trkpt lat="43.70657" lon="5.36582">
        <ele>175.811841</ele>
        <time>2021-09-17T08:45:14.000Z</time>
      </trkpt>
      <trkpt lat="43.70652" lon="5.36594">
        <ele>176.052004</ele>
        <time>2021-09-17T08:45:16.000Z</time>
      </trkpt>
      <trkpt lat="43.70642" lon="5.36615">
        <ele>176.52239</ele>
        <time>2021-09-17T08:45:20.000Z</time>
      </trkpt>
      <trkpt lat="43.70623" lon="5.36649">
        <ele>177.296892</ele>
        <time>2021-09-17T08:45:26.000Z</time>
      </trkpt>
      <trkpt lat="43.70593" lon="5.36683">
        <ele>178.277949</ele>
        <time>2021-09-17T08:45:34.000Z</time>
      </trkpt>
      <trkpt lat="43.70561" lon="5.36713">
        <ele>178.484515</ele>
        <time>2021-09-17T08:45:42.000Z</time>
      </trkpt>
      <trkpt lat="43.70528" lon="5.36738">
        <ele>178.626873</ele>
        <time>2021-09-17T08:45:50.000Z</time>
      </trkpt>
      <trkpt lat="43.70492" lon="5.36765">
        <ele>178.782357</ele>
        <time>2021-09-17T08:45:59.000Z</time>
      </trkpt>
      <trkpt lat="43.70468" lon="5.36798">
        <ele>178.90985</ele>
        <time>2021-09-17T08:46:06.000Z</time>
      </trkpt>
      <trkpt lat="43.70443" lon="5.36839">
        <ele>178.98506</ele>
        <time>2021-09-17T08:46:13.000Z</time>
      </trkpt>
      <trkpt lat="43.70417" lon="5.36884">
        <ele>178.744902</ele>
        <time>2021-09-17T08:46:20.000Z</time>
      </trkpt>
      <trkpt lat="43.704" lon="5.36924">
        <ele>178.549619</ele>
        <time>2021-09-17T08:46:26.000Z</time>
      </trkpt>
      <trkpt lat="43.70386" lon="5.36967">
        <ele>178.346876</ele>
        <time>2021-09-17T08:46:32.000Z</time>
      </trkpt>
      <trkpt lat="43.70376" lon="5.36997">
        <ele>178.209601</ele>
        <time>2021-09-17T08:46:36.000Z</time>
      </trkpt>
      <trkpt lat="43.70371" lon="5.37012">
        <ele>178.139186</ele>
        <time>2021-09-17T08:46:38.000Z</time>
      </trkpt>
      <trkpt lat="43.70365" lon="5.3703">
        <ele>178.058012</ele>
        <time>2021-09-17T08:46:40.000Z</time>
      </trkpt>
      <trkpt lat="43.70359" lon="5.37046">
        <ele>177.980007</ele>
        <time>2021-09-17T08:46:42.000Z</time>
      </trkpt>
      <trkpt lat="43.70336" lon="5.37117">
        <ele>177.618136</ele>
        <time>2021-09-17T08:46:50.000Z</time>
      </trkpt>
      <trkpt lat="43.7033" lon="5.37136">
        <ele>177.5221</ele>
        <time>2021-09-17T08:46:52.000Z</time>
      </trkpt>
      <trkpt lat="43.70304" lon="5.37198">
        <ele>177.192049</ele>
        <time>2021-09-17T08:46:59.000Z</time>
      </trkpt>
      <trkpt lat="43.70285" lon="5.37237">
        <ele>176.971435</ele>
        <time>2021-09-17T08:47:05.000Z</time>
      </trkpt>
      <trkpt lat="43.70267" lon="5.37273">
        <ele>176.872392</ele>
        <time>2021-09-17T08:47:12.000Z</time>
      </trkpt>
      <trkpt lat="43.70257" lon="5.37294">
        <ele>176.975304</ele>
        <time>2021-09-17T08:47:17.000Z</time>
      </trkpt>
      <trkpt lat="43.70249" lon="5.37315">
        <ele>177.072833</ele>
        <time>2021-09-17T08:47:22.000Z</time>
      </trkpt>
      <trkpt lat="43.70239" lon="5.37339">
        <ele>177.184002</ele>
        <time>2021-09-17T08:47:28.000Z</time>
      </trkpt>
      <trkpt lat="43.70227" lon="5.37368">
        <ele>177.320195</ele>
        <time>2021-09-17T08:47:34.000Z</time>
      </trkpt>
      <trkpt lat="43.70221" lon="5.37383">
        <ele>177.39009</ele>
        <time>2021-09-17T08:47:37.000Z</time>
      </trkpt>
      <trkpt lat="43.70219" lon="5.37388">
        <ele>177.416381</ele>
        <time>2021-09-17T08:47:38.000Z</time>
      </trkpt>
      <trkpt lat="43.70217" lon="5.37394">
        <ele>177.445003</ele>
        <time>2021-09-17T08:47:39.000Z</time>
      </trkpt>
      <trkpt lat="43.70208" lon="5.37415">
        <ele>177.542533</ele>
        <time>2021-09-17T08:47:42.000Z</time>
      </trkpt>
      <trkpt lat="43.7019" lon="5.37459">
        <ele>177.747278</ele>
        <time>2021-09-17T08:47:47.000Z</time>
      </trkpt>
      <trkpt lat="43.70166" lon="5.37518">
        <ele>177.411327</ele>
        <time>2021-09-17T08:47:53.000Z</time>
      </trkpt>
      <trkpt lat="43.70137" lon="5.37588">
        <ele>176.65143</ele>
        <time>2021-09-17T08:48:00.000Z</time>
      </trkpt>
      <trkpt lat="43.70113" lon="5.37641">
        <ele>176.064027</ele>
        <time>2021-09-17T08:48:06.000Z</time>
      </trkpt>
      <trkpt lat="43.70101" lon="5.37665">
        <ele>175.787648</ele>
        <time>2021-09-17T08:48:09.000Z</time>
      </trkpt>
      <trkpt lat="43.70093" lon="5.3768">
        <ele>175.610984</ele>
        <time>2021-09-17T08:48:11.000Z</time>
      </trkpt>
      <trkpt lat="43.70064" lon="5.3773">
        <ele>174.761739</ele>
        <time>2021-09-17T08:48:18.000Z</time>
      </trkpt>
      <trkpt lat="43.70036" lon="5.37766">
        <ele>174.029129</ele>
        <time>2021-09-17T08:48:24.000Z</time>
      </trkpt>
      <trkpt lat="43.70012" lon="5.37793">
        <ele>173.424451</ele>
        <time>2021-09-17T08:48:29.000Z</time>
      </trkpt>
      <trkpt lat="43.70007" lon="5.37799">
        <ele>173.305228</ele>
        <time>2021-09-17T08:48:30.000Z</time>
      </trkpt>
      <trkpt lat="43.69988" lon="5.3782">
        <ele>172.817893</ele>
        <time>2021-09-17T08:48:34.000Z</time>
      </trkpt>
      <trkpt lat="43.69958" lon="5.37853">
        <ele>172.080376</ele>
        <time>2021-09-17T08:48:40.000Z</time>
      </trkpt>
      <trkpt lat="43.69924" lon="5.3789">
        <ele>171.325859</ele>
        <time>2021-09-17T08:48:47.000Z</time>
      </trkpt>
      <trkpt lat="43.69891" lon="5.37926">
        <ele>170.595197</ele>
        <time>2021-09-17T08:48:54.000Z</time>
      </trkpt>
      <trkpt lat="43.69867" lon="5.37952">
        <ele>170.08024</ele>
        <time>2021-09-17T08:48:59.000Z</time>
      </trkpt>
      <trkpt lat="43.69831" lon="5.37994">
        <ele>169.267361</ele>
        <time>2021-09-17T08:49:07.000Z</time>
      </trkpt>
      <trkpt lat="43.69807" lon="5.3803">
        <ele>168.741492</ele>
        <time>2021-09-17T08:49:13.000Z</time>
      </trkpt>
      <trkpt lat="43.69782" lon="5.38076">
        <ele>168.26021</ele>
        <time>2021-09-17T08:49:20.000Z</time>
      </trkpt>
      <trkpt lat="43.69762" lon="5.38113">
        <ele>167.868413</ele>
        <time>2021-09-17T08:49:26.000Z</time>
      </trkpt>
      <trkpt lat="43.6974" lon="5.38154">
        <ele>167.452256</ele>
        <time>2021-09-17T08:49:33.000Z</time>
      </trkpt>
      <trkpt lat="43.69719" lon="5.38194">
        <ele>167.038803</ele>
        <time>2021-09-17T08:49:40.000Z</time>
      </trkpt>
      <trkpt lat="43.69716" lon="5.38199">
        <ele>166.979932</ele>
        <time>2021-09-17T08:49:41.000Z</time>
      </trkpt>
      <trkpt lat="43.69711" lon="5.3821">
        <ele>166.866249</ele>
        <time>2021-09-17T08:49:43.000Z</time>
      </trkpt>
      <trkpt lat="43.69707" lon="5.38216">
        <ele>166.820103</ele>
        <time>2021-09-17T08:49:44.000Z</time>
      </trkpt>
      <trkpt lat="43.69701" lon="5.38229">
        <ele>166.777555</ele>
        <time>2021-09-17T08:49:46.000Z</time>
      </trkpt>
      <trkpt lat="43.69689" lon="5.38253">
        <ele>166.695162</ele>
        <time>2021-09-17T08:49:50.000Z</time>
      </trkpt>
      <trkpt lat="43.69683" lon="5.38264">
        <ele>166.655323</ele>
        <time>2021-09-17T08:49:52.000Z</time>
      </trkpt>
      <trkpt lat="43.69674" lon="5.38282">
        <ele>166.594652</ele>
        <time>2021-09-17T08:49:55.000Z</time>
      </trkpt>
      <trkpt lat="43.69653" lon="5.38326">
        <ele>166.447811</ele>
        <time>2021-09-17T08:50:02.000Z</time>
      </trkpt>
      <trkpt lat="43.69636" lon="5.38364">
        <ele>166.324934</ele>
        <time>2021-09-17T08:50:08.000Z</time>
      </trkpt>
      <trkpt lat="43.69622" lon="5.38395">
        <ele>166.222988</ele>
        <time>2021-09-17T08:50:13.000Z</time>
      </trkpt>
      <trkpt lat="43.6962" lon="5.38401">
        <ele>166.203013</ele>
        <time>2021-09-17T08:50:14.000Z</time>
      </trkpt>
      <trkpt lat="43.696" lon="5.38445">
        <ele>166.24291</ele>
        <time>2021-09-17T08:50:21.000Z</time>
      </trkpt>
      <trkpt lat="43.69581" lon="5.3849">
        <ele>166.458486</ele>
        <time>2021-09-17T08:50:28.000Z</time>
      </trkpt>
      <trkpt lat="43.69575" lon="5.38501">
        <ele>166.514214</ele>
        <time>2021-09-17T08:50:30.000Z</time>
      </trkpt>
      <trkpt lat="43.69562" lon="5.38522">
        <ele>166.626611</ele>
        <time>2021-09-17T08:50:34.000Z</time>
      </trkpt>
      <trkpt lat="43.69537" lon="5.38559">
        <ele>166.835402</ele>
        <time>2021-09-17T08:50:42.000Z</time>
      </trkpt>
      <trkpt lat="43.69516" lon="5.3859">
        <ele>167.009585</ele>
        <time>2021-09-17T08:50:49.000Z</time>
      </trkpt>
      <trkpt lat="43.69513" lon="5.38594">
        <ele>167.034185</ele>
        <time>2021-09-17T08:50:50.000Z</time>
      </trkpt>
      <trkpt lat="43.69489" lon="5.38627">
        <ele>167.211413</ele>
        <time>2021-09-17T08:50:58.000Z</time>
      </trkpt>
      <trkpt lat="43.69486" lon="5.38631">
        <ele>167.229062</ele>
        <time>2021-09-17T08:50:59.000Z</time>
      </trkpt>
      <trkpt lat="43.69471" lon="5.38652">
        <ele>167.321338</ele>
        <time>2021-09-17T08:51:04.000Z</time>
      </trkpt>
      <trkpt lat="43.69445" lon="5.38688">
        <ele>167.477249</ele>
        <time>2021-09-17T08:51:12.000Z</time>
      </trkpt>
      <trkpt lat="43.69415" lon="5.38732">
        <ele>167.665967</ele>
        <time>2021-09-17T08:51:21.000Z</time>
      </trkpt>
      <trkpt lat="43.69379" lon="5.38777">
        <ele>167.873369</ele>
        <time>2021-09-17T08:51:30.000Z</time>
      </trkpt>
      <trkpt lat="43.69344" lon="5.38811">
        <ele>168.000225</ele>
        <time>2021-09-17T08:51:38.000Z</time>
      </trkpt>
      <trkpt lat="43.69326" lon="5.38826">
        <ele>168.04897</ele>
        <time>2021-09-17T08:51:42.000Z</time>
      </trkpt>
      <trkpt lat="43.69313" lon="5.38838">
        <ele>168.085151</ele>
        <time>2021-09-17T08:51:45.000Z</time>
      </trkpt>
      <trkpt lat="43.69273" lon="5.38872">
        <ele>168.193301</ele>
        <time>2021-09-17T08:51:54.000Z</time>
      </trkpt>
      <trkpt lat="43.69253" lon="5.3889">
        <ele>168.249929</ele>
        <time>2021-09-17T08:51:59.000Z</time>
      </trkpt>
      <trkpt lat="43.69249" lon="5.38894">
        <ele>168.260679</ele>
        <time>2021-09-17T08:52:00.000Z</time>
      </trkpt>
      <trkpt lat="43.69221" lon="5.38917">
        <ele>168.335105</ele>
        <time>2021-09-17T08:52:07.000Z</time>
      </trkpt>
      <trkpt lat="43.6921" lon="5.38927">
        <ele>168.395382</ele>
        <time>2021-09-17T08:52:10.000Z</time>
      </trkpt>
      <trkpt lat="43.69204" lon="5.38933">
        <ele>168.446245</ele>
        <time>2021-09-17T08:52:12.000Z</time>
      </trkpt>
      <trkpt lat="43.69186" lon="5.38951">
        <ele>168.584888</ele>
        <time>2021-09-17T08:52:18.000Z</time>
      </trkpt>
      <trkpt lat="43.6917" lon="5.3897">
        <ele>168.714264</ele>
        <time>2021-09-17T08:52:24.000Z</time>
      </trkpt>
      <trkpt lat="43.69157" lon="5.38993">
        <ele>168.847776</ele>
        <time>2021-09-17T08:52:29.000Z</time>
      </trkpt>
      <trkpt lat="43.6914" lon="5.39035">
        <ele>169.060085</ele>
        <time>2021-09-17T08:52:36.000Z</time>
      </trkpt>
      <trkpt lat="43.69134" lon="5.39052">
        <ele>169.14734</ele>
        <time>2021-09-17T08:52:39.000Z</time>
      </trkpt>
      <trkpt lat="43.69128" lon="5.3907">
        <ele>169.23866</ele>
        <time>2021-09-17T08:52:42.000Z</time>
      </trkpt>
      <trkpt lat="43.69114" lon="5.3911">
        <ele>169.43824</ele>
        <time>2021-09-17T08:52:48.000Z</time>
      </trkpt>
      <trkpt lat="43.69104" lon="5.39137">
        <ele>169.567672</ele>
        <time>2021-09-17T08:52:52.000Z</time>
      </trkpt>
      <trkpt lat="43.69084" lon="5.39181">
        <ele>169.78161</ele>
        <time>2021-09-17T08:52:58.000Z</time>
      </trkpt>
      <trkpt lat="43.69057" lon="5.39221">
        <ele>170.005934</ele>
        <time>2021-09-17T08:53:05.000Z</time>
      </trkpt>
      <trkpt lat="43.69044" lon="5.39239">
        <ele>170.112608</ele>
        <time>2021-09-17T08:53:09.000Z</time>
      </trkpt>
      <trkpt lat="43.69041" lon="5.39243">
        <ele>170.136496</ele>
        <time>2021-09-17T08:53:10.000Z</time>
      </trkpt>
      <trkpt lat="43.69021" lon="5.3927">
        <ele>170.298935</ele>
        <time>2021-09-17T08:53:17.000Z</time>
      </trkpt>
      <trkpt lat="43.69004" lon="5.39293">
        <ele>170.434523</ele>
        <time>2021-09-17T08:53:23.000Z</time>
      </trkpt>
      <trkpt lat="43.68984" lon="5.39319">
        <ele>170.649167</ele>
        <time>2021-09-17T08:53:30.000Z</time>
      </trkpt>
      <trkpt lat="43.68963" lon="5.39346">
        <ele>170.90345</ele>
        <time>2021-09-17T08:53:37.000Z</time>
      </trkpt>
      <trkpt lat="43.68941" lon="5.39373">
        <ele>171.172448</ele>
        <time>2021-09-17T08:53:45.000Z</time>
      </trkpt>
      <trkpt lat="43.68922" lon="5.39394">
        <ele>171.396088</ele>
        <time>2021-09-17T08:53:52.000Z</time>
      </trkpt>
      <trkpt lat="43.68893" lon="5.39412">
        <ele>171.679407</ele>
        <time>2021-09-17T08:54:01.000Z</time>
      </trkpt>
      <trkpt lat="43.68875" lon="5.3942">
        <ele>171.853632</ele>
        <time>2021-09-17T08:54:07.000Z</time>
      </trkpt>
      <trkpt lat="43.68854" lon="5.39429">
        <ele>172.054562</ele>
        <time>2021-09-17T08:54:14.000Z</time>
      </trkpt>
      <trkpt lat="43.6884" lon="5.39435">
        <ele>172.243577</ele>
        <time>2021-09-17T08:54:19.000Z</time>
      </trkpt>
      <trkpt lat="43.68824" lon="5.39441">
        <ele>172.530298</ele>
        <time>2021-09-17T08:54:24.000Z</time>
      </trkpt>
      <trkpt lat="43.68805" lon="5.39449">
        <ele>172.882368</ele>
        <time>2021-09-17T08:54:30.000Z</time>
      </trkpt>
      <trkpt lat="43.6878" lon="5.39459">
        <ele>173.357452</ele>
        <time>2021-09-17T08:54:38.000Z</time>
      </trkpt>
      <trkpt lat="43.68762" lon="5.39466">
        <ele>173.700457</ele>
        <time>2021-09-17T08:54:44.000Z</time>
      </trkpt>
      <trkpt lat="43.68745" lon="5.39473">
        <ele>174.009922</ele>
        <time>2021-09-17T08:54:49.000Z</time>
      </trkpt>
      <trkpt lat="43.68726" lon="5.3948">
        <ele>174.365715</ele>
        <time>2021-09-17T08:54:55.000Z</time>
      </trkpt>
      <trkpt lat="43.68704" lon="5.3949">
        <ele>174.784516</ele>
        <time>2021-09-17T08:55:01.000Z</time>
      </trkpt>
      <trkpt lat="43.68706" lon="5.39491">
        <ele>174.835801</ele>
        <time>2021-09-17T08:55:06.000Z</time>
      </trkpt>
      <trkpt lat="43.68706" lon="5.39491">
        <ele>174.835801</ele>
        <time>2021-09-17T08:55:07.000Z</time>
      </trkpt>
      <trkpt lat="43.68703" lon="5.39494">
        <ele>174.910842</ele>
        <time>2021-09-17T08:55:41.000Z</time>
      </trkpt>
      <trkpt lat="43.68699" lon="5.39497">
        <ele>174.993733</ele>
        <time>2021-09-17T08:55:43.000Z</time>
      </trkpt>
      <trkpt lat="43.68684" lon="5.39508">
        <ele>175.289805</ele>
        <time>2021-09-17T08:55:48.000Z</time>
      </trkpt>
      <trkpt lat="43.68666" lon="5.39529">
        <ele>175.543435</ele>
        <time>2021-09-17T08:55:54.000Z</time>
      </trkpt>
      <trkpt lat="43.68651" lon="5.39552">
        <ele>175.74963</ele>
        <time>2021-09-17T08:55:59.000Z</time>
      </trkpt>
      <trkpt lat="43.68636" lon="5.39589">
        <ele>176.038933</ele>
        <time>2021-09-17T08:56:05.000Z</time>
      </trkpt>
      <trkpt lat="43.68623" lon="5.39628">
        <ele>176.327751</ele>
        <time>2021-09-17T08:56:11.000Z</time>
      </trkpt>
      <trkpt lat="43.68607" lon="5.39677">
        <ele>176.696277</ele>
        <time>2021-09-17T08:56:18.000Z</time>
      </trkpt>
      <trkpt lat="43.68594" lon="5.39716">
        <ele>176.986102</ele>
        <time>2021-09-17T08:56:23.000Z</time>
      </trkpt>
      <trkpt lat="43.68565" lon="5.39779">
        <ele>177.230394</ele>
        <time>2021-09-17T08:56:31.000Z</time>
      </trkpt>
      <trkpt lat="43.68541" lon="5.39819">
        <ele>177.379012</ele>
        <time>2021-09-17T08:56:37.000Z</time>
      </trkpt>
      <trkpt lat="43.68518" lon="5.39854">
        <ele>177.51501</ele>
        <time>2021-09-17T08:56:43.000Z</time>
      </trkpt>
      <trkpt lat="43.68501" lon="5.39882">
        <ele>177.620676</ele>
        <time>2021-09-17T08:56:48.000Z</time>
      </trkpt>
      <trkpt lat="43.68494" lon="5.39893">
        <ele>177.660166</ele>
        <time>2021-09-17T08:56:50.000Z</time>
      </trkpt>
      <trkpt lat="43.68475" lon="5.39923">
        <ele>177.678619</ele>
        <time>2021-09-17T08:56:56.000Z</time>
      </trkpt>
      <trkpt lat="43.68457" lon="5.39953">
        <ele>177.286832</ele>
        <time>2021-09-17T08:57:02.000Z</time>
      </trkpt>
      <trkpt lat="43.68433" lon="5.3999">
        <ele>176.79694</ele>
        <time>2021-09-17T08:57:09.000Z</time>
      </trkpt>
      <trkpt lat="43.6843" lon="5.39995">
        <ele>176.728721</ele>
        <time>2021-09-17T08:57:10.000Z</time>
      </trkpt>
      <trkpt lat="43.68421" lon="5.4001">
        <ele>176.536146</ele>
        <time>2021-09-17T08:57:13.000Z</time>
      </trkpt>
      <trkpt lat="43.68411" lon="5.40026">
        <ele>176.320026</ele>
        <time>2021-09-17T08:57:16.000Z</time>
      </trkpt>
      <trkpt lat="43.68408" lon="5.40031">
        <ele>176.252694</ele>
        <time>2021-09-17T08:57:17.000Z</time>
      </trkpt>
      <trkpt lat="43.68389" lon="5.40061">
        <ele>175.860296</ele>
        <time>2021-09-17T08:57:22.000Z</time>
      </trkpt>
      <trkpt lat="43.68385" lon="5.40068">
        <ele>175.76929</ele>
        <time>2021-09-17T08:57:23.000Z</time>
      </trkpt>
      <trkpt lat="43.68372" lon="5.40089">
        <ele>175.487367</ele>
        <time>2021-09-17T08:57:26.000Z</time>
      </trkpt>
      <trkpt lat="43.6836" lon="5.40108">
        <ele>175.240188</ele>
        <time>2021-09-17T08:57:29.000Z</time>
      </trkpt>
      <trkpt lat="43.68352" lon="5.4012">
        <ele>175.088775</ele>
        <time>2021-09-17T08:57:31.000Z</time>
      </trkpt>
      <trkpt lat="43.68336" lon="5.40145">
        <ele>174.77883</ele>
        <time>2021-09-17T08:57:35.000Z</time>
      </trkpt>
      <trkpt lat="43.68313" lon="5.40182">
        <ele>174.315477</ele>
        <time>2021-09-17T08:57:41.000Z</time>
      </trkpt>
      <trkpt lat="43.68289" lon="5.40222">
        <ele>173.832375</ele>
        <time>2021-09-17T08:57:48.000Z</time>
      </trkpt>
      <trkpt lat="43.68266" lon="5.40261">
        <ele>173.353101</ele>
        <time>2021-09-17T08:57:56.000Z</time>
      </trkpt>
      <trkpt lat="43.68244" lon="5.40297">
        <ele>172.962379</ele>
        <time>2021-09-17T08:58:04.000Z</time>
      </trkpt>
      <trkpt lat="43.68223" lon="5.40331">
        <ele>173.626958</ele>
        <time>2021-09-17T08:58:12.000Z</time>
      </trkpt>
      <trkpt lat="43.68201" lon="5.40368">
        <ele>174.325083</ele>
        <time>2021-09-17T08:58:20.000Z</time>
      </trkpt>
      <trkpt lat="43.68183" lon="5.40397">
        <ele>174.886958</ele>
        <time>2021-09-17T08:58:27.000Z</time>
      </trkpt>
      <trkpt lat="43.6816" lon="5.40433">
        <ele>175.59768</ele>
        <time>2021-09-17T08:58:36.000Z</time>
      </trkpt>
      <trkpt lat="43.6814" lon="5.40463">
        <ele>176.207401</ele>
        <time>2021-09-17T08:58:45.000Z</time>
      </trkpt>
      <trkpt lat="43.68119" lon="5.40494">
        <ele>176.945838</ele>
        <time>2021-09-17T08:58:55.000Z</time>
      </trkpt>
      <trkpt lat="43.681" lon="5.40521">
        <ele>177.781544</ele>
        <time>2021-09-17T08:59:04.000Z</time>
      </trkpt>
      <trkpt lat="43.68088" lon="5.4054">
        <ele>178.334794</ele>
        <time>2021-09-17T08:59:10.000Z</time>
      </trkpt>
      <trkpt lat="43.68066" lon="5.40573">
        <ele>179.34287</ele>
        <time>2021-09-17T08:59:20.000Z</time>
      </trkpt>
      <trkpt lat="43.68048" lon="5.406">
        <ele>180.162017</ele>
        <time>2021-09-17T08:59:28.000Z</time>
      </trkpt>
      <trkpt lat="43.6803" lon="5.40626">
        <ele>180.963721</ele>
        <time>2021-09-17T08:59:35.000Z</time>
      </trkpt>
      <trkpt lat="43.68012" lon="5.40655">
        <ele>181.812146</ele>
        <time>2021-09-17T08:59:42.000Z</time>
      </trkpt>
      <trkpt lat="43.67988" lon="5.40691">
        <ele>182.482036</ele>
        <time>2021-09-17T08:59:50.000Z</time>
      </trkpt>
      <trkpt lat="43.67954" lon="5.40743">
        <ele>183.162858</ele>
        <time>2021-09-17T09:00:00.000Z</time>
      </trkpt>
      <trkpt lat="43.67928" lon="5.40785">
        <ele>183.712792</ele>
        <time>2021-09-17T09:00:08.000Z</time>
      </trkpt>
      <trkpt lat="43.67904" lon="5.40825">
        <ele>184.22001</ele>
        <time>2021-09-17T09:00:15.000Z</time>
      </trkpt>
      <trkpt lat="43.67894" lon="5.40841">
        <ele>184.432346</ele>
        <time>2021-09-17T09:00:18.000Z</time>
      </trkpt>
      <trkpt lat="43.67891" lon="5.40846">
        <ele>184.500444</ele>
        <time>2021-09-17T09:00:19.000Z</time>
      </trkpt>
      <trkpt lat="43.6788" lon="5.40865">
        <ele>184.648842</ele>
        <time>2021-09-17T09:00:22.000Z</time>
      </trkpt>
      <trkpt lat="43.67872" lon="5.40878">
        <ele>184.714617</ele>
        <time>2021-09-17T09:00:24.000Z</time>
      </trkpt>
      <trkpt lat="43.67841" lon="5.40917">
        <ele>184.943948</ele>
        <time>2021-09-17T09:00:31.000Z</time>
      </trkpt>
      <trkpt lat="43.678" lon="5.40956">
        <ele>185.213015</ele>
        <time>2021-09-17T09:00:40.000Z</time>
      </trkpt>
      <trkpt lat="43.6777" lon="5.4099">
        <ele>185.424621</ele>
        <time>2021-09-17T09:00:48.000Z</time>
      </trkpt>
      <trkpt lat="43.67747" lon="5.41024">
        <ele>185.607839</ele>
        <time>2021-09-17T09:00:55.000Z</time>
      </trkpt>
      <trkpt lat="43.67726" lon="5.41061">
        <ele>185.799713</ele>
        <time>2021-09-17T09:01:03.000Z</time>
      </trkpt>
      <trkpt lat="43.67713" lon="5.41091">
        <ele>185.939226</ele>
        <time>2021-09-17T09:01:10.000Z</time>
      </trkpt>
      <trkpt lat="43.67702" lon="5.41124">
        <ele>186.08746</ele>
        <time>2021-09-17T09:01:16.000Z</time>
      </trkpt>
      <trkpt lat="43.67682" lon="5.41153">
        <ele>186.249892</ele>
        <time>2021-09-17T09:01:22.000Z</time>
      </trkpt>
      <trkpt lat="43.6766" lon="5.41186">
        <ele>186.431444</ele>
        <time>2021-09-17T09:01:29.000Z</time>
      </trkpt>
      <trkpt lat="43.67642" lon="5.41216">
        <ele>186.591197</ele>
        <time>2021-09-17T09:01:35.000Z</time>
      </trkpt>
      <trkpt lat="43.67609" lon="5.41252">
        <ele>186.890875</ele>
        <time>2021-09-17T09:01:44.000Z</time>
      </trkpt>
      <trkpt lat="43.67579" lon="5.41281">
        <ele>187.149585</ele>
        <time>2021-09-17T09:01:52.000Z</time>
      </trkpt>
      <trkpt lat="43.67548" lon="5.41311">
        <ele>187.412333</ele>
        <time>2021-09-17T09:02:00.000Z</time>
      </trkpt>
      <trkpt lat="43.67502" lon="5.41354">
        <ele>187.800531</ele>
        <time>2021-09-17T09:02:11.000Z</time>
      </trkpt>
      <trkpt lat="43.67481" lon="5.41375">
        <ele>187.919697</ele>
        <time>2021-09-17T09:02:16.000Z</time>
      </trkpt>
      <trkpt lat="43.67473" lon="5.41383">
        <ele>187.960092</ele>
        <time>2021-09-17T09:02:18.000Z</time>
      </trkpt>
      <trkpt lat="43.67428" lon="5.41426">
        <ele>188.173749</ele>
        <time>2021-09-17T09:02:28.000Z</time>
      </trkpt>
      <trkpt lat="43.67398" lon="5.41455">
        <ele>188.31927</ele>
        <time>2021-09-17T09:02:35.000Z</time>
      </trkpt>
      <trkpt lat="43.67365" lon="5.41486">
        <ele>188.475986</ele>
        <time>2021-09-17T09:02:43.000Z</time>
      </trkpt>
      <trkpt lat="43.67321" lon="5.41534">
        <ele>188.763593</ele>
        <time>2021-09-17T09:02:54.000Z</time>
      </trkpt>
      <trkpt lat="43.67277" lon="5.41582">
        <ele>189.084388</ele>
        <time>2021-09-17T09:03:05.000Z</time>
      </trkpt>
      <trkpt lat="43.67273" lon="5.41587">
        <ele>189.113645</ele>
        <time>2021-09-17T09:03:06.000Z</time>
      </trkpt>
      <trkpt lat="43.67235" lon="5.41629">
        <ele>189.394341</ele>
        <time>2021-09-17T09:03:16.000Z</time>
      </trkpt>
      <trkpt lat="43.67206" lon="5.4166">
        <ele>189.614322</ele>
        <time>2021-09-17T09:03:24.000Z</time>
      </trkpt>
      <trkpt lat="43.67187" lon="5.4168">
        <ele>189.796366</ele>
        <time>2021-09-17T09:03:30.000Z</time>
      </trkpt>
      <trkpt lat="43.67165" lon="5.41704">
        <ele>190.011996</ele>
        <time>2021-09-17T09:03:37.000Z</time>
      </trkpt>
      <trkpt lat="43.67142" lon="5.41727">
        <ele>190.233486</ele>
        <time>2021-09-17T09:03:44.000Z</time>
      </trkpt>
      <trkpt lat="43.67138" lon="5.4173">
        <ele>190.267102</ele>
        <time>2021-09-17T09:03:45.000Z</time>
      </trkpt>
      <trkpt lat="43.67115" lon="5.41746">
        <ele>190.466713</ele>
        <time>2021-09-17T09:03:51.000Z</time>
      </trkpt>
      <trkpt lat="43.67096" lon="5.41757">
        <ele>190.622832</ele>
        <time>2021-09-17T09:03:56.000Z</time>
      </trkpt>
      <trkpt lat="43.6707" lon="5.41772">
        <ele>190.841889</ele>
        <time>2021-09-17T09:04:03.000Z</time>
      </trkpt>
      <trkpt lat="43.67044" lon="5.41786">
        <ele>191.049312</ele>
        <time>2021-09-17T09:04:10.000Z</time>
      </trkpt>
      <trkpt lat="43.67022" lon="5.41799">
        <ele>191.224055</ele>
        <time>2021-09-17T09:04:16.000Z</time>
      </trkpt>
      <trkpt lat="43.66997" lon="5.41815">
        <ele>191.422314</ele>
        <time>2021-09-17T09:04:23.000Z</time>
      </trkpt>
      <trkpt lat="43.66993" lon="5.41817">
        <ele>191.454548</ele>
        <time>2021-09-17T09:04:24.000Z</time>
      </trkpt>
      <trkpt lat="43.66977" lon="5.41828">
        <ele>191.582821</ele>
        <time>2021-09-17T09:04:28.000Z</time>
      </trkpt>
      <trkpt lat="43.66973" lon="5.4183">
        <ele>191.612627</ele>
        <time>2021-09-17T09:04:29.000Z</time>
      </trkpt>
      <trkpt lat="43.66951" lon="5.41846">
        <ele>191.797558</ele>
        <time>2021-09-17T09:04:35.000Z</time>
      </trkpt>
      <trkpt lat="43.66926" lon="5.41872">
        <ele>192.024347</ele>
        <time>2021-09-17T09:04:42.000Z</time>
      </trkpt>
      <trkpt lat="43.669" lon="5.41902">
        <ele>192.270976</ele>
        <time>2021-09-17T09:04:49.000Z</time>
      </trkpt>
      <trkpt lat="43.66893" lon="5.41911">
        <ele>192.301422</ele>
        <time>2021-09-17T09:04:51.000Z</time>
      </trkpt>
      <trkpt lat="43.66884" lon="5.41925">
        <ele>192.348771</ele>
        <time>2021-09-17T09:04:54.000Z</time>
      </trkpt>
      <trkpt lat="43.66869" lon="5.4196">
        <ele>192.444761</ele>
        <time>2021-09-17T09:05:00.000Z</time>
      </trkpt>
      <trkpt lat="43.66858" lon="5.41987">
        <ele>192.520902</ele>
        <time>2021-09-17T09:05:05.000Z</time>
      </trkpt>
      <trkpt lat="43.66851" lon="5.42003">
        <ele>192.565435</ele>
        <time>2021-09-17T09:05:08.000Z</time>
      </trkpt>
      <trkpt lat="43.66841" lon="5.42028">
        <ele>192.63453</ele>
        <time>2021-09-17T09:05:12.000Z</time>
      </trkpt>
      <trkpt lat="43.66836" lon="5.42039">
        <ele>192.665345</ele>
        <time>2021-09-17T09:05:14.000Z</time>
      </trkpt>
      <trkpt lat="43.66832" lon="5.42049">
        <ele>192.693991</ele>
        <time>2021-09-17T09:05:16.000Z</time>
      </trkpt>
      <trkpt lat="43.66824" lon="5.42067">
        <ele>192.744029</ele>
        <time>2021-09-17T09:05:19.000Z</time>
      </trkpt>
      <trkpt lat="43.66812" lon="5.42098">
        <ele>192.82922</ele>
        <time>2021-09-17T09:05:24.000Z</time>
      </trkpt>
      <trkpt lat="43.66793" lon="5.42143">
        <ele>192.986484</ele>
        <time>2021-09-17T09:05:31.000Z</time>
      </trkpt>
      <trkpt lat="43.6679" lon="5.4215">
        <ele>193.009401</ele>
        <time>2021-09-17T09:05:32.000Z</time>
      </trkpt>
      <trkpt lat="43.66784" lon="5.42169">
        <ele>193.080049</ele>
        <time>2021-09-17T09:05:35.000Z</time>
      </trkpt>
      <trkpt lat="43.66782" lon="5.42177">
        <ele>193.105569</ele>
        <time>2021-09-17T09:05:36.000Z</time>
      </trkpt>
      <trkpt lat="43.66773" lon="5.4222">
        <ele>193.252357</ele>
        <time>2021-09-17T09:05:42.000Z</time>
      </trkpt>
      <trkpt lat="43.66772" lon="5.42226">
        <ele>193.274401</ele>
        <time>2021-09-17T09:05:43.000Z</time>
      </trkpt>
      <trkpt lat="43.66768" lon="5.42246">
        <ele>193.34097</ele>
        <time>2021-09-17T09:05:46.000Z</time>
      </trkpt>
      <trkpt lat="43.66766" lon="5.42253">
        <ele>193.363767</ele>
        <time>2021-09-17T09:05:47.000Z</time>
      </trkpt>
      <trkpt lat="43.66763" lon="5.42267">
        <ele>193.413573</ele>
        <time>2021-09-17T09:05:49.000Z</time>
      </trkpt>
      <trkpt lat="43.6676" lon="5.42282">
        <ele>193.4635</ele>
        <time>2021-09-17T09:05:51.000Z</time>
      </trkpt>
      <trkpt lat="43.66755" lon="5.42309">
        <ele>193.555699</ele>
        <time>2021-09-17T09:05:55.000Z</time>
      </trkpt>
      <trkpt lat="43.66753" lon="5.42316">
        <ele>193.57881</ele>
        <time>2021-09-17T09:05:56.000Z</time>
      </trkpt>
      <trkpt lat="43.66745" lon="5.42351">
        <ele>193.708259</ele>
        <time>2021-09-17T09:06:01.000Z</time>
      </trkpt>
      <trkpt lat="43.66734" lon="5.42383">
        <ele>193.870239</ele>
        <time>2021-09-17T09:06:06.000Z</time>
      </trkpt>
      <trkpt lat="43.66729" lon="5.42394">
        <ele>193.930854</ele>
        <time>2021-09-17T09:06:08.000Z</time>
      </trkpt>
      <trkpt lat="43.66708" lon="5.42444">
        <ele>194.193521</ele>
        <time>2021-09-17T09:06:16.000Z</time>
      </trkpt>
      <trkpt lat="43.667" lon="5.42463">
        <ele>194.293036</ele>
        <time>2021-09-17T09:06:19.000Z</time>
      </trkpt>
      <trkpt lat="43.66695" lon="5.42475">
        <ele>194.3593</ele>
        <time>2021-09-17T09:06:21.000Z</time>
      </trkpt>
      <trkpt lat="43.66682" lon="5.42507">
        <ele>194.527305</ele>
        <time>2021-09-17T09:06:26.000Z</time>
      </trkpt>
      <trkpt lat="43.66665" lon="5.42544">
        <ele>194.730123</ele>
        <time>2021-09-17T09:06:32.000Z</time>
      </trkpt>
      <trkpt lat="43.66646" lon="5.42588">
        <ele>194.904366</ele>
        <time>2021-09-17T09:06:39.000Z</time>
      </trkpt>
      <trkpt lat="43.66641" lon="5.426">
        <ele>194.940354</ele>
        <time>2021-09-17T09:06:41.000Z</time>
      </trkpt>
      <trkpt lat="43.66633" lon="5.42619">
        <ele>194.996474</ele>
        <time>2021-09-17T09:06:44.000Z</time>
      </trkpt>
      <trkpt lat="43.6663" lon="5.42625">
        <ele>195.016158</ele>
        <time>2021-09-17T09:06:45.000Z</time>
      </trkpt>
      <trkpt lat="43.66619" lon="5.4265">
        <ele>195.092369</ele>
        <time>2021-09-17T09:06:49.000Z</time>
      </trkpt>
      <trkpt lat="43.66601" lon="5.42694">
        <ele>195.22533</ele>
        <time>2021-09-17T09:06:56.000Z</time>
      </trkpt>
      <trkpt lat="43.66583" lon="5.42732">
        <ele>195.340984</ele>
        <time>2021-09-17T09:07:02.000Z</time>
      </trkpt>
      <trkpt lat="43.6658" lon="5.42738">
        <ele>195.360594</ele>
        <time>2021-09-17T09:07:03.000Z</time>
      </trkpt>
      <trkpt lat="43.66567" lon="5.42763">
        <ele>195.440292</ele>
        <time>2021-09-17T09:07:07.000Z</time>
      </trkpt>
      <trkpt lat="43.66546" lon="5.42804">
        <ele>195.641208</ele>
        <time>2021-09-17T09:07:14.000Z</time>
      </trkpt>
      <trkpt lat="43.66543" lon="5.4281">
        <ele>195.669877</ele>
        <time>2021-09-17T09:07:15.000Z</time>
      </trkpt>
      <trkpt lat="43.66535" lon="5.42827">
        <ele>195.761537</ele>
        <time>2021-09-17T09:07:18.000Z</time>
      </trkpt>
      <trkpt lat="43.66529" lon="5.42839">
        <ele>195.825949</ele>
        <time>2021-09-17T09:07:20.000Z</time>
      </trkpt>
      <trkpt lat="43.66524" lon="5.42849">
        <ele>195.87904</ele>
        <time>2021-09-17T09:07:22.000Z</time>
      </trkpt>
      <trkpt lat="43.66518" lon="5.4286">
        <ele>195.936737</ele>
        <time>2021-09-17T09:07:24.000Z</time>
      </trkpt>
      <trkpt lat="43.66513" lon="5.4287">
        <ele>195.989469</ele>
        <time>2021-09-17T09:07:26.000Z</time>
      </trkpt>
      <trkpt lat="43.66511" lon="5.42875">
        <ele>196.018138</ele>
        <time>2021-09-17T09:07:27.000Z</time>
      </trkpt>
      <trkpt lat="43.66505" lon="5.42885">
        <ele>196.071932</ele>
        <time>2021-09-17T09:07:29.000Z</time>
      </trkpt>
      <trkpt lat="43.66497" lon="5.42903">
        <ele>196.164669</ele>
        <time>2021-09-17T09:07:32.000Z</time>
      </trkpt>
      <trkpt lat="43.6649" lon="5.42916">
        <ele>196.231564</ele>
        <time>2021-09-17T09:07:34.000Z</time>
      </trkpt>
      <trkpt lat="43.66485" lon="5.42929">
        <ele>196.299702</ele>
        <time>2021-09-17T09:07:36.000Z</time>
      </trkpt>
      <trkpt lat="43.66476" lon="5.42957">
        <ele>196.431112</ele>
        <time>2021-09-17T09:07:40.000Z</time>
      </trkpt>
      <trkpt lat="43.66466" lon="5.43004">
        <ele>196.723293</ele>
        <time>2021-09-17T09:07:47.000Z</time>
      </trkpt>
      <trkpt lat="43.66465" lon="5.43009">
        <ele>196.769851</ele>
        <time>2021-09-17T09:07:48.000Z</time>
      </trkpt>
      <trkpt lat="43.6646" lon="5.4303">
        <ele>196.946127</ele>
        <time>2021-09-17T09:07:51.000Z</time>
      </trkpt>
      <trkpt lat="43.66454" lon="5.43058">
        <ele>197.184221</ele>
        <time>2021-09-17T09:07:55.000Z</time>
      </trkpt>
      <trkpt lat="43.66452" lon="5.43065">
        <ele>197.241764</ele>
        <time>2021-09-17T09:07:56.000Z</time>
      </trkpt>
      <trkpt lat="43.66446" lon="5.4309">
        <ele>197.453655</ele>
        <time>2021-09-17T09:08:00.000Z</time>
      </trkpt>
      <trkpt lat="43.66436" lon="5.43126">
        <ele>197.766189</ele>
        <time>2021-09-17T09:08:06.000Z</time>
      </trkpt>
      <trkpt lat="43.66425" lon="5.43156">
        <ele>198.037506</ele>
        <time>2021-09-17T09:08:11.000Z</time>
      </trkpt>
      <trkpt lat="43.66416" lon="5.43181">
        <ele>198.267948</ele>
        <time>2021-09-17T09:08:15.000Z</time>
      </trkpt>
      <trkpt lat="43.66403" lon="5.4322">
        <ele>198.634197</ele>
        <time>2021-09-17T09:08:21.000Z</time>
      </trkpt>
      <trkpt lat="43.66397" lon="5.43238">
        <ele>198.850359</ele>
        <time>2021-09-17T09:08:24.000Z</time>
      </trkpt>
      <trkpt lat="43.66393" lon="5.43249">
        <ele>198.987039</ele>
        <time>2021-09-17T09:08:26.000Z</time>
      </trkpt>
      <trkpt lat="43.66384" lon="5.43277">
        <ele>199.342579</ele>
        <time>2021-09-17T09:08:31.000Z</time>
      </trkpt>
      <trkpt lat="43.66382" lon="5.43282">
        <ele>199.402126</ele>
        <time>2021-09-17T09:08:32.000Z</time>
      </trkpt>
      <trkpt lat="43.66377" lon="5.43286">
        <ele>199.495167</ele>
        <time>2021-09-17T09:08:33.000Z</time>
      </trkpt>
      <trkpt lat="43.66371" lon="5.43283">
        <ele>199.591857</ele>
        <time>2021-09-17T09:08:35.000Z</time>
      </trkpt>
      <trkpt lat="43.66357" lon="5.43274">
        <ele>199.831892</ele>
        <time>2021-09-17T09:08:40.000Z</time>
      </trkpt>
      <trkpt lat="43.66332" lon="5.43259">
        <ele>200.263424</ele>
        <time>2021-09-17T09:08:48.000Z</time>
      </trkpt>
      <trkpt lat="43.66329" lon="5.43257">
        <ele>200.312485</ele>
        <time>2021-09-17T09:08:49.000Z</time>
      </trkpt>
      <trkpt lat="43.66321" lon="5.43264">
        <ele>200.452182</ele>
        <time>2021-09-17T09:08:51.000Z</time>
      </trkpt>
      <trkpt lat="43.66321" lon="5.43269">
        <ele>200.505488</ele>
        <time>2021-09-17T09:08:52.000Z</time>
      </trkpt>
      <trkpt lat="43.66319" lon="5.43279">
        <ele>200.621228</ele>
        <time>2021-09-17T09:08:54.000Z</time>
      </trkpt>
      <trkpt lat="43.66318" lon="5.43284">
        <ele>200.680026</ele>
        <time>2021-09-17T09:08:55.000Z</time>
      </trkpt>
      <trkpt lat="43.66316" lon="5.43297">
        <ele>200.839586</ele>
        <time>2021-09-17T09:08:58.000Z</time>
      </trkpt>
      <trkpt lat="43.66311" lon="5.43325">
        <ele>201.160901</ele>
        <time>2021-09-17T09:09:03.000Z</time>
      </trkpt>
      <trkpt lat="43.6631" lon="5.43331">
        <ele>201.229178</ele>
        <time>2021-09-17T09:09:04.000Z</time>
      </trkpt>
      <trkpt lat="43.66307" lon="5.43347">
        <ele>201.406531</ele>
        <time>2021-09-17T09:09:07.000Z</time>
      </trkpt>
      <trkpt lat="43.66304" lon="5.43369">
        <ele>201.61487</ele>
        <time>2021-09-17T09:09:11.000Z</time>
      </trkpt>
      <trkpt lat="43.66303" lon="5.43375">
        <ele>201.670287</ele>
        <time>2021-09-17T09:09:12.000Z</time>
      </trkpt>
      <trkpt lat="43.66302" lon="5.43381">
        <ele>201.723641</ele>
        <time>2021-09-17T09:09:13.000Z</time>
      </trkpt>
      <trkpt lat="43.66298" lon="5.43402">
        <ele>201.920719</ele>
        <time>2021-09-17T09:09:17.000Z</time>
      </trkpt>
      <trkpt lat="43.66296" lon="5.43417">
        <ele>202.066228</ele>
        <time>2021-09-17T09:09:20.000Z</time>
      </trkpt>
      <trkpt lat="43.66292" lon="5.43423">
        <ele>202.138329</ele>
        <time>2021-09-17T09:09:21.000Z</time>
      </trkpt>
      <trkpt lat="43.66269" lon="5.43431">
        <ele>202.437277</ele>
        <time>2021-09-17T09:09:26.000Z</time>
      </trkpt>
      <trkpt lat="43.66248" lon="5.43437">
        <ele>202.713684</ele>
        <time>2021-09-17T09:09:31.000Z</time>
      </trkpt>
      <trkpt lat="43.66231" lon="5.43442">
        <ele>202.926652</ele>
        <time>2021-09-17T09:09:36.000Z</time>
      </trkpt>
      <trkpt lat="43.66229" lon="5.43446">
        <ele>202.969733</ele>
        <time>2021-09-17T09:09:37.000Z</time>
      </trkpt>
      <trkpt lat="43.66229" lon="5.43455">
        <ele>203.051751</ele>
        <time>2021-09-17T09:09:39.000Z</time>
      </trkpt>
      <trkpt lat="43.66226" lon="5.43481">
        <ele>203.29071</ele>
        <time>2021-09-17T09:09:45.000Z</time>
      </trkpt>
      <trkpt lat="43.66225" lon="5.43498">
        <ele>203.446423</ele>
        <time>2021-09-17T09:09:48.000Z</time>
      </trkpt>
      <trkpt lat="43.66223" lon="5.4351">
        <ele>203.562488</ele>
        <time>2021-09-17T09:09:50.000Z</time>
      </trkpt>
      <trkpt lat="43.6622" lon="5.43549">
        <ele>203.881473</ele>
        <time>2021-09-17T09:09:56.000Z</time>
      </trkpt>
      <trkpt lat="43.66218" lon="5.43571">
        <ele>204.061182</ele>
        <time>2021-09-17T09:10:00.000Z</time>
      </trkpt>
      <trkpt lat="43.66216" lon="5.43602">
        <ele>204.307604</ele>
        <time>2021-09-17T09:10:05.000Z</time>
      </trkpt>
      <trkpt lat="43.66213" lon="5.43635">
        <ele>204.577103</ele>
        <time>2021-09-17T09:10:10.000Z</time>
      </trkpt>
      <trkpt lat="43.6621" lon="5.43671">
        <ele>204.86598</ele>
        <time>2021-09-17T09:10:15.000Z</time>
      </trkpt>
      <trkpt lat="43.66209" lon="5.43677">
        <ele>204.912522</ele>
        <time>2021-09-17T09:10:16.000Z</time>
      </trkpt>
      <trkpt lat="43.66208" lon="5.43691">
        <ele>205.025648</ele>
        <time>2021-09-17T09:10:18.000Z</time>
      </trkpt>
      <trkpt lat="43.66205" lon="5.43732">
        <ele>205.349731</ele>
        <time>2021-09-17T09:10:23.000Z</time>
      </trkpt>
      <trkpt lat="43.66203" lon="5.43748">
        <ele>205.481315</ele>
        <time>2021-09-17T09:10:25.000Z</time>
      </trkpt>
      <trkpt lat="43.66202" lon="5.43766">
        <ele>205.623315</ele>
        <time>2021-09-17T09:10:27.000Z</time>
      </trkpt>
      <trkpt lat="43.66199" lon="5.43799">
        <ele>205.557807</ele>
        <time>2021-09-17T09:10:31.000Z</time>
      </trkpt>
      <trkpt lat="43.66197" lon="5.43816">
        <ele>205.5216</ele>
        <time>2021-09-17T09:10:33.000Z</time>
      </trkpt>
      <trkpt lat="43.66196" lon="5.43831">
        <ele>205.489688</ele>
        <time>2021-09-17T09:10:35.000Z</time>
      </trkpt>
      <trkpt lat="43.66193" lon="5.43872">
        <ele>205.401422</ele>
        <time>2021-09-17T09:10:40.000Z</time>
      </trkpt>
      <trkpt lat="43.66191" lon="5.43894">
        <ele>205.354718</ele>
        <time>2021-09-17T09:10:43.000Z</time>
      </trkpt>
      <trkpt lat="43.6619" lon="5.43901">
        <ele>205.338868</ele>
        <time>2021-09-17T09:10:44.000Z</time>
      </trkpt>
      <trkpt lat="43.66189" lon="5.43917">
        <ele>205.305744</ele>
        <time>2021-09-17T09:10:46.000Z</time>
      </trkpt>
      <trkpt lat="43.66188" lon="5.43943">
        <ele>205.24999</ele>
        <time>2021-09-17T09:10:49.000Z</time>
      </trkpt>
      <trkpt lat="43.66185" lon="5.43969">
        <ele>205.193447</ele>
        <time>2021-09-17T09:10:52.000Z</time>
      </trkpt>
      <trkpt lat="43.6618" lon="5.43983">
        <ele>205.159247</ele>
        <time>2021-09-17T09:10:54.000Z</time>
      </trkpt>
      <trkpt lat="43.66176" lon="5.43989">
        <ele>205.14284</ele>
        <time>2021-09-17T09:10:55.000Z</time>
      </trkpt>
      <trkpt lat="43.66169" lon="5.44003">
        <ele>205.107486</ele>
        <time>2021-09-17T09:10:57.000Z</time>
      </trkpt>
      <trkpt lat="43.66169" lon="5.4401">
        <ele>205.06475</ele>
        <time>2021-09-17T09:10:58.000Z</time>
      </trkpt>
      <trkpt lat="43.66169" lon="5.44017">
        <ele>204.99468</ele>
        <time>2021-09-17T09:10:59.000Z</time>
      </trkpt>
      <trkpt lat="43.6617" lon="5.4404">
        <ele>204.761329</ele>
        <time>2021-09-17T09:11:02.000Z</time>
      </trkpt>
      <trkpt lat="43.66178" lon="5.44054">
        <ele>204.579912</ele>
        <time>2021-09-17T09:11:04.000Z</time>
      </trkpt>
      <trkpt lat="43.66182" lon="5.44063">
        <ele>204.473567</ele>
        <time>2021-09-17T09:11:05.000Z</time>
      </trkpt>
      <trkpt lat="43.66185" lon="5.44071">
        <ele>204.377564</ele>
        <time>2021-09-17T09:11:06.000Z</time>
      </trkpt>
      <trkpt lat="43.66189" lon="5.4409">
        <ele>204.181838</ele>
        <time>2021-09-17T09:11:08.000Z</time>
      </trkpt>
      <trkpt lat="43.66192" lon="5.44148">
        <ele>203.592508</ele>
        <time>2021-09-17T09:11:14.000Z</time>
      </trkpt>
      <trkpt lat="43.66195" lon="5.44203">
        <ele>203.030579</ele>
        <time>2021-09-17T09:11:20.000Z</time>
      </trkpt>
      <trkpt lat="43.66196" lon="5.44262">
        <ele>202.39581</ele>
        <time>2021-09-17T09:11:26.000Z</time>
      </trkpt>
      <trkpt lat="43.66196" lon="5.44281">
        <ele>202.150437</ele>
        <time>2021-09-17T09:11:28.000Z</time>
      </trkpt>
      <trkpt lat="43.66194" lon="5.44309">
        <ele>201.804529</ele>
        <time>2021-09-17T09:11:31.000Z</time>
      </trkpt>
      <trkpt lat="43.66186" lon="5.44358">
        <ele>201.17173</ele>
        <time>2021-09-17T09:11:36.000Z</time>
      </trkpt>
      <trkpt lat="43.66178" lon="5.44394">
        <ele>200.696145</ele>
        <time>2021-09-17T09:11:40.000Z</time>
      </trkpt>
      <trkpt lat="43.6617" lon="5.44427">
        <ele>200.257822</ele>
        <time>2021-09-17T09:11:44.000Z</time>
      </trkpt>
      <trkpt lat="43.66163" lon="5.44452">
        <ele>199.927153</ele>
        <time>2021-09-17T09:11:47.000Z</time>
      </trkpt>
      <trkpt lat="43.6616" lon="5.44467">
        <ele>199.720734</ele>
        <time>2021-09-17T09:11:49.000Z</time>
      </trkpt>
      <trkpt lat="43.66157" lon="5.44475">
        <ele>199.607055</ele>
        <time>2021-09-17T09:11:50.000Z</time>
      </trkpt>
      <trkpt lat="43.66148" lon="5.445">
        <ele>199.325552</ele>
        <time>2021-09-17T09:11:53.000Z</time>
      </trkpt>
      <trkpt lat="43.66135" lon="5.4453">
        <ele>199.026967</ele>
        <time>2021-09-17T09:11:57.000Z</time>
      </trkpt>
      <trkpt lat="43.66128" lon="5.44544">
        <ele>198.880204</ele>
        <time>2021-09-17T09:11:59.000Z</time>
      </trkpt>
      <trkpt lat="43.66111" lon="5.4458">
        <ele>198.51697</ele>
        <time>2021-09-17T09:12:04.000Z</time>
      </trkpt>
      <trkpt lat="43.66109" lon="5.44587">
        <ele>198.451316</ele>
        <time>2021-09-17T09:12:05.000Z</time>
      </trkpt>
      <trkpt lat="43.66104" lon="5.44601">
        <ele>198.320789</ele>
        <time>2021-09-17T09:12:07.000Z</time>
      </trkpt>
      <trkpt lat="43.66102" lon="5.44609">
        <ele>198.251079</ele>
        <time>2021-09-17T09:12:08.000Z</time>
      </trkpt>
      <trkpt lat="43.66091" lon="5.44647">
        <ele>197.900369</ele>
        <time>2021-09-17T09:12:13.000Z</time>
      </trkpt>
      <trkpt lat="43.66086" lon="5.44678">
        <ele>197.629045</ele>
        <time>2021-09-17T09:12:17.000Z</time>
      </trkpt>
      <trkpt lat="43.66085" lon="5.44686">
        <ele>197.556555</ele>
        <time>2021-09-17T09:12:18.000Z</time>
      </trkpt>
      <trkpt lat="43.66084" lon="5.44725">
        <ele>197.322821</ele>
        <time>2021-09-17T09:12:23.000Z</time>
      </trkpt>
      <trkpt lat="43.66085" lon="5.44748">
        <ele>197.29711</ele>
        <time>2021-09-17T09:12:26.000Z</time>
      </trkpt>
      <trkpt lat="43.66085" lon="5.44755">
        <ele>197.288955</ele>
        <time>2021-09-17T09:12:27.000Z</time>
      </trkpt>
      <trkpt lat="43.66086" lon="5.44776">
        <ele>197.264161</ele>
        <time>2021-09-17T09:12:30.000Z</time>
      </trkpt>
      <trkpt lat="43.66087" lon="5.44799">
        <ele>197.237985</ele>
        <time>2021-09-17T09:12:33.000Z</time>
      </trkpt>
      <trkpt lat="43.66088" lon="5.44838">
        <ele>197.193429</ele>
        <time>2021-09-17T09:12:38.000Z</time>
      </trkpt>
      <trkpt lat="43.66093" lon="5.44907">
        <ele>197.114397</ele>
        <time>2021-09-17T09:12:46.000Z</time>
      </trkpt>
      <trkpt lat="43.66097" lon="5.44962">
        <ele>197.046321</ele>
        <time>2021-09-17T09:12:53.000Z</time>
      </trkpt>
      <trkpt lat="43.661" lon="5.45001">
        <ele>196.920274</ele>
        <time>2021-09-17T09:12:59.000Z</time>
      </trkpt>
      <trkpt lat="43.66104" lon="5.45025">
        <ele>196.838961</ele>
        <time>2021-09-17T09:13:04.000Z</time>
      </trkpt>
      <trkpt lat="43.66107" lon="5.45037">
        <ele>196.798565</ele>
        <time>2021-09-17T09:13:06.000Z</time>
      </trkpt>
      <trkpt lat="43.66108" lon="5.4505">
        <ele>196.757273</ele>
        <time>2021-09-17T09:13:08.000Z</time>
      </trkpt>
      <trkpt lat="43.66107" lon="5.45056">
        <ele>196.737206</ele>
        <time>2021-09-17T09:13:09.000Z</time>
      </trkpt>
      <trkpt lat="43.6611" lon="5.45075">
        <ele>196.674025</ele>
        <time>2021-09-17T09:13:12.000Z</time>
      </trkpt>
      <trkpt lat="43.6611" lon="5.45104">
        <ele>196.580293</ele>
        <time>2021-09-17T09:13:16.000Z</time>
      </trkpt>
      <trkpt lat="43.66111" lon="5.45119">
        <ele>196.53085</ele>
        <time>2021-09-17T09:13:18.000Z</time>
      </trkpt>
      <trkpt lat="43.66112" lon="5.45127">
        <ele>196.504818</ele>
        <time>2021-09-17T09:13:19.000Z</time>
      </trkpt>
      <trkpt lat="43.66113" lon="5.4516">
        <ele>196.39814</ele>
        <time>2021-09-17T09:13:23.000Z</time>
      </trkpt>
      <trkpt lat="43.66117" lon="5.45194">
        <ele>196.285432</ele>
        <time>2021-09-17T09:13:27.000Z</time>
      </trkpt>
      <trkpt lat="43.66118" lon="5.45203">
        <ele>196.25717</ele>
        <time>2021-09-17T09:13:28.000Z</time>
      </trkpt>
      <trkpt lat="43.66122" lon="5.45245">
        <ele>196.301492</ele>
        <time>2021-09-17T09:13:33.000Z</time>
      </trkpt>
      <trkpt lat="43.66123" lon="5.4526">
        <ele>196.323471</ele>
        <time>2021-09-17T09:13:35.000Z</time>
      </trkpt>
      <trkpt lat="43.66124" lon="5.45276">
        <ele>196.346445</ele>
        <time>2021-09-17T09:13:37.000Z</time>
      </trkpt>
      <trkpt lat="43.66127" lon="5.45329">
        <ele>196.419736</ele>
        <time>2021-09-17T09:13:43.000Z</time>
      </trkpt>
      <trkpt lat="43.66128" lon="5.45362">
        <ele>196.466587</ele>
        <time>2021-09-17T09:13:47.000Z</time>
      </trkpt>
      <trkpt lat="43.66128" lon="5.45371">
        <ele>196.478509</ele>
        <time>2021-09-17T09:13:48.000Z</time>
      </trkpt>
      <trkpt lat="43.66129" lon="5.45443">
        <ele>196.580361</ele>
        <time>2021-09-17T09:13:56.000Z</time>
      </trkpt>
      <trkpt lat="43.66117" lon="5.45492">
        <ele>196.311504</ele>
        <time>2021-09-17T09:14:02.000Z</time>
      </trkpt>
      <trkpt lat="43.66108" lon="5.45525">
        <ele>196.068306</ele>
        <time>2021-09-17T09:14:06.000Z</time>
      </trkpt>
      <trkpt lat="43.66102" lon="5.4554">
        <ele>195.94867</ele>
        <time>2021-09-17T09:14:08.000Z</time>
      </trkpt>
      <trkpt lat="43.66092" lon="5.45564">
        <ele>195.75515</ele>
        <time>2021-09-17T09:14:11.000Z</time>
      </trkpt>
      <trkpt lat="43.66073" lon="5.45612">
        <ele>195.379243</ele>
        <time>2021-09-17T09:14:17.000Z</time>
      </trkpt>
      <trkpt lat="43.66053" lon="5.4567">
        <ele>194.934755</ele>
        <time>2021-09-17T09:14:24.000Z</time>
      </trkpt>
      <trkpt lat="43.66039" lon="5.45708">
        <ele>194.610601</ele>
        <time>2021-09-17T09:14:29.000Z</time>
      </trkpt>
      <trkpt lat="43.66016" lon="5.4577">
        <ele>194.059042</ele>
        <time>2021-09-17T09:14:37.000Z</time>
      </trkpt>
      <trkpt lat="43.65996" lon="5.45823">
        <ele>193.5914</ele>
        <time>2021-09-17T09:14:44.000Z</time>
      </trkpt>
      <trkpt lat="43.65983" lon="5.45859">
        <ele>193.276506</ele>
        <time>2021-09-17T09:14:49.000Z</time>
      </trkpt>
      <trkpt lat="43.65972" lon="5.45888">
        <ele>193.019256</ele>
        <time>2021-09-17T09:14:53.000Z</time>
      </trkpt>
      <trkpt lat="43.65954" lon="5.45937">
        <ele>192.269813</ele>
        <time>2021-09-17T09:15:00.000Z</time>
      </trkpt>
      <trkpt lat="43.65943" lon="5.45967">
        <ele>191.749461</ele>
        <time>2021-09-17T09:15:05.000Z</time>
      </trkpt>
      <trkpt lat="43.65928" lon="5.46007">
        <ele>191.067734</ele>
        <time>2021-09-17T09:15:12.000Z</time>
      </trkpt>
      <trkpt lat="43.6592" lon="5.46029">
        <ele>190.683569</ele>
        <time>2021-09-17T09:15:17.000Z</time>
      </trkpt>
      <trkpt lat="43.65915" lon="5.46041">
        <ele>190.480929</ele>
        <time>2021-09-17T09:15:22.000Z</time>
      </trkpt>
      <trkpt lat="43.65915" lon="5.46042">
        <ele>190.467175</ele>
        <time>2021-09-17T09:15:25.000Z</time>
      </trkpt>
      <trkpt lat="43.65911" lon="5.46051">
        <ele>190.30444</ele>
        <time>2021-09-17T09:20:45.000Z</time>
      </trkpt>
      <trkpt lat="43.65911" lon="5.46054">
        <ele>190.265485</ele>
        <time>2021-09-17T09:20:46.000Z</time>
      </trkpt>
      <trkpt lat="43.65905" lon="5.46069">
        <ele>190.003748</ele>
        <time>2021-09-17T09:20:54.000Z</time>
      </trkpt>
      <trkpt lat="43.65899" lon="5.46085">
        <ele>189.729618</ele>
        <time>2021-09-17T09:20:58.000Z</time>
      </trkpt>
      <trkpt lat="43.65892" lon="5.46105">
        <ele>189.383995</ele>
        <time>2021-09-17T09:21:02.000Z</time>
      </trkpt>
      <trkpt lat="43.65888" lon="5.46115">
        <ele>189.20982</ele>
        <time>2021-09-17T09:21:04.000Z</time>
      </trkpt>
      <trkpt lat="43.65881" lon="5.46134">
        <ele>189.108155</ele>
        <time>2021-09-17T09:21:08.000Z</time>
      </trkpt>
      <trkpt lat="43.65879" lon="5.4614">
        <ele>189.102062</ele>
        <time>2021-09-17T09:21:09.000Z</time>
      </trkpt>
      <trkpt lat="43.65863" lon="5.46183">
        <ele>189.055726</ele>
        <time>2021-09-17T09:21:16.000Z</time>
      </trkpt>
      <trkpt lat="43.65847" lon="5.46227">
        <ele>189.009076</ele>
        <time>2021-09-17T09:21:23.000Z</time>
      </trkpt>
      <trkpt lat="43.65832" lon="5.46268">
        <ele>188.965799</ele>
        <time>2021-09-17T09:21:29.000Z</time>
      </trkpt>
      <trkpt lat="43.65812" lon="5.46323">
        <ele>188.906734</ele>
        <time>2021-09-17T09:21:37.000Z</time>
      </trkpt>
      <trkpt lat="43.65796" lon="5.46365">
        <ele>188.953093</ele>
        <time>2021-09-17T09:21:43.000Z</time>
      </trkpt>
      <trkpt lat="43.65788" lon="5.46387">
        <ele>189.016564</ele>
        <time>2021-09-17T09:21:46.000Z</time>
      </trkpt>
      <trkpt lat="43.65783" lon="5.46402">
        <ele>189.059575</ele>
        <time>2021-09-17T09:21:48.000Z</time>
      </trkpt>
      <trkpt lat="43.65758" lon="5.4647">
        <ele>189.255472</ele>
        <time>2021-09-17T09:21:57.000Z</time>
      </trkpt>
      <trkpt lat="43.6574" lon="5.46519">
        <ele>189.395307</ele>
        <time>2021-09-17T09:22:04.000Z</time>
      </trkpt>
      <trkpt lat="43.65722" lon="5.46568">
        <ele>189.535731</ele>
        <time>2021-09-17T09:22:11.000Z</time>
      </trkpt>
      <trkpt lat="43.65706" lon="5.46611">
        <ele>189.638938</ele>
        <time>2021-09-17T09:22:17.000Z</time>
      </trkpt>
      <trkpt lat="43.65687" lon="5.46662">
        <ele>189.762367</ele>
        <time>2021-09-17T09:22:24.000Z</time>
      </trkpt>
      <trkpt lat="43.65675" lon="5.46696">
        <ele>189.844564</ele>
        <time>2021-09-17T09:22:29.000Z</time>
      </trkpt>
      <trkpt lat="43.65656" lon="5.46748">
        <ele>189.970844</ele>
        <time>2021-09-17T09:22:36.000Z</time>
      </trkpt>
      <trkpt lat="43.65637" lon="5.468">
        <ele>190.070997</ele>
        <time>2021-09-17T09:22:43.000Z</time>
      </trkpt>
      <trkpt lat="43.6562" lon="5.46845">
        <ele>190.09792</ele>
        <time>2021-09-17T09:22:49.000Z</time>
      </trkpt>
      <trkpt lat="43.6561" lon="5.46873">
        <ele>190.11528</ele>
        <time>2021-09-17T09:22:53.000Z</time>
      </trkpt>
      <trkpt lat="43.65607" lon="5.46881">
        <ele>190.119981</ele>
        <time>2021-09-17T09:22:54.000Z</time>
      </trkpt>
      <trkpt lat="43.65582" lon="5.46948">
        <ele>190.160523</ele>
        <time>2021-09-17T09:23:03.000Z</time>
      </trkpt>
      <trkpt lat="43.65572" lon="5.46977">
        <ele>190.178177</ele>
        <time>2021-09-17T09:23:07.000Z</time>
      </trkpt>
      <trkpt lat="43.65569" lon="5.46984">
        <ele>190.182685</ele>
        <time>2021-09-17T09:23:08.000Z</time>
      </trkpt>
      <trkpt lat="43.65559" lon="5.47012">
        <ele>190.161015</ele>
        <time>2021-09-17T09:23:12.000Z</time>
      </trkpt>
      <trkpt lat="43.65545" lon="5.47047">
        <ele>189.893555</ele>
        <time>2021-09-17T09:23:17.000Z</time>
      </trkpt>
      <trkpt lat="43.65534" lon="5.47079">
        <ele>189.659315</ele>
        <time>2021-09-17T09:23:21.000Z</time>
      </trkpt>
      <trkpt lat="43.65517" lon="5.47124">
        <ele>189.31966</ele>
        <time>2021-09-17T09:23:27.000Z</time>
      </trkpt>
      <trkpt lat="43.65499" lon="5.47174">
        <ele>188.947798</ele>
        <time>2021-09-17T09:23:34.000Z</time>
      </trkpt>
      <trkpt lat="43.6548" lon="5.47224">
        <ele>188.57576</ele>
        <time>2021-09-17T09:23:41.000Z</time>
      </trkpt>
      <trkpt lat="43.65464" lon="5.47269">
        <ele>188.308177</ele>
        <time>2021-09-17T09:23:48.000Z</time>
      </trkpt>
      <trkpt lat="43.6545" lon="5.47305">
        <ele>188.106824</ele>
        <time>2021-09-17T09:23:54.000Z</time>
      </trkpt>
      <trkpt lat="43.65448" lon="5.47311">
        <ele>188.072761</ele>
        <time>2021-09-17T09:23:55.000Z</time>
      </trkpt>
      <trkpt lat="43.65437" lon="5.47341">
        <ele>187.897565</ele>
        <time>2021-09-17T09:24:00.000Z</time>
      </trkpt>
      <trkpt lat="43.65417" lon="5.47396">
        <ele>187.58946</ele>
        <time>2021-09-17T09:24:08.000Z</time>
      </trkpt>
      <trkpt lat="43.65396" lon="5.47452">
        <ele>187.286816</ele>
        <time>2021-09-17T09:24:16.000Z</time>
      </trkpt>
      <trkpt lat="43.65381" lon="5.47493">
        <ele>187.383155</ele>
        <time>2021-09-17T09:24:22.000Z</time>
      </trkpt>
      <trkpt lat="43.6537" lon="5.47522">
        <ele>187.448435</ele>
        <time>2021-09-17T09:24:26.000Z</time>
      </trkpt>
      <trkpt lat="43.65368" lon="5.47529">
        <ele>187.464926</ele>
        <time>2021-09-17T09:24:27.000Z</time>
      </trkpt>
      <trkpt lat="43.65354" lon="5.47565">
        <ele>187.549009</ele>
        <time>2021-09-17T09:24:32.000Z</time>
      </trkpt>
      <trkpt lat="43.65339" lon="5.47607">
        <ele>187.646402</ele>
        <time>2021-09-17T09:24:38.000Z</time>
      </trkpt>
      <trkpt lat="43.65321" lon="5.47656">
        <ele>187.761341</ele>
        <time>2021-09-17T09:24:45.000Z</time>
      </trkpt>
      <trkpt lat="43.65303" lon="5.47707">
        <ele>187.45737</ele>
        <time>2021-09-17T09:24:52.000Z</time>
      </trkpt>
      <trkpt lat="43.6529" lon="5.47742">
        <ele>187.123653</ele>
        <time>2021-09-17T09:24:57.000Z</time>
      </trkpt>
      <trkpt lat="43.65287" lon="5.47749">
        <ele>187.059358</ele>
        <time>2021-09-17T09:24:58.000Z</time>
      </trkpt>
      <trkpt lat="43.65282" lon="5.47762">
        <ele>186.934118</ele>
        <time>2021-09-17T09:25:00.000Z</time>
      </trkpt>
      <trkpt lat="43.6528" lon="5.47769">
        <ele>186.867766</ele>
        <time>2021-09-17T09:25:01.000Z</time>
      </trkpt>
      <trkpt lat="43.65277" lon="5.47775">
        <ele>186.804003</ele>
        <time>2021-09-17T09:25:02.000Z</time>
      </trkpt>
      <trkpt lat="43.6527" lon="5.47795">
        <ele>186.615229</ele>
        <time>2021-09-17T09:25:05.000Z</time>
      </trkpt>
      <trkpt lat="43.65258" lon="5.47828">
        <ele>186.297105</ele>
        <time>2021-09-17T09:25:10.000Z</time>
      </trkpt>
      <trkpt lat="43.65245" lon="5.47863">
        <ele>185.963386</ele>
        <time>2021-09-17T09:25:15.000Z</time>
      </trkpt>
      <trkpt lat="43.65243" lon="5.4787">
        <ele>185.898331</ele>
        <time>2021-09-17T09:25:16.000Z</time>
      </trkpt>
      <trkpt lat="43.65226" lon="5.47914">
        <ele>185.279092</ele>
        <time>2021-09-17T09:25:22.000Z</time>
      </trkpt>
      <trkpt lat="43.65211" lon="5.47956">
        <ele>184.498843</ele>
        <time>2021-09-17T09:25:28.000Z</time>
      </trkpt>
      <trkpt lat="43.65208" lon="5.47963">
        <ele>184.37574</ele>
        <time>2021-09-17T09:25:29.000Z</time>
      </trkpt>
      <trkpt lat="43.65198" lon="5.47992">
        <ele>183.832172</ele>
        <time>2021-09-17T09:25:33.000Z</time>
      </trkpt>
      <trkpt lat="43.65195" lon="5.47998">
        <ele>183.707577</ele>
        <time>2021-09-17T09:25:34.000Z</time>
      </trkpt>
      <trkpt lat="43.65187" lon="5.4802">
        <ele>183.310159</ele>
        <time>2021-09-17T09:25:37.000Z</time>
      </trkpt>
      <trkpt lat="43.65185" lon="5.48027">
        <ele>183.180061</ele>
        <time>2021-09-17T09:25:38.000Z</time>
      </trkpt>
      <trkpt lat="43.65174" lon="5.48056">
        <ele>182.622526</ele>
        <time>2021-09-17T09:25:42.000Z</time>
      </trkpt>
      <trkpt lat="43.65157" lon="5.481">
        <ele>181.800189</ele>
        <time>2021-09-17T09:25:48.000Z</time>
      </trkpt>
      <trkpt lat="43.65147" lon="5.4813">
        <ele>181.276515</ele>
        <time>2021-09-17T09:25:52.000Z</time>
      </trkpt>
      <trkpt lat="43.65144" lon="5.48137">
        <ele>181.153588</ele>
        <time>2021-09-17T09:25:53.000Z</time>
      </trkpt>
      <trkpt lat="43.65139" lon="5.48152">
        <ele>180.909978</ele>
        <time>2021-09-17T09:25:55.000Z</time>
      </trkpt>
      <trkpt lat="43.65131" lon="5.48174">
        <ele>180.548339</ele>
        <time>2021-09-17T09:25:58.000Z</time>
      </trkpt>
      <trkpt lat="43.65128" lon="5.48181">
        <ele>180.430307</ele>
        <time>2021-09-17T09:25:59.000Z</time>
      </trkpt>
      <trkpt lat="43.65123" lon="5.48196">
        <ele>180.185369</ele>
        <time>2021-09-17T09:26:01.000Z</time>
      </trkpt>
      <trkpt lat="43.65117" lon="5.48212">
        <ele>179.917681</ele>
        <time>2021-09-17T09:26:03.000Z</time>
      </trkpt>
      <trkpt lat="43.65106" lon="5.48241">
        <ele>179.431261</ele>
        <time>2021-09-17T09:26:07.000Z</time>
      </trkpt>
      <trkpt lat="43.65103" lon="5.48249">
        <ele>179.30476</ele>
        <time>2021-09-17T09:26:08.000Z</time>
      </trkpt>
      <trkpt lat="43.65096" lon="5.4827">
        <ele>178.953309</ele>
        <time>2021-09-17T09:26:11.000Z</time>
      </trkpt>
      <trkpt lat="43.6509" lon="5.48284">
        <ele>178.712736</ele>
        <time>2021-09-17T09:26:13.000Z</time>
      </trkpt>
      <trkpt lat="43.65075" lon="5.48325">
        <ele>178.034309</ele>
        <time>2021-09-17T09:26:18.000Z</time>
      </trkpt>
      <trkpt lat="43.65062" lon="5.48361">
        <ele>177.562102</ele>
        <time>2021-09-17T09:26:23.000Z</time>
      </trkpt>
      <trkpt lat="43.65047" lon="5.48399">
        <ele>177.124497</ele>
        <time>2021-09-17T09:26:28.000Z</time>
      </trkpt>
      <trkpt lat="43.65039" lon="5.48423">
        <ele>176.857065</ele>
        <time>2021-09-17T09:26:31.000Z</time>
      </trkpt>
      <trkpt lat="43.65033" lon="5.48438">
        <ele>176.682618</ele>
        <time>2021-09-17T09:26:33.000Z</time>
      </trkpt>
      <trkpt lat="43.65022" lon="5.48467">
        <ele>176.345738</ele>
        <time>2021-09-17T09:26:37.000Z</time>
      </trkpt>
      <trkpt lat="43.65012" lon="5.48495">
        <ele>176.025673</ele>
        <time>2021-09-17T09:26:41.000Z</time>
      </trkpt>
      <trkpt lat="43.65009" lon="5.48503">
        <ele>175.937862</ele>
        <time>2021-09-17T09:26:42.000Z</time>
      </trkpt>
      <trkpt lat="43.65001" lon="5.48525">
        <ele>175.683881</ele>
        <time>2021-09-17T09:26:45.000Z</time>
      </trkpt>
      <trkpt lat="43.64998" lon="5.48533">
        <ele>175.599433</ele>
        <time>2021-09-17T09:26:46.000Z</time>
      </trkpt>
      <trkpt lat="43.64988" lon="5.48561">
        <ele>175.31127</ele>
        <time>2021-09-17T09:26:50.000Z</time>
      </trkpt>
      <trkpt lat="43.64986" lon="5.48567">
        <ele>175.306997</ele>
        <time>2021-09-17T09:26:51.000Z</time>
      </trkpt>
      <trkpt lat="43.64975" lon="5.48595">
        <ele>175.286082</ele>
        <time>2021-09-17T09:26:55.000Z</time>
      </trkpt>
      <trkpt lat="43.64973" lon="5.48602">
        <ele>175.281015</ele>
        <time>2021-09-17T09:26:56.000Z</time>
      </trkpt>
      <trkpt lat="43.64968" lon="5.48616">
        <ele>175.270193</ele>
        <time>2021-09-17T09:26:58.000Z</time>
      </trkpt>
      <trkpt lat="43.64963" lon="5.4863">
        <ele>175.2602</ele>
        <time>2021-09-17T09:27:00.000Z</time>
      </trkpt>
      <trkpt lat="43.64944" lon="5.48679">
        <ele>175.223832</ele>
        <time>2021-09-17T09:27:06.000Z</time>
      </trkpt>
      <trkpt lat="43.64934" lon="5.48706">
        <ele>175.203846</ele>
        <time>2021-09-17T09:27:10.000Z</time>
      </trkpt>
      <trkpt lat="43.6492" lon="5.48746">
        <ele>175.17456</ele>
        <time>2021-09-17T09:27:16.000Z</time>
      </trkpt>
      <trkpt lat="43.64902" lon="5.48795">
        <ele>175.519846</ele>
        <time>2021-09-17T09:27:23.000Z</time>
      </trkpt>
      <trkpt lat="43.64889" lon="5.48828">
        <ele>176.304113</ele>
        <time>2021-09-17T09:27:29.000Z</time>
      </trkpt>
      <trkpt lat="43.6488" lon="5.48854">
        <ele>176.895021</ele>
        <time>2021-09-17T09:27:33.000Z</time>
      </trkpt>
      <trkpt lat="43.64869" lon="5.48883">
        <ele>177.575348</ele>
        <time>2021-09-17T09:27:38.000Z</time>
      </trkpt>
      <trkpt lat="43.64867" lon="5.48888">
        <ele>177.703642</ele>
        <time>2021-09-17T09:27:39.000Z</time>
      </trkpt>
      <trkpt lat="43.64863" lon="5.48899">
        <ele>177.963391</ele>
        <time>2021-09-17T09:27:41.000Z</time>
      </trkpt>
      <trkpt lat="43.64848" lon="5.48939">
        <ele>178.896047</ele>
        <time>2021-09-17T09:27:47.000Z</time>
      </trkpt>
      <trkpt lat="43.64836" lon="5.4897">
        <ele>179.634751</ele>
        <time>2021-09-17T09:27:53.000Z</time>
      </trkpt>
      <trkpt lat="43.64828" lon="5.48988">
        <ele>180.072367</ele>
        <time>2021-09-17T09:27:57.000Z</time>
      </trkpt>
      <trkpt lat="43.64823" lon="5.49002">
        <ele>180.404783</ele>
        <time>2021-09-17T09:28:00.000Z</time>
      </trkpt>
      <trkpt lat="43.64821" lon="5.49007">
        <ele>180.571773</ele>
        <time>2021-09-17T09:28:01.000Z</time>
      </trkpt>
      <trkpt lat="43.64809" lon="5.49036">
        <ele>181.434096</ele>
        <time>2021-09-17T09:28:06.000Z</time>
      </trkpt>
      <trkpt lat="43.64801" lon="5.49055">
        <ele>181.983537</ele>
        <time>2021-09-17T09:28:09.000Z</time>
      </trkpt>
      <trkpt lat="43.64794" lon="5.49072">
        <ele>182.505138</ele>
        <time>2021-09-17T09:28:12.000Z</time>
      </trkpt>
      <trkpt lat="43.64779" lon="5.49107">
        <ele>183.556869</ele>
        <time>2021-09-17T09:28:18.000Z</time>
      </trkpt>
      <trkpt lat="43.64772" lon="5.49124">
        <ele>184.071006</ele>
        <time>2021-09-17T09:28:21.000Z</time>
      </trkpt>
      <trkpt lat="43.64765" lon="5.49133">
        <ele>184.405727</ele>
        <time>2021-09-17T09:28:23.000Z</time>
      </trkpt>
      <trkpt lat="43.64754" lon="5.49143">
        <ele>184.873194</ele>
        <time>2021-09-17T09:28:26.000Z</time>
      </trkpt>
      <trkpt lat="43.64745" lon="5.49149">
        <ele>185.24647</ele>
        <time>2021-09-17T09:28:28.000Z</time>
      </trkpt>
      <trkpt lat="43.6474" lon="5.49161">
        <ele>185.604769</ele>
        <time>2021-09-17T09:28:30.000Z</time>
      </trkpt>
      <trkpt lat="43.64739" lon="5.49168">
        <ele>185.784723</ele>
        <time>2021-09-17T09:28:31.000Z</time>
      </trkpt>
      <trkpt lat="43.6474" lon="5.49188">
        <ele>186.320407</ele>
        <time>2021-09-17T09:28:34.000Z</time>
      </trkpt>
      <trkpt lat="43.64736" lon="5.49202">
        <ele>186.714491</ele>
        <time>2021-09-17T09:28:36.000Z</time>
      </trkpt>
      <trkpt lat="43.64729" lon="5.49216">
        <ele>186.996524</ele>
        <time>2021-09-17T09:28:38.000Z</time>
      </trkpt>
      <trkpt lat="43.64726" lon="5.4922">
        <ele>187.075441</ele>
        <time>2021-09-17T09:28:39.000Z</time>
      </trkpt>
      <trkpt lat="43.64715" lon="5.49235">
        <ele>187.42035</ele>
        <time>2021-09-17T09:28:42.000Z</time>
      </trkpt>
      <trkpt lat="43.64674" lon="5.49294">
        <ele>188.72405</ele>
        <time>2021-09-17T09:28:51.000Z</time>
      </trkpt>
      <trkpt lat="43.64649" lon="5.49328">
        <ele>189.488588</ele>
        <time>2021-09-17T09:28:57.000Z</time>
      </trkpt>
      <trkpt lat="43.64628" lon="5.49358">
        <ele>190.143101</ele>
        <time>2021-09-17T09:29:02.000Z</time>
      </trkpt>
      <trkpt lat="43.64603" lon="5.49392">
        <ele>190.867137</ele>
        <time>2021-09-17T09:29:08.000Z</time>
      </trkpt>
      <trkpt lat="43.646" lon="5.49397">
        <ele>190.956243</ele>
        <time>2021-09-17T09:29:09.000Z</time>
      </trkpt>
      <trkpt lat="43.64588" lon="5.49414">
        <ele>191.248484</ele>
        <time>2021-09-17T09:29:12.000Z</time>
      </trkpt>
      <trkpt lat="43.64572" lon="5.49437">
        <ele>191.649014</ele>
        <time>2021-09-17T09:29:16.000Z</time>
      </trkpt>
      <trkpt lat="43.64547" lon="5.49471">
        <ele>192.249683</ele>
        <time>2021-09-17T09:29:22.000Z</time>
      </trkpt>
      <trkpt lat="43.64543" lon="5.49477">
        <ele>192.348989</ele>
        <time>2021-09-17T09:29:23.000Z</time>
      </trkpt>
      <trkpt lat="43.64532" lon="5.49493">
        <ele>192.628412</ele>
        <time>2021-09-17T09:29:26.000Z</time>
      </trkpt>
      <trkpt lat="43.64529" lon="5.495">
        <ele>192.725705</ele>
        <time>2021-09-17T09:29:27.000Z</time>
      </trkpt>
      <trkpt lat="43.64512" lon="5.4954">
        <ele>193.319589</ele>
        <time>2021-09-17T09:29:33.000Z</time>
      </trkpt>
      <trkpt lat="43.64498" lon="5.49585">
        <ele>193.875744</ele>
        <time>2021-09-17T09:29:39.000Z</time>
      </trkpt>
      <trkpt lat="43.64486" lon="5.49631">
        <ele>194.209903</ele>
        <time>2021-09-17T09:29:45.000Z</time>
      </trkpt>
      <trkpt lat="43.64477" lon="5.49673">
        <ele>194.50895</ele>
        <time>2021-09-17T09:29:50.000Z</time>
      </trkpt>
      <trkpt lat="43.64475" lon="5.49691">
        <ele>194.634779</ele>
        <time>2021-09-17T09:29:52.000Z</time>
      </trkpt>
      <trkpt lat="43.64471" lon="5.49726">
        <ele>194.880265</ele>
        <time>2021-09-17T09:29:56.000Z</time>
      </trkpt>
      <trkpt lat="43.64466" lon="5.49767">
        <ele>195.169707</ele>
        <time>2021-09-17T09:30:01.000Z</time>
      </trkpt>
      <trkpt lat="43.64464" lon="5.49784">
        <ele>195.285517</ele>
        <time>2021-09-17T09:30:03.000Z</time>
      </trkpt>
      <trkpt lat="43.64462" lon="5.49801">
        <ele>195.406068</ele>
        <time>2021-09-17T09:30:05.000Z</time>
      </trkpt>
      <trkpt lat="43.64457" lon="5.49837">
        <ele>195.555281</ele>
        <time>2021-09-17T09:30:09.000Z</time>
      </trkpt>
      <trkpt lat="43.64451" lon="5.49882">
        <ele>195.627214</ele>
        <time>2021-09-17T09:30:14.000Z</time>
      </trkpt>
      <trkpt lat="43.64445" lon="5.49933">
        <ele>195.70894</ele>
        <time>2021-09-17T09:30:20.000Z</time>
      </trkpt>
      <trkpt lat="43.64441" lon="5.49967">
        <ele>195.764294</ele>
        <time>2021-09-17T09:30:24.000Z</time>
      </trkpt>
      <trkpt lat="43.6444" lon="5.49976">
        <ele>195.778299</ele>
        <time>2021-09-17T09:30:25.000Z</time>
      </trkpt>
      <trkpt lat="43.64438" lon="5.49991">
        <ele>195.803539</ele>
        <time>2021-09-17T09:30:27.000Z</time>
      </trkpt>
      <trkpt lat="43.64434" lon="5.50024">
        <ele>195.856007</ele>
        <time>2021-09-17T09:30:31.000Z</time>
      </trkpt>
      <trkpt lat="43.64433" lon="5.50033">
        <ele>195.870792</ele>
        <time>2021-09-17T09:30:32.000Z</time>
      </trkpt>
      <trkpt lat="43.64431" lon="5.5005">
        <ele>195.897826</ele>
        <time>2021-09-17T09:30:34.000Z</time>
      </trkpt>
      <trkpt lat="43.64429" lon="5.50058">
        <ele>195.911206</ele>
        <time>2021-09-17T09:30:35.000Z</time>
      </trkpt>
      <trkpt lat="43.64425" lon="5.50109">
        <ele>196.02663</ele>
        <time>2021-09-17T09:30:41.000Z</time>
      </trkpt>
      <trkpt lat="43.64422" lon="5.5015">
        <ele>196.123361</ele>
        <time>2021-09-17T09:30:46.000Z</time>
      </trkpt>
      <trkpt lat="43.64418" lon="5.502">
        <ele>196.24104</ele>
        <time>2021-09-17T09:30:52.000Z</time>
      </trkpt>
      <trkpt lat="43.64415" lon="5.50238">
        <ele>196.330954</ele>
        <time>2021-09-17T09:30:57.000Z</time>
      </trkpt>
      <trkpt lat="43.64412" lon="5.50277">
        <ele>196.4223</ele>
        <time>2021-09-17T09:31:02.000Z</time>
      </trkpt>
      <trkpt lat="43.64407" lon="5.50341">
        <ele>196.637078</ele>
        <time>2021-09-17T09:31:10.000Z</time>
      </trkpt>
      <trkpt lat="43.64406" lon="5.50349">
        <ele>196.669702</ele>
        <time>2021-09-17T09:31:11.000Z</time>
      </trkpt>
      <trkpt lat="43.64405" lon="5.50369">
        <ele>196.757358</ele>
        <time>2021-09-17T09:31:14.000Z</time>
      </trkpt>
      <trkpt lat="43.64401" lon="5.50413">
        <ele>196.955084</ele>
        <time>2021-09-17T09:31:20.000Z</time>
      </trkpt>
      <trkpt lat="43.64399" lon="5.5045">
        <ele>197.118009</ele>
        <time>2021-09-17T09:31:25.000Z</time>
      </trkpt>
      <trkpt lat="43.64398" lon="5.50457">
        <ele>197.148826</ele>
        <time>2021-09-17T09:31:26.000Z</time>
      </trkpt>
      <trkpt lat="43.64394" lon="5.5051">
        <ele>197.380046</ele>
        <time>2021-09-17T09:31:33.000Z</time>
      </trkpt>
      <trkpt lat="43.64393" lon="5.50533">
        <ele>197.479594</ele>
        <time>2021-09-17T09:31:36.000Z</time>
      </trkpt>
      <trkpt lat="43.6439" lon="5.50556">
        <ele>197.585226</ele>
        <time>2021-09-17T09:31:39.000Z</time>
      </trkpt>
      <trkpt lat="43.64384" lon="5.50606">
        <ele>197.574057</ele>
        <time>2021-09-17T09:31:45.000Z</time>
      </trkpt>
      <trkpt lat="43.64377" lon="5.50647">
        <ele>197.56082</ele>
        <time>2021-09-17T09:31:50.000Z</time>
      </trkpt>
      <trkpt lat="43.64376" lon="5.50655">
        <ele>197.558214</ele>
        <time>2021-09-17T09:31:51.000Z</time>
      </trkpt>
      <trkpt lat="43.6437" lon="5.50689">
        <ele>197.547192</ele>
        <time>2021-09-17T09:31:55.000Z</time>
      </trkpt>
      <trkpt lat="43.64368" lon="5.50704">
        <ele>197.54233</ele>
        <time>2021-09-17T09:31:57.000Z</time>
      </trkpt>
      <trkpt lat="43.6436" lon="5.50753">
        <ele>197.52623</ele>
        <time>2021-09-17T09:32:03.000Z</time>
      </trkpt>
      <trkpt lat="43.64353" lon="5.50795">
        <ele>197.512694</ele>
        <time>2021-09-17T09:32:08.000Z</time>
      </trkpt>
      <trkpt lat="43.64344" lon="5.50845">
        <ele>197.538282</ele>
        <time>2021-09-17T09:32:14.000Z</time>
      </trkpt>
      <trkpt lat="43.64341" lon="5.50869">
        <ele>197.553292</ele>
        <time>2021-09-17T09:32:17.000Z</time>
      </trkpt>
      <trkpt lat="43.6434" lon="5.50877">
        <ele>197.557968</ele>
        <time>2021-09-17T09:32:18.000Z</time>
      </trkpt>
      <trkpt lat="43.64337" lon="5.50915">
        <ele>197.581112</ele>
        <time>2021-09-17T09:32:23.000Z</time>
      </trkpt>
      <trkpt lat="43.64336" lon="5.50923">
        <ele>197.585836</ele>
        <time>2021-09-17T09:32:24.000Z</time>
      </trkpt>
      <trkpt lat="43.64331" lon="5.50974">
        <ele>197.616987</ele>
        <time>2021-09-17T09:32:30.000Z</time>
      </trkpt>
      <trkpt lat="43.64329" lon="5.50998">
        <ele>197.631587</ele>
        <time>2021-09-17T09:32:33.000Z</time>
      </trkpt>
      <trkpt lat="43.64327" lon="5.51014">
        <ele>197.640976</ele>
        <time>2021-09-17T09:32:35.000Z</time>
      </trkpt>
      <trkpt lat="43.64324" lon="5.51047">
        <ele>197.666289</ele>
        <time>2021-09-17T09:32:39.000Z</time>
      </trkpt>
      <trkpt lat="43.6432" lon="5.51099">
        <ele>197.922479</ele>
        <time>2021-09-17T09:32:45.000Z</time>
      </trkpt>
      <trkpt lat="43.64316" lon="5.5114">
        <ele>198.124386</ele>
        <time>2021-09-17T09:32:50.000Z</time>
      </trkpt>
      <trkpt lat="43.6431" lon="5.51217">
        <ele>198.504638</ele>
        <time>2021-09-17T09:32:59.000Z</time>
      </trkpt>
      <trkpt lat="43.64316" lon="5.51285">
        <ele>198.841202</ele>
        <time>2021-09-17T09:33:07.000Z</time>
      </trkpt>
      <trkpt lat="43.64325" lon="5.51359">
        <ele>199.244809</ele>
        <time>2021-09-17T09:33:16.000Z</time>
      </trkpt>
      <trkpt lat="43.64334" lon="5.51426">
        <ele>199.612929</ele>
        <time>2021-09-17T09:33:24.000Z</time>
      </trkpt>
      <trkpt lat="43.64342" lon="5.51484">
        <ele>199.935238</ele>
        <time>2021-09-17T09:33:31.000Z</time>
      </trkpt>
      <trkpt lat="43.64352" lon="5.51551">
        <ele>200.372049</ele>
        <time>2021-09-17T09:33:39.000Z</time>
      </trkpt>
      <trkpt lat="43.6436" lon="5.5161">
        <ele>200.955457</ele>
        <time>2021-09-17T09:33:46.000Z</time>
      </trkpt>
      <trkpt lat="43.6437" lon="5.51671">
        <ele>201.573701</ele>
        <time>2021-09-17T09:33:54.000Z</time>
      </trkpt>
      <trkpt lat="43.6438" lon="5.51727">
        <ele>202.150995</ele>
        <time>2021-09-17T09:34:02.000Z</time>
      </trkpt>
      <trkpt lat="43.64388" lon="5.51773">
        <ele>202.615781</ele>
        <time>2021-09-17T09:34:10.000Z</time>
      </trkpt>
      <trkpt lat="43.64394" lon="5.51805">
        <ele>203.248113</ele>
        <time>2021-09-17T09:34:17.000Z</time>
      </trkpt>
      <trkpt lat="43.64397" lon="5.51822">
        <ele>203.610875</ele>
        <time>2021-09-17T09:34:22.000Z</time>
      </trkpt>
      <trkpt lat="43.644" lon="5.51835">
        <ele>203.894764</ele>
        <time>2021-09-17T09:34:26.000Z</time>
      </trkpt>
      <trkpt lat="43.64406" lon="5.51867">
        <ele>204.599073</ele>
        <time>2021-09-17T09:34:33.000Z</time>
      </trkpt>
      <trkpt lat="43.64412" lon="5.519">
        <ele>205.311571</ele>
        <time>2021-09-17T09:34:40.000Z</time>
      </trkpt>
      <trkpt lat="43.64419" lon="5.51943">
        <ele>206.257115</ele>
        <time>2021-09-17T09:34:49.000Z</time>
      </trkpt>
      <trkpt lat="43.64423" lon="5.51982">
        <ele>207.083065</ele>
        <time>2021-09-17T09:34:57.000Z</time>
      </trkpt>
      <trkpt lat="43.64426" lon="5.5203">
        <ele>208.129561</ele>
        <time>2021-09-17T09:35:07.000Z</time>
      </trkpt>
      <trkpt lat="43.64425" lon="5.52069">
        <ele>209.107345</ele>
        <time>2021-09-17T09:35:15.000Z</time>
      </trkpt>
      <trkpt lat="43.64419" lon="5.52117">
        <ele>210.343445</ele>
        <time>2021-09-17T09:35:25.000Z</time>
      </trkpt>
      <trkpt lat="43.64409" lon="5.52159">
        <ele>211.461885</ele>
        <time>2021-09-17T09:35:34.000Z</time>
      </trkpt>
      <trkpt lat="43.64394" lon="5.52203">
        <ele>212.691242</ele>
        <time>2021-09-17T09:35:44.000Z</time>
      </trkpt>
      <trkpt lat="43.64375" lon="5.52245">
        <ele>213.92925</ele>
        <time>2021-09-17T09:35:54.000Z</time>
      </trkpt>
      <trkpt lat="43.64359" lon="5.52276">
        <ele>214.997812</ele>
        <time>2021-09-17T09:36:02.000Z</time>
      </trkpt>
      <trkpt lat="43.64338" lon="5.52305">
        <ele>216.1683</ele>
        <time>2021-09-17T09:36:11.000Z</time>
      </trkpt>
      <trkpt lat="43.64314" lon="5.52331">
        <ele>217.35601</ele>
        <time>2021-09-17T09:36:20.000Z</time>
      </trkpt>
      <trkpt lat="43.64292" lon="5.52352">
        <ele>218.409766</ele>
        <time>2021-09-17T09:36:28.000Z</time>
      </trkpt>
      <trkpt lat="43.64272" lon="5.52369">
        <ele>219.352698</ele>
        <time>2021-09-17T09:36:36.000Z</time>
      </trkpt>
      <trkpt lat="43.64251" lon="5.52386">
        <ele>220.296748</ele>
        <time>2021-09-17T09:36:44.000Z</time>
      </trkpt>
      <trkpt lat="43.64234" lon="5.524">
        <ele>221.083269</ele>
        <time>2021-09-17T09:36:51.000Z</time>
      </trkpt>
      <trkpt lat="43.64223" lon="5.5241">
        <ele>221.519417</ele>
        <time>2021-09-17T09:36:57.000Z</time>
      </trkpt>
      <trkpt lat="43.64207" lon="5.52424">
        <ele>221.998659</ele>
        <time>2021-09-17T09:37:05.000Z</time>
      </trkpt>
      <trkpt lat="43.64197" lon="5.52433">
        <ele>222.313895</ele>
        <time>2021-09-17T09:37:10.000Z</time>
      </trkpt>
      <trkpt lat="43.64182" lon="5.52445">
        <ele>222.767392</ele>
        <time>2021-09-17T09:37:15.000Z</time>
      </trkpt>
      <trkpt lat="43.64159" lon="5.52465">
        <ele>223.490219</ele>
        <time>2021-09-17T09:37:22.000Z</time>
      </trkpt>
      <trkpt lat="43.64131" lon="5.52489">
        <ele>224.334357</ele>
        <time>2021-09-17T09:37:30.000Z</time>
      </trkpt>
      <trkpt lat="43.64106" lon="5.52511">
        <ele>225.129789</ele>
        <time>2021-09-17T09:37:38.000Z</time>
      </trkpt>
      <trkpt lat="43.64083" lon="5.52531">
        <ele>225.821785</ele>
        <time>2021-09-17T09:37:45.000Z</time>
      </trkpt>
      <trkpt lat="43.64066" lon="5.52542">
        <ele>226.194928</ele>
        <time>2021-09-17T09:37:51.000Z</time>
      </trkpt>
      <trkpt lat="43.64047" lon="5.5254">
        <ele>226.50253</ele>
        <time>2021-09-17T09:37:58.000Z</time>
      </trkpt>
      <trkpt lat="43.64034" lon="5.52555">
        <ele>226.77759</ele>
        <time>2021-09-17T09:38:02.000Z</time>
      </trkpt>
      <trkpt lat="43.64033" lon="5.52568">
        <ele>226.921548</ele>
        <time>2021-09-17T09:38:04.000Z</time>
      </trkpt>
      <trkpt lat="43.64035" lon="5.52575">
        <ele>227.012321</ele>
        <time>2021-09-17T09:38:05.000Z</time>
      </trkpt>
      <trkpt lat="43.64038" lon="5.52579">
        <ele>227.08263</ele>
        <time>2021-09-17T09:38:06.000Z</time>
      </trkpt>
      <trkpt lat="43.64051" lon="5.52591">
        <ele>227.334326</ele>
        <time>2021-09-17T09:38:09.000Z</time>
      </trkpt>
      <trkpt lat="43.64058" lon="5.52602">
        <ele>227.49816</ele>
        <time>2021-09-17T09:38:11.000Z</time>
      </trkpt>
      <trkpt lat="43.64062" lon="5.52615">
        <ele>227.662475</ele>
        <time>2021-09-17T09:38:13.000Z</time>
      </trkpt>
      <trkpt lat="43.64071" lon="5.52663">
        <ele>228.232943</ele>
        <time>2021-09-17T09:38:21.000Z</time>
      </trkpt>
      <trkpt lat="43.64079" lon="5.52707">
        <ele>228.751008</ele>
        <time>2021-09-17T09:38:28.000Z</time>
      </trkpt>
      <trkpt lat="43.64087" lon="5.52747">
        <ele>228.766855</ele>
        <time>2021-09-17T09:38:35.000Z</time>
      </trkpt>
      <trkpt lat="43.64097" lon="5.52798">
        <ele>228.600513</ele>
        <time>2021-09-17T09:38:43.000Z</time>
      </trkpt>
      <trkpt lat="43.64106" lon="5.52847">
        <ele>228.437953</ele>
        <time>2021-09-17T09:38:50.000Z</time>
      </trkpt>
      <trkpt lat="43.64113" lon="5.5289">
        <ele>228.297274</ele>
        <time>2021-09-17T09:38:55.000Z</time>
      </trkpt>
      <trkpt lat="43.64122" lon="5.52939">
        <ele>228.135539</ele>
        <time>2021-09-17T09:39:00.000Z</time>
      </trkpt>
      <trkpt lat="43.64133" lon="5.53002">
        <ele>227.308165</ele>
        <time>2021-09-17T09:39:05.000Z</time>
      </trkpt>
      <trkpt lat="43.64149" lon="5.53085">
        <ele>225.873587</ele>
        <time>2021-09-17T09:39:11.000Z</time>
      </trkpt>
      <trkpt lat="43.64152" lon="5.53099">
        <ele>225.632997</ele>
        <time>2021-09-17T09:39:12.000Z</time>
      </trkpt>
      <trkpt lat="43.64164" lon="5.53167">
        <ele>224.467198</ele>
        <time>2021-09-17T09:39:17.000Z</time>
      </trkpt>
      <trkpt lat="43.64178" lon="5.53242">
        <ele>222.962964</ele>
        <time>2021-09-17T09:39:23.000Z</time>
      </trkpt>
      <trkpt lat="43.6418" lon="5.53255">
        <ele>222.694797</ele>
        <time>2021-09-17T09:39:24.000Z</time>
      </trkpt>
      <trkpt lat="43.64184" lon="5.53278">
        <ele>222.1756</ele>
        <time>2021-09-17T09:39:26.000Z</time>
      </trkpt>
      <trkpt lat="43.64186" lon="5.5329">
        <ele>221.918408</ele>
        <time>2021-09-17T09:39:27.000Z</time>
      </trkpt>
      <trkpt lat="43.64196" lon="5.53346">
        <ele>220.701003</ele>
        <time>2021-09-17T09:39:32.000Z</time>
      </trkpt>
      <trkpt lat="43.64198" lon="5.53356">
        <ele>220.491107</ele>
        <time>2021-09-17T09:39:33.000Z</time>
      </trkpt>
      <trkpt lat="43.64202" lon="5.53374">
        <ele>220.085068</ele>
        <time>2021-09-17T09:39:35.000Z</time>
      </trkpt>
      <trkpt lat="43.64205" lon="5.53392">
        <ele>219.705796</ele>
        <time>2021-09-17T09:39:37.000Z</time>
      </trkpt>
      <trkpt lat="43.64209" lon="5.53417">
        <ele>219.156232</ele>
        <time>2021-09-17T09:39:40.000Z</time>
      </trkpt>
      <trkpt lat="43.64209" lon="5.53442">
        <ele>218.628191</ele>
        <time>2021-09-17T09:39:43.000Z</time>
      </trkpt>
      <trkpt lat="43.64216" lon="5.53473">
        <ele>218.108259</ele>
        <time>2021-09-17T09:39:47.000Z</time>
      </trkpt>
      <trkpt lat="43.64229" lon="5.53528">
        <ele>217.17916</ele>
        <time>2021-09-17T09:39:54.000Z</time>
      </trkpt>
      <trkpt lat="43.64236" lon="5.53566">
        <ele>216.545252</ele>
        <time>2021-09-17T09:39:59.000Z</time>
      </trkpt>
      <trkpt lat="43.64245" lon="5.53611">
        <ele>215.781975</ele>
        <time>2021-09-17T09:40:05.000Z</time>
      </trkpt>
      <trkpt lat="43.64253" lon="5.53659">
        <ele>214.996684</ele>
        <time>2021-09-17T09:40:11.000Z</time>
      </trkpt>
      <trkpt lat="43.64262" lon="5.53705">
        <ele>214.348077</ele>
        <time>2021-09-17T09:40:17.000Z</time>
      </trkpt>
      <trkpt lat="43.6427" lon="5.53753">
        <ele>213.777912</ele>
        <time>2021-09-17T09:40:23.000Z</time>
      </trkpt>
      <trkpt lat="43.64276" lon="5.53784">
        <ele>213.412082</ele>
        <time>2021-09-17T09:40:27.000Z</time>
      </trkpt>
      <trkpt lat="43.64279" lon="5.538">
        <ele>213.234719</ele>
        <time>2021-09-17T09:40:29.000Z</time>
      </trkpt>
      <trkpt lat="43.64285" lon="5.53834">
        <ele>212.824176</ele>
        <time>2021-09-17T09:40:34.000Z</time>
      </trkpt>
      <trkpt lat="43.6429" lon="5.53861">
        <ele>212.512676</ele>
        <time>2021-09-17T09:40:38.000Z</time>
      </trkpt>
      <trkpt lat="43.64293" lon="5.53875">
        <ele>212.347861</ele>
        <time>2021-09-17T09:40:40.000Z</time>
      </trkpt>
      <trkpt lat="43.64299" lon="5.53909">
        <ele>211.951743</ele>
        <time>2021-09-17T09:40:45.000Z</time>
      </trkpt>
      <trkpt lat="43.64301" lon="5.53922">
        <ele>211.79426</ele>
        <time>2021-09-17T09:40:47.000Z</time>
      </trkpt>
      <trkpt lat="43.64302" lon="5.53929">
        <ele>211.726484</ele>
        <time>2021-09-17T09:40:48.000Z</time>
      </trkpt>
      <trkpt lat="43.64305" lon="5.53943">
        <ele>211.583709</ele>
        <time>2021-09-17T09:40:50.000Z</time>
      </trkpt>
      <trkpt lat="43.64307" lon="5.53958">
        <ele>211.440914</ele>
        <time>2021-09-17T09:40:52.000Z</time>
      </trkpt>
      <trkpt lat="43.64312" lon="5.54001">
        <ele>211.021314</ele>
        <time>2021-09-17T09:40:58.000Z</time>
      </trkpt>
      <trkpt lat="43.64313" lon="5.54049">
        <ele>210.551582</ele>
        <time>2021-09-17T09:41:05.000Z</time>
      </trkpt>
      <trkpt lat="43.64312" lon="5.54098">
        <ele>210.076873</ele>
        <time>2021-09-17T09:41:12.000Z</time>
      </trkpt>
      <trkpt lat="43.64311" lon="5.54119">
        <ele>209.871478</ele>
        <time>2021-09-17T09:41:15.000Z</time>
      </trkpt>
      <trkpt lat="43.64311" lon="5.54126">
        <ele>209.810473</ele>
        <time>2021-09-17T09:41:16.000Z</time>
      </trkpt>
      <trkpt lat="43.64311" lon="5.5416">
        <ele>209.480249</ele>
        <time>2021-09-17T09:41:21.000Z</time>
      </trkpt>
      <trkpt lat="43.64311" lon="5.5418">
        <ele>209.347485</ele>
        <time>2021-09-17T09:41:24.000Z</time>
      </trkpt>
      <trkpt lat="43.64311" lon="5.54195">
        <ele>209.28158</ele>
        <time>2021-09-17T09:41:26.000Z</time>
      </trkpt>
      <trkpt lat="43.6431" lon="5.54224">
        <ele>209.148865</ele>
        <time>2021-09-17T09:41:30.000Z</time>
      </trkpt>
      <trkpt lat="43.6431" lon="5.54271">
        <ele>208.939487</ele>
        <time>2021-09-17T09:41:36.000Z</time>
      </trkpt>
      <trkpt lat="43.6431" lon="5.54279">
        <ele>208.904961</ele>
        <time>2021-09-17T09:41:37.000Z</time>
      </trkpt>
      <trkpt lat="43.6431" lon="5.54317">
        <ele>208.730549</ele>
        <time>2021-09-17T09:41:42.000Z</time>
      </trkpt>
      <trkpt lat="43.6431" lon="5.54357">
        <ele>208.551662</ele>
        <time>2021-09-17T09:41:47.000Z</time>
      </trkpt>
      <trkpt lat="43.64316" lon="5.5443">
        <ele>208.347984</ele>
        <time>2021-09-17T09:41:55.000Z</time>
      </trkpt>
      <trkpt lat="43.64319" lon="5.54456">
        <ele>208.457613</ele>
        <time>2021-09-17T09:41:58.000Z</time>
      </trkpt>
      <trkpt lat="43.6432" lon="5.54466">
        <ele>208.498735</ele>
        <time>2021-09-17T09:41:59.000Z</time>
      </trkpt>
      <trkpt lat="43.64321" lon="5.54475">
        <ele>208.534926</ele>
        <time>2021-09-17T09:42:00.000Z</time>
      </trkpt>
      <trkpt lat="43.64323" lon="5.54491">
        <ele>208.60294</ele>
        <time>2021-09-17T09:42:02.000Z</time>
      </trkpt>
      <trkpt lat="43.64328" lon="5.54538">
        <ele>208.799088</ele>
        <time>2021-09-17T09:42:07.000Z</time>
      </trkpt>
      <trkpt lat="43.64336" lon="5.54613">
        <ele>209.11317</ele>
        <time>2021-09-17T09:42:14.000Z</time>
      </trkpt>
      <trkpt lat="43.64341" lon="5.54661">
        <ele>209.317623</ele>
        <time>2021-09-17T09:42:19.000Z</time>
      </trkpt>
      <trkpt lat="43.64346" lon="5.5471">
        <ele>209.600986</ele>
        <time>2021-09-17T09:42:24.000Z</time>
      </trkpt>
      <trkpt lat="43.64353" lon="5.54777">
        <ele>209.991918</ele>
        <time>2021-09-17T09:42:31.000Z</time>
      </trkpt>
      <trkpt lat="43.64358" lon="5.54825">
        <ele>210.272703</ele>
        <time>2021-09-17T09:42:36.000Z</time>
      </trkpt>
      <trkpt lat="43.64363" lon="5.54872">
        <ele>210.544813</ele>
        <time>2021-09-17T09:42:41.000Z</time>
      </trkpt>
      <trkpt lat="43.64368" lon="5.54918">
        <ele>210.803002</ele>
        <time>2021-09-17T09:42:46.000Z</time>
      </trkpt>
      <trkpt lat="43.64369" lon="5.54928">
        <ele>210.847844</ele>
        <time>2021-09-17T09:42:47.000Z</time>
      </trkpt>
      <trkpt lat="43.64372" lon="5.54956">
        <ele>210.979503</ele>
        <time>2021-09-17T09:42:50.000Z</time>
      </trkpt>
      <trkpt lat="43.64377" lon="5.55004">
        <ele>211.206486</ele>
        <time>2021-09-17T09:42:55.000Z</time>
      </trkpt>
      <trkpt lat="43.64384" lon="5.55071">
        <ele>211.524169</ele>
        <time>2021-09-17T09:43:02.000Z</time>
      </trkpt>
      <trkpt lat="43.64389" lon="5.5512">
        <ele>211.755867</ele>
        <time>2021-09-17T09:43:07.000Z</time>
      </trkpt>
      <trkpt lat="43.64395" lon="5.55178">
        <ele>211.965734</ele>
        <time>2021-09-17T09:43:13.000Z</time>
      </trkpt>
      <trkpt lat="43.644" lon="5.55224">
        <ele>212.065561</ele>
        <time>2021-09-17T09:43:18.000Z</time>
      </trkpt>
      <trkpt lat="43.64405" lon="5.55279">
        <ele>212.18554</ele>
        <time>2021-09-17T09:43:24.000Z</time>
      </trkpt>
      <trkpt lat="43.6441" lon="5.55325">
        <ele>212.28473</ele>
        <time>2021-09-17T09:43:29.000Z</time>
      </trkpt>
      <trkpt lat="43.64416" lon="5.55378">
        <ele>212.400169</ele>
        <time>2021-09-17T09:43:35.000Z</time>
      </trkpt>
      <trkpt lat="43.6442" lon="5.5542">
        <ele>212.454495</ele>
        <time>2021-09-17T09:43:40.000Z</time>
      </trkpt>
      <trkpt lat="43.64428" lon="5.55494">
        <ele>212.481863</ele>
        <time>2021-09-17T09:43:48.000Z</time>
      </trkpt>
      <trkpt lat="43.64432" lon="5.5553">
        <ele>212.494904</ele>
        <time>2021-09-17T09:43:52.000Z</time>
      </trkpt>
      <trkpt lat="43.64432" lon="5.55538">
        <ele>212.498</ele>
        <time>2021-09-17T09:43:53.000Z</time>
      </trkpt>
      <trkpt lat="43.64437" lon="5.55582">
        <ele>212.51421</ele>
        <time>2021-09-17T09:43:58.000Z</time>
      </trkpt>
      <trkpt lat="43.64442" lon="5.55627">
        <ele>212.530788</ele>
        <time>2021-09-17T09:44:03.000Z</time>
      </trkpt>
      <trkpt lat="43.64449" lon="5.55699">
        <ele>212.565796</ele>
        <time>2021-09-17T09:44:11.000Z</time>
      </trkpt>
      <trkpt lat="43.64456" lon="5.55758">
        <ele>212.597103</ele>
        <time>2021-09-17T09:44:18.000Z</time>
      </trkpt>
      <trkpt lat="43.64461" lon="5.55807">
        <ele>212.623023</ele>
        <time>2021-09-17T09:44:24.000Z</time>
      </trkpt>
      <trkpt lat="43.64466" lon="5.55856">
        <ele>212.648735</ele>
        <time>2021-09-17T09:44:30.000Z</time>
      </trkpt>
      <trkpt lat="43.64471" lon="5.55906">
        <ele>212.689269</ele>
        <time>2021-09-17T09:44:36.000Z</time>
      </trkpt>
      <trkpt lat="43.64476" lon="5.55957">
        <ele>212.767226</ele>
        <time>2021-09-17T09:44:42.000Z</time>
      </trkpt>
      <trkpt lat="43.64481" lon="5.56002">
        <ele>212.834983</ele>
        <time>2021-09-17T09:44:47.000Z</time>
      </trkpt>
      <trkpt lat="43.64485" lon="5.56036">
        <ele>212.887381</ele>
        <time>2021-09-17T09:44:51.000Z</time>
      </trkpt>
      <trkpt lat="43.64486" lon="5.56046">
        <ele>212.901696</ele>
        <time>2021-09-17T09:44:52.000Z</time>
      </trkpt>
      <trkpt lat="43.64488" lon="5.56071">
        <ele>212.941121</ele>
        <time>2021-09-17T09:44:55.000Z</time>
      </trkpt>
      <trkpt lat="43.64493" lon="5.56117">
        <ele>213.011026</ele>
        <time>2021-09-17T09:45:00.000Z</time>
      </trkpt>
      <trkpt lat="43.64497" lon="5.56155">
        <ele>213.088335</ele>
        <time>2021-09-17T09:45:04.000Z</time>
      </trkpt>
      <trkpt lat="43.64503" lon="5.56211">
        <ele>213.242843</ele>
        <time>2021-09-17T09:45:10.000Z</time>
      </trkpt>
      <trkpt lat="43.64508" lon="5.56257">
        <ele>213.368541</ele>
        <time>2021-09-17T09:45:15.000Z</time>
      </trkpt>
      <trkpt lat="43.64512" lon="5.5629">
        <ele>213.458403</ele>
        <time>2021-09-17T09:45:19.000Z</time>
      </trkpt>
      <trkpt lat="43.64518" lon="5.56355">
        <ele>213.636731</ele>
        <time>2021-09-17T09:45:26.000Z</time>
      </trkpt>
      <trkpt lat="43.64525" lon="5.56418">
        <ele>213.724776</ele>
        <time>2021-09-17T09:45:33.000Z</time>
      </trkpt>
      <trkpt lat="43.64527" lon="5.56435">
        <ele>213.729207</ele>
        <time>2021-09-17T09:45:35.000Z</time>
      </trkpt>
      <trkpt lat="43.6453" lon="5.5646">
        <ele>213.735731</ele>
        <time>2021-09-17T09:45:38.000Z</time>
      </trkpt>
      <trkpt lat="43.64535" lon="5.5651">
        <ele>213.748786</ele>
        <time>2021-09-17T09:45:44.000Z</time>
      </trkpt>
      <trkpt lat="43.64542" lon="5.56576">
        <ele>213.766138</ele>
        <time>2021-09-17T09:45:52.000Z</time>
      </trkpt>
      <trkpt lat="43.64546" lon="5.56617">
        <ele>213.777068</ele>
        <time>2021-09-17T09:45:57.000Z</time>
      </trkpt>
      <trkpt lat="43.64548" lon="5.56633">
        <ele>213.770659</ele>
        <time>2021-09-17T09:45:59.000Z</time>
      </trkpt>
      <trkpt lat="43.64553" lon="5.56683">
        <ele>213.6409</ele>
        <time>2021-09-17T09:46:05.000Z</time>
      </trkpt>
      <trkpt lat="43.64558" lon="5.56725">
        <ele>213.532733</ele>
        <time>2021-09-17T09:46:10.000Z</time>
      </trkpt>
      <trkpt lat="43.64564" lon="5.56784">
        <ele>213.379345</ele>
        <time>2021-09-17T09:46:17.000Z</time>
      </trkpt>
      <trkpt lat="43.64569" lon="5.56835">
        <ele>213.246173</ele>
        <time>2021-09-17T09:46:23.000Z</time>
      </trkpt>
      <trkpt lat="43.64571" lon="5.56852">
        <ele>213.203294</ele>
        <time>2021-09-17T09:46:25.000Z</time>
      </trkpt>
      <trkpt lat="43.64575" lon="5.56886">
        <ele>213.149388</ele>
        <time>2021-09-17T09:46:29.000Z</time>
      </trkpt>
      <trkpt lat="43.64581" lon="5.56946">
        <ele>213.197999</ele>
        <time>2021-09-17T09:46:36.000Z</time>
      </trkpt>
      <trkpt lat="43.64588" lon="5.57007">
        <ele>213.247355</ele>
        <time>2021-09-17T09:46:43.000Z</time>
      </trkpt>
      <trkpt lat="43.64594" lon="5.57064">
        <ele>213.2931</ele>
        <time>2021-09-17T09:46:49.000Z</time>
      </trkpt>
      <trkpt lat="43.646" lon="5.5712">
        <ele>213.338324</ele>
        <time>2021-09-17T09:46:55.000Z</time>
      </trkpt>
      <trkpt lat="43.64608" lon="5.57186">
        <ele>213.336243</ele>
        <time>2021-09-17T09:47:02.000Z</time>
      </trkpt>
      <trkpt lat="43.6461" lon="5.57242">
        <ele>213.333222</ele>
        <time>2021-09-17T09:47:08.000Z</time>
      </trkpt>
      <trkpt lat="43.64608" lon="5.57296">
        <ele>213.33031</ele>
        <time>2021-09-17T09:47:14.000Z</time>
      </trkpt>
      <trkpt lat="43.64609" lon="5.57311">
        <ele>213.329466</ele>
        <time>2021-09-17T09:47:16.000Z</time>
      </trkpt>
      <trkpt lat="43.64608" lon="5.57326">
        <ele>213.328675</ele>
        <time>2021-09-17T09:47:18.000Z</time>
      </trkpt>
      <trkpt lat="43.64608" lon="5.57334">
        <ele>213.328212</ele>
        <time>2021-09-17T09:47:19.000Z</time>
      </trkpt>
      <trkpt lat="43.64609" lon="5.57341">
        <ele>213.327843</ele>
        <time>2021-09-17T09:47:20.000Z</time>
      </trkpt>
      <trkpt lat="43.64617" lon="5.57351">
        <ele>213.327027</ele>
        <time>2021-09-17T09:47:22.000Z</time>
      </trkpt>
      <trkpt lat="43.64627" lon="5.57356">
        <ele>213.324028</ele>
        <time>2021-09-17T09:47:24.000Z</time>
      </trkpt>
      <trkpt lat="43.64631" lon="5.57356">
        <ele>213.315638</ele>
        <time>2021-09-17T09:47:25.000Z</time>
      </trkpt>
      <trkpt lat="43.64636" lon="5.57354">
        <ele>213.30692</ele>
        <time>2021-09-17T09:47:26.000Z</time>
      </trkpt>
      <trkpt lat="43.64644" lon="5.57346">
        <ele>213.289542</ele>
        <time>2021-09-17T09:47:28.000Z</time>
      </trkpt>
      <trkpt lat="43.64648" lon="5.57335">
        <ele>213.272637</ele>
        <time>2021-09-17T09:47:30.000Z</time>
      </trkpt>
      <trkpt lat="43.64648" lon="5.57329">
        <ele>213.263986</ele>
        <time>2021-09-17T09:47:31.000Z</time>
      </trkpt>
      <trkpt lat="43.64648" lon="5.57322">
        <ele>213.254911</ele>
        <time>2021-09-17T09:47:32.000Z</time>
      </trkpt>
      <trkpt lat="43.64643" lon="5.57309">
        <ele>213.235712</ele>
        <time>2021-09-17T09:47:34.000Z</time>
      </trkpt>
      <trkpt lat="43.64639" lon="5.57304">
        <ele>213.225126</ele>
        <time>2021-09-17T09:47:35.000Z</time>
      </trkpt>
      <trkpt lat="43.64634" lon="5.573">
        <ele>213.215644</ele>
        <time>2021-09-17T09:47:36.000Z</time>
      </trkpt>
      <trkpt lat="43.64624" lon="5.573">
        <ele>213.195816</ele>
        <time>2021-09-17T09:47:38.000Z</time>
      </trkpt>
      <trkpt lat="43.64615" lon="5.57306">
        <ele>213.177361</ele>
        <time>2021-09-17T09:47:40.000Z</time>
      </trkpt>
      <trkpt lat="43.64609" lon="5.57318">
        <ele>213.158331</ele>
        <time>2021-09-17T09:47:42.000Z</time>
      </trkpt>
      <trkpt lat="43.64608" lon="5.57331">
        <ele>213.139915</ele>
        <time>2021-09-17T09:47:44.000Z</time>
      </trkpt>
      <trkpt lat="43.6461" lon="5.57345">
        <ele>213.120797</ele>
        <time>2021-09-17T09:47:46.000Z</time>
      </trkpt>
      <trkpt lat="43.64611" lon="5.57352">
        <ele>213.111134</ele>
        <time>2021-09-17T09:47:47.000Z</time>
      </trkpt>
      <trkpt lat="43.64611" lon="5.57367">
        <ele>213.090887</ele>
        <time>2021-09-17T09:47:49.000Z</time>
      </trkpt>
      <trkpt lat="43.6461" lon="5.57374">
        <ele>213.081304</ele>
        <time>2021-09-17T09:47:50.000Z</time>
      </trkpt>
      <trkpt lat="43.64609" lon="5.57381">
        <ele>213.071671</ele>
        <time>2021-09-17T09:47:51.000Z</time>
      </trkpt>
      <trkpt lat="43.64606" lon="5.57402">
        <ele>213.043866</ele>
        <time>2021-09-17T09:47:54.000Z</time>
      </trkpt>
      <trkpt lat="43.64597" lon="5.57412">
        <ele>213.021643</ele>
        <time>2021-09-17T09:47:56.000Z</time>
      </trkpt>
      <trkpt lat="43.64592" lon="5.57438">
        <ele>212.993137</ele>
        <time>2021-09-17T09:48:00.000Z</time>
      </trkpt>
      <trkpt lat="43.64586" lon="5.5747">
        <ele>212.993137</ele>
        <time>2021-09-17T09:48:05.000Z</time>
      </trkpt>
      <trkpt lat="43.64585" lon="5.57475">
        <ele>212.993137</ele>
        <time>2021-09-17T09:48:06.000Z</time>
      </trkpt>
      <trkpt lat="43.64583" lon="5.57482">
        <ele>212.993137</ele>
        <time>2021-09-17T09:48:07.000Z</time>
      </trkpt>
      <trkpt lat="43.6458" lon="5.57503">
        <ele>212.993137</ele>
        <time>2021-09-17T09:48:10.000Z</time>
      </trkpt>
      <trkpt lat="43.64576" lon="5.57541">
        <ele>212.993137</ele>
        <time>2021-09-17T09:48:16.000Z</time>
      </trkpt>
      <trkpt lat="43.64576" lon="5.57546">
        <ele>212.993137</ele>
        <time>2021-09-17T09:48:17.000Z</time>
      </trkpt>
      <trkpt lat="43.64574" lon="5.57569">
        <ele>212.993137</ele>
        <time>2021-09-17T09:48:21.000Z</time>
      </trkpt>
      <trkpt lat="43.6457" lon="5.57605">
        <ele>212.993137</ele>
        <time>2021-09-17T09:48:28.000Z</time>
      </trkpt>
      <trkpt lat="43.64566" lon="5.57627">
        <ele>212.993137</ele>
        <time>2021-09-17T09:48:33.000Z</time>
      </trkpt>
      <trkpt lat="43.64557" lon="5.57632">
        <ele>212.993137</ele>
        <time>2021-09-17T09:48:36.000Z</time>
      </trkpt>
      <trkpt lat="43.64555" lon="5.57633">
        <ele>212.993137</ele>
        <time>2021-09-17T09:48:37.000Z</time>
      </trkpt>
      <trkpt lat="43.64559" lon="5.57645">
        <ele>212.993137</ele>
        <time>2021-09-17T09:48:41.000Z</time>
      </trkpt>
      <trkpt lat="43.6456" lon="5.57646">
        <ele>212.993137</ele>
        <time>2021-09-17T09:48:43.000Z</time>
      </trkpt>
    </trkseg>
  </trk>
</gpx>